Wetterdaten: Dienstag, 17.04.2018
Datum Zeit Temp. A. Pool Temp. Feuchte A. Luftdruck Regen Wind Richtung Richtung Sonnenschein ET UV Solar Taupunkt Windchill Windben Empfang
17.04.2018 00:00 12,0 C 11,7 C 91 % 1018,0 hPa 0,0 l/m 12,2 km/h (2 Bft) W-SW 255 0 min 0,000 mm 0,0 UV-I 0 W/m 10,6 C 8,7 C 16,1 km/h (3 Bft) 91,67 %
17.04.2018 00:02 12,0 C 11,7 C 91 % 1018,0 hPa 0,0 l/m 10,1 km/h (2 Bft) W-SW 250 0 min 0,000 mm 0,0 UV-I 0 W/m 10,6 C 9,8 C 14,5 km/h (3 Bft) 93,18 %
17.04.2018 00:03 12,0 C 11,7 C 91 % 1018,0 hPa 0,0 l/m 9,4 km/h (2 Bft) SW 232 0 min 0,000 mm 0,0 UV-I 0 W/m 10,6 C 10,1 C 14,5 km/h (3 Bft) 95,65 %
17.04.2018 00:04 11,9 C 11,7 C 91 % 1018,0 hPa 0,0 l/m 10,3 km/h (2 Bft) W 263 0 min 0,000 mm 0,0 UV-I 0 W/m 10,5 C 9,5 C 14,5 km/h (3 Bft) 93,33 %
17.04.2018 00:05 11,9 C 11,7 C 91 % 1018,0 hPa 0,0 l/m 10,5 km/h (2 Bft) W 275 0 min 0,000 mm 0,0 UV-I 0 W/m 10,5 C 9,4 C 16,1 km/h (3 Bft) 100,00 %
17.04.2018 00:06 11,9 C 11,7 C 91 % 1018,1 hPa 0,0 l/m 6,3 km/h (2 Bft) SW 236 0 min 0,000 mm 0,0 UV-I 0 W/m 10,5 C 11,9 C 9,7 km/h (2 Bft) 95,65 %
17.04.2018 00:07 11,9 C 11,7 C 91 % 1018,1 hPa 0,0 l/m 10,5 km/h (2 Bft) W 260 0 min 0,000 mm 0,0 UV-I 0 W/m 10,5 C 9,4 C 14,5 km/h (3 Bft) 100,00 %
17.04.2018 00:08 11,9 C 11,7 C 91 % 1018,0 hPa 0,0 l/m 10,6 km/h (2 Bft) W-SW 258 0 min 0,000 mm 0,0 UV-I 0 W/m 10,5 C 9,4 C 14,5 km/h (3 Bft) 95,65 %
17.04.2018 00:09 11,9 C 11,7 C 91 % 1018,0 hPa 0,0 l/m 9,3 km/h (2 Bft) W 259 0 min 0,000 mm 0,0 UV-I 0 W/m 10,5 C 10,1 C 12,9 km/h (3 Bft) 100,00 %
17.04.2018 00:10 11,9 C 11,7 C 91 % 1018,0 hPa 0,0 l/m 10,3 km/h (2 Bft) W-SW 241 0 min 0,000 mm 0,0 UV-I 0 W/m 10,5 C 9,5 C 12,9 km/h (3 Bft) 96,15 %
17.04.2018 00:11 11,9 C 11,7 C 91 % 1018,1 hPa 0,0 l/m 8,2 km/h (2 Bft) W 260 0 min 0,000 mm 0,0 UV-I 0 W/m 10,5 C 10,7 C 12,9 km/h (3 Bft) 95,83 %
17.04.2018 00:12 11,9 C 11,7 C 91 % 1018,1 hPa 0,0 l/m 10,3 km/h (2 Bft) W 259 0 min 0,000 mm 0,0 UV-I 0 W/m 10,5 C 9,5 C 12,9 km/h (3 Bft) 100,00 %
17.04.2018 00:13 11,9 C 11,7 C 91 % 1018,1 hPa 0,0 l/m 10,0 km/h (2 Bft) W-SW 244 0 min 0,000 mm 0,0 UV-I 0 W/m 10,5 C 9,7 C 16,1 km/h (3 Bft) 100,00 %
17.04.2018 00:14 12,0 C 11,7 C 91 % 1018,1 hPa 0,0 l/m 10,8 km/h (2 Bft) W 260 0 min 0,000 mm 0,0 UV-I 0 W/m 10,6 C 9,4 C 12,9 km/h (3 Bft) 100,00 %
17.04.2018 00:15 12,0 C 11,7 C 91 % 1018,2 hPa 0,0 l/m 8,7 km/h (2 Bft) W 259 0 min 0,000 mm 0,0 UV-I 0 W/m 10,6 C 10,5 C 12,9 km/h (3 Bft) 100,00 %
17.04.2018 00:16 12,0 C 11,7 C 91 % 1018,2 hPa 0,0 l/m 8,6 km/h (2 Bft) W 261 0 min 0,000 mm 0,0 UV-I 0 W/m 10,6 C 10,6 C 11,3 km/h (2 Bft) 100,00 %
17.04.2018 00:17 12,1 C 11,7 C 91 % 1018,3 hPa 0,0 l/m 7,2 km/h (2 Bft) W 265 0 min 0,000 mm 0,0 UV-I 0 W/m 10,7 C 11,6 C 9,7 km/h (2 Bft) 100,00 %
17.04.2018 00:18 12,0 C 11,7 C 91 % 1018,3 hPa 0,0 l/m 7,0 km/h (2 Bft) W 262 0 min 0,000 mm 0,0 UV-I 0 W/m 10,6 C 11,6 C 9,7 km/h (2 Bft) 100,00 %
17.04.2018 00:19 12,1 C 11,7 C 91 % 1018,3 hPa 0,0 l/m 5,3 km/h (1 Bft) W 273 0 min 0,000 mm 0,0 UV-I 0 W/m 10,7 C 12,1 C 9,7 km/h (2 Bft) 100,00 %
17.04.2018 00:20 12,1 C 11,7 C 91 % 1018,3 hPa 0,0 l/m 7,7 km/h (2 Bft) W 278 0 min 0,000 mm 0,0 UV-I 0 W/m 10,7 C 11,2 C 9,7 km/h (2 Bft) 100,00 %
17.04.2018 00:21 12,1 C 11,7 C 91 % 1018,3 hPa 0,0 l/m 6,1 km/h (2 Bft) W 272 0 min 0,000 mm 0,0 UV-I 0 W/m 10,7 C 12,1 C 9,7 km/h (2 Bft) 95,83 %
17.04.2018 00:22 12,1 C 11,7 C 91 % 1018,3 hPa 0,0 l/m 5,1 km/h (1 Bft) W 266 0 min 0,000 mm 0,0 UV-I 0 W/m 10,7 C 12,1 C 6,4 km/h (2 Bft) 95,83 %
17.04.2018 00:23 12,1 C 11,7 C 91 % 1018,3 hPa 0,0 l/m 8,0 km/h (2 Bft) W 269 0 min 0,000 mm 0,0 UV-I 0 W/m 10,7 C 11,1 C 11,3 km/h (2 Bft) 100,00 %
17.04.2018 00:24 12,1 C 11,7 C 91 % 1018,3 hPa 0,0 l/m 7,1 km/h (2 Bft) W 279 0 min 0,000 mm 0,0 UV-I 0 W/m 10,7 C 11,6 C 9,7 km/h (2 Bft) 100,00 %
17.04.2018 00:25 12,1 C 11,7 C 91 % 1018,4 hPa 0,0 l/m 5,8 km/h (2 Bft) W 267 0 min 0,000 mm 0,0 UV-I 0 W/m 10,7 C 12,1 C 6,4 km/h (2 Bft) 95,65 %
17.04.2018 00:26 12,1 C 11,7 C 91 % 1018,4 hPa 0,0 l/m 5,4 km/h (1 Bft) W 267 0 min 0,000 mm 0,0 UV-I 0 W/m 10,7 C 12,1 C 6,4 km/h (2 Bft) 100,00 %
17.04.2018 00:27 12,1 C 11,7 C 91 % 1018,4 hPa 0,0 l/m 4,9 km/h (1 Bft) W 267 0 min 0,000 mm 0,0 UV-I 0 W/m 10,7 C 12,1 C 6,4 km/h (2 Bft) 100,00 %
17.04.2018 00:28 12,1 C 11,7 C 91 % 1018,4 hPa 0,0 l/m 5,0 km/h (1 Bft) W-NW 284 0 min 0,000 mm 0,0 UV-I 0 W/m 10,7 C 12,1 C 6,4 km/h (2 Bft) 100,00 %
17.04.2018 00:29 12,1 C 11,7 C 91 % 1018,4 hPa 0,0 l/m 5,1 km/h (1 Bft) W 273 0 min 0,000 mm 0,0 UV-I 0 W/m 10,7 C 12,1 C 9,7 km/h (2 Bft) 100,00 %
17.04.2018 00:30 12,1 C 11,7 C 91 % 1018,4 hPa 0,0 l/m 6,9 km/h (2 Bft) W 267 0 min 0,000 mm 0,0 UV-I 0 W/m 10,7 C 11,8 C 9,7 km/h (2 Bft) 100,00 %
17.04.2018 00:31 12,1 C 11,7 C 91 % 1018,4 hPa 0,0 l/m 6,3 km/h (2 Bft) W 263 0 min 0,000 mm 0,0 UV-I 0 W/m 10,7 C 12,1 C 9,7 km/h (2 Bft) 100,00 %
17.04.2018 00:32 12,0 C 11,7 C 91 % 1018,4 hPa 0,0 l/m 5,5 km/h (1 Bft) W-SW 255 0 min 0,000 mm 0,0 UV-I 0 W/m 10,6 C 12,0 C 6,4 km/h (2 Bft) 100,00 %
17.04.2018 00:33 12,0 C 11,7 C 91 % 1018,5 hPa 0,0 l/m 5,3 km/h (1 Bft) W-SW 255 0 min 0,000 mm 0,0 UV-I 0 W/m 10,6 C 12,0 C 6,4 km/h (2 Bft) 95,83 %
17.04.2018 00:34 12,0 C 11,7 C 91 % 1018,5 hPa 0,0 l/m 4,0 km/h (1 Bft) W-SW 253 0 min 0,000 mm 0,0 UV-I 0 W/m 10,6 C 12,0 C 6,4 km/h (2 Bft) 100,00 %
17.04.2018 00:35 12,0 C 11,7 C 91 % 1018,5 hPa 0,0 l/m 4,6 km/h (1 Bft) W-SW 252 0 min 0,000 mm 0,0 UV-I 0 W/m 10,6 C 12,0 C 6,4 km/h (2 Bft) 100,00 %
17.04.2018 00:36 12,0 C 11,7 C 91 % 1018,5 hPa 0,0 l/m 4,6 km/h (1 Bft) W-SW 241 0 min 0,000 mm 0,0 UV-I 0 W/m 10,6 C 12,0 C 6,4 km/h (2 Bft) 100,00 %
17.04.2018 00:37 12,0 C 11,7 C 91 % 1018,5 hPa 0,0 l/m 4,7 km/h (1 Bft) W-SW 241 0 min 0,000 mm 0,0 UV-I 0 W/m 10,6 C 12,0 C 6,4 km/h (2 Bft) 100,00 %
17.04.2018 00:38 11,9 C 11,7 C 91 % 1018,6 hPa 0,0 l/m 4,9 km/h (1 Bft) W-SW 240 0 min 0,000 mm 0,0 UV-I 0 W/m 10,5 C 11,9 C 6,4 km/h (2 Bft) 100,00 %
17.04.2018 00:39 11,9 C 11,7 C 91 % 1018,6 hPa 0,0 l/m 4,4 km/h (1 Bft) W-SW 240 0 min 0,000 mm 0,0 UV-I 0 W/m 10,5 C 11,9 C 6,4 km/h (2 Bft) 100,00 %
17.04.2018 00:40 11,9 C 11,7 C 91 % 1018,5 hPa 0,0 l/m 3,7 km/h (1 Bft) W-SW 240 0 min 0,000 mm 0,0 UV-I 0 W/m 10,5 C 11,9 C 4,8 km/h (1 Bft) 95,65 %
17.04.2018 00:41 11,9 C 11,7 C 91 % 1018,5 hPa 0,0 l/m 4,3 km/h (1 Bft) W-SW 240 0 min 0,000 mm 0,0 UV-I 0 W/m 10,5 C 11,9 C 4,8 km/h (1 Bft) 100,00 %
17.04.2018 00:42 11,9 C 11,7 C 92 % 1018,5 hPa 0,0 l/m 3,7 km/h (1 Bft) W-SW 240 0 min 0,000 mm 0,0 UV-I 0 W/m 10,6 C 11,9 C 4,8 km/h (1 Bft) 100,00 %
17.04.2018 00:43 11,9 C 11,7 C 92 % 1018,5 hPa 0,0 l/m 2,7 km/h (1 Bft) W-SW 240 0 min 0,000 mm 0,0 UV-I 0 W/m 10,6 C 11,9 C 4,8 km/h (1 Bft) 100,00 %
17.04.2018 00:44 11,8 C 11,7 C 92 % 1018,5 hPa 0,0 l/m 3,4 km/h (1 Bft) W-SW 240 0 min 0,000 mm 0,0 UV-I 0 W/m 10,5 C 11,8 C 4,8 km/h (1 Bft) 100,00 %
17.04.2018 00:45 11,8 C 11,7 C 92 % 1018,5 hPa 0,0 l/m 3,8 km/h (1 Bft) W-SW 240 0 min 0,000 mm 0,0 UV-I 0 W/m 10,5 C 11,8 C 4,8 km/h (1 Bft) 100,00 %
17.04.2018 00:46 11,8 C 11,7 C 92 % 1018,6 hPa 0,0 l/m 3,6 km/h (1 Bft) W-SW 240 0 min 0,000 mm 0,0 UV-I 0 W/m 10,5 C 11,8 C 4,8 km/h (1 Bft) 100,00 %
17.04.2018 00:47 11,8 C 11,7 C 92 % 1018,6 hPa 0,0 l/m 3,2 km/h (1 Bft) W-SW 240 0 min 0,000 mm 0,0 UV-I 0 W/m 10,5 C 11,8 C 4,8 km/h (1 Bft) 95,83 %
17.04.2018 00:48 11,8 C 11,7 C 92 % 1018,6 hPa 0,0 l/m 4,2 km/h (1 Bft) W-SW 238 0 min 0,000 mm 0,0 UV-I 0 W/m 10,5 C 11,8 C 6,4 km/h (2 Bft) 95,65 %
17.04.2018 00:49 11,7 C 11,7 C 92 % 1018,5 hPa 0,0 l/m 3,3 km/h (1 Bft) W-SW 238 0 min 0,000 mm 0,0 UV-I 0 W/m 10,4 C 11,7 C 4,8 km/h (1 Bft) 100,00 %
17.04.2018 00:50 11,7 C 11,7 C 92 % 1018,5 hPa 0,0 l/m 3,8 km/h (1 Bft) W-SW 238 0 min 0,000 mm 0,0 UV-I 0 W/m 10,4 C 11,7 C 4,8 km/h (1 Bft) 100,00 %
17.04.2018 00:51 11,7 C 11,7 C 92 % 1018,6 hPa 0,0 l/m 3,8 km/h (1 Bft) W-SW 238 0 min 0,000 mm 0,0 UV-I 0 W/m 10,4 C 11,7 C 4,8 km/h (1 Bft) 100,00 %
17.04.2018 00:52 11,7 C 11,7 C 92 % 1018,6 hPa 0,0 l/m 3,4 km/h (1 Bft) W-SW 238 0 min 0,000 mm 0,0 UV-I 0 W/m 10,4 C 11,7 C 4,8 km/h (1 Bft) 100,00 %
17.04.2018 00:53 11,7 C 11,7 C 93 % 1018,6 hPa 0,0 l/m 3,6 km/h (1 Bft) W-SW 238 0 min 0,000 mm 0,0 UV-I 0 W/m 10,6 C 11,7 C 4,8 km/h (1 Bft) 100,00 %
17.04.2018 00:54 11,7 C 11,7 C 93 % 1018,6 hPa 0,0 l/m 2,9 km/h (1 Bft) W-SW 238 0 min 0,000 mm 0,0 UV-I 0 W/m 10,6 C 11,7 C 4,8 km/h (1 Bft) 100,00 %
17.04.2018 00:55 11,7 C 11,7 C 93 % 1018,6 hPa 0,0 l/m 3,4 km/h (1 Bft) W-SW 238 0 min 0,000 mm 0,0 UV-I 0 W/m 10,6 C 11,7 C 4,8 km/h (1 Bft) 100,00 %
17.04.2018 00:56 11,7 C 11,7 C 93 % 1018,6 hPa 0,0 l/m 4,6 km/h (1 Bft) SW 228 0 min 0,000 mm 0,0 UV-I 0 W/m 10,6 C 11,7 C 6,4 km/h (2 Bft) 100,00 %
17.04.2018 00:57 11,7 C 11,7 C 93 % 1018,6 hPa 0,0 l/m 3,4 km/h (1 Bft) SW 228 0 min 0,000 mm 0,0 UV-I 0 W/m 10,6 C 11,7 C 4,8 km/h (1 Bft) 95,65 %
17.04.2018 00:58 11,7 C 11,7 C 93 % 1018,7 hPa 0,0 l/m 4,3 km/h (1 Bft) S-SW 211 0 min 0,000 mm 0,0 UV-I 0 W/m 10,6 C 11,7 C 6,4 km/h (2 Bft) 100,00 %
17.04.2018 00:59 11,7 C 11,7 C 93 % 1018,6 hPa 0,0 l/m 4,5 km/h (1 Bft) S-SW 210 0 min 0,000 mm 0,0 UV-I 0 W/m 10,6 C 11,7 C 6,4 km/h (2 Bft) 91,30 %
17.04.2018 01:00 11,7 C 11,7 C 93 % 1018,6 hPa 0,0 l/m 4,5 km/h (1 Bft) S-SW 210 0 min 0,000 mm 0,0 UV-I 0 W/m 10,6 C 11,7 C 4,8 km/h (1 Bft) 95,83 %
17.04.2018 01:01 11,7 C 11,7 C 93 % 1018,7 hPa 0,0 l/m 4,7 km/h (1 Bft) S-SW 208 0 min 0,000 mm 0,0 UV-I 0 W/m 10,6 C 11,7 C 6,4 km/h (2 Bft) 100,00 %
17.04.2018 01:02 11,7 C 11,7 C 93 % 1018,6 hPa 0,0 l/m 4,9 km/h (1 Bft) S-SW 208 0 min 0,000 mm 0,0 UV-I 0 W/m 10,6 C 11,7 C 6,4 km/h (2 Bft) 100,00 %
17.04.2018 01:03 11,7 C 11,7 C 93 % 1018,7 hPa 0,0 l/m 5,2 km/h (1 Bft) S-SW 208 0 min 0,000 mm 0,0 UV-I 0 W/m 10,6 C 11,7 C 6,4 km/h (2 Bft) 100,00 %
17.04.2018 01:04 11,7 C 11,7 C 92 % 1018,7 hPa 0,0 l/m 4,7 km/h (1 Bft) S-SW 208 0 min 0,000 mm 0,0 UV-I 0 W/m 10,4 C 11,7 C 6,4 km/h (2 Bft) 100,00 %
17.04.2018 01:05 11,7 C 11,7 C 92 % 1018,7 hPa 0,0 l/m 4,8 km/h (1 Bft) S-SW 208 0 min 0,000 mm 0,0 UV-I 0 W/m 10,4 C 11,7 C 6,4 km/h (2 Bft) 100,00 %
17.04.2018 01:06 11,7 C 11,7 C 92 % 1018,7 hPa 0,0 l/m 5,1 km/h (1 Bft) S-SW 208 0 min 0,000 mm 0,0 UV-I 0 W/m 10,4 C 11,7 C 6,4 km/h (2 Bft) 96,55 %
17.04.2018 01:07 11,7 C 11,7 C 92 % 1018,7 hPa 0,0 l/m 4,3 km/h (1 Bft) S-SW 208 0 min 0,000 mm 0,0 UV-I 0 W/m 10,4 C 11,7 C 4,8 km/h (1 Bft) 100,00 %
17.04.2018 01:08 11,7 C 11,7 C 92 % 1018,7 hPa 0,0 l/m 3,7 km/h (1 Bft) S-SW 208 0 min 0,000 mm 0,0 UV-I 0 W/m 10,4 C 11,7 C 4,8 km/h (1 Bft) 91,30 %
17.04.2018 01:09 11,7 C 11,7 C 92 % 1018,7 hPa 0,0 l/m 3,9 km/h (1 Bft) S-SW 208 0 min 0,000 mm 0,0 UV-I 0 W/m 10,4 C 11,7 C 4,8 km/h (1 Bft) 100,00 %
17.04.2018 01:10 11,7 C 11,7 C 93 % 1018,8 hPa 0,0 l/m 2,5 km/h (1 Bft) S-SW 208 0 min 0,000 mm 0,0 UV-I 0 W/m 10,6 C 11,7 C 3,2 km/h (1 Bft) 100,00 %
17.04.2018 01:11 11,7 C 11,7 C 93 % 1018,8 hPa 0,0 l/m 2,6 km/h (1 Bft) S-SW 208 0 min 0,000 mm 0,0 UV-I 0 W/m 10,6 C 11,7 C 3,2 km/h (1 Bft) 100,00 %
17.04.2018 01:12 11,7 C 11,7 C 93 % 1018,8 hPa 0,0 l/m 3,0 km/h (1 Bft) S-SW 208 0 min 0,000 mm 0,0 UV-I 0 W/m 10,6 C 11,7 C 3,2 km/h (1 Bft) 100,00 %
17.04.2018 01:13 11,7 C 11,7 C 93 % 1018,8 hPa 0,0 l/m 2,6 km/h (1 Bft) S-SW 208 0 min 0,000 mm 0,0 UV-I 0 W/m 10,6 C 11,7 C 3,2 km/h (1 Bft) 100,00 %
17.04.2018 01:14 11,7 C 11,7 C 93 % 1018,8 hPa 0,0 l/m 2,7 km/h (1 Bft) S-SW 208 0 min 0,000 mm 0,0 UV-I 0 W/m 10,6 C 11,7 C 4,8 km/h (1 Bft) 100,00 %
17.04.2018 01:15 11,7 C 11,7 C 92 % 1018,8 hPa 0,0 l/m 3,2 km/h (1 Bft) S-SW 208 0 min 0,000 mm 0,0 UV-I 0 W/m 10,4 C 11,7 C 4,8 km/h (1 Bft) 100,00 %
17.04.2018 01:16 11,7 C 11,7 C 93 % 1018,9 hPa 0,0 l/m 2,9 km/h (1 Bft) S-SW 208 0 min 0,000 mm 0,0 UV-I 0 W/m 10,6 C 11,7 C 4,8 km/h (1 Bft) 100,00 %
17.04.2018 01:17 11,7 C 11,7 C 92 % 1018,8 hPa 0,0 l/m 4,1 km/h (1 Bft) S-SW 208 0 min 0,000 mm 0,0 UV-I 0 W/m 10,4 C 11,7 C 4,8 km/h (1 Bft) 100,00 %
17.04.2018 01:18 11,7 C 11,7 C 92 % 1018,8 hPa 0,0 l/m 3,2 km/h (1 Bft) S-SW 208 0 min 0,000 mm 0,0 UV-I 0 W/m 10,4 C 11,7 C 4,8 km/h (1 Bft) 100,00 %
17.04.2018 01:19 11,7 C 11,7 C 93 % 1018,8 hPa 0,0 l/m 2,8 km/h (1 Bft) S-SW 208 0 min 0,000 mm 0,0 UV-I 0 W/m 10,6 C 11,7 C 3,2 km/h (1 Bft) 91,67 %
17.04.2018 01:20 11,7 C 11,7 C 92 % 1018,8 hPa 0,0 l/m 3,1 km/h (1 Bft) S-SW 208 0 min 0,000 mm 0,0 UV-I 0 W/m 10,4 C 11,7 C 3,2 km/h (1 Bft) 100,00 %
17.04.2018 01:21 11,7 C 11,7 C 92 % 1018,9 hPa 0,0 l/m 2,9 km/h (1 Bft) S-SW 208 0 min 0,000 mm 0,0 UV-I 0 W/m 10,4 C 11,7 C 3,2 km/h (1 Bft) 100,00 %
17.04.2018 01:22 11,7 C 11,7 C 93 % 1018,9 hPa 0,0 l/m 2,7 km/h (1 Bft) S-SW 208 0 min 0,000 mm 0,0 UV-I 0 W/m 10,6 C 11,7 C 3,2 km/h (1 Bft) 100,00 %
17.04.2018 01:23 11,7 C 11,7 C 93 % 1018,9 hPa 0,0 l/m 2,5 km/h (1 Bft) S-SW 208 0 min 0,000 mm 0,0 UV-I 0 W/m 10,6 C 11,7 C 4,8 km/h (1 Bft) 95,65 %
17.04.2018 01:24 11,7 C 11,7 C 93 % 1018,9 hPa 0,0 l/m 1,3 km/h (1 Bft) S-SW 208 0 min 0,000 mm 0,0 UV-I 0 W/m 10,6 C 11,7 C 3,2 km/h (1 Bft) 100,00 %
17.04.2018 01:25 11,7 C 11,7 C 93 % 1018,9 hPa 0,0 l/m 1,3 km/h (1 Bft) S-SW 208 0 min 0,000 mm 0,0 UV-I 0 W/m 10,6 C 11,7 C 1,6 km/h (1 Bft) 100,00 %
17.04.2018 01:26 11,7 C 11,7 C 93 % 1018,9 hPa 0,0 l/m 0,5 km/h (0 Bft) S-SW 208 0 min 0,000 mm 0,0 UV-I 0 W/m 10,6 C 11,7 C 1,6 km/h (1 Bft) 100,00 %
17.04.2018 01:27 11,7 C 11,7 C 93 % 1018,9 hPa 0,0 l/m 0,9 km/h (0 Bft) S-SW 208 0 min 0,000 mm 0,0 UV-I 0 W/m 10,6 C 11,7 C 3,2 km/h (1 Bft) 100,00 %
17.04.2018 01:28 11,7 C 11,7 C 93 % 1018,9 hPa 0,0 l/m 2,2 km/h (1 Bft) S-SW 208 0 min 0,000 mm 0,0 UV-I 0 W/m 10,6 C 11,7 C 3,2 km/h (1 Bft) 100,00 %
17.04.2018 01:29 11,7 C 11,7 C 93 % 1018,9 hPa 0,0 l/m 2,2 km/h (1 Bft) S-SW 208 0 min 0,000 mm 0,0 UV-I 0 W/m 10,6 C 11,7 C 3,2 km/h (1 Bft) 100,00 %
17.04.2018 01:30 11,7 C 11,7 C 93 % 1018,9 hPa 0,0 l/m 1,5 km/h (1 Bft) S-SW 208 0 min 0,000 mm 0,0 UV-I 0 W/m 10,6 C 11,7 C 3,2 km/h (1 Bft) 95,65 %
17.04.2018 01:31 11,7 C 11,7 C 93 % 1018,9 hPa 0,0 l/m 1,9 km/h (1 Bft) S-SW 208 0 min 0,000 mm 0,0 UV-I 0 W/m 10,6 C 11,7 C 3,2 km/h (1 Bft) 100,00 %
17.04.2018 01:32 11,7 C 11,7 C 93 % 1018,9 hPa 0,0 l/m 2,3 km/h (1 Bft) S-SW 208 0 min 0,000 mm 0,0 UV-I 0 W/m 10,6 C 11,7 C 4,8 km/h (1 Bft) 95,65 %
17.04.2018 01:33 11,7 C 11,7 C 93 % 1018,9 hPa 0,0 l/m 2,0 km/h (1 Bft) S-SW 208 0 min 0,000 mm 0,0 UV-I 0 W/m 10,6 C 11,7 C 3,2 km/h (1 Bft) 95,83 %
17.04.2018 01:34 11,7 C 11,7 C 93 % 1018,9 hPa 0,0 l/m 2,9 km/h (1 Bft) S-SW 210 0 min 0,000 mm 0,0 UV-I 0 W/m 10,6 C 11,7 C 4,8 km/h (1 Bft) 100,00 %
17.04.2018 01:35 11,7 C 11,7 C 93 % 1018,9 hPa 0,0 l/m 3,1 km/h (1 Bft) S-SW 210 0 min 0,000 mm 0,0 UV-I 0 W/m 10,6 C 11,7 C 6,4 km/h (2 Bft) 100,00 %
17.04.2018 01:36 11,7 C 11,7 C 93 % 1019,0 hPa 0,0 l/m 3,1 km/h (1 Bft) S-SW 210 0 min 0,000 mm 0,0 UV-I 0 W/m 10,6 C 11,7 C 4,8 km/h (1 Bft) 95,65 %
17.04.2018 01:37 11,7 C 11,7 C 93 % 1018,9 hPa 0,0 l/m 2,9 km/h (1 Bft) S-SW 210 0 min 0,000 mm 0,0 UV-I 0 W/m 10,6 C 11,7 C 3,2 km/h (1 Bft) 100,00 %
17.04.2018 01:38 11,7 C 11,7 C 93 % 1018,9 hPa 0,0 l/m 2,2 km/h (1 Bft) S-SW 210 0 min 0,000 mm 0,0 UV-I 0 W/m 10,6 C 11,7 C 3,2 km/h (1 Bft) 100,00 %
17.04.2018 01:39 11,7 C 11,7 C 93 % 1018,9 hPa 0,0 l/m 3,0 km/h (1 Bft) S-SW 210 0 min 0,000 mm 0,0 UV-I 0 W/m 10,6 C 11,7 C 4,8 km/h (1 Bft) 100,00 %
17.04.2018 01:40 11,7 C 11,7 C 93 % 1018,9 hPa 0,0 l/m 2,4 km/h (1 Bft) S-SW 210 0 min 0,000 mm 0,0 UV-I 0 W/m 10,6 C 11,7 C 4,8 km/h (1 Bft) 100,00 %
17.04.2018 01:41 11,7 C 11,7 C 93 % 1019,0 hPa 0,0 l/m 3,3 km/h (1 Bft) S-SW 210 0 min 0,000 mm 0,0 UV-I 0 W/m 10,6 C 11,7 C 4,8 km/h (1 Bft) 96,15 %
17.04.2018 01:42 11,6 C 11,7 C 93 % 1018,9 hPa 0,0 l/m 3,2 km/h (1 Bft) S-SW 210 0 min 0,000 mm 0,0 UV-I 0 W/m 10,5 C 11,6 C 4,8 km/h (1 Bft) 95,83 %
17.04.2018 01:43 11,6 C 11,7 C 93 % 1019,0 hPa 0,0 l/m 3,0 km/h (1 Bft) S-SW 210 0 min 0,000 mm 0,0 UV-I 0 W/m 10,5 C 11,6 C 3,2 km/h (1 Bft) 95,65 %
17.04.2018 01:44 11,6 C 11,7 C 93 % 1019,0 hPa 0,0 l/m 1,1 km/h (1 Bft) S-SW 210 0 min 0,000 mm 0,0 UV-I 0 W/m 10,5 C 11,6 C 3,2 km/h (1 Bft) 91,67 %
17.04.2018 01:45 11,6 C 11,7 C 93 % 1019,0 hPa 0,0 l/m 3,3 km/h (1 Bft) SW 220 0 min 0,000 mm 0,0 UV-I 0 W/m 10,5 C 11,6 C 4,8 km/h (1 Bft) 100,00 %
17.04.2018 01:46 11,7 C 11,7 C 93 % 1019,0 hPa 0,0 l/m 3,7 km/h (1 Bft) SW 220 0 min 0,000 mm 0,0 UV-I 0 W/m 10,6 C 11,7 C 4,8 km/h (1 Bft) 93,33 %
17.04.2018 01:47 11,7 C 11,7 C 93 % 1019,1 hPa 0,0 l/m 3,6 km/h (1 Bft) SW 220 0 min 0,000 mm 0,0 UV-I 0 W/m 10,6 C 11,7 C 4,8 km/h (1 Bft) 100,00 %
17.04.2018 01:48 11,7 C 11,7 C 93 % 1019,0 hPa 0,0 l/m 3,1 km/h (1 Bft) SW 220 0 min 0,000 mm 0,0 UV-I 0 W/m 10,6 C 11,7 C 4,8 km/h (1 Bft) 95,65 %
17.04.2018 01:49 11,7 C 11,7 C 93 % 1019,1 hPa 0,0 l/m 3,4 km/h (1 Bft) SW 220 0 min 0,000 mm 0,0 UV-I 0 W/m 10,6 C 11,7 C 4,8 km/h (1 Bft) 100,00 %
17.04.2018 01:50 11,7 C 11,7 C 93 % 1019,1 hPa 0,0 l/m 4,1 km/h (1 Bft) W-SW 245 0 min 0,000 mm 0,0 UV-I 0 W/m 10,6 C 11,7 C 6,4 km/h (2 Bft) 86,96 %
17.04.2018 01:51 11,7 C 11,7 C 93 % 1019,1 hPa 0,0 l/m 5,2 km/h (1 Bft) W-SW 244 0 min 0,000 mm 0,0 UV-I 0 W/m 10,6 C 11,7 C 6,4 km/h (2 Bft) 100,00 %
17.04.2018 01:52 11,6 C 11,7 C 93 % 1019,1 hPa 0,0 l/m 3,8 km/h (1 Bft) W-SW 244 0 min 0,000 mm 0,0 UV-I 0 W/m 10,5 C 11,6 C 6,4 km/h (2 Bft) 95,65 %
17.04.2018 01:53 11,6 C 11,7 C 93 % 1019,1 hPa 0,0 l/m 4,0 km/h (1 Bft) W-SW 244 0 min 0,000 mm 0,0 UV-I 0 W/m 10,5 C 11,6 C 4,8 km/h (1 Bft) 100,00 %
17.04.2018 01:54 11,6 C 11,7 C 93 % 1019,1 hPa 0,0 l/m 4,4 km/h (1 Bft) W-SW 244 0 min 0,000 mm 0,0 UV-I 0 W/m 10,5 C 11,6 C 4,8 km/h (1 Bft) 95,65 %
17.04.2018 01:55 11,6 C 11,7 C 93 % 1019,1 hPa 0,0 l/m 4,4 km/h (1 Bft) W-SW 245 0 min 0,000 mm 0,0 UV-I 0 W/m 10,5 C 11,6 C 6,4 km/h (2 Bft) 95,83 %
17.04.2018 01:56 11,6 C 11,7 C 93 % 1019,1 hPa 0,0 l/m 6,1 km/h (2 Bft) W-SW 246 0 min 0,000 mm 0,0 UV-I 0 W/m 10,5 C 11,6 C 11,3 km/h (2 Bft) 100,00 %
17.04.2018 01:57 11,6 C 11,7 C 94 % 1019,1 hPa 0,0 l/m 6,6 km/h (2 Bft) W-SW 248 0 min 0,000 mm 0,0 UV-I 0 W/m 10,7 C 11,5 C 8,0 km/h (2 Bft) 95,83 %
17.04.2018 01:58 11,6 C 11,7 C 94 % 1019,1 hPa 0,0 l/m 4,8 km/h (1 Bft) W-SW 240 0 min 0,000 mm 0,0 UV-I 0 W/m 10,7 C 11,6 C 6,4 km/h (2 Bft) 95,65 %
17.04.2018 01:59 11,6 C 11,7 C 94 % 1019,2 hPa 0,0 l/m 5,5 km/h (1 Bft) W-SW 238 0 min 0,000 mm 0,0 UV-I 0 W/m 10,7 C 11,6 C 6,4 km/h (2 Bft) 91,67 %
17.04.2018 02:00 11,6 C 11,7 C 94 % 1019,2 hPa 0,0 l/m 4,6 km/h (1 Bft) W-SW 242 0 min 0,000 mm 0,0 UV-I 0 W/m 10,7 C 11,6 C 8,0 km/h (2 Bft) 100,00 %
17.04.2018 02:01 11,6 C 11,7 C 94 % 1019,2 hPa 0,0 l/m 5,0 km/h (1 Bft) W 265 0 min 0,000 mm 0,0 UV-I 0 W/m 10,7 C 11,6 C 6,4 km/h (2 Bft) 95,65 %
17.04.2018 02:02 11,6 C 11,7 C 94 % 1019,2 hPa 0,0 l/m 4,8 km/h (1 Bft) W-SW 242 0 min 0,000 mm 0,0 UV-I 0 W/m 10,7 C 11,6 C 6,4 km/h (2 Bft) 100,00 %
17.04.2018 02:03 11,6 C 11,7 C 94 % 1019,2 hPa 0,0 l/m 5,6 km/h (1 Bft) SW 217 0 min 0,000 mm 0,0 UV-I 0 W/m 10,7 C 11,6 C 8,0 km/h (2 Bft) 92,11 %
17.04.2018 02:04 11,6 C 11,7 C 94 % 1019,2 hPa 0,0 l/m 5,2 km/h (1 Bft) W-SW 250 0 min 0,000 mm 0,0 UV-I 0 W/m 10,7 C 11,6 C 8,0 km/h (2 Bft) 91,67 %
17.04.2018 02:05 11,6 C 11,7 C 94 % 1019,2 hPa 0,0 l/m 6,4 km/h (2 Bft) W-SW 248 0 min 0,000 mm 0,0 UV-I 0 W/m 10,7 C 11,6 C 8,0 km/h (2 Bft) 100,00 %
17.04.2018 02:06 11,6 C 11,7 C 94 % 1019,2 hPa 0,0 l/m 5,2 km/h (1 Bft) W-SW 256 0 min 0,000 mm 0,0 UV-I 0 W/m 10,7 C 11,6 C 8,0 km/h (2 Bft) 91,67 %
17.04.2018 02:07 11,6 C 11,7 C 94 % 1019,2 hPa 0,0 l/m 5,6 km/h (1 Bft) W-SW 254 0 min 0,000 mm 0,0 UV-I 0 W/m 10,7 C 11,6 C 8,0 km/h (2 Bft) 100,00 %
17.04.2018 02:08 11,6 C 11,7 C 94 % 1019,2 hPa 0,0 l/m 4,6 km/h (1 Bft) W-SW 251 0 min 0,000 mm 0,0 UV-I 0 W/m 10,7 C 11,6 C 6,4 km/h (2 Bft) 95,83 %
17.04.2018 02:09 11,6 C 11,7 C 94 % 1019,2 hPa 0,0 l/m 6,2 km/h (2 Bft) W-SW 248 0 min 0,000 mm 0,0 UV-I 0 W/m 10,7 C 11,6 C 9,7 km/h (2 Bft) 95,65 %
17.04.2018 02:10 11,7 C 11,7 C 94 % 1019,2 hPa 0,0 l/m 5,7 km/h (1 Bft) W 264 0 min 0,000 mm 0,0 UV-I 0 W/m 10,8 C 11,7 C 9,7 km/h (2 Bft) 87,50 %
17.04.2018 02:11 11,7 C 11,7 C 94 % 1019,3 hPa 0,0 l/m 7,3 km/h (2 Bft) W-SW 253 0 min 0,000 mm 0,0 UV-I 0 W/m 10,8 C 11,1 C 11,3 km/h (2 Bft) 100,00 %
17.04.2018 02:12 11,7 C 11,7 C 94 % 1019,3 hPa 0,0 l/m 5,5 km/h (1 Bft) W 270 0 min 0,000 mm 0,0 UV-I 0 W/m 10,8 C 11,7 C 6,4 km/h (2 Bft) 95,83 %
17.04.2018 02:13 11,7 C 11,7 C 93 % 1019,3 hPa 0,0 l/m 6,0 km/h (2 Bft) W-SW 255 0 min 0,000 mm 0,0 UV-I 0 W/m 10,6 C 11,7 C 9,7 km/h (2 Bft) 96,15 %
17.04.2018 02:14 11,7 C 11,7 C 93 % 1019,3 hPa 0,0 l/m 6,0 km/h (2 Bft) W 265 0 min 0,000 mm 0,0 UV-I 0 W/m 10,6 C 11,7 C 9,7 km/h (2 Bft) 95,83 %
17.04.2018 02:15 11,7 C 11,7 C 93 % 1019,3 hPa 0,0 l/m 6,9 km/h (2 Bft) W 261 0 min 0,000 mm 0,0 UV-I 0 W/m 10,6 C 11,4 C 9,7 km/h (2 Bft) 95,83 %
17.04.2018 02:16 11,7 C 11,7 C 93 % 1019,4 hPa 0,0 l/m 5,6 km/h (1 Bft) W-SW 254 0 min 0,000 mm 0,0 UV-I 0 W/m 10,6 C 11,7 C 8,0 km/h (2 Bft) 91,30 %
17.04.2018 02:17 11,7 C 11,7 C 93 % 1019,3 hPa 0,0 l/m 5,9 km/h (2 Bft) W-SW 248 0 min 0,000 mm 0,0 UV-I 0 W/m 10,6 C 11,7 C 6,4 km/h (2 Bft) 100,00 %
17.04.2018 02:18 11,7 C 11,7 C 93 % 1019,4 hPa 0,0 l/m 5,1 km/h (1 Bft) W-SW 251 0 min 0,000 mm 0,0 UV-I 0 W/m 10,6 C 11,7 C 8,0 km/h (2 Bft) 100,00 %
17.04.2018 02:19 11,7 C 11,7 C 93 % 1019,4 hPa 0,0 l/m 3,8 km/h (1 Bft) W-SW 251 0 min 0,000 mm 0,0 UV-I 0 W/m 10,6 C 11,7 C 4,8 km/h (1 Bft) 100,00 %
17.04.2018 02:20 11,7 C 11,7 C 93 % 1019,4 hPa 0,0 l/m 3,8 km/h (1 Bft) W-SW 251 0 min 0,000 mm 0,0 UV-I 0 W/m 10,6 C 11,7 C 4,8 km/h (1 Bft) 100,00 %
17.04.2018 02:21 11,7 C 11,7 C 93 % 1019,4 hPa 0,0 l/m 4,5 km/h (1 Bft) W-SW 251 0 min 0,000 mm 0,0 UV-I 0 W/m 10,6 C 11,7 C 6,4 km/h (2 Bft) 100,00 %
17.04.2018 02:22 11,7 C 11,7 C 93 % 1019,4 hPa 0,0 l/m 3,7 km/h (1 Bft) W-SW 251 0 min 0,000 mm 0,0 UV-I 0 W/m 10,6 C 11,7 C 4,8 km/h (1 Bft) 91,30 %
17.04.2018 02:23 11,7 C 11,7 C 93 % 1019,5 hPa 0,0 l/m 2,4 km/h (1 Bft) W-SW 251 0 min 0,000 mm 0,0 UV-I 0 W/m 10,6 C 11,7 C 3,2 km/h (1 Bft) 100,00 %
17.04.2018 02:24 11,7 C 11,7 C 93 % 1019,4 hPa 0,0 l/m 3,9 km/h (1 Bft) W-SW 251 0 min 0,000 mm 0,0 UV-I 0 W/m 10,6 C 11,7 C 4,8 km/h (1 Bft) 100,00 %
17.04.2018 02:25 11,7 C 11,7 C 93 % 1019,4 hPa 0,0 l/m 4,2 km/h (1 Bft) W-SW 251 0 min 0,000 mm 0,0 UV-I 0 W/m 10,6 C 11,7 C 6,4 km/h (2 Bft) 95,83 %
17.04.2018 02:26 11,7 C 11,7 C 93 % 1019,5 hPa 0,0 l/m 3,4 km/h (1 Bft) W-SW 251 0 min 0,000 mm 0,0 UV-I 0 W/m 10,6 C 11,7 C 4,8 km/h (1 Bft) 100,00 %
17.04.2018 02:27 11,7 C 11,7 C 93 % 1019,5 hPa 0,0 l/m 5,3 km/h (1 Bft) W 263 0 min 0,000 mm 0,0 UV-I 0 W/m 10,6 C 11,7 C 6,4 km/h (2 Bft) 100,00 %
17.04.2018 02:28 11,7 C 11,7 C 93 % 1019,5 hPa 0,0 l/m 6,0 km/h (2 Bft) W-SW 246 0 min 0,000 mm 0,0 UV-I 0 W/m 10,6 C 11,7 C 11,3 km/h (2 Bft) 95,65 %
17.04.2018 02:29 11,7 C 11,7 C 93 % 1019,5 hPa 0,0 l/m 4,0 km/h (1 Bft) W-SW 248 0 min 0,000 mm 0,0 UV-I 0 W/m 10,6 C 11,7 C 4,8 km/h (1 Bft) 100,00 %
17.04.2018 02:30 11,7 C 11,7 C 93 % 1019,5 hPa 0,0 l/m 4,4 km/h (1 Bft) W 269 0 min 0,000 mm 0,0 UV-I 0 W/m 10,6 C 11,7 C 4,8 km/h (1 Bft) 95,83 %
17.04.2018 02:31 11,8 C 11,7 C 93 % 1019,5 hPa 0,0 l/m 5,4 km/h (1 Bft) W 264 0 min 0,000 mm 0,0 UV-I 0 W/m 10,7 C 11,8 C 6,4 km/h (2 Bft) 100,00 %
17.04.2018 02:32 11,8 C 11,7 C 93 % 1019,5 hPa 0,0 l/m 6,0 km/h (2 Bft) W 261 0 min 0,000 mm 0,0 UV-I 0 W/m 10,7 C 11,8 C 9,7 km/h (2 Bft) 100,00 %
17.04.2018 02:33 11,8 C 11,7 C 93 % 1019,5 hPa 0,0 l/m 5,9 km/h (2 Bft) W-SW 255 0 min 0,000 mm 0,0 UV-I 0 W/m 10,7 C 11,8 C 8,0 km/h (2 Bft) 95,65 %
17.04.2018 02:34 11,8 C 11,7 C 93 % 1019,5 hPa 0,0 l/m 4,4 km/h (1 Bft) W-SW 255 0 min 0,000 mm 0,0 UV-I 0 W/m 10,7 C 11,8 C 6,4 km/h (2 Bft) 100,00 %
17.04.2018 02:35 11,8 C 11,7 C 93 % 1019,5 hPa 0,0 l/m 2,8 km/h (1 Bft) W-SW 255 0 min 0,000 mm 0,0 UV-I 0 W/m 10,7 C 11,8 C 4,8 km/h (1 Bft) 100,00 %
17.04.2018 02:36 11,8 C 11,7 C 93 % 1019,5 hPa 0,0 l/m 2,2 km/h (1 Bft) W-SW 255 0 min 0,000 mm 0,0 UV-I 0 W/m 10,7 C 11,8 C 3,2 km/h (1 Bft) 100,00 %
17.04.2018 02:37 11,8 C 11,7 C 93 % 1019,5 hPa 0,0 l/m 3,0 km/h (1 Bft) W-SW 255 0 min 0,000 mm 0,0 UV-I 0 W/m 10,7 C 11,8 C 4,8 km/h (1 Bft) 100,00 %
17.04.2018 02:38 11,8 C 11,7 C 93 % 1019,6 hPa 0,0 l/m 3,4 km/h (1 Bft) W-SW 255 0 min 0,000 mm 0,0 UV-I 0 W/m 10,7 C 11,8 C 4,8 km/h (1 Bft) 100,00 %
17.04.2018 02:39 11,8 C 11,7 C 93 % 1019,6 hPa 0,0 l/m 1,7 km/h (1 Bft) W-SW 255 0 min 0,000 mm 0,0 UV-I 0 W/m 10,7 C 11,8 C 3,2 km/h (1 Bft) 100,00 %
17.04.2018 02:40 11,7 C 11,7 C 93 % 1019,6 hPa 0,0 l/m 0,0 km/h (0 Bft) W-SW 255 0 min 0,000 mm 0,0 UV-I 0 W/m 10,6 C 11,7 C 0,0 km/h (0 Bft) 100,00 %
17.04.2018 02:41 11,7 C 11,7 C 93 % 1019,6 hPa 0,0 l/m 0,0 km/h (0 Bft) W-SW 255 0 min 0,000 mm 0,0 UV-I 0 W/m 10,6 C 11,7 C 0,0 km/h (0 Bft) 100,00 %
17.04.2018 02:42 11,7 C 11,7 C 93 % 1019,6 hPa 0,0 l/m 0,0 km/h (0 Bft) W-SW 255 0 min 0,000 mm 0,0 UV-I 0 W/m 10,6 C 11,7 C 0,0 km/h (0 Bft) 100,00 %
17.04.2018 02:43 11,6 C 11,7 C 93 % 1019,6 hPa 0,0 l/m 0,0 km/h (0 Bft) W-SW 256 0 min 0,000 mm 0,0 UV-I 0 W/m 10,5 C 11,6 C 0,0 km/h (0 Bft) 96,30 %
17.04.2018 02:44 11,6 C 11,7 C 93 % 1019,6 hPa 0,0 l/m 2,2 km/h (1 Bft) W-SW 255 0 min 0,000 mm 0,0 UV-I 0 W/m 10,5 C 11,6 C 3,2 km/h (1 Bft) 100,00 %
17.04.2018 02:45 11,5 C 11,7 C 93 % 1019,6 hPa 0,0 l/m 2,3 km/h (1 Bft) W-SW 255 0 min 0,000 mm 0,0 UV-I 0 W/m 10,4 C 11,5 C 3,2 km/h (1 Bft) 100,00 %
17.04.2018 02:46 11,5 C 11,7 C 94 % 1019,6 hPa 0,0 l/m 2,4 km/h (1 Bft) W-SW 255 0 min 0,000 mm 0,0 UV-I 0 W/m 10,6 C 11,5 C 3,2 km/h (1 Bft) 100,00 %
17.04.2018 02:47 11,5 C 11,7 C 94 % 1019,6 hPa 0,0 l/m 2,5 km/h (1 Bft) W-SW 255 0 min 0,000 mm 0,0 UV-I 0 W/m 10,6 C 11,5 C 3,2 km/h (1 Bft) 95,83 %
17.04.2018 02:48 11,4 C 11,7 C 94 % 1019,6 hPa 0,0 l/m 2,4 km/h (1 Bft) W-SW 255 0 min 0,000 mm 0,0 UV-I 0 W/m 10,5 C 11,4 C 3,2 km/h (1 Bft) 91,30 %
17.04.2018 02:49 11,4 C 11,7 C 94 % 1019,6 hPa 0,0 l/m 2,1 km/h (1 Bft) W-SW 255 0 min 0,000 mm 0,0 UV-I 0 W/m 10,5 C 11,4 C 3,2 km/h (1 Bft) 100,00 %
17.04.2018 02:50 11,5 C 11,7 C 94 % 1019,6 hPa 0,0 l/m 2,5 km/h (1 Bft) W-SW 255 0 min 0,000 mm 0,0 UV-I 0 W/m 10,6 C 11,5 C 3,2 km/h (1 Bft) 100,00 %
17.04.2018 02:51 11,5 C 11,7 C 94 % 1019,6 hPa 0,0 l/m 3,0 km/h (1 Bft) W-SW 255 0 min 0,000 mm 0,0 UV-I 0 W/m 10,6 C 11,5 C 4,8 km/h (1 Bft) 100,00 %
17.04.2018 02:52 11,5 C 11,7 C 94 % 1019,6 hPa 0,0 l/m 3,3 km/h (1 Bft) W-SW 255 0 min 0,000 mm 0,0 UV-I 0 W/m 10,6 C 11,5 C 4,8 km/h (1 Bft) 95,65 %
17.04.2018 02:53 11,5 C 11,7 C 94 % 1019,6 hPa 0,0 l/m 2,8 km/h (1 Bft) W-SW 255 0 min 0,000 mm 0,0 UV-I 0 W/m 10,6 C 11,5 C 4,8 km/h (1 Bft) 95,83 %
17.04.2018 02:54 11,5 C 11,7 C 94 % 1019,6 hPa 0,0 l/m 2,4 km/h (1 Bft) W-SW 255 0 min 0,000 mm 0,0 UV-I 0 W/m 10,6 C 11,5 C 3,2 km/h (1 Bft) 100,00 %
17.04.2018 02:55 11,5 C 11,7 C 94 % 1019,6 hPa 0,0 l/m 2,9 km/h (1 Bft) W-SW 255 0 min 0,000 mm 0,0 UV-I 0 W/m 10,6 C 11,5 C 4,8 km/h (1 Bft) 95,65 %
17.04.2018 02:56 11,5 C 11,7 C 94 % 1019,7 hPa 0,0 l/m 2,8 km/h (1 Bft) W-SW 255 0 min 0,000 mm 0,0 UV-I 0 W/m 10,6 C 11,5 C 4,8 km/h (1 Bft) 95,83 %
17.04.2018 02:57 11,5 C 11,7 C 94 % 1019,7 hPa 0,0 l/m 3,4 km/h (1 Bft) W-SW 255 0 min 0,000 mm 0,0 UV-I 0 W/m 10,6 C 11,5 C 4,8 km/h (1 Bft) 95,65 %
17.04.2018 02:58 11,6 C 11,7 C 94 % 1019,7 hPa 0,0 l/m 3,5 km/h (1 Bft) W-SW 255 0 min 0,000 mm 0,0 UV-I 0 W/m 10,7 C 11,6 C 4,8 km/h (1 Bft) 100,00 %
17.04.2018 02:59 11,6 C 11,7 C 94 % 1019,7 hPa 0,0 l/m 3,3 km/h (1 Bft) W-SW 255 0 min 0,000 mm 0,0 UV-I 0 W/m 10,7 C 11,6 C 4,8 km/h (1 Bft) 96,15 %
17.04.2018 03:00 11,6 C 11,7 C 94 % 1019,7 hPa 0,0 l/m 3,2 km/h (1 Bft) W-SW 255 0 min 0,000 mm 0,0 UV-I 0 W/m 10,7 C 11,6 C 4,8 km/h (1 Bft) 100,00 %
17.04.2018 03:01 11,6 C 11,7 C 94 % 1019,7 hPa 0,0 l/m 3,2 km/h (1 Bft) W-SW 255 0 min 0,000 mm 0,0 UV-I 0 W/m 10,7 C 11,6 C 4,8 km/h (1 Bft) 91,30 %
17.04.2018 03:02 11,6 C 11,7 C 94 % 1019,8 hPa 0,0 l/m 2,9 km/h (1 Bft) W-SW 255 0 min 0,000 mm 0,0 UV-I 0 W/m 10,7 C 11,6 C 3,2 km/h (1 Bft) 95,83 %
17.04.2018 03:03 11,6 C 11,7 C 94 % 1019,8 hPa 0,0 l/m 2,9 km/h (1 Bft) W-SW 255 0 min 0,000 mm 0,0 UV-I 0 W/m 10,7 C 11,6 C 3,2 km/h (1 Bft) 100,00 %
17.04.2018 03:04 11,6 C 11,7 C 94 % 1019,8 hPa 0,0 l/m 3,3 km/h (1 Bft) W-SW 255 0 min 0,000 mm 0,0 UV-I 0 W/m 10,7 C 11,6 C 4,8 km/h (1 Bft) 95,83 %
17.04.2018 03:05 11,6 C 11,7 C 94 % 1019,8 hPa 0,0 l/m 3,5 km/h (1 Bft) W-SW 255 0 min 0,000 mm 0,0 UV-I 0 W/m 10,7 C 11,6 C 4,8 km/h (1 Bft) 100,00 %
17.04.2018 03:06 11,6 C 11,7 C 94 % 1019,9 hPa 0,0 l/m 3,4 km/h (1 Bft) W-SW 255 0 min 0,000 mm 0,0 UV-I 0 W/m 10,7 C 11,6 C 4,8 km/h (1 Bft) 95,83 %
17.04.2018 03:07 11,6 C 11,7 C 94 % 1019,9 hPa 0,0 l/m 3,3 km/h (1 Bft) W-SW 255 0 min 0,000 mm 0,0 UV-I 0 W/m 10,7 C 11,6 C 4,8 km/h (1 Bft) 100,00 %
17.04.2018 03:08 11,6 C 11,7 C 94 % 1019,8 hPa 0,0 l/m 3,5 km/h (1 Bft) W-SW 255 0 min 0,000 mm 0,0 UV-I 0 W/m 10,7 C 11,6 C 4,8 km/h (1 Bft) 95,65 %
17.04.2018 03:09 11,6 C 11,7 C 94 % 1019,8 hPa 0,0 l/m 3,4 km/h (1 Bft) W-SW 255 0 min 0,000 mm 0,0 UV-I 0 W/m 10,7 C 11,6 C 4,8 km/h (1 Bft) 100,00 %
17.04.2018 03:10 11,6 C 11,7 C 94 % 1019,8 hPa 0,0 l/m 3,4 km/h (1 Bft) W-SW 255 0 min 0,000 mm 0,0 UV-I 0 W/m 10,7 C 11,6 C 4,8 km/h (1 Bft) 95,65 %
17.04.2018 03:11 11,6 C 11,7 C 94 % 1019,8 hPa 0,0 l/m 2,5 km/h (1 Bft) W-SW 255 0 min 0,000 mm 0,0 UV-I 0 W/m 10,7 C 11,6 C 3,2 km/h (1 Bft) 95,83 %
17.04.2018 03:12 11,6 C 11,7 C 94 % 1019,9 hPa 0,0 l/m 3,1 km/h (1 Bft) W-SW 255 0 min 0,000 mm 0,0 UV-I 0 W/m 10,7 C 11,6 C 4,8 km/h (1 Bft) 100,00 %
17.04.2018 03:13 11,6 C 11,7 C 94 % 1019,9 hPa 0,0 l/m 4,2 km/h (1 Bft) W-SW 255 0 min 0,000 mm 0,0 UV-I 0 W/m 10,7 C 11,6 C 6,4 km/h (2 Bft) 95,83 %
17.04.2018 03:14 11,6 C 11,7 C 94 % 1019,9 hPa 0,0 l/m 4,0 km/h (1 Bft) W-SW 255 0 min 0,000 mm 0,0 UV-I 0 W/m 10,7 C 11,6 C 4,8 km/h (1 Bft) 100,00 %
17.04.2018 03:15 11,6 C 11,7 C 94 % 1019,9 hPa 0,0 l/m 3,9 km/h (1 Bft) W-SW 254 0 min 0,000 mm 0,0 UV-I 0 W/m 10,7 C 11,6 C 4,8 km/h (1 Bft) 95,83 %
17.04.2018 03:16 11,6 C 11,7 C 94 % 1019,9 hPa 0,0 l/m 4,7 km/h (1 Bft) W-SW 256 0 min 0,000 mm 0,0 UV-I 0 W/m 10,7 C 11,6 C 6,4 km/h (2 Bft) 95,65 %
17.04.2018 03:17 11,6 C 11,7 C 94 % 1019,9 hPa 0,0 l/m 5,4 km/h (1 Bft) W-SW 257 0 min 0,000 mm 0,0 UV-I 0 W/m 10,7 C 11,6 C 6,4 km/h (2 Bft) 91,67 %
17.04.2018 03:18 11,6 C 11,7 C 94 % 1019,9 hPa 0,0 l/m 4,7 km/h (1 Bft) W-SW 257 0 min 0,000 mm 0,0 UV-I 0 W/m 10,7 C 11,6 C 6,4 km/h (2 Bft) 91,30 %
17.04.2018 03:19 11,6 C 11,7 C 94 % 1019,9 hPa 0,0 l/m 6,0 km/h (2 Bft) W-SW 252 0 min 0,000 mm 0,0 UV-I 0 W/m 10,7 C 11,6 C 8,0 km/h (2 Bft) 95,83 %
17.04.2018 03:20 11,6 C 11,7 C 94 % 1019,9 hPa 0,0 l/m 5,4 km/h (1 Bft) W 261 0 min 0,000 mm 0,0 UV-I 0 W/m 10,7 C 11,6 C 6,4 km/h (2 Bft) 100,00 %
17.04.2018 03:21 11,6 C 11,7 C 94 % 1019,9 hPa 0,0 l/m 5,1 km/h (1 Bft) W 261 0 min 0,000 mm 0,0 UV-I 0 W/m 10,7 C 11,6 C 6,4 km/h (2 Bft) 95,65 %
17.04.2018 03:22 11,6 C 11,7 C 94 % 1019,9 hPa 0,0 l/m 5,6 km/h (1 Bft) W 263 0 min 0,000 mm 0,0 UV-I 0 W/m 10,7 C 11,6 C 6,4 km/h (2 Bft) 100,00 %
17.04.2018 03:23 11,6 C 11,7 C 94 % 1019,9 hPa 0,0 l/m 5,3 km/h (1 Bft) W 263 0 min 0,000 mm 0,0 UV-I 0 W/m 10,7 C 11,6 C 6,4 km/h (2 Bft) 95,65 %
17.04.2018 03:24 11,6 C 11,7 C 94 % 1019,9 hPa 0,0 l/m 5,2 km/h (1 Bft) W 263 0 min 0,000 mm 0,0 UV-I 0 W/m 10,7 C 11,6 C 6,4 km/h (2 Bft) 95,83 %
17.04.2018 03:25 11,6 C 11,7 C 94 % 1019,9 hPa 0,0 l/m 5,0 km/h (1 Bft) W 263 0 min 0,000 mm 0,0 UV-I 0 W/m 10,7 C 11,6 C 6,4 km/h (2 Bft) 95,65 %
17.04.2018 03:26 11,6 C 11,7 C 94 % 1019,8 hPa 0,0 l/m 4,8 km/h (1 Bft) W 261 0 min 0,000 mm 0,0 UV-I 0 W/m 10,7 C 11,6 C 6,4 km/h (2 Bft) 95,83 %
17.04.2018 03:27 11,6 C 11,7 C 94 % 1019,8 hPa 0,0 l/m 5,2 km/h (1 Bft) W 263 0 min 0,000 mm 0,0 UV-I 0 W/m 10,7 C 11,6 C 6,4 km/h (2 Bft) 100,00 %
17.04.2018 03:28 11,6 C 11,7 C 94 % 1019,8 hPa 0,0 l/m 5,4 km/h (1 Bft) W 263 0 min 0,000 mm 0,0 UV-I 0 W/m 10,7 C 11,6 C 6,4 km/h (2 Bft) 95,83 %
17.04.2018 03:29 11,6 C 11,7 C 94 % 1019,8 hPa 0,0 l/m 5,0 km/h (1 Bft) W 263 0 min 0,000 mm 0,0 UV-I 0 W/m 10,7 C 11,6 C 6,4 km/h (2 Bft) 95,65 %
17.04.2018 03:30 11,6 C 11,7 C 94 % 1019,9 hPa 0,0 l/m 6,0 km/h (2 Bft) W 266 0 min 0,000 mm 0,0 UV-I 0 W/m 10,7 C 11,6 C 9,7 km/h (2 Bft) 95,83 %
17.04.2018 03:31 11,6 C 11,7 C 94 % 1019,9 hPa 0,0 l/m 5,7 km/h (1 Bft) W 266 0 min 0,000 mm 0,0 UV-I 0 W/m 10,7 C 11,6 C 6,4 km/h (2 Bft) 100,00 %
17.04.2018 03:32 11,6 C 11,7 C 94 % 1019,9 hPa 0,0 l/m 6,1 km/h (2 Bft) W 269 0 min 0,000 mm 0,0 UV-I 0 W/m 10,7 C 11,6 C 9,7 km/h (2 Bft) 95,83 %
17.04.2018 03:33 11,6 C 11,7 C 94 % 1019,9 hPa 0,0 l/m 6,2 km/h (2 Bft) W 261 0 min 0,000 mm 0,0 UV-I 0 W/m 10,7 C 11,6 C 9,7 km/h (2 Bft) 100,00 %
17.04.2018 03:34 11,6 C 11,7 C 94 % 1019,9 hPa 0,0 l/m 7,6 km/h (2 Bft) W 261 0 min 0,000 mm 0,0 UV-I 0 W/m 10,7 C 10,8 C 11,3 km/h (2 Bft) 96,67 %
17.04.2018 03:35 11,6 C 11,7 C 94 % 1019,9 hPa 0,0 l/m 6,7 km/h (2 Bft) W 262 0 min 0,000 mm 0,0 UV-I 0 W/m 10,7 C 11,4 C 9,7 km/h (2 Bft) 95,83 %
17.04.2018 03:36 11,6 C 11,7 C 94 % 1019,9 hPa 0,0 l/m 6,7 km/h (2 Bft) W 265 0 min 0,000 mm 0,0 UV-I 0 W/m 10,7 C 11,4 C 9,7 km/h (2 Bft) 95,65 %
17.04.2018 03:37 11,6 C 11,7 C 94 % 1019,9 hPa 0,0 l/m 5,8 km/h (2 Bft) W 266 0 min 0,000 mm 0,0 UV-I 0 W/m 10,7 C 11,6 C 9,7 km/h (2 Bft) 95,83 %
17.04.2018 03:38 11,6 C 11,7 C 94 % 1019,9 hPa 0,0 l/m 6,4 km/h (2 Bft) W 265 0 min 0,000 mm 0,0 UV-I 0 W/m 10,7 C 11,6 C 9,7 km/h (2 Bft) 100,00 %
17.04.2018 03:39 11,6 C 11,7 C 94 % 1019,9 hPa 0,0 l/m 6,4 km/h (2 Bft) W 266 0 min 0,000 mm 0,0 UV-I 0 W/m 10,7 C 11,6 C 9,7 km/h (2 Bft) 95,83 %
17.04.2018 03:40 11,6 C 11,7 C 94 % 1020,0 hPa 0,0 l/m 4,2 km/h (1 Bft) W 266 0 min 0,000 mm 0,0 UV-I 0 W/m 10,7 C 11,6 C 6,4 km/h (2 Bft) 95,65 %
17.04.2018 03:41 11,6 C 11,7 C 94 % 1020,0 hPa 0,0 l/m 5,6 km/h (1 Bft) W 267 0 min 0,000 mm 0,0 UV-I 0 W/m 10,7 C 11,6 C 6,4 km/h (2 Bft) 95,83 %
17.04.2018 03:42 11,6 C 11,7 C 94 % 1020,0 hPa 0,0 l/m 6,1 km/h (2 Bft) W 267 0 min 0,000 mm 0,0 UV-I 0 W/m 10,7 C 11,6 C 9,7 km/h (2 Bft) 100,00 %
17.04.2018 03:43 11,6 C 11,7 C 94 % 1020,0 hPa 0,0 l/m 3,9 km/h (1 Bft) W 267 0 min 0,000 mm 0,0 UV-I 0 W/m 10,7 C 11,6 C 4,8 km/h (1 Bft) 91,30 %
17.04.2018 03:44 11,6 C 11,7 C 94 % 1020,0 hPa 0,0 l/m 4,4 km/h (1 Bft) W 267 0 min 0,000 mm 0,0 UV-I 0 W/m 10,7 C 11,6 C 6,4 km/h (2 Bft) 100,00 %
17.04.2018 03:45 11,6 C 11,7 C 94 % 1020,1 hPa 0,0 l/m 3,3 km/h (1 Bft) W 267 0 min 0,000 mm 0,0 UV-I 0 W/m 10,7 C 11,6 C 4,8 km/h (1 Bft) 91,30 %
17.04.2018 03:46 11,6 C 11,7 C 94 % 1020,1 hPa 0,0 l/m 4,1 km/h (1 Bft) W 267 0 min 0,000 mm 0,0 UV-I 0 W/m 10,7 C 11,6 C 4,8 km/h (1 Bft) 87,50 %
17.04.2018 03:47 11,6 C 11,7 C 94 % 1020,1 hPa 0,0 l/m 3,6 km/h (1 Bft) W 267 0 min 0,000 mm 0,0 UV-I 0 W/m 10,7 C 11,6 C 4,8 km/h (1 Bft) 100,00 %
17.04.2018 03:48 11,6 C 11,7 C 94 % 1020,1 hPa 0,0 l/m 3,6 km/h (1 Bft) W 267 0 min 0,000 mm 0,0 UV-I 0 W/m 10,7 C 11,6 C 4,8 km/h (1 Bft) 97,44 %
17.04.2018 03:49 11,6 C 11,7 C 94 % 1020,1 hPa 0,0 l/m 4,0 km/h (1 Bft) W 267 0 min 0,000 mm 0,0 UV-I 0 W/m 10,7 C 11,6 C 4,8 km/h (1 Bft) 100,00 %
17.04.2018 03:50 11,6 C 11,7 C 94 % 1020,1 hPa 0,0 l/m 5,4 km/h (1 Bft) W 262 0 min 0,000 mm 0,0 UV-I 0 W/m 10,7 C 11,6 C 9,7 km/h (2 Bft) 91,67 %
17.04.2018 03:51 11,6 C 11,7 C 94 % 1020,1 hPa 0,0 l/m 5,4 km/h (1 Bft) W 263 0 min 0,000 mm 0,0 UV-I 0 W/m 10,7 C 11,6 C 6,4 km/h (2 Bft) 100,00 %
17.04.2018 03:52 11,5 C 11,7 C 94 % 1020,1 hPa 0,0 l/m 4,8 km/h (1 Bft) W 263 0 min 0,000 mm 0,0 UV-I 0 W/m 10,6 C 11,5 C 6,4 km/h (2 Bft) 92,31 %
17.04.2018 03:53 11,5 C 11,7 C 94 % 1020,1 hPa 0,0 l/m 7,7 km/h (2 Bft) W 260 0 min 0,000 mm 0,0 UV-I 0 W/m 10,6 C 10,6 C 9,7 km/h (2 Bft) 100,00 %
17.04.2018 03:54 11,5 C 11,7 C 94 % 1020,1 hPa 0,0 l/m 5,9 km/h (2 Bft) W 259 0 min 0,000 mm 0,0 UV-I 0 W/m 10,6 C 11,5 C 9,7 km/h (2 Bft) 86,96 %
17.04.2018 03:55 11,5 C 11,7 C 94 % 1020,1 hPa 0,0 l/m 4,8 km/h (1 Bft) W 261 0 min 0,000 mm 0,0 UV-I 0 W/m 10,6 C 11,5 C 6,4 km/h (2 Bft) 95,83 %
17.04.2018 03:56 11,5 C 11,7 C 94 % 1020,1 hPa 0,0 l/m 4,9 km/h (1 Bft) W 261 0 min 0,000 mm 0,0 UV-I 0 W/m 10,6 C 11,5 C 6,4 km/h (2 Bft) 100,00 %
17.04.2018 03:57 11,5 C 11,7 C 94 % 1020,1 hPa 0,0 l/m 6,6 km/h (2 Bft) W 266 0 min 0,000 mm 0,0 UV-I 0 W/m 10,6 C 11,4 C 9,7 km/h (2 Bft) 95,83 %
17.04.2018 03:58 11,5 C 11,7 C 94 % 1020,1 hPa 0,0 l/m 8,5 km/h (2 Bft) W 271 0 min 0,000 mm 0,0 UV-I 0 W/m 10,6 C 10,1 C 11,3 km/h (2 Bft) 100,00 %
17.04.2018 03:59 11,4 C 11,7 C 94 % 1020,1 hPa 0,0 l/m 5,6 km/h (1 Bft) W 268 0 min 0,000 mm 0,0 UV-I 0 W/m 10,5 C 11,4 C 6,4 km/h (2 Bft) 95,83 %
17.04.2018 04:00 11,4 C 11,7 C 94 % 1020,1 hPa 0,0 l/m 4,5 km/h (1 Bft) W 268 0 min 0,000 mm 0,0 UV-I 0 W/m 10,5 C 11,4 C 6,4 km/h (2 Bft) 100,00 %
17.04.2018 04:01 11,4 C 11,7 C 94 % 1020,2 hPa 0,0 l/m 6,4 km/h (2 Bft) W 268 0 min 0,000 mm 0,0 UV-I 0 W/m 10,5 C 11,4 C 6,4 km/h (2 Bft) 100,00 %
17.04.2018 04:02 11,4 C 11,7 C 94 % 1020,1 hPa 0,0 l/m 5,6 km/h (1 Bft) W 269 0 min 0,000 mm 0,0 UV-I 0 W/m 10,5 C 11,4 C 6,4 km/h (2 Bft) 95,65 %
17.04.2018 04:03 11,3 C 11,7 C 94 % 1020,2 hPa 0,0 l/m 5,2 km/h (1 Bft) W 267 0 min 0,000 mm 0,0 UV-I 0 W/m 10,4 C 11,3 C 9,7 km/h (2 Bft) 100,00 %
17.04.2018 04:04 11,3 C 11,7 C 94 % 1020,2 hPa 0,0 l/m 4,0 km/h (1 Bft) W 269 0 min 0,000 mm 0,0 UV-I 0 W/m 10,4 C 11,3 C 4,8 km/h (1 Bft) 95,65 %
17.04.2018 04:05 11,3 C 11,7 C 94 % 1020,3 hPa 0,0 l/m 3,7 km/h (1 Bft) W 269 0 min 0,000 mm 0,0 UV-I 0 W/m 10,4 C 11,3 C 4,8 km/h (1 Bft) 100,00 %
17.04.2018 04:06 11,3 C 11,7 C 94 % 1020,2 hPa 0,0 l/m 4,5 km/h (1 Bft) W 269 0 min 0,000 mm 0,0 UV-I 0 W/m 10,4 C 11,3 C 4,8 km/h (1 Bft) 95,65 %
17.04.2018 04:07 11,2 C 11,7 C 94 % 1020,2 hPa 0,0 l/m 4,9 km/h (1 Bft) W 269 0 min 0,000 mm 0,0 UV-I 0 W/m 10,3 C 11,2 C 6,4 km/h (2 Bft) 100,00 %
17.04.2018 04:08 11,2 C 11,7 C 94 % 1020,3 hPa 0,0 l/m 5,0 km/h (1 Bft) W 269 0 min 0,000 mm 0,0 UV-I 0 W/m 10,3 C 11,2 C 6,4 km/h (2 Bft) 95,65 %
17.04.2018 04:09 11,2 C 11,7 C 94 % 1020,3 hPa 0,0 l/m 4,6 km/h (1 Bft) W 269 0 min 0,000 mm 0,0 UV-I 0 W/m 10,3 C 11,2 C 4,8 km/h (1 Bft) 100,00 %
17.04.2018 04:10 11,2 C 11,7 C 94 % 1020,3 hPa 0,0 l/m 4,2 km/h (1 Bft) W 269 0 min 0,000 mm 0,0 UV-I 0 W/m 10,3 C 11,2 C 4,8 km/h (1 Bft) 95,65 %
17.04.2018 04:11 11,1 C 11,7 C 94 % 1020,3 hPa 0,0 l/m 4,4 km/h (1 Bft) W 269 0 min 0,000 mm 0,0 UV-I 0 W/m 10,2 C 11,1 C 4,8 km/h (1 Bft) 95,83 %
17.04.2018 04:12 11,1 C 11,7 C 94 % 1020,3 hPa 0,0 l/m 4,3 km/h (1 Bft) W 269 0 min 0,000 mm 0,0 UV-I 0 W/m 10,2 C 11,1 C 4,8 km/h (1 Bft) 100,00 %
17.04.2018 04:13 11,1 C 11,7 C 94 % 1020,3 hPa 0,0 l/m 5,5 km/h (1 Bft) W 264 0 min 0,000 mm 0,0 UV-I 0 W/m 10,2 C 11,1 C 6,4 km/h (2 Bft) 100,00 %
17.04.2018 04:14 11,1 C 11,7 C 94 % 1020,2 hPa 0,0 l/m 5,0 km/h (1 Bft) W 264 0 min 0,000 mm 0,0 UV-I 0 W/m 10,2 C 11,1 C 6,4 km/h (2 Bft) 91,67 %
17.04.2018 04:15 11,1 C 11,7 C 94 % 1020,3 hPa 0,0 l/m 5,3 km/h (1 Bft) W 264 0 min 0,000 mm 0,0 UV-I 0 W/m 10,2 C 11,1 C 6,4 km/h (2 Bft) 95,65 %
17.04.2018 04:16 11,1 C 11,7 C 94 % 1020,3 hPa 0,0 l/m 5,3 km/h (1 Bft) W 264 0 min 0,000 mm 0,0 UV-I 0 W/m 10,2 C 11,1 C 6,4 km/h (2 Bft) 100,00 %
17.04.2018 04:17 11,1 C 11,7 C 95 % 1020,3 hPa 0,0 l/m 6,1 km/h (2 Bft) W-SW 252 0 min 0,000 mm 0,0 UV-I 0 W/m 10,3 C 11,1 C 6,4 km/h (2 Bft) 95,65 %
17.04.2018 04:18 11,0 C 11,7 C 94 % 1020,3 hPa 0,0 l/m 5,3 km/h (1 Bft) W 263 0 min 0,000 mm 0,0 UV-I 0 W/m 10,1 C 11,0 C 6,4 km/h (2 Bft) 100,00 %
17.04.2018 04:19 11,0 C 11,7 C 95 % 1020,3 hPa 0,0 l/m 5,1 km/h (1 Bft) W 262 0 min 0,000 mm 0,0 UV-I 0 W/m 10,2 C 11,0 C 6,4 km/h (2 Bft) 95,65 %
17.04.2018 04:20 11,0 C 11,7 C 95 % 1020,3 hPa 0,0 l/m 4,9 km/h (1 Bft) W-SW 258 0 min 0,000 mm 0,0 UV-I 0 W/m 10,2 C 11,0 C 6,4 km/h (2 Bft) 91,67 %
17.04.2018 04:21 11,0 C 11,7 C 95 % 1020,3 hPa 0,0 l/m 4,5 km/h (1 Bft) W-SW 250 0 min 0,000 mm 0,0 UV-I 0 W/m 10,2 C 11,0 C 6,4 km/h (2 Bft) 95,83 %
17.04.2018 04:22 11,0 C 11,7 C 95 % 1020,3 hPa 0,0 l/m 5,4 km/h (1 Bft) W 259 0 min 0,000 mm 0,0 UV-I 0 W/m 10,2 C 11,0 C 9,7 km/h (2 Bft) 100,00 %
17.04.2018 04:23 11,0 C 11,7 C 95 % 1020,3 hPa 0,0 l/m 5,4 km/h (1 Bft) W-SW 258 0 min 0,000 mm 0,0 UV-I 0 W/m 10,2 C 11,0 C 6,4 km/h (2 Bft) 100,00 %
17.04.2018 04:24 11,0 C 11,7 C 94 % 1020,4 hPa 0,0 l/m 4,9 km/h (1 Bft) W 261 0 min 0,000 mm 0,0 UV-I 0 W/m 10,1 C 11,0 C 6,4 km/h (2 Bft) 95,65 %
17.04.2018 04:25 11,0 C 11,7 C 94 % 1020,4 hPa 0,0 l/m 4,9 km/h (1 Bft) W 261 0 min 0,000 mm 0,0 UV-I 0 W/m 10,1 C 11,0 C 6,4 km/h (2 Bft) 100,00 %
17.04.2018 04:26 11,0 C 11,7 C 94 % 1020,4 hPa 0,0 l/m 5,3 km/h (1 Bft) W 261 0 min 0,000 mm 0,0 UV-I 0 W/m 10,1 C 11,0 C 6,4 km/h (2 Bft) 100,00 %
17.04.2018 04:27 10,9 C 11,7 C 94 % 1020,4 hPa 0,0 l/m 5,8 km/h (2 Bft) W 262 0 min 0,000 mm 0,0 UV-I 0 W/m 10,0 C 10,9 C 6,4 km/h (2 Bft) 100,00 %
17.04.2018 04:28 10,9 C 11,7 C 94 % 1020,4 hPa 0,0 l/m 5,5 km/h (1 Bft) W-SW 253 0 min 0,000 mm 0,0 UV-I 0 W/m 10,0 C 10,9 C 6,4 km/h (2 Bft) 100,00 %
17.04.2018 04:29 10,9 C 11,7 C 94 % 1020,4 hPa 0,0 l/m 6,2 km/h (2 Bft) W 261 0 min 0,000 mm 0,0 UV-I 0 W/m 10,0 C 10,9 C 8,0 km/h (2 Bft) 100,00 %
17.04.2018 04:30 10,9 C 11,7 C 95 % 1020,3 hPa 0,0 l/m 5,7 km/h (1 Bft) W 269 0 min 0,000 mm 0,0 UV-I 0 W/m 10,1 C 10,9 C 9,7 km/h (2 Bft) 100,00 %
17.04.2018 04:31 10,9 C 11,7 C 95 % 1020,3 hPa 0,0 l/m 6,4 km/h (2 Bft) W-SW 257 0 min 0,000 mm 0,0 UV-I 0 W/m 10,1 C 10,9 C 9,7 km/h (2 Bft) 100,00 %
17.04.2018 04:32 10,9 C 11,7 C 95 % 1020,4 hPa 0,0 l/m 6,2 km/h (2 Bft) W 261 0 min 0,000 mm 0,0 UV-I 0 W/m 10,1 C 10,9 C 6,4 km/h (2 Bft) 96,30 %
17.04.2018 04:33 10,9 C 11,7 C 95 % 1020,4 hPa 0,0 l/m 6,2 km/h (2 Bft) W 262 0 min 0,000 mm 0,0 UV-I 0 W/m 10,1 C 10,9 C 9,7 km/h (2 Bft) 100,00 %
17.04.2018 04:34 10,9 C 11,7 C 95 % 1020,3 hPa 0,0 l/m 5,7 km/h (1 Bft) W 268 0 min 0,000 mm 0,0 UV-I 0 W/m 10,1 C 10,9 C 6,4 km/h (2 Bft) 100,00 %
17.04.2018 04:35 10,8 C 11,7 C 95 % 1020,3 hPa 0,0 l/m 5,1 km/h (1 Bft) W 268 0 min 0,000 mm 0,0 UV-I 0 W/m 10,0 C 10,8 C 6,4 km/h (2 Bft) 95,65 %
17.04.2018 04:36 10,8 C 11,7 C 95 % 1020,4 hPa 0,0 l/m 4,4 km/h (1 Bft) W 268 0 min 0,000 mm 0,0 UV-I 0 W/m 10,0 C 10,8 C 4,8 km/h (1 Bft) 100,00 %
17.04.2018 04:37 10,8 C 11,7 C 95 % 1020,4 hPa 0,0 l/m 4,4 km/h (1 Bft) W 268 0 min 0,000 mm 0,0 UV-I 0 W/m 10,0 C 10,8 C 4,8 km/h (1 Bft) 100,00 %
17.04.2018 04:38 10,8 C 11,7 C 95 % 1020,4 hPa 0,0 l/m 4,4 km/h (1 Bft) W 268 0 min 0,000 mm 0,0 UV-I 0 W/m 10,0 C 10,8 C 6,4 km/h (2 Bft) 100,00 %
17.04.2018 04:39 10,7 C 11,7 C 95 % 1020,4 hPa 0,0 l/m 3,6 km/h (1 Bft) W 268 0 min 0,000 mm 0,0 UV-I 0 W/m 9,9 C 10,7 C 4,8 km/h (1 Bft) 95,65 %
17.04.2018 04:40 10,7 C 11,7 C 95 % 1020,4 hPa 0,0 l/m 4,4 km/h (1 Bft) W 268 0 min 0,000 mm 0,0 UV-I 0 W/m 9,9 C 10,7 C 6,4 km/h (2 Bft) 100,00 %
17.04.2018 04:41 10,7 C 11,7 C 95 % 1020,5 hPa 0,0 l/m 4,3 km/h (1 Bft) W 268 0 min 0,000 mm 0,0 UV-I 0 W/m 9,9 C 10,7 C 4,8 km/h (1 Bft) 100,00 %
17.04.2018 04:42 10,6 C 11,7 C 95 % 1020,5 hPa 0,0 l/m 4,1 km/h (1 Bft) W 268 0 min 0,000 mm 0,0 UV-I 0 W/m 9,8 C 10,6 C 4,8 km/h (1 Bft) 100,00 %
17.04.2018 04:43 10,6 C 11,7 C 95 % 1020,5 hPa 0,0 l/m 3,8 km/h (1 Bft) W 268 0 min 0,000 mm 0,0 UV-I 0 W/m 9,8 C 10,6 C 4,8 km/h (1 Bft) 100,00 %
17.04.2018 04:44 10,6 C 11,7 C 95 % 1020,5 hPa 0,0 l/m 3,6 km/h (1 Bft) W 268 0 min 0,000 mm 0,0 UV-I 0 W/m 9,8 C 10,6 C 4,8 km/h (1 Bft) 100,00 %
17.04.2018 04:45 10,6 C 11,7 C 95 % 1020,5 hPa 0,0 l/m 3,5 km/h (1 Bft) W 268 0 min 0,000 mm 0,0 UV-I 0 W/m 9,8 C 10,6 C 4,8 km/h (1 Bft) 100,00 %
17.04.2018 04:46 10,6 C 11,7 C 95 % 1020,5 hPa 0,0 l/m 2,1 km/h (1 Bft) W 268 0 min 0,000 mm 0,0 UV-I 0 W/m 9,8 C 10,6 C 3,2 km/h (1 Bft) 100,00 %
17.04.2018 04:47 10,6 C 11,7 C 95 % 1020,4 hPa 0,0 l/m 1,7 km/h (1 Bft) W 268 0 min 0,000 mm 0,0 UV-I 0 W/m 9,8 C 10,6 C 3,2 km/h (1 Bft) 100,00 %
17.04.2018 04:48 10,5 C 11,7 C 95 % 1020,4 hPa 0,0 l/m 2,3 km/h (1 Bft) W 268 0 min 0,000 mm 0,0 UV-I 0 W/m 9,7 C 10,5 C 3,2 km/h (1 Bft) 100,00 %
17.04.2018 04:49 10,4 C 11,7 C 95 % 1020,4 hPa 0,0 l/m 3,0 km/h (1 Bft) W-SW 248 0 min 0,000 mm 0,0 UV-I 0 W/m 9,6 C 10,4 C 4,8 km/h (1 Bft) 100,00 %
17.04.2018 04:50 10,4 C 11,7 C 95 % 1020,5 hPa 0,0 l/m 4,6 km/h (1 Bft) W-SW 248 0 min 0,000 mm 0,0 UV-I 0 W/m 9,6 C 10,4 C 4,8 km/h (1 Bft) 100,00 %
17.04.2018 04:51 10,3 C 11,7 C 95 % 1020,5 hPa 0,0 l/m 3,7 km/h (1 Bft) W-SW 248 0 min 0,000 mm 0,0 UV-I 0 W/m 9,5 C 10,3 C 4,8 km/h (1 Bft) 100,00 %
17.04.2018 04:52 10,1 C 11,7 C 94 % 1020,5 hPa 0,0 l/m 2,6 km/h (1 Bft) W-SW 248 0 min 0,000 mm 0,0 UV-I 0 W/m 9,2 C 10,1 C 4,8 km/h (1 Bft) 100,00 %
17.04.2018 04:53 9,9 C 11,7 C 94 % 1020,4 hPa 0,0 l/m 2,9 km/h (1 Bft) W-SW 248 0 min 0,000 mm 0,0 UV-I 0 W/m 9,0 C 9,9 C 3,2 km/h (1 Bft) 100,00 %
17.04.2018 04:54 9,8 C 11,7 C 95 % 1020,5 hPa 0,0 l/m 3,2 km/h (1 Bft) W-SW 248 0 min 0,000 mm 0,0 UV-I 0 W/m 9,0 C 9,8 C 4,8 km/h (1 Bft) 100,00 %
17.04.2018 04:55 9,7 C 11,7 C 94 % 1020,5 hPa 0,0 l/m 2,5 km/h (1 Bft) W-SW 248 0 min 0,000 mm 0,0 UV-I 0 W/m 8,8 C 9,7 C 3,2 km/h (1 Bft) 100,00 %
17.04.2018 04:56 9,5 C 11,7 C 94 % 1020,5 hPa 0,0 l/m 3,0 km/h (1 Bft) W-SW 248 0 min 0,000 mm 0,0 UV-I 0 W/m 8,6 C 9,5 C 3,2 km/h (1 Bft) 95,65 %
17.04.2018 04:57 9,4 C 11,7 C 94 % 1020,6 hPa 0,0 l/m 2,5 km/h (1 Bft) W-SW 248 0 min 0,000 mm 0,0 UV-I 0 W/m 8,5 C 9,4 C 3,2 km/h (1 Bft) 100,00 %
17.04.2018 04:58 9,3 C 11,7 C 95 % 1020,5 hPa 0,0 l/m 3,0 km/h (1 Bft) W-SW 248 0 min 0,000 mm 0,0 UV-I 0 W/m 8,5 C 9,3 C 4,8 km/h (1 Bft) 100,00 %
17.04.2018 04:59 9,3 C 11,7 C 95 % 1020,5 hPa 0,0 l/m 2,5 km/h (1 Bft) W-SW 248 0 min 0,000 mm 0,0 UV-I 0 W/m 8,5 C 9,3 C 4,8 km/h (1 Bft) 100,00 %
17.04.2018 05:00 9,3 C 11,7 C 95 % 1020,5 hPa 0,0 l/m 2,5 km/h (1 Bft) W-SW 248 0 min 0,000 mm 0,0 UV-I 0 W/m 8,5 C 9,3 C 3,2 km/h (1 Bft) 100,00 %
17.04.2018 05:01 9,3 C 11,7 C 95 % 1020,5 hPa 0,0 l/m 2,3 km/h (1 Bft) W-SW 248 0 min 0,000 mm 0,0 UV-I 0 W/m 8,5 C 9,3 C 4,8 km/h (1 Bft) 100,00 %
17.04.2018 05:02 9,2 C 11,7 C 95 % 1020,6 hPa 0,0 l/m 2,1 km/h (1 Bft) W-SW 248 0 min 0,000 mm 0,0 UV-I 0 W/m 8,4 C 9,2 C 3,2 km/h (1 Bft) 100,00 %
17.04.2018 05:03 9,3 C 11,7 C 96 % 1020,6 hPa 0,0 l/m 3,8 km/h (1 Bft) SW 215 0 min 0,000 mm 0,0 UV-I 0 W/m 8,7 C 9,3 C 6,4 km/h (2 Bft) 100,00 %
17.04.2018 05:04 9,4 C 11,7 C 96 % 1020,6 hPa 0,0 l/m 4,0 km/h (1 Bft) SW 215 0 min 0,000 mm 0,0 UV-I 0 W/m 8,8 C 9,4 C 4,8 km/h (1 Bft) 100,00 %
17.04.2018 05:05 9,4 C 11,7 C 96 % 1020,6 hPa 0,0 l/m 3,2 km/h (1 Bft) SW 215 0 min 0,000 mm 0,0 UV-I 0 W/m 8,8 C 9,4 C 4,8 km/h (1 Bft) 100,00 %
17.04.2018 05:06 9,4 C 11,7 C 96 % 1020,6 hPa 0,0 l/m 4,3 km/h (1 Bft) SW 215 0 min 0,000 mm 0,0 UV-I 0 W/m 8,8 C 9,4 C 6,4 km/h (2 Bft) 100,00 %
17.04.2018 05:07 9,3 C 11,7 C 96 % 1020,6 hPa 0,0 l/m 4,3 km/h (1 Bft) SW 215 0 min 0,000 mm 0,0 UV-I 0 W/m 8,7 C 9,3 C 6,4 km/h (2 Bft) 100,00 %
17.04.2018 05:08 9,3 C 11,7 C 96 % 1020,6 hPa 0,0 l/m 5,0 km/h (1 Bft) SW 215 0 min 0,000 mm 0,0 UV-I 0 W/m 8,7 C 9,3 C 6,4 km/h (2 Bft) 100,00 %
17.04.2018 05:09 9,3 C 11,7 C 96 % 1020,6 hPa 0,0 l/m 4,8 km/h (1 Bft) SW 215 0 min 0,000 mm 0,0 UV-I 0 W/m 8,7 C 9,3 C 4,8 km/h (1 Bft) 100,00 %
17.04.2018 05:10 9,2 C 11,7 C 96 % 1020,6 hPa 0,0 l/m 4,9 km/h (1 Bft) SW 215 0 min 0,000 mm 0,0 UV-I 0 W/m 8,6 C 9,2 C 6,4 km/h (2 Bft) 100,00 %
17.04.2018 05:11 9,2 C 11,7 C 96 % 1020,6 hPa 0,0 l/m 4,3 km/h (1 Bft) SW 215 0 min 0,000 mm 0,0 UV-I 0 W/m 8,6 C 9,2 C 6,4 km/h (2 Bft) 100,00 %
17.04.2018 05:12 9,2 C 11,7 C 96 % 1020,6 hPa 0,0 l/m 5,0 km/h (1 Bft) SW 217 0 min 0,000 mm 0,0 UV-I 0 W/m 8,6 C 9,2 C 6,4 km/h (2 Bft) 95,83 %
17.04.2018 05:13 9,2 C 11,7 C 96 % 1020,6 hPa 0,0 l/m 5,5 km/h (1 Bft) SW 225 0 min 0,000 mm 0,0 UV-I 0 W/m 8,6 C 9,2 C 8,0 km/h (2 Bft) 100,00 %
17.04.2018 05:14 9,3 C 11,7 C 96 % 1020,6 hPa 0,0 l/m 4,3 km/h (1 Bft) SW 225 0 min 0,000 mm 0,0 UV-I 0 W/m 8,7 C 9,3 C 6,4 km/h (2 Bft) 100,00 %
17.04.2018 05:15 9,4 C 11,7 C 96 % 1020,7 hPa 0,0 l/m 3,9 km/h (1 Bft) SW 225 0 min 0,000 mm 0,0 UV-I 0 W/m 8,8 C 9,4 C 4,8 km/h (1 Bft) 100,00 %
17.04.2018 05:16 9,4 C 11,7 C 96 % 1020,7 hPa 0,0 l/m 4,3 km/h (1 Bft) SW 225 0 min 0,000 mm 0,0 UV-I 0 W/m 8,8 C 9,4 C 6,4 km/h (2 Bft) 100,00 %
17.04.2018 05:17 9,6 C 11,7 C 96 % 1020,7 hPa 0,0 l/m 5,0 km/h (1 Bft) SW 229 0 min 0,000 mm 0,0 UV-I 0 W/m 9,0 C 9,6 C 8,0 km/h (2 Bft) 95,83 %
17.04.2018 05:18 9,7 C 11,7 C 96 % 1020,6 hPa 0,0 l/m 5,7 km/h (1 Bft) SW 234 0 min 0,000 mm 0,0 UV-I 0 W/m 9,1 C 9,7 C 6,4 km/h (2 Bft) 100,00 %
17.04.2018 05:19 9,7 C 11,7 C 97 % 1020,7 hPa 0,0 l/m 4,0 km/h (1 Bft) SW 235 0 min 0,000 mm 0,0 UV-I 0 W/m 9,2 C 9,7 C 4,8 km/h (1 Bft) 100,00 %
17.04.2018 05:20 9,7 C 11,7 C 96 % 1020,7 hPa 0,0 l/m 4,9 km/h (1 Bft) SW 236 0 min 0,000 mm 0,0 UV-I 0 W/m 9,1 C 9,7 C 6,4 km/h (2 Bft) 100,00 %
17.04.2018 05:21 9,7 C 11,7 C 96 % 1020,7 hPa 0,0 l/m 4,3 km/h (1 Bft) SW 236 0 min 0,000 mm 0,0 UV-I 0 W/m 9,1 C 9,7 C 4,8 km/h (1 Bft) 100,00 %
17.04.2018 05:22 9,7 C 11,7 C 96 % 1020,7 hPa 0,0 l/m 4,4 km/h (1 Bft) SW 236 0 min 0,000 mm 0,0 UV-I 0 W/m 9,1 C 9,7 C 6,4 km/h (2 Bft) 100,00 %
17.04.2018 05:23 9,8 C 11,7 C 96 % 1020,7 hPa 0,0 l/m 4,5 km/h (1 Bft) SW 236 0 min 0,000 mm 0,0 UV-I 0 W/m 9,2 C 9,8 C 6,4 km/h (2 Bft) 100,00 %
17.04.2018 05:24 9,8 C 11,7 C 96 % 1020,8 hPa 0,0 l/m 4,2 km/h (1 Bft) W-SW 238 0 min 0,000 mm 0,0 UV-I 0 W/m 9,2 C 9,8 C 6,4 km/h (2 Bft) 100,00 %
17.04.2018 05:25 9,7 C 11,7 C 96 % 1020,8 hPa 0,0 l/m 4,3 km/h (1 Bft) W-SW 237 0 min 0,000 mm 0,0 UV-I 0 W/m 9,1 C 9,7 C 6,4 km/h (2 Bft) 100,00 %
17.04.2018 05:26 9,7 C 11,7 C 96 % 1020,8 hPa 0,0 l/m 3,8 km/h (1 Bft) W-SW 238 0 min 0,000 mm 0,0 UV-I 0 W/m 9,1 C 9,7 C 4,8 km/h (1 Bft) 100,00 %
17.04.2018 05:27 9,6 C 11,7 C 96 % 1020,8 hPa 0,0 l/m 4,6 km/h (1 Bft) W-SW 238 0 min 0,000 mm 0,0 UV-I 0 W/m 9,0 C 9,6 C 6,4 km/h (2 Bft) 100,00 %
17.04.2018 05:28 9,6 C 11,7 C 96 % 1020,8 hPa 0,0 l/m 3,1 km/h (1 Bft) W-SW 238 0 min 0,000 mm 0,0 UV-I 0 W/m 9,0 C 9,6 C 4,8 km/h (1 Bft) 100,00 %
17.04.2018 05:29 9,4 C 11,7 C 96 % 1020,7 hPa 0,0 l/m 5,2 km/h (1 Bft) SW 223 0 min 0,000 mm 0,0 UV-I 0 W/m 8,8 C 9,4 C 6,4 km/h (2 Bft) 95,65 %
17.04.2018 05:30 9,4 C 11,7 C 96 % 1020,8 hPa 0,0 l/m 5,2 km/h (1 Bft) SW 233 0 min 0,000 mm 0,0 UV-I 0 W/m 8,8 C 9,4 C 6,4 km/h (2 Bft) 100,00 %
17.04.2018 05:31 9,4 C 11,7 C 96 % 1020,8 hPa 0,0 l/m 4,2 km/h (1 Bft) SW 236 0 min 0,000 mm 0,0 UV-I 0 W/m 8,8 C 9,4 C 6,4 km/h (2 Bft) 95,65 %
17.04.2018 05:32 9,3 C 11,7 C 95 % 1020,9 hPa 0,0 l/m 5,1 km/h (1 Bft) W-SW 238 0 min 0,000 mm 0,0 UV-I 0 W/m 8,5 C 9,3 C 8,0 km/h (2 Bft) 100,00 %
17.04.2018 05:33 9,3 C 11,7 C 96 % 1020,9 hPa 0,0 l/m 4,8 km/h (1 Bft) W-SW 238 0 min 0,000 mm 0,0 UV-I 0 W/m 8,7 C 9,3 C 6,4 km/h (2 Bft) 100,00 %
17.04.2018 05:34 9,3 C 11,7 C 96 % 1020,8 hPa 0,0 l/m 4,6 km/h (1 Bft) W-SW 238 0 min 0,000 mm 0,0 UV-I 0 W/m 8,7 C 9,3 C 6,4 km/h (2 Bft) 100,00 %
17.04.2018 05:35 9,3 C 11,7 C 96 % 1020,8 hPa 0,0 l/m 5,5 km/h (1 Bft) W-SW 237 0 min 0,000 mm 0,0 UV-I 0 W/m 8,7 C 9,3 C 8,0 km/h (2 Bft) 91,30 %
17.04.2018 05:36 9,3 C 11,7 C 96 % 1020,8 hPa 0,0 l/m 5,7 km/h (1 Bft) SW 234 0 min 0,000 mm 0,0 UV-I 0 W/m 8,7 C 9,3 C 8,0 km/h (2 Bft) 100,00 %
17.04.2018 05:37 9,4 C 11,7 C 96 % 1020,9 hPa 0,0 l/m 5,0 km/h (1 Bft) SW 234 0 min 0,000 mm 0,0 UV-I 0 W/m 8,8 C 9,4 C 6,4 km/h (2 Bft) 100,00 %
17.04.2018 05:38 9,3 C 11,7 C 96 % 1020,9 hPa 0,0 l/m 3,8 km/h (1 Bft) SW 230 0 min 0,000 mm 0,0 UV-I 0 W/m 8,7 C 9,3 C 4,8 km/h (1 Bft) 100,00 %
17.04.2018 05:39 9,3 C 11,7 C 96 % 1020,9 hPa 0,0 l/m 3,5 km/h (1 Bft) SW 230 0 min 0,000 mm 0,0 UV-I 0 W/m 8,7 C 9,3 C 4,8 km/h (1 Bft) 100,00 %
17.04.2018 05:40 9,3 C 11,7 C 96 % 1020,9 hPa 0,0 l/m 3,7 km/h (1 Bft) SW 230 0 min 0,000 mm 0,0 UV-I 0 W/m 8,7 C 9,3 C 4,8 km/h (1 Bft) 100,00 %
17.04.2018 05:41 9,3 C 11,7 C 96 % 1020,9 hPa 0,0 l/m 3,8 km/h (1 Bft) SW 230 0 min 0,000 mm 0,0 UV-I 0 W/m 8,7 C 9,3 C 4,8 km/h (1 Bft) 100,00 %
17.04.2018 05:42 9,2 C 11,7 C 96 % 1020,9 hPa 0,0 l/m 4,5 km/h (1 Bft) SW 230 0 min 0,000 mm 0,0 UV-I 0 W/m 8,6 C 9,2 C 6,4 km/h (2 Bft) 100,00 %
17.04.2018 05:43 9,2 C 11,7 C 96 % 1020,9 hPa 0,0 l/m 4,2 km/h (1 Bft) SW 230 0 min 0,000 mm 0,0 UV-I 0 W/m 8,6 C 9,2 C 4,8 km/h (1 Bft) 100,00 %
17.04.2018 05:44 9,1 C 11,7 C 96 % 1020,9 hPa 0,0 l/m 3,5 km/h (1 Bft) SW 230 0 min 0,000 mm 0,0 UV-I 0 W/m 8,5 C 9,1 C 4,8 km/h (1 Bft) 100,00 %
17.04.2018 05:45 9,1 C 11,7 C 96 % 1020,9 hPa 0,0 l/m 3,4 km/h (1 Bft) SW 230 0 min 0,000 mm 0,0 UV-I 0 W/m 8,5 C 9,1 C 4,8 km/h (1 Bft) 95,65 %
17.04.2018 05:46 9,1 C 11,7 C 96 % 1021,0 hPa 0,0 l/m 3,5 km/h (1 Bft) SW 230 0 min 0,000 mm 0,0 UV-I 0 W/m 8,5 C 9,1 C 4,8 km/h (1 Bft) 100,00 %
17.04.2018 05:47 9,1 C 11,7 C 96 % 1021,0 hPa 0,0 l/m 4,1 km/h (1 Bft) SW 230 0 min 0,000 mm 0,0 UV-I 0 W/m 8,5 C 9,1 C 4,8 km/h (1 Bft) 100,00 %
17.04.2018 05:48 9,1 C 11,7 C 96 % 1021,0 hPa 0,0 l/m 4,4 km/h (1 Bft) SW 230 0 min 0,000 mm 0,0 UV-I 0 W/m 8,5 C 9,1 C 4,8 km/h (1 Bft) 100,00 %
17.04.2018 05:49 9,1 C 11,7 C 96 % 1021,0 hPa 0,0 l/m 4,9 km/h (1 Bft) SW 230 0 min 0,000 mm 0,0 UV-I 0 W/m 8,5 C 9,1 C 6,4 km/h (2 Bft) 100,00 %
17.04.2018 05:50 9,2 C 11,7 C 96 % 1021,0 hPa 0,0 l/m 5,5 km/h (1 Bft) SW 230 0 min 0,000 mm 0,0 UV-I 0 W/m 8,6 C 9,2 C 6,4 km/h (2 Bft) 91,30 %
17.04.2018 05:51 9,2 C 11,7 C 96 % 1021,0 hPa 0,0 l/m 5,5 km/h (1 Bft) SW 231 0 min 0,000 mm 0,0 UV-I 0 W/m 8,6 C 9,2 C 6,4 km/h (2 Bft) 95,83 %
17.04.2018 05:52 9,3 C 11,7 C 96 % 1021,0 hPa 0,0 l/m 5,9 km/h (2 Bft) SW 230 0 min 0,000 mm 0,0 UV-I 0 W/m 8,7 C 9,3 C 8,0 km/h (2 Bft) 100,00 %
17.04.2018 05:53 9,3 C 11,7 C 96 % 1021,0 hPa 0,0 l/m 5,6 km/h (1 Bft) SW 230 0 min 0,000 mm 0,0 UV-I 0 W/m 8,7 C 9,3 C 6,4 km/h (2 Bft) 100,00 %
17.04.2018 05:54 9,3 C 11,7 C 96 % 1021,0 hPa 0,0 l/m 5,3 km/h (1 Bft) SW 230 0 min 0,000 mm 0,0 UV-I 0 W/m 8,7 C 9,3 C 8,0 km/h (2 Bft) 100,00 %
17.04.2018 05:55 9,2 C 11,7 C 96 % 1020,9 hPa 0,0 l/m 7,1 km/h (2 Bft) SW 230 0 min 0,000 mm 0,0 UV-I 0 W/m 8,6 C 8,7 C 8,0 km/h (2 Bft) 95,83 %
17.04.2018 05:56 9,2 C 11,7 C 96 % 1021,0 hPa 0,0 l/m 5,2 km/h (1 Bft) SW 229 0 min 0,000 mm 0,0 UV-I 0 W/m 8,6 C 9,2 C 6,4 km/h (2 Bft) 100,00 %
17.04.2018 05:57 9,1 C 11,7 C 96 % 1021,0 hPa 0,0 l/m 5,0 km/h (1 Bft) SW 231 0 min 0,000 mm 0,0 UV-I 0 W/m 8,5 C 9,1 C 6,4 km/h (2 Bft) 95,83 %
17.04.2018 05:58 9,1 C 11,7 C 96 % 1021,0 hPa 0,0 l/m 4,8 km/h (1 Bft) SW 225 0 min 0,000 mm 0,0 UV-I 0 W/m 8,5 C 9,1 C 6,4 km/h (2 Bft) 100,00 %
17.04.2018 05:59 9,0 C 11,7 C 96 % 1021,0 hPa 0,0 l/m 6,7 km/h (2 Bft) SW 217 0 min 0,000 mm 0,0 UV-I 0 W/m 8,4 C 8,8 C 8,0 km/h (2 Bft) 95,83 %
17.04.2018 06:00 9,0 C 11,7 C 96 % 1021,0 hPa 0,0 l/m 5,8 km/h (2 Bft) SW 219 0 min 0,000 mm 0,0 UV-I 0 W/m 8,4 C 9,0 C 8,0 km/h (2 Bft) 100,00 %
17.04.2018 06:01 9,0 C 11,7 C 96 % 1021,0 hPa 0,0 l/m 5,8 km/h (2 Bft) SW 233 0 min 0,000 mm 0,0 UV-I 0 W/m 8,4 C 9,0 C 8,0 km/h (2 Bft) 91,67 %
17.04.2018 06:02 9,0 C 11,7 C 96 % 1021,0 hPa 0,0 l/m 5,6 km/h (1 Bft) SW 232 0 min 0,000 mm 0,0 UV-I 2 W/m 8,4 C 9,0 C 6,4 km/h (2 Bft) 100,00 %
17.04.2018 06:03 9,0 C 11,7 C 96 % 1021,1 hPa 0,0 l/m 6,8 km/h (2 Bft) SW 232 0 min 0,000 mm 0,0 UV-I 5 W/m 8,4 C 8,7 C 8,0 km/h (2 Bft) 95,65 %
17.04.2018 06:04 9,1 C 11,7 C 96 % 1021,0 hPa 0,0 l/m 6,2 km/h (2 Bft) SW 227 0 min 0,000 mm 0,0 UV-I 5 W/m 8,5 C 9,1 C 8,0 km/h (2 Bft) 95,83 %
17.04.2018 06:05 9,1 C 11,7 C 96 % 1021,0 hPa 0,0 l/m 5,4 km/h (1 Bft) SW 225 0 min 0,000 mm 0,0 UV-I 5 W/m 8,5 C 9,1 C 6,4 km/h (2 Bft) 100,00 %
17.04.2018 06:06 9,2 C 11,7 C 96 % 1021,1 hPa 0,0 l/m 4,6 km/h (1 Bft) SW 218 0 min 0,000 mm 0,0 UV-I 5 W/m 8,6 C 9,2 C 6,4 km/h (2 Bft) 86,67 %
17.04.2018 06:07 9,2 C 11,7 C 96 % 1021,0 hPa 0,0 l/m 6,2 km/h (2 Bft) SW 220 0 min 0,000 mm 0,0 UV-I 5 W/m 8,6 C 9,2 C 8,0 km/h (2 Bft) 100,00 %
17.04.2018 06:08 9,1 C 11,7 C 96 % 1021,0 hPa 0,0 l/m 4,4 km/h (1 Bft) SW 229 0 min 0,000 mm 0,0 UV-I 5 W/m 8,5 C 9,1 C 6,4 km/h (2 Bft) 95,83 %
17.04.2018 06:09 9,1 C 11,7 C 96 % 1021,1 hPa 0,0 l/m 5,6 km/h (1 Bft) SW 225 0 min 0,000 mm 0,0 UV-I 5 W/m 8,5 C 9,1 C 8,0 km/h (2 Bft) 100,00 %
17.04.2018 06:10 9,2 C 11,7 C 96 % 1021,0 hPa 0,0 l/m 6,1 km/h (2 Bft) SW 235 0 min 0,000 mm 0,0 UV-I 5 W/m 8,6 C 9,2 C 8,0 km/h (2 Bft) 91,30 %
17.04.2018 06:11 9,2 C 11,7 C 96 % 1021,0 hPa 0,0 l/m 5,1 km/h (1 Bft) SW 231 0 min 0,000 mm 0,0 UV-I 5 W/m 8,6 C 9,2 C 8,0 km/h (2 Bft) 100,00 %
17.04.2018 06:12 9,2 C 11,7 C 96 % 1021,1 hPa 0,0 l/m 5,2 km/h (1 Bft) SW 234 0 min 0,000 mm 0,0 UV-I 5 W/m 8,6 C 9,2 C 8,0 km/h (2 Bft) 86,96 %
17.04.2018 06:13 9,2 C 11,7 C 96 % 1021,1 hPa 0,0 l/m 5,8 km/h (2 Bft) SW 234 0 min 0,000 mm 0,0 UV-I 7 W/m 8,6 C 9,2 C 8,0 km/h (2 Bft) 95,83 %
17.04.2018 06:14 9,2 C 11,7 C 96 % 1021,1 hPa 0,0 l/m 6,4 km/h (2 Bft) W-SW 243 0 min 0,000 mm 0,0 UV-I 7 W/m 8,6 C 9,2 C 8,0 km/h (2 Bft) 100,00 %
17.04.2018 06:15 9,3 C 11,7 C 97 % 1021,1 hPa 0,0 l/m 6,0 km/h (2 Bft) W-SW 238 0 min 0,000 mm 0,0 UV-I 7 W/m 8,8 C 9,3 C 8,0 km/h (2 Bft) 100,00 %
17.04.2018 06:16 9,3 C 11,7 C 97 % 1021,2 hPa 0,0 l/m 3,9 km/h (1 Bft) W-SW 238 0 min 0,000 mm 0,0 UV-I 8 W/m 8,8 C 9,3 C 4,8 km/h (1 Bft) 94,74 %
17.04.2018 06:17 9,3 C 11,7 C 97 % 1021,2 hPa 0,0 l/m 2,5 km/h (1 Bft) W-SW 238 0 min 0,000 mm 0,0 UV-I 9 W/m 8,8 C 9,3 C 4,8 km/h (1 Bft) 95,83 %
17.04.2018 06:18 9,4 C 11,7 C 96 % 1021,2 hPa 0,0 l/m 3,1 km/h (1 Bft) W-SW 238 0 min 0,000 mm 0,0 UV-I 9 W/m 8,8 C 9,4 C 4,8 km/h (1 Bft) 100,00 %
17.04.2018 06:19 9,4 C 11,7 C 96 % 1021,2 hPa 0,0 l/m 3,2 km/h (1 Bft) W-SW 238 0 min 0,000 mm 0,0 UV-I 10 W/m 8,8 C 9,4 C 4,8 km/h (1 Bft) 95,83 %
17.04.2018 06:20 9,3 C 11,7 C 96 % 1021,2 hPa 0,0 l/m 2,3 km/h (1 Bft) W-SW 238 0 min 0,000 mm 0,0 UV-I 11 W/m 8,7 C 9,3 C 3,2 km/h (1 Bft) 91,30 %
17.04.2018 06:21 9,3 C 11,7 C 96 % 1021,2 hPa 0,0 l/m 1,7 km/h (1 Bft) W-SW 238 1 min 0,000 mm 0,0 UV-I 11 W/m 8,7 C 9,3 C 3,2 km/h (1 Bft) 100,00 %
17.04.2018 06:22 9,3 C 11,7 C 96 % 1021,2 hPa 0,0 l/m 2,3 km/h (1 Bft) W-SW 238 1 min 0,000 mm 0,0 UV-I 12 W/m 8,7 C 9,3 C 4,8 km/h (1 Bft) 91,30 %
17.04.2018 06:23 9,3 C 11,7 C 96 % 1021,2 hPa 0,0 l/m 2,3 km/h (1 Bft) W-SW 238 1 min 0,000 mm 0,0 UV-I 12 W/m 8,7 C 9,3 C 4,8 km/h (1 Bft) 100,00 %
17.04.2018 06:24 9,3 C 11,7 C 96 % 1021,2 hPa 0,0 l/m 2,1 km/h (1 Bft) W-SW 238 0 min 0,000 mm 0,0 UV-I 12 W/m 8,7 C 9,3 C 3,2 km/h (1 Bft) 95,65 %
17.04.2018 06:25 9,2 C 11,7 C 96 % 1021,2 hPa 0,0 l/m 2,1 km/h (1 Bft) W-SW 238 0 min 0,000 mm 0,0 UV-I 12 W/m 8,6 C 9,2 C 3,2 km/h (1 Bft) 100,00 %
17.04.2018 06:26 9,2 C 11,7 C 96 % 1021,3 hPa 0,0 l/m 2,1 km/h (1 Bft) W-SW 238 0 min 0,000 mm 0,0 UV-I 13 W/m 8,6 C 9,2 C 3,2 km/h (1 Bft) 95,83 %
17.04.2018 06:27 9,2 C 11,7 C 96 % 1021,3 hPa 0,0 l/m 0,8 km/h (0 Bft) W-SW 238 0 min 0,000 mm 0,0 UV-I 14 W/m 8,6 C 9,2 C 3,2 km/h (1 Bft) 100,00 %
17.04.2018 06:28 9,1 C 11,7 C 96 % 1021,3 hPa 0,0 l/m 1,1 km/h (1 Bft) W-SW 238 0 min 0,000 mm 0,0 UV-I 14 W/m 8,5 C 9,1 C 3,2 km/h (1 Bft) 91,67 %
17.04.2018 06:29 9,2 C 11,7 C 96 % 1021,4 hPa 0,0 l/m 0,3 km/h (0 Bft) W-SW 238 0 min 0,000 mm 0,0 UV-I 16 W/m 8,6 C 9,2 C 1,6 km/h (1 Bft) 94,29 %
17.04.2018 06:30 9,1 C 11,7 C 96 % 1021,4 hPa 0,0 l/m 0,1 km/h (0 Bft) W-SW 238 0 min 0,000 mm 0,0 UV-I 16 W/m 8,5 C 9,1 C 1,6 km/h (1 Bft) 100,00 %
17.04.2018 06:31 9,1 C 11,7 C 96 % 1021,3 hPa 0,0 l/m 0,6 km/h (0 Bft) W-SW 238 0 min 0,000 mm 0,0 UV-I 17 W/m 8,5 C 9,1 C 1,6 km/h (1 Bft) 96,15 %
17.04.2018 06:32 9,0 C 11,7 C 96 % 1021,3 hPa 0,0 l/m 2,3 km/h (1 Bft) W-SW 238 0 min 0,000 mm 0,0 UV-I 18 W/m 8,4 C 9,0 C 3,2 km/h (1 Bft) 100,00 %
17.04.2018 06:33 9,0 C 11,7 C 96 % 1021,4 hPa 0,0 l/m 2,9 km/h (1 Bft) W-SW 238 0 min 0,000 mm 0,0 UV-I 19 W/m 8,4 C 9,0 C 4,8 km/h (1 Bft) 100,00 %
17.04.2018 06:34 9,0 C 11,7 C 96 % 1021,4 hPa 0,0 l/m 3,0 km/h (1 Bft) W-SW 238 0 min 0,000 mm 0,0 UV-I 19 W/m 8,4 C 9,0 C 4,8 km/h (1 Bft) 100,00 %
17.04.2018 06:35 9,0 C 11,7 C 96 % 1021,4 hPa 0,0 l/m 3,8 km/h (1 Bft) W-SW 238 0 min 0,000 mm 0,0 UV-I 21 W/m 8,4 C 9,0 C 4,8 km/h (1 Bft) 95,83 %
17.04.2018 06:36 9,0 C 11,7 C 96 % 1021,5 hPa 0,0 l/m 3,9 km/h (1 Bft) W-SW 240 0 min 0,000 mm 0,0 UV-I 22 W/m 8,4 C 9,0 C 4,8 km/h (1 Bft) 96,15 %
17.04.2018 06:37 9,0 C 11,7 C 96 % 1021,5 hPa 0,0 l/m 4,1 km/h (1 Bft) W-SW 240 0 min 0,000 mm 0,0 UV-I 24 W/m 8,4 C 9,0 C 4,8 km/h (1 Bft) 100,00 %
17.04.2018 06:38 9,0 C 11,7 C 96 % 1021,5 hPa 0,0 l/m 2,9 km/h (1 Bft) W-SW 240 0 min 0,000 mm 0,0 UV-I 25 W/m 8,4 C 9,0 C 4,8 km/h (1 Bft) 92,31 %
17.04.2018 06:39 9,1 C 11,7 C 96 % 1021,5 hPa 0,0 l/m 2,5 km/h (1 Bft) W-SW 240 0 min 0,000 mm 0,0 UV-I 26 W/m 8,5 C 9,1 C 3,2 km/h (1 Bft) 100,00 %
17.04.2018 06:40 9,1 C 11,7 C 96 % 1021,5 hPa 0,0 l/m 3,9 km/h (1 Bft) W-SW 240 0 min 0,000 mm 0,0 UV-I 26 W/m 8,5 C 9,1 C 4,8 km/h (1 Bft) 95,65 %
17.04.2018 06:41 9,1 C 11,7 C 96 % 1021,5 hPa 0,0 l/m 4,4 km/h (1 Bft) W-SW 245 0 min 0,000 mm 0,0 UV-I 28 W/m 8,5 C 9,1 C 6,4 km/h (2 Bft) 100,00 %
17.04.2018 06:42 9,0 C 11,7 C 96 % 1021,5 hPa 0,0 l/m 4,3 km/h (1 Bft) W-SW 244 0 min 0,000 mm 0,0 UV-I 28 W/m 8,4 C 9,0 C 6,4 km/h (2 Bft) 95,65 %
17.04.2018 06:43 9,1 C 11,7 C 96 % 1021,5 hPa 0,0 l/m 2,6 km/h (1 Bft) W-SW 244 0 min 0,000 mm 0,0 UV-I 29 W/m 8,5 C 9,1 C 4,8 km/h (1 Bft) 100,00 %
17.04.2018 06:44 9,1 C 11,7 C 96 % 1021,6 hPa 0,0 l/m 1,4 km/h (1 Bft) W-SW 244 0 min 0,000 mm 0,0 UV-I 30 W/m 8,5 C 9,1 C 3,2 km/h (1 Bft) 95,65 %
17.04.2018 06:45 9,1 C 11,7 C 96 % 1021,6 hPa 0,0 l/m 3,6 km/h (1 Bft) N 355 0 min 0,000 mm 0,0 UV-I 30 W/m 8,5 C 9,1 C 4,8 km/h (1 Bft) 100,00 %
17.04.2018 06:46 9,1 C 11,7 C 96 % 1021,6 hPa 0,0 l/m 4,0 km/h (1 Bft) N 355 0 min 0,000 mm 0,0 UV-I 32 W/m 8,5 C 9,1 C 4,8 km/h (1 Bft) 92,31 %
17.04.2018 06:47 8,9 C 11,7 C 96 % 1021,6 hPa 0,0 l/m 2,3 km/h (1 Bft) N 355 0 min 0,000 mm 0,0 UV-I 32 W/m 8,3 C 8,9 C 3,2 km/h (1 Bft) 95,83 %
17.04.2018 06:48 8,8 C 11,7 C 96 % 1021,6 hPa 0,0 l/m 2,9 km/h (1 Bft) N 355 0 min 0,000 mm 0,0 UV-I 32 W/m 8,2 C 8,8 C 4,8 km/h (1 Bft) 100,00 %
17.04.2018 06:49 8,7 C 11,7 C 96 % 1021,7 hPa 0,0 l/m 1,4 km/h (1 Bft) N 355 0 min 0,000 mm 0,0 UV-I 33 W/m 8,1 C 8,7 C 4,8 km/h (1 Bft) 91,30 %
17.04.2018 06:50 8,7 C 11,7 C 96 % 1021,7 hPa 0,0 l/m 1,4 km/h (1 Bft) N 355 0 min 0,000 mm 0,0 UV-I 34 W/m 8,1 C 8,7 C 3,2 km/h (1 Bft) 100,00 %
17.04.2018 06:51 8,7 C 11,7 C 96 % 1021,7 hPa 0,0 l/m 0,6 km/h (0 Bft) N 355 0 min 0,000 mm 0,0 UV-I 36 W/m 8,1 C 8,7 C 1,6 km/h (1 Bft) 91,30 %
17.04.2018 06:52 8,8 C 11,7 C 96 % 1021,7 hPa 0,0 l/m 0,6 km/h (0 Bft) N 355 0 min 0,000 mm 0,0 UV-I 37 W/m 8,2 C 8,8 C 3,2 km/h (1 Bft) 100,00 %
17.04.2018 06:53 8,9 C 11,7 C 96 % 1021,7 hPa 0,0 l/m 0,7 km/h (0 Bft) N 355 0 min 0,000 mm 0,0 UV-I 39 W/m 8,3 C 8,9 C 3,2 km/h (1 Bft) 95,65 %
17.04.2018 06:54 8,9 C 11,7 C 96 % 1021,8 hPa 0,0 l/m 0,7 km/h (0 Bft) N 355 0 min 0,000 mm 0,0 UV-I 40 W/m 8,3 C 8,9 C 1,6 km/h (1 Bft) 100,00 %
17.04.2018 06:55 9,0 C 11,7 C 96 % 1021,7 hPa 0,0 l/m 1,7 km/h (1 Bft) N 355 0 min 0,000 mm 0,0 UV-I 42 W/m 8,4 C 9,0 C 3,2 km/h (1 Bft) 95,65 %
17.04.2018 06:56 9,0 C 11,7 C 97 % 1021,8 hPa 0,0 l/m 2,0 km/h (1 Bft) NW 317 0 min 0,000 mm 0,0 UV-I 42 W/m 8,5 C 9,0 C 3,2 km/h (1 Bft) 95,83 %
17.04.2018 06:57 9,1 C 11,7 C 97 % 1021,8 hPa 0,0 l/m 0,7 km/h (0 Bft) NW 317 0 min 0,000 mm 0,0 UV-I 43 W/m 8,6 C 9,1 C 1,6 km/h (1 Bft) 91,30 %
17.04.2018 06:58 9,1 C 11,7 C 97 % 1021,8 hPa 0,0 l/m 1,9 km/h (1 Bft) NW 317 0 min 0,000 mm 0,0 UV-I 46 W/m 8,6 C 9,1 C 3,2 km/h (1 Bft) 91,67 %
17.04.2018 06:59 9,1 C 11,7 C 97 % 1021,8 hPa 0,0 l/m 1,7 km/h (1 Bft) NW 317 0 min 0,000 mm 0,0 UV-I 46 W/m 8,6 C 9,1 C 3,2 km/h (1 Bft) 100,00 %
17.04.2018 07:00 9,1 C 11,7 C 97 % 1021,8 hPa 0,0 l/m 2,7 km/h (1 Bft) NW 317 0 min 0,000 mm 0,0 UV-I 48 W/m 8,6 C 9,1 C 3,2 km/h (1 Bft) 95,83 %
17.04.2018 07:01 9,2 C 11,7 C 97 % 1021,8 hPa 0,0 l/m 1,5 km/h (1 Bft) NW 317 0 min 0,000 mm 0,0 UV-I 50 W/m 8,7 C 9,2 C 3,2 km/h (1 Bft) 100,00 %
17.04.2018 07:02 9,2 C 11,7 C 97 % 1021,8 hPa 0,0 l/m 0,9 km/h (0 Bft) NW 317 0 min 0,000 mm 0,0 UV-I 49 W/m 8,7 C 9,2 C 3,2 km/h (1 Bft) 95,83 %
17.04.2018 07:03 9,2 C 11,7 C 97 % 1021,8 hPa 0,0 l/m 0,8 km/h (0 Bft) NW 317 0 min 0,000 mm 0,0 UV-I 51 W/m 8,7 C 9,2 C 1,6 km/h (1 Bft) 100,00 %
17.04.2018 07:04 9,2 C 11,7 C 97 % 1021,8 hPa 0,0 l/m 0,0 km/h (0 Bft) NW 317 0 min 0,000 mm 0,0 UV-I 53 W/m 8,7 C 9,2 C 0,0 km/h (0 Bft) 95,65 %
17.04.2018 07:05 9,2 C 11,7 C 97 % 1021,8 hPa 0,0 l/m 0,0 km/h (0 Bft) NW 317 0 min 0,000 mm 0,0 UV-I 53 W/m 8,7 C 9,2 C 0,0 km/h (0 Bft) 95,83 %
17.04.2018 07:06 9,2 C 11,7 C 97 % 1021,9 hPa 0,0 l/m 0,0 km/h (0 Bft) NW 317 0 min 0,000 mm 0,0 UV-I 52 W/m 8,7 C 9,2 C 0,0 km/h (0 Bft) 100,00 %
17.04.2018 07:07 9,2 C 11,7 C 97 % 1021,9 hPa 0,0 l/m 0,0 km/h (0 Bft) NW 317 0 min 0,000 mm 0,0 UV-I 52 W/m 8,7 C 9,2 C 0,0 km/h (0 Bft) 95,83 %
17.04.2018 07:08 9,1 C 11,7 C 97 % 1021,9 hPa 0,0 l/m 1,2 km/h (1 Bft) NW 317 0 min 0,000 mm 0,0 UV-I 56 W/m 8,6 C 9,1 C 3,2 km/h (1 Bft) 100,00 %
17.04.2018 07:09 9,1 C 11,7 C 97 % 1021,9 hPa 0,0 l/m 0,2 km/h (0 Bft) NW 317 0 min 0,000 mm 0,0 UV-I 58 W/m 8,6 C 9,1 C 1,6 km/h (1 Bft) 95,83 %
17.04.2018 07:10 9,2 C 11,7 C 97 % 1021,9 hPa 0,0 l/m 0,1 km/h (0 Bft) NW 317 0 min 0,000 mm 0,0 UV-I 58 W/m 8,7 C 9,2 C 1,6 km/h (1 Bft) 100,00 %
17.04.2018 07:11 9,2 C 11,7 C 97 % 1021,9 hPa 0,0 l/m 0,2 km/h (0 Bft) NW 317 0 min 0,000 mm 0,0 UV-I 62 W/m 8,7 C 9,2 C 1,6 km/h (1 Bft) 95,83 %
17.04.2018 07:12 9,2 C 11,7 C 97 % 1021,9 hPa 0,0 l/m 0,1 km/h (0 Bft) NW 317 0 min 0,000 mm 0,0 UV-I 63 W/m 8,7 C 9,2 C 1,6 km/h (1 Bft) 95,65 %
17.04.2018 07:13 9,2 C 11,7 C 97 % 1021,9 hPa 0,0 l/m 2,6 km/h (1 Bft) NW 317 0 min 0,000 mm 0,0 UV-I 60 W/m 8,7 C 9,2 C 3,2 km/h (1 Bft) 95,83 %
17.04.2018 07:14 9,2 C 11,7 C 97 % 1022,0 hPa 0,0 l/m 1,3 km/h (1 Bft) NW 317 0 min 0,000 mm 0,0 UV-I 57 W/m 8,7 C 9,2 C 3,2 km/h (1 Bft) 95,65 %
17.04.2018 07:15 9,2 C 11,7 C 97 % 1022,0 hPa 0,0 l/m 2,9 km/h (1 Bft) NW 317 0 min 0,000 mm 0,0 UV-I 56 W/m 8,7 C 9,2 C 4,8 km/h (1 Bft) 95,83 %
17.04.2018 07:16 9,2 C 11,7 C 97 % 1022,0 hPa 0,0 l/m 0,7 km/h (0 Bft) NW 317 0 min 0,000 mm 0,0 UV-I 54 W/m 8,7 C 9,2 C 3,2 km/h (1 Bft) 95,65 %
17.04.2018 07:17 9,2 C 11,7 C 97 % 1022,0 hPa 0,0 l/m 0,5 km/h (0 Bft) NW 317 0 min 0,000 mm 0,0 UV-I 53 W/m 8,7 C 9,2 C 1,6 km/h (1 Bft) 100,00 %
17.04.2018 07:18 9,2 C 11,7 C 97 % 1022,0 hPa 0,0 l/m 1,4 km/h (1 Bft) NW 317 0 min 0,000 mm 0,0 UV-I 52 W/m 8,7 C 9,2 C 3,2 km/h (1 Bft) 100,00 %
17.04.2018 07:19 9,2 C 11,7 C 97 % 1022,0 hPa 0,0 l/m 1,4 km/h (1 Bft) NW 317 0 min 0,000 mm 0,0 UV-I 52 W/m 8,7 C 9,2 C 3,2 km/h (1 Bft) 95,65 %
17.04.2018 07:20 9,2 C 11,7 C 97 % 1022,1 hPa 0,0 l/m 1,3 km/h (1 Bft) NW 318 0 min 0,000 mm 0,0 UV-I 54 W/m 8,7 C 9,2 C 1,6 km/h (1 Bft) 100,00 %
17.04.2018 07:21 9,2 C 11,7 C 97 % 1022,1 hPa 0,0 l/m 1,1 km/h (1 Bft) NW 318 0 min 0,000 mm 0,0 UV-I 54 W/m 8,7 C 9,2 C 3,2 km/h (1 Bft) 95,65 %
17.04.2018 07:22 9,2 C 11,7 C 97 % 1022,1 hPa 0,0 l/m 0,3 km/h (0 Bft) NW 318 0 min 0,000 mm 0,0 UV-I 54 W/m 8,7 C 9,2 C 1,6 km/h (1 Bft) 91,67 %
17.04.2018 07:23 9,2 C 11,7 C 97 % 1022,2 hPa 0,0 l/m 0,1 km/h (0 Bft) NW 318 0 min 0,000 mm 0,0 UV-I 58 W/m 8,7 C 9,2 C 1,6 km/h (1 Bft) 100,00 %
17.04.2018 07:24 9,2 C 11,7 C 97 % 1022,2 hPa 0,0 l/m 0,1 km/h (0 Bft) NW 318 0 min 0,000 mm 0,0 UV-I 56 W/m 8,7 C 9,2 C 1,6 km/h (1 Bft) 95,83 %
17.04.2018 07:25 9,2 C 11,7 C 97 % 1022,2 hPa 0,0 l/m 0,0 km/h (0 Bft) NW 318 0 min 0,000 mm 0,0 UV-I 53 W/m 8,7 C 9,2 C 0,0 km/h (0 Bft) 100,00 %
17.04.2018 07:26 9,3 C 11,7 C 97 % 1022,2 hPa 0,0 l/m 0,0 km/h (0 Bft) NW 318 0 min 0,000 mm 0,0 UV-I 56 W/m 8,8 C 9,3 C 0,0 km/h (0 Bft) 95,83 %
17.04.2018 07:27 9,3 C 11,7 C 97 % 1022,2 hPa 0,0 l/m 0,0 km/h (0 Bft) NW 318 0 min 0,000 mm 0,0 UV-I 54 W/m 8,8 C 9,3 C 0,0 km/h (0 Bft) 91,67 %
17.04.2018 07:28 9,3 C 11,7 C 97 % 1022,2 hPa 0,0 l/m 0,0 km/h (0 Bft) NW 318 0 min 0,000 mm 0,0 UV-I 54 W/m 8,8 C 9,3 C 0,0 km/h (0 Bft) 95,65 %
17.04.2018 07:29 9,3 C 11,7 C 97 % 1022,3 hPa 0,0 l/m 1,9 km/h (1 Bft) NW 319 0 min 0,000 mm 0,0 UV-I 58 W/m 8,8 C 9,3 C 3,2 km/h (1 Bft) 100,00 %
17.04.2018 07:30 9,4 C 11,7 C 97 % 1022,3 hPa 0,0 l/m 3,2 km/h (1 Bft) W-SW 252 0 min 0,000 mm 0,0 UV-I 57 W/m 8,9 C 9,4 C 6,4 km/h (2 Bft) 95,65 %
17.04.2018 07:31 9,4 C 11,7 C 97 % 1022,3 hPa 0,0 l/m 1,7 km/h (1 Bft) N-NW 328 0 min 0,000 mm 0,0 UV-I 59 W/m 8,9 C 9,4 C 3,2 km/h (1 Bft) 96,00 %
17.04.2018 07:32 9,4 C 11,7 C 97 % 1022,3 hPa 0,0 l/m 1,9 km/h (1 Bft) NW 308 0 min 0,000 mm 0,0 UV-I 61 W/m 8,9 C 9,4 C 6,4 km/h (2 Bft) 100,00 %
17.04.2018 07:33 9,4 C 11,7 C 97 % 1022,3 hPa 0,0 l/m 0,1 km/h (0 Bft) NW 308 0 min 0,000 mm 0,0 UV-I 59 W/m 8,9 C 9,4 C 1,6 km/h (1 Bft) 95,83 %
17.04.2018 07:34 9,4 C 11,7 C 97 % 1022,3 hPa 0,0 l/m 0,6 km/h (0 Bft) NW 308 0 min 0,000 mm 0,0 UV-I 62 W/m 8,9 C 9,4 C 1,6 km/h (1 Bft) 100,00 %
17.04.2018 07:35 9,4 C 11,7 C 97 % 1022,3 hPa 0,0 l/m 1,4 km/h (1 Bft) NW 309 0 min 0,000 mm 0,0 UV-I 61 W/m 8,9 C 9,4 C 3,2 km/h (1 Bft) 95,83 %
17.04.2018 07:36 9,3 C 11,7 C 97 % 1022,3 hPa 0,0 l/m 0,6 km/h (0 Bft) S-SW 213 0 min 0,000 mm 0,0 UV-I 59 W/m 8,8 C 9,3 C 1,6 km/h (1 Bft) 100,00 %
17.04.2018 07:37 9,3 C 11,7 C 97 % 1022,3 hPa 0,0 l/m 0,0 km/h (0 Bft) S-SW 213 0 min 0,000 mm 0,0 UV-I 65 W/m 8,8 C 9,3 C 0,0 km/h (0 Bft) 95,83 %
17.04.2018 07:38 9,3 C 11,7 C 97 % 1022,4 hPa 0,0 l/m 0,1 km/h (0 Bft) S-SW 213 0 min 0,000 mm 0,0 UV-I 69 W/m 8,8 C 9,3 C 1,6 km/h (1 Bft) 100,00 %
17.04.2018 07:39 9,3 C 11,7 C 97 % 1022,4 hPa 0,0 l/m 0,2 km/h (0 Bft) S-SW 213 0 min 0,000 mm 0,0 UV-I 62 W/m 8,8 C 9,3 C 1,6 km/h (1 Bft) 95,83 %
17.04.2018 07:40 9,3 C 11,7 C 97 % 1022,5 hPa 0,0 l/m 0,0 km/h (0 Bft) S-SW 213 0 min 0,000 mm 0,0 UV-I 64 W/m 8,8 C 9,3 C 0,0 km/h (0 Bft) 95,65 %
17.04.2018 07:41 9,3 C 11,7 C 97 % 1022,5 hPa 0,0 l/m 0,0 km/h (0 Bft) S-SW 213 0 min 0,000 mm 0,0 UV-I 61 W/m 8,8 C 9,3 C 0,0 km/h (0 Bft) 100,00 %
17.04.2018 07:42 9,2 C 11,7 C 97 % 1022,5 hPa 0,0 l/m 0,3 km/h (0 Bft) S-SW 213 0 min 0,000 mm 0,0 UV-I 63 W/m 8,7 C 9,2 C 1,6 km/h (1 Bft) 100,00 %
17.04.2018 07:43 9,2 C 11,7 C 97 % 1022,5 hPa 0,0 l/m 1,0 km/h (0 Bft) SW 219 0 min 0,000 mm 0,0 UV-I 62 W/m 8,7 C 9,2 C 3,2 km/h (1 Bft) 100,00 %
17.04.2018 07:44 9,2 C 11,7 C 97 % 1022,5 hPa 0,0 l/m 4,1 km/h (1 Bft) NW 312 0 min 0,000 mm 0,0 UV-I 58 W/m 8,7 C 9,2 C 4,8 km/h (1 Bft) 100,00 %
17.04.2018 07:45 9,2 C 11,7 C 97 % 1022,5 hPa 0,0 l/m 1,7 km/h (1 Bft) NW 311 0 min 0,000 mm 0,0 UV-I 65 W/m 8,7 C 9,2 C 4,8 km/h (1 Bft) 100,00 %
17.04.2018 07:46 9,3 C 11,7 C 97 % 1022,5 hPa 0,0 l/m 1,8 km/h (1 Bft) W-NW 298 0 min 0,000 mm 0,0 UV-I 66 W/m 8,8 C 9,3 C 3,2 km/h (1 Bft) 100,00 %
17.04.2018 07:47 9,3 C 11,7 C 97 % 1022,5 hPa 0,0 l/m 1,0 km/h (0 Bft) W-NW 292 0 min 0,000 mm 0,0 UV-I 74 W/m 8,8 C 9,3 C 3,2 km/h (1 Bft) 91,67 %
17.04.2018 07:48 9,3 C 11,7 C 97 % 1022,6 hPa 0,0 l/m 0,0 km/h (0 Bft) W-NW 293 0 min 0,000 mm 0,0 UV-I 74 W/m 8,8 C 9,3 C 0,0 km/h (0 Bft) 100,00 %
17.04.2018 07:49 9,3 C 11,7 C 97 % 1022,6 hPa 0,0 l/m 0,0 km/h (0 Bft) W-NW 293 0 min 0,000 mm 0,0 UV-I 81 W/m 8,8 C 9,3 C 0,0 km/h (0 Bft) 100,00 %
17.04.2018 07:50 9,3 C 11,7 C 97 % 1022,6 hPa 0,0 l/m 0,0 km/h (0 Bft) W-NW 293 0 min 0,000 mm 0,0 UV-I 94 W/m 8,8 C 9,3 C 0,0 km/h (0 Bft) 100,00 %
17.04.2018 07:51 9,3 C 11,7 C 97 % 1022,6 hPa 0,0 l/m 1,3 km/h (1 Bft) W-NW 293 0 min 0,000 mm 0,0 UV-I 72 W/m 8,8 C 9,3 C 3,2 km/h (1 Bft) 100,00 %
17.04.2018 07:52 9,3 C 11,7 C 97 % 1022,6 hPa 0,0 l/m 0,9 km/h (0 Bft) W-NW 293 0 min 0,000 mm 0,0 UV-I 88 W/m 8,8 C 9,3 C 1,6 km/h (1 Bft) 100,00 %
17.04.2018 07:53 9,4 C 11,7 C 97 % 1022,7 hPa 0,0 l/m 2,5 km/h (1 Bft) NW 311 0 min 0,000 mm 0,0 UV-I 80 W/m 8,9 C 9,4 C 6,4 km/h (2 Bft) 100,00 %
17.04.2018 07:54 9,4 C 11,7 C 97 % 1022,6 hPa 0,0 l/m 0,8 km/h (0 Bft) NW 311 0 min 0,000 mm 0,0 UV-I 81 W/m 8,9 C 9,4 C 4,8 km/h (1 Bft) 100,00 %
17.04.2018 07:55 9,4 C 11,7 C 97 % 1022,7 hPa 0,0 l/m 2,1 km/h (1 Bft) W-SW 255 0 min 0,000 mm 0,0 UV-I 79 W/m 8,9 C 9,4 C 4,8 km/h (1 Bft) 100,00 %
17.04.2018 07:56 9,4 C 11,7 C 97 % 1022,7 hPa 0,0 l/m 2,0 km/h (1 Bft) W-SW 255 0 min 0,000 mm 0,0 UV-I 84 W/m 8,9 C 9,4 C 3,2 km/h (1 Bft) 100,00 %
17.04.2018 07:57 9,4 C 11,7 C 97 % 1022,7 hPa 0,0 l/m 3,0 km/h (1 Bft) W-SW 257 0 min 0,000 mm 0,0 UV-I 83 W/m 8,9 C 9,4 C 4,8 km/h (1 Bft) 100,00 %
17.04.2018 07:58 9,5 C 11,7 C 97 % 1022,7 hPa 0,0 l/m 2,7 km/h (1 Bft) W-SW 257 0 min 0,000 mm 0,0 UV-I 73 W/m 9,0 C 9,5 C 4,8 km/h (1 Bft) 100,00 %
17.04.2018 07:59 9,5 C 11,7 C 97 % 1022,7 hPa 0,0 l/m 1,1 km/h (1 Bft) W-SW 257 0 min 0,000 mm 0,0 UV-I 80 W/m 9,0 C 9,5 C 3,2 km/h (1 Bft) 100,00 %
17.04.2018 08:00 9,6 C 11,7 C 97 % 1022,7 hPa 0,0 l/m 3,5 km/h (1 Bft) W-SW 256 0 min 0,000 mm 0,0 UV-I 86 W/m 9,1 C 9,6 C 6,4 km/h (2 Bft) 100,00 %
17.04.2018 08:01 9,6 C 11,7 C 97 % 1022,8 hPa 0,0 l/m 3,4 km/h (1 Bft) W 273 0 min 0,025 mm 0,0 UV-I 83 W/m 9,1 C 9,6 C 4,8 km/h (1 Bft) 96,30 %
17.04.2018 08:02 9,6 C 11,7 C 97 % 1022,8 hPa 0,0 l/m 1,2 km/h (1 Bft) W 273 0 min 0,000 mm 0,0 UV-I 68 W/m 9,1 C 9,6 C 3,2 km/h (1 Bft) 100,00 %
17.04.2018 08:03 9,7 C 11,7 C 97 % 1022,7 hPa 0,0 l/m 0,8 km/h (0 Bft) W 273 0 min 0,000 mm 0,0 UV-I 69 W/m 9,2 C 9,7 C 3,2 km/h (1 Bft) 95,83 %
17.04.2018 08:04 9,7 C 11,7 C 97 % 1022,8 hPa 0,0 l/m 0,9 km/h (0 Bft) W 272 0 min 0,000 mm 0,0 UV-I 77 W/m 9,2 C 9,7 C 3,2 km/h (1 Bft) 100,00 %
17.04.2018 08:05 9,7 C 11,7 C 97 % 1022,8 hPa 0,0 l/m 0,3 km/h (0 Bft) W 272 0 min 0,000 mm 0,0 UV-I 67 W/m 9,2 C 9,7 C 1,6 km/h (1 Bft) 95,65 %
17.04.2018 08:06 9,7 C 11,7 C 97 % 1022,9 hPa 0,0 l/m 0,3 km/h (0 Bft) W 272 0 min 0,000 mm 0,0 UV-I 66 W/m 9,2 C 9,7 C 1,6 km/h (1 Bft) 96,15 %
17.04.2018 08:07 9,7 C 11,7 C 97 % 1022,9 hPa 0,0 l/m 0,6 km/h (0 Bft) W-NW 283 0 min 0,000 mm 0,0 UV-I 67 W/m 9,2 C 9,7 C 3,2 km/h (1 Bft) 95,83 %
17.04.2018 08:08 9,7 C 11,7 C 97 % 1022,8 hPa 0,0 l/m 5,0 km/h (1 Bft) NW 311 0 min 0,000 mm 0,0 UV-I 71 W/m 9,2 C 9,7 C 8,0 km/h (2 Bft) 95,83 %
17.04.2018 08:09 9,7 C 11,7 C 97 % 1022,8 hPa 0,0 l/m 3,7 km/h (1 Bft) W 275 0 min 0,000 mm 0,0 UV-I 69 W/m 9,2 C 9,7 C 4,8 km/h (1 Bft) 95,65 %
17.04.2018 08:10 9,7 C 11,7 C 97 % 1022,8 hPa 0,0 l/m 0,9 km/h (0 Bft) W 275 0 min 0,000 mm 0,0 UV-I 63 W/m 9,2 C 9,7 C 1,6 km/h (1 Bft) 96,30 %
17.04.2018 08:11 9,7 C 11,7 C 97 % 1022,8 hPa 0,0 l/m 0,9 km/h (0 Bft) W 275 0 min 0,000 mm 0,0 UV-I 62 W/m 9,2 C 9,7 C 1,6 km/h (1 Bft) 100,00 %
17.04.2018 08:12 9,8 C 11,7 C 97 % 1022,9 hPa 0,0 l/m 0,2 km/h (0 Bft) W 275 0 min 0,000 mm 0,0 UV-I 73 W/m 9,3 C 9,8 C 1,6 km/h (1 Bft) 96,30 %
17.04.2018 08:13 9,8 C 11,7 C 97 % 1022,9 hPa 0,0 l/m 0,6 km/h (0 Bft) W 275 0 min 0,000 mm 0,0 UV-I 92 W/m 9,3 C 9,8 C 1,6 km/h (1 Bft) 100,00 %
17.04.2018 08:14 9,7 C 11,7 C 97 % 1022,9 hPa 0,0 l/m 1,3 km/h (1 Bft) N-NW 347 0 min 0,000 mm 0,0 UV-I 79 W/m 9,2 C 9,7 C 3,2 km/h (1 Bft) 100,00 %
17.04.2018 08:15 9,8 C 11,7 C 97 % 1023,0 hPa 0,0 l/m 2,0 km/h (1 Bft) N-NW 345 0 min 0,000 mm 0,0 UV-I 64 W/m 9,3 C 9,8 C 4,8 km/h (1 Bft) 100,00 %
17.04.2018 08:16 9,8 C 11,7 C 97 % 1023,0 hPa 0,0 l/m 2,0 km/h (1 Bft) N-NW 346 0 min 0,000 mm 0,0 UV-I 72 W/m 9,3 C 9,8 C 3,2 km/h (1 Bft) 96,15 %
17.04.2018 08:17 9,8 C 11,7 C 97 % 1023,0 hPa 0,0 l/m 1,4 km/h (1 Bft) N-NW 346 0 min 0,000 mm 0,0 UV-I 67 W/m 9,3 C 9,8 C 3,2 km/h (1 Bft) 95,83 %
17.04.2018 08:18 9,8 C 11,7 C 97 % 1023,0 hPa 0,0 l/m 3,0 km/h (1 Bft) N-NW 345 0 min 0,000 mm 0,0 UV-I 71 W/m 9,3 C 9,8 C 4,8 km/h (1 Bft) 100,00 %
17.04.2018 08:19 9,8 C 11,7 C 97 % 1023,0 hPa 0,0 l/m 4,0 km/h (1 Bft) N 5 0 min 0,000 mm 0,0 UV-I 90 W/m 9,3 C 9,8 C 6,4 km/h (2 Bft) 95,83 %
17.04.2018 08:20 9,8 C 11,7 C 97 % 1023,0 hPa 0,0 l/m 5,0 km/h (1 Bft) N-NO 12 0 min 0,000 mm 0,0 UV-I 99 W/m 9,3 C 9,8 C 6,4 km/h (2 Bft) 95,65 %
17.04.2018 08:21 9,8 C 11,7 C 97 % 1023,0 hPa 0,0 l/m 5,3 km/h (1 Bft) N 355 0 min 0,000 mm 0,0 UV-I 89 W/m 9,3 C 9,8 C 6,4 km/h (2 Bft) 95,83 %
17.04.2018 08:22 9,8 C 11,7 C 97 % 1023,1 hPa 0,0 l/m 2,7 km/h (1 Bft) N 355 0 min 0,000 mm 0,0 UV-I 88 W/m 9,3 C 9,8 C 4,8 km/h (1 Bft) 100,00 %
17.04.2018 08:23 9,8 C 11,7 C 97 % 1023,0 hPa 0,0 l/m 4,0 km/h (1 Bft) N-NW 342 0 min 0,000 mm 0,0 UV-I 103 W/m 9,3 C 9,8 C 4,8 km/h (1 Bft) 95,83 %
17.04.2018 08:24 9,9 C 11,7 C 97 % 1023,0 hPa 0,0 l/m 3,3 km/h (1 Bft) N-NW 342 0 min 0,000 mm 0,0 UV-I 102 W/m 9,4 C 9,9 C 4,8 km/h (1 Bft) 95,65 %
17.04.2018 08:25 9,8 C 11,7 C 97 % 1023,1 hPa 0,0 l/m 1,3 km/h (1 Bft) N-NW 342 0 min 0,000 mm 0,0 UV-I 57 W/m 9,3 C 9,8 C 4,8 km/h (1 Bft) 100,00 %
17.04.2018 08:26 9,8 C 11,7 C 97 % 1023,1 hPa 0,0 l/m 0,8 km/h (0 Bft) N-NW 342 0 min 0,000 mm 0,0 UV-I 90 W/m 9,3 C 9,8 C 3,2 km/h (1 Bft) 91,30 %
17.04.2018 08:27 9,9 C 11,7 C 97 % 1023,1 hPa 0,0 l/m 2,5 km/h (1 Bft) N-NW 330 0 min 0,000 mm 0,0 UV-I 93 W/m 9,4 C 9,9 C 4,8 km/h (1 Bft) 100,00 %
17.04.2018 08:28 9,9 C 11,7 C 97 % 1023,2 hPa 0,0 l/m 2,9 km/h (1 Bft) N-NW 330 0 min 0,000 mm 0,0 UV-I 99 W/m 9,4 C 9,9 C 6,4 km/h (2 Bft) 95,65 %
17.04.2018 08:29 9,9 C 11,7 C 97 % 1023,2 hPa 0,0 l/m 1,7 km/h (1 Bft) N-NW 330 0 min 0,000 mm 0,0 UV-I 93 W/m 9,4 C 9,9 C 3,2 km/h (1 Bft) 100,00 %
17.04.2018 08:30 10,0 C 11,7 C 97 % 1023,2 hPa 0,0 l/m 4,0 km/h (1 Bft) N 11 0 min 0,000 mm 0,0 UV-I 105 W/m 9,5 C 10,0 C 6,4 km/h (2 Bft) 95,65 %
17.04.2018 08:31 10,1 C 11,7 C 97 % 1023,2 hPa 0,0 l/m 1,6 km/h (1 Bft) N 11 0 min 0,000 mm 0,0 UV-I 102 W/m 9,6 C 10,1 C 4,8 km/h (1 Bft) 100,00 %
17.04.2018 08:32 10,1 C 11,7 C 97 % 1023,2 hPa 0,0 l/m 0,1 km/h (0 Bft) N 11 0 min 0,000 mm 0,0 UV-I 84 W/m 9,6 C 10,1 C 1,6 km/h (1 Bft) 96,15 %
17.04.2018 08:33 10,1 C 11,7 C 97 % 1023,2 hPa 0,0 l/m 1,9 km/h (1 Bft) N 360 0 min 0,000 mm 0,0 UV-I 98 W/m 9,6 C 10,1 C 3,2 km/h (1 Bft) 95,83 %
17.04.2018 08:34 10,1 C 11,7 C 97 % 1023,2 hPa 0,0 l/m 0,1 km/h (0 Bft) N 360 0 min 0,000 mm 0,0 UV-I 128 W/m 9,6 C 10,1 C 1,6 km/h (1 Bft) 100,00 %
17.04.2018 08:35 10,1 C 11,7 C 97 % 1023,2 hPa 0,0 l/m 0,6 km/h (0 Bft) N 360 0 min 0,000 mm 0,0 UV-I 137 W/m 9,6 C 10,1 C 1,6 km/h (1 Bft) 95,65 %
17.04.2018 08:36 10,1 C 11,7 C 97 % 1023,2 hPa 0,0 l/m 0,1 km/h (0 Bft) N 360 0 min 0,000 mm 0,0 UV-I 120 W/m 9,6 C 10,1 C 1,6 km/h (1 Bft) 100,00 %
17.04.2018 08:37 10,2 C 11,7 C 97 % 1023,2 hPa 0,0 l/m 1,1 km/h (1 Bft) N 355 0 min 0,000 mm 0,0 UV-I 100 W/m 9,7 C 10,2 C 3,2 km/h (1 Bft) 95,65 %
17.04.2018 08:38 10,2 C 11,7 C 97 % 1023,2 hPa 0,0 l/m 2,3 km/h (1 Bft) S-SW 198 0 min 0,000 mm 0,0 UV-I 82 W/m 9,7 C 10,2 C 4,8 km/h (1 Bft) 100,00 %
17.04.2018 08:39 10,2 C 11,7 C 97 % 1023,2 hPa 0,0 l/m 1,1 km/h (1 Bft) S-SW 199 0 min 0,000 mm 0,0 UV-I 98 W/m 9,7 C 10,2 C 1,6 km/h (1 Bft) 100,00 %
17.04.2018 08:40 10,1 C 11,7 C 97 % 1023,2 hPa 0,0 l/m 1,0 km/h (0 Bft) S-SW 199 0 min 0,000 mm 0,0 UV-I 128 W/m 9,6 C 10,1 C 3,2 km/h (1 Bft) 100,00 %
17.04.2018 08:41 10,1 C 11,7 C 97 % 1023,3 hPa 0,0 l/m 1,5 km/h (1 Bft) S-SW 199 0 min 0,000 mm 0,0 UV-I 133 W/m 9,6 C 10,1 C 3,2 km/h (1 Bft) 100,00 %
17.04.2018 08:42 10,2 C 11,7 C 97 % 1023,3 hPa 0,0 l/m 1,5 km/h (1 Bft) S-SW 199 0 min 0,000 mm 0,2 UV-I 119 W/m 9,7 C 10,2 C 3,2 km/h (1 Bft) 100,00 %
17.04.2018 08:43 10,2 C 11,7 C 98 % 1023,3 hPa 0,0 l/m 2,3 km/h (1 Bft) N-NW 348 0 min 0,000 mm 0,5 UV-I 120 W/m 9,9 C 10,2 C 4,8 km/h (1 Bft) 100,00 %
17.04.2018 08:44 10,2 C 11,7 C 98 % 1023,3 hPa 0,0 l/m 1,1 km/h (1 Bft) N-NO 26 0 min 0,000 mm 0,5 UV-I 143 W/m 9,9 C 10,2 C 3,2 km/h (1 Bft) 100,00 %
17.04.2018 08:45 10,2 C 11,7 C 98 % 1023,3 hPa 0,0 l/m 1,7 km/h (1 Bft) W-NW 296 0 min 0,000 mm 0,5 UV-I 147 W/m 9,9 C 10,2 C 4,8 km/h (1 Bft) 100,00 %
17.04.2018 08:46 10,2 C 11,7 C 98 % 1023,3 hPa 0,0 l/m 1,5 km/h (1 Bft) SW 233 0 min 0,000 mm 0,0 UV-I 140 W/m 9,9 C 10,2 C 4,8 km/h (1 Bft) 100,00 %
17.04.2018 08:47 10,2 C 11,7 C 97 % 1023,4 hPa 0,0 l/m 0,3 km/h (0 Bft) W-SW 246 0 min 0,000 mm 0,0 UV-I 157 W/m 9,7 C 10,2 C 1,6 km/h (1 Bft) 100,00 %
17.04.2018 08:48 10,2 C 11,7 C 98 % 1023,4 hPa 0,0 l/m 1,7 km/h (1 Bft) W-SW 246 0 min 0,000 mm 0,0 UV-I 142 W/m 9,9 C 10,2 C 4,8 km/h (1 Bft) 100,00 %
17.04.2018 08:49 10,2 C 11,7 C 97 % 1023,5 hPa 0,0 l/m 1,8 km/h (1 Bft) W-SW 246 0 min 0,000 mm 0,0 UV-I 119 W/m 9,7 C 10,2 C 4,8 km/h (1 Bft) 100,00 %
17.04.2018 08:50 10,3 C 11,7 C 98 % 1023,5 hPa 0,0 l/m 0,0 km/h (0 Bft) W-SW 246 0 min 0,000 mm 0,0 UV-I 143 W/m 10,0 C 10,3 C 0,0 km/h (0 Bft) 100,00 %
17.04.2018 08:51 10,3 C 11,7 C 98 % 1023,5 hPa 0,0 l/m 0,0 km/h (0 Bft) W-SW 246 0 min 0,000 mm 0,0 UV-I 136 W/m 10,0 C 10,3 C 0,0 km/h (0 Bft) 95,83 %
17.04.2018 08:52 10,3 C 11,7 C 98 % 1023,5 hPa 0,0 l/m 0,0 km/h (0 Bft) W-SW 246 0 min 0,000 mm 0,0 UV-I 127 W/m 10,0 C 10,3 C 0,0 km/h (0 Bft) 100,00 %
17.04.2018 08:53 10,3 C 11,7 C 98 % 1023,5 hPa 0,0 l/m 0,0 km/h (0 Bft) W-SW 246 0 min 0,000 mm 0,0 UV-I 136 W/m 10,0 C 10,3 C 0,0 km/h (0 Bft) 100,00 %
17.04.2018 08:54 10,2 C 11,7 C 98 % 1023,5 hPa 0,0 l/m 3,3 km/h (1 Bft) W-SW 246 0 min 0,000 mm 0,0 UV-I 142 W/m 9,9 C 10,2 C 4,8 km/h (1 Bft) 100,00 %
17.04.2018 08:55 10,2 C 11,7 C 98 % 1023,5 hPa 0,0 l/m 4,4 km/h (1 Bft) W-SW 248 0 min 0,000 mm 0,0 UV-I 147 W/m 9,9 C 10,2 C 6,4 km/h (2 Bft) 100,00 %
17.04.2018 08:56 10,3 C 11,7 C 98 % 1023,5 hPa 0,0 l/m 5,2 km/h (1 Bft) W 265 0 min 0,000 mm 0,0 UV-I 140 W/m 10,0 C 10,3 C 9,7 km/h (2 Bft) 100,00 %
17.04.2018 08:57 10,2 C 11,7 C 98 % 1023,5 hPa 0,0 l/m 4,8 km/h (1 Bft) W 265 0 min 0,000 mm 0,5 UV-I 134 W/m 9,9 C 10,2 C 6,4 km/h (2 Bft) 100,00 %
17.04.2018 08:58 10,2 C 11,7 C 98 % 1023,5 hPa 0,0 l/m 3,6 km/h (1 Bft) W 265 0 min 0,000 mm 0,5 UV-I 159 W/m 9,9 C 10,2 C 4,8 km/h (1 Bft) 95,65 %
17.04.2018 08:59 10,2 C 11,7 C 97 % 1023,5 hPa 0,0 l/m 3,3 km/h (1 Bft) W 281 0 min 0,000 mm 0,6 UV-I 186 W/m 9,7 C 10,2 C 4,8 km/h (1 Bft) 100,00 %
17.04.2018 09:00 10,3 C 11,7 C 98 % 1023,5 hPa 0,0 l/m 1,1 km/h (1 Bft) W 281 0 min 0,051 mm 0,6 UV-I 204 W/m 10,0 C 10,3 C 4,8 km/h (1 Bft) 100,00 %
17.04.2018 09:01 10,4 C 11,7 C 97 % 1023,6 hPa 0,0 l/m 2,0 km/h (1 Bft) W-NW 288 0 min 0,000 mm 0,6 UV-I 207 W/m 9,9 C 10,4 C 6,4 km/h (2 Bft) 100,00 %
17.04.2018 09:02 10,4 C 11,7 C 97 % 1023,6 hPa 0,0 l/m 8,6 km/h (2 Bft) S-SW 212 0 min 0,000 mm 0,6 UV-I 198 W/m 9,9 C 8,9 C 12,9 km/h (3 Bft) 100,00 %
17.04.2018 09:03 10,3 C 11,7 C 97 % 1023,5 hPa 0,0 l/m 2,8 km/h (1 Bft) W-SW 257 0 min 0,000 mm 0,6 UV-I 191 W/m 9,8 C 10,3 C 6,4 km/h (2 Bft) 100,00 %
17.04.2018 09:04 10,4 C 11,7 C 98 % 1023,5 hPa 0,0 l/m 2,8 km/h (1 Bft) NW 311 0 min 0,000 mm 0,6 UV-I 220 W/m 10,1 C 10,4 C 4,8 km/h (1 Bft) 100,00 %
17.04.2018 09:05 10,4 C 11,7 C 97 % 1023,5 hPa 0,0 l/m 2,1 km/h (1 Bft) NW 321 0 min 0,000 mm 0,6 UV-I 214 W/m 9,9 C 10,4 C 3,2 km/h (1 Bft) 100,00 %
17.04.2018 09:06 10,4 C 11,7 C 97 % 1023,6 hPa 0,0 l/m 1,8 km/h (1 Bft) NW 320 0 min 0,000 mm 0,7 UV-I 191 W/m 9,9 C 10,4 C 3,2 km/h (1 Bft) 100,00 %
17.04.2018 09:07 10,5 C 11,7 C 98 % 1023,6 hPa 0,0 l/m 3,4 km/h (1 Bft) W-SW 244 0 min 0,000 mm 0,7 UV-I 185 W/m 10,2 C 10,5 C 6,4 km/h (2 Bft) 100,00 %
17.04.2018 09:08 10,5 C 11,7 C 98 % 1023,6 hPa 0,0 l/m 4,1 km/h (1 Bft) W-SW 244 0 min 0,000 mm 0,7 UV-I 240 W/m 10,2 C 10,5 C 4,8 km/h (1 Bft) 100,00 %
17.04.2018 09:09 10,5 C 11,7 C 98 % 1023,5 hPa 0,0 l/m 3,0 km/h (1 Bft) W-SW 249 0 min 0,000 mm 0,7 UV-I 211 W/m 10,2 C 10,5 C 4,8 km/h (1 Bft) 100,00 %
17.04.2018 09:10 10,5 C 11,7 C 98 % 1023,5 hPa 0,0 l/m 2,5 km/h (1 Bft) W-SW 258 0 min 0,000 mm 0,7 UV-I 196 W/m 10,2 C 10,5 C 8,0 km/h (2 Bft) 95,83 %
17.04.2018 09:11 10,5 C 11,7 C 97 % 1023,5 hPa 0,0 l/m 5,1 km/h (1 Bft) W 265 0 min 0,000 mm 0,7 UV-I 217 W/m 10,0 C 10,5 C 11,3 km/h (2 Bft) 95,65 %
17.04.2018 09:12 10,5 C 11,7 C 98 % 1023,6 hPa 0,0 l/m 8,3 km/h (2 Bft) W 263 0 min 0,000 mm 0,8 UV-I 232 W/m 10,2 C 9,2 C 12,9 km/h (3 Bft) 100,00 %
17.04.2018 09:13 10,5 C 11,7 C 98 % 1023,6 hPa 0,0 l/m 7,7 km/h (2 Bft) W 281 1 min 0,000 mm 0,8 UV-I 376 W/m 10,2 C 9,6 C 12,9 km/h (3 Bft) 100,00 %
17.04.2018 09:14 10,6 C 11,7 C 98 % 1023,7 hPa 0,0 l/m 6,6 km/h (2 Bft) W-SW 257 1 min 0,000 mm 0,8 UV-I 371 W/m 10,3 C 10,5 C 9,7 km/h (2 Bft) 100,00 %
17.04.2018 09:15 10,6 C 11,7 C 98 % 1023,6 hPa 0,0 l/m 7,7 km/h (2 Bft) W 276 0 min 0,000 mm 0,8 UV-I 265 W/m 10,3 C 9,7 C 11,3 km/h (2 Bft) 100,00 %
17.04.2018 09:16 10,6 C 11,7 C 98 % 1023,7 hPa 0,0 l/m 5,6 km/h (1 Bft) W 271 0 min 0,000 mm 0,8 UV-I 253 W/m 10,3 C 10,6 C 11,3 km/h (2 Bft) 100,00 %
17.04.2018 09:17 10,6 C 11,7 C 98 % 1023,7 hPa 0,0 l/m 5,7 km/h (1 Bft) W-NW 285 0 min 0,000 mm 0,8 UV-I 256 W/m 10,3 C 10,6 C 9,7 km/h (2 Bft) 100,00 %
17.04.2018 09:18 10,6 C 11,7 C 97 % 1023,8 hPa 0,0 l/m 5,1 km/h (1 Bft) W-NW 296 0 min 0,000 mm 0,9 UV-I 267 W/m 10,1 C 10,6 C 6,4 km/h (2 Bft) 95,65 %
17.04.2018 09:19 10,6 C 11,7 C 97 % 1023,8 hPa 0,0 l/m 3,3 km/h (1 Bft) W-SW 249 0 min 0,000 mm 0,8 UV-I 267 W/m 10,1 C 10,6 C 4,8 km/h (1 Bft) 100,00 %
17.04.2018 09:20 10,6 C 11,7 C 97 % 1023,8 hPa 0,0 l/m 1,3 km/h (1 Bft) W-SW 249 0 min 0,000 mm 0,7 UV-I 224 W/m 10,1 C 10,6 C 3,2 km/h (1 Bft) 100,00 %
17.04.2018 09:21 10,7 C 11,7 C 97 % 1023,8 hPa 0,0 l/m 1,5 km/h (1 Bft) N 5 0 min 0,000 mm 0,7 UV-I 231 W/m 10,2 C 10,7 C 4,8 km/h (1 Bft) 100,00 %
17.04.2018 09:22 10,8 C 11,7 C 97 % 1023,8 hPa 0,0 l/m 2,2 km/h (1 Bft) N 5 0 min 0,000 mm 0,7 UV-I 256 W/m 10,3 C 10,8 C 3,2 km/h (1 Bft) 100,00 %
17.04.2018 09:23 10,8 C 11,7 C 97 % 1023,8 hPa 0,0 l/m 1,8 km/h (1 Bft) N-NO 13 0 min 0,000 mm 0,8 UV-I 258 W/m 10,3 C 10,8 C 3,2 km/h (1 Bft) 95,83 %
17.04.2018 09:24 10,9 C 11,7 C 97 % 1023,8 hPa 0,0 l/m 4,3 km/h (1 Bft) W-SW 240 0 min 0,000 mm 0,8 UV-I 228 W/m 10,4 C 10,9 C 6,4 km/h (2 Bft) 100,00 %
17.04.2018 09:25 10,9 C 11,7 C 97 % 1023,9 hPa 0,0 l/m 4,8 km/h (1 Bft) W 273 1 min 0,000 mm 0,9 UV-I 283 W/m 10,4 C 10,9 C 11,3 km/h (2 Bft) 100,00 %
17.04.2018 09:26 10,9 C 11,7 C 97 % 1023,9 hPa 0,0 l/m 3,6 km/h (1 Bft) W-SW 254 1 min 0,000 mm 0,9 UV-I 301 W/m 10,4 C 10,9 C 6,4 km/h (2 Bft) 100,00 %
17.04.2018 09:27 10,9 C 11,7 C 97 % 1023,8 hPa 0,0 l/m 3,7 km/h (1 Bft) W-NW 286 1 min 0,000 mm 0,9 UV-I 313 W/m 10,4 C 10,9 C 9,7 km/h (2 Bft) 95,83 %
17.04.2018 09:28 10,9 C 11,7 C 97 % 1023,8 hPa 0,0 l/m 7,3 km/h (2 Bft) W 263 1 min 0,000 mm 1,0 UV-I 300 W/m 10,4 C 10,3 C 11,3 km/h (2 Bft) 91,30 %
17.04.2018 09:29 10,9 C 11,7 C 97 % 1023,8 hPa 0,0 l/m 7,0 km/h (2 Bft) W 271 0 min 0,000 mm 1,0 UV-I 281 W/m 10,4 C 10,5 C 11,3 km/h (2 Bft) 100,00 %
17.04.2018 09:30 10,9 C 11,7 C 97 % 1023,8 hPa 0,0 l/m 6,4 km/h (2 Bft) W-SW 246 1 min 0,000 mm 1,1 UV-I 529 W/m 10,4 C 10,9 C 11,3 km/h (2 Bft) 96,15 %
17.04.2018 09:31 11,1 C 11,7 C 97 % 1023,8 hPa 0,0 l/m 5,5 km/h (1 Bft) W-SW 240 1 min 0,000 mm 1,0 UV-I 534 W/m 10,6 C 11,1 C 8,0 km/h (2 Bft) 100,00 %
17.04.2018 09:32 11,2 C 11,7 C 97 % 1023,9 hPa 0,0 l/m 5,3 km/h (1 Bft) W-SW 250 1 min 0,000 mm 0,9 UV-I 336 W/m 10,7 C 11,2 C 6,4 km/h (2 Bft) 100,00 %
17.04.2018 09:33 11,3 C 11,7 C 97 % 1023,8 hPa 0,0 l/m 6,3 km/h (2 Bft) W 260 1 min 0,000 mm 0,9 UV-I 306 W/m 10,8 C 11,3 C 9,7 km/h (2 Bft) 100,00 %
17.04.2018 09:34 11,3 C 11,7 C 97 % 1023,9 hPa 0,0 l/m 3,6 km/h (1 Bft) W 270 1 min 0,000 mm 1,0 UV-I 328 W/m 10,8 C 11,3 C 4,8 km/h (1 Bft) 100,00 %
17.04.2018 09:35 11,2 C 11,7 C 97 % 1023,8 hPa 0,0 l/m 4,7 km/h (1 Bft) W-SW 239 1 min 0,000 mm 1,1 UV-I 307 W/m 10,7 C 11,2 C 6,4 km/h (2 Bft) 95,83 %
17.04.2018 09:36 11,3 C 11,7 C 96 % 1023,8 hPa 0,0 l/m 3,4 km/h (1 Bft) W-SW 239 1 min 0,000 mm 1,1 UV-I 349 W/m 10,7 C 11,3 C 6,4 km/h (2 Bft) 100,00 %
17.04.2018 09:37 11,4 C 11,7 C 97 % 1023,9 hPa 0,0 l/m 2,0 km/h (1 Bft) W-SW 240 1 min 0,000 mm 1,1 UV-I 366 W/m 10,9 C 11,4 C 4,8 km/h (1 Bft) 100,00 %
17.04.2018 09:38 11,6 C 11,7 C 97 % 1023,9 hPa 0,0 l/m 4,5 km/h (1 Bft) W-SW 251 1 min 0,000 mm 1,1 UV-I 390 W/m 11,1 C 11,6 C 6,4 km/h (2 Bft) 100,00 %
17.04.2018 09:39 11,6 C 11,7 C 96 % 1023,9 hPa 0,0 l/m 3,4 km/h (1 Bft) W-SW 252 1 min 0,000 mm 1,1 UV-I 367 W/m 11,0 C 11,6 C 4,8 km/h (1 Bft) 100,00 %
17.04.2018 09:40 11,4 C 11,7 C 96 % 1023,9 hPa 0,0 l/m 2,7 km/h (1 Bft) NW 309 1 min 0,000 mm 1,2 UV-I 336 W/m 10,8 C 11,4 C 4,8 km/h (1 Bft) 100,00 %
17.04.2018 09:41 11,5 C 11,7 C 96 % 1024,0 hPa 0,0 l/m 3,1 km/h (1 Bft) NW 313 1 min 0,000 mm 1,3 UV-I 503 W/m 10,9 C 11,5 C 4,8 km/h (1 Bft) 91,30 %
17.04.2018 09:42 11,7 C 11,7 C 96 % 1024,0 hPa 0,0 l/m 2,4 km/h (1 Bft) NW 313 1 min 0,000 mm 1,3 UV-I 604 W/m 11,1 C 11,7 C 4,8 km/h (1 Bft) 100,00 %
17.04.2018 09:43 11,7 C 11,7 C 96 % 1024,0 hPa 0,0 l/m 2,4 km/h (1 Bft) W-NW 286 1 min 0,000 mm 1,3 UV-I 623 W/m 11,1 C 11,7 C 4,8 km/h (1 Bft) 96,15 %
17.04.2018 09:44 11,8 C 11,7 C 95 % 1024,0 hPa 0,0 l/m 3,2 km/h (1 Bft) W 271 1 min 0,000 mm 1,3 UV-I 568 W/m 11,0 C 11,8 C 4,8 km/h (1 Bft) 100,00 %
17.04.2018 09:45 11,8 C 11,7 C 95 % 1024,0 hPa 0,0 l/m 1,8 km/h (1 Bft) W 273 1 min 0,000 mm 1,2 UV-I 483 W/m 11,0 C 11,8 C 3,2 km/h (1 Bft) 100,00 %
17.04.2018 09:46 12,0 C 11,7 C 96 % 1024,0 hPa 0,0 l/m 2,7 km/h (1 Bft) W-NW 288 1 min 0,000 mm 1,2 UV-I 359 W/m 11,4 C 12,0 C 4,8 km/h (1 Bft) 100,00 %
17.04.2018 09:47 12,1 C 11,7 C 95 % 1024,0 hPa 0,0 l/m 2,1 km/h (1 Bft) N 9 1 min 0,000 mm 1,3 UV-I 357 W/m 11,3 C 12,1 C 4,8 km/h (1 Bft) 100,00 %
17.04.2018 09:48 12,1 C 11,7 C 95 % 1024,0 hPa 0,0 l/m 3,5 km/h (1 Bft) W-SW 242 1 min 0,000 mm 1,3 UV-I 357 W/m 11,3 C 12,1 C 4,8 km/h (1 Bft) 100,00 %
17.04.2018 09:49 12,1 C 11,7 C 94 % 1023,9 hPa 0,0 l/m 4,8 km/h (1 Bft) W-NW 302 1 min 0,000 mm 1,2 UV-I 357 W/m 11,2 C 12,1 C 6,4 km/h (2 Bft) 95,65 %
17.04.2018 09:50 12,1 C 11,7 C 94 % 1023,9 hPa 0,0 l/m 5,0 km/h (1 Bft) W-NW 293 1 min 0,000 mm 1,4 UV-I 409 W/m 11,2 C 12,1 C 6,4 km/h (2 Bft) 100,00 %
17.04.2018 09:51 12,2 C 11,7 C 94 % 1024,0 hPa 0,0 l/m 4,3 km/h (1 Bft) N-NW 327 1 min 0,000 mm 1,4 UV-I 499 W/m 11,3 C 12,2 C 6,4 km/h (2 Bft) 95,65 %
17.04.2018 09:52 12,3 C 11,7 C 94 % 1023,9 hPa 0,0 l/m 4,9 km/h (1 Bft) NW 319 1 min 0,000 mm 1,4 UV-I 496 W/m 11,4 C 12,3 C 6,4 km/h (2 Bft) 100,00 %
17.04.2018 09:53 12,3 C 11,7 C 94 % 1023,9 hPa 0,0 l/m 4,4 km/h (1 Bft) W 280 1 min 0,000 mm 1,5 UV-I 525 W/m 11,4 C 12,3 C 6,4 km/h (2 Bft) 95,83 %
17.04.2018 09:54 12,3 C 11,7 C 93 % 1023,9 hPa 0,0 l/m 3,9 km/h (1 Bft) W 279 1 min 0,000 mm 1,5 UV-I 524 W/m 11,2 C 12,3 C 4,8 km/h (1 Bft) 100,00 %
17.04.2018 09:55 12,3 C 11,7 C 93 % 1023,9 hPa 0,0 l/m 4,9 km/h (1 Bft) W 271 1 min 0,000 mm 1,5 UV-I 524 W/m 11,2 C 12,3 C 9,7 km/h (2 Bft) 100,00 %
17.04.2018 09:56 12,3 C 11,7 C 93 % 1023,9 hPa 0,0 l/m 4,1 km/h (1 Bft) W-NW 282 1 min 0,000 mm 1,5 UV-I 523 W/m 11,2 C 12,3 C 6,4 km/h (2 Bft) 100,00 %
17.04.2018 09:57 12,4 C 11,7 C 92 % 1023,9 hPa 0,0 l/m 4,3 km/h (1 Bft) W 281 1 min 0,000 mm 1,5 UV-I 518 W/m 11,1 C 12,4 C 8,0 km/h (2 Bft) 100,00 %
17.04.2018 09:58 12,5 C 11,7 C 93 % 1023,9 hPa 0,0 l/m 2,6 km/h (1 Bft) W 259 1 min 0,000 mm 1,5 UV-I 508 W/m 11,4 C 12,5 C 4,8 km/h (1 Bft) 95,65 %
17.04.2018 09:59 12,6 C 11,7 C 93 % 1023,9 hPa 0,0 l/m 4,2 km/h (1 Bft) S-SW 209 1 min 0,000 mm 1,5 UV-I 510 W/m 11,5 C 12,6 C 6,4 km/h (2 Bft) 100,00 %
17.04.2018 10:00 12,8 C 11,7 C 93 % 1023,9 hPa 0,0 l/m 5,4 km/h (1 Bft) W-SW 256 1 min 0,178 mm 1,5 UV-I 513 W/m 11,7 C 12,8 C 6,4 km/h (2 Bft) 100,00 %
17.04.2018 10:01 12,8 C 11,7 C 92 % 1023,9 hPa 0,0 l/m 5,9 km/h (2 Bft) W-SW 250 1 min 0,000 mm 1,6 UV-I 527 W/m 11,5 C 12,8 C 9,7 km/h (2 Bft) 100,00 %
17.04.2018 10:02 12,8 C 11,7 C 91 % 1024,0 hPa 0,0 l/m 6,9 km/h (2 Bft) W 261 1 min 0,000 mm 1,6 UV-I 531 W/m 11,4 C 12,5 C 12,9 km/h (3 Bft) 100,00 %
17.04.2018 10:03 12,8 C 11,7 C 91 % 1023,9 hPa 0,2 l/m 7,4 km/h (2 Bft) W 271 1 min 0,000 mm 1,6 UV-I 536 W/m 11,4 C 12,2 C 11,3 km/h (2 Bft) 100,00 %
17.04.2018 10:04 12,9 C 11,7 C 90 % 1024,0 hPa 0,0 l/m 8,2 km/h (2 Bft) W 271 1 min 0,000 mm 1,6 UV-I 534 W/m 11,3 C 11,8 C 11,3 km/h (2 Bft) 100,00 %
17.04.2018 10:05 12,9 C 11,7 C 90 % 1024,0 hPa 0,0 l/m 5,9 km/h (2 Bft) W-SW 238 1 min 0,000 mm 1,6 UV-I 533 W/m 11,3 C 12,9 C 11,3 km/h (2 Bft) 95,65 %
17.04.2018 10:06 12,9 C 11,7 C 90 % 1023,9 hPa 0,0 l/m 12,0 km/h (2 Bft) W-SW 252 1 min 0,000 mm 1,6 UV-I 532 W/m 11,3 C 9,9 C 14,5 km/h (3 Bft) 96,30 %
17.04.2018 10:07 12,9 C 11,7 C 89 % 1024,0 hPa 0,0 l/m 9,1 km/h (2 Bft) W-SW 250 1 min 0,000 mm 1,6 UV-I 540 W/m 11,1 C 11,3 C 12,9 km/h (3 Bft) 95,65 %
17.04.2018 10:08 12,9 C 11,7 C 89 % 1024,0 hPa 0,0 l/m 9,8 km/h (2 Bft) W-SW 242 1 min 0,000 mm 1,6 UV-I 544 W/m 11,1 C 10,9 C 12,9 km/h (3 Bft) 95,83 %
17.04.2018 10:09 12,9 C 11,7 C 90 % 1024,0 hPa 0,0 l/m 10,1 km/h (2 Bft) W-SW 251 1 min 0,000 mm 1,6 UV-I 549 W/m 11,3 C 10,7 C 12,9 km/h (3 Bft) 100,00 %
17.04.2018 10:10 12,9 C 11,7 C 89 % 1024,0 hPa 0,0 l/m 10,3 km/h (2 Bft) NW 323 1 min 0,000 mm 1,6 UV-I 550 W/m 11,1 C 10,6 C 16,1 km/h (3 Bft) 95,83 %
17.04.2018 10:11 12,9 C 11,7 C 89 % 1024,0 hPa 0,0 l/m 7,3 km/h (2 Bft) W-SW 247 1 min 0,000 mm 1,7 UV-I 567 W/m 11,1 C 12,3 C 12,9 km/h (3 Bft) 96,15 %
17.04.2018 10:12 13,1 C 11,7 C 89 % 1024,0 hPa 0,0 l/m 11,5 km/h (2 Bft) W 277 1 min 0,000 mm 1,7 UV-I 564 W/m 11,3 C 10,3 C 16,1 km/h (3 Bft) 95,83 %
17.04.2018 10:13 13,2 C 11,7 C 90 % 1024,0 hPa 0,0 l/m 6,3 km/h (2 Bft) W 269 1 min 0,000 mm 1,7 UV-I 570 W/m 11,6 C 13,2 C 9,7 km/h (2 Bft) 100,00 %
17.04.2018 10:14 13,2 C 11,7 C 89 % 1024,1 hPa 0,0 l/m 5,0 km/h (1 Bft) W 264 1 min 0,000 mm 1,7 UV-I 574 W/m 11,4 C 13,2 C 9,7 km/h (2 Bft) 96,15 %
17.04.2018 10:15 13,2 C 11,7 C 88 % 1024,1 hPa 0,0 l/m 8,2 km/h (2 Bft) W 268 1 min 0,000 mm 1,7 UV-I 584 W/m 11,3 C 12,1 C 12,9 km/h (3 Bft) 100,00 %
17.04.2018 10:16 13,3 C 11,7 C 89 % 1024,1 hPa 0,0 l/m 5,9 km/h (2 Bft) W 274 1 min 0,000 mm 1,7 UV-I 594 W/m 11,5 C 13,3 C 11,3 km/h (2 Bft) 91,30 %
17.04.2018 10:17 13,4 C 11,7 C 88 % 1024,1 hPa 0,0 l/m 6,7 km/h (2 Bft) W 280 1 min 0,000 mm 1,7 UV-I 603 W/m 11,5 C 13,2 C 11,3 km/h (2 Bft) 95,83 %
17.04.2018 10:18 13,3 C 11,7 C 87 % 1024,1 hPa 0,0 l/m 5,7 km/h (1 Bft) SW 223 1 min 0,000 mm 1,7 UV-I 642 W/m 11,2 C 13,3 C 9,7 km/h (2 Bft) 100,00 %
17.04.2018 10:19 13,5 C 11,7 C 88 % 1024,1 hPa 0,0 l/m 3,8 km/h (1 Bft) W 271 1 min 0,000 mm 1,8 UV-I 650 W/m 11,6 C 13,5 C 4,8 km/h (1 Bft) 95,83 %
17.04.2018 10:20 13,6 C 11,7 C 89 % 1024,1 hPa 0,0 l/m 2,9 km/h (1 Bft) W 269 1 min 0,000 mm 1,7 UV-I 606 W/m 11,8 C 13,6 C 4,8 km/h (1 Bft) 100,00 %
17.04.2018 10:21 13,7 C 11,7 C 88 % 1024,1 hPa 0,0 l/m 3,6 km/h (1 Bft) W-NW 295 1 min 0,000 mm 1,6 UV-I 606 W/m 11,7 C 13,7 C 6,4 km/h (2 Bft) 95,83 %
17.04.2018 10:22 13,8 C 11,7 C 88 % 1024,1 hPa 0,0 l/m 3,5 km/h (1 Bft) W 269 1 min 0,000 mm 1,6 UV-I 530 W/m 11,8 C 13,8 C 6,4 km/h (2 Bft) 100,00 %
17.04.2018 10:23 13,9 C 11,7 C 87 % 1024,1 hPa 0,0 l/m 4,2 km/h (1 Bft) N-NW 340 1 min 0,000 mm 1,7 UV-I 499 W/m 11,8 C 13,9 C 6,4 km/h (2 Bft) 95,83 %
17.04.2018 10:24 14,0 C 11,7 C 87 % 1024,1 hPa 0,0 l/m 2,5 km/h (1 Bft) N-NW 340 1 min 0,000 mm 1,6 UV-I 427 W/m 11,9 C 14,0 C 3,2 km/h (1 Bft) 95,65 %
17.04.2018 10:25 13,9 C 11,7 C 86 % 1024,1 hPa 0,0 l/m 5,2 km/h (1 Bft) N 351 1 min 0,000 mm 1,5 UV-I 427 W/m 11,6 C 13,9 C 6,4 km/h (2 Bft) 100,00 %
17.04.2018 10:26 13,9 C 11,7 C 87 % 1024,1 hPa 0,0 l/m 6,9 km/h (2 Bft) N-NW 327 1 min 0,000 mm 1,6 UV-I 427 W/m 11,8 C 13,6 C 8,0 km/h (2 Bft) 91,67 %
17.04.2018 10:27 13,9 C 11,7 C 87 % 1024,2 hPa 0,0 l/m 6,7 km/h (2 Bft) N 9 1 min 0,000 mm 1,6 UV-I 427 W/m 11,8 C 13,7 C 8,0 km/h (2 Bft) 100,00 %
17.04.2018 10:28 13,9 C 11,7 C 87 % 1024,1 hPa 0,0 l/m 5,6 km/h (1 Bft) N 9 1 min 0,000 mm 1,8 UV-I 427 W/m 11,8 C 13,9 C 6,4 km/h (2 Bft) 95,83 %
17.04.2018 10:29 13,9 C 11,7 C 86 % 1024,1 hPa 0,0 l/m 2,5 km/h (1 Bft) N 9 1 min 0,000 mm 1,6 UV-I 427 W/m 11,6 C 13,9 C 3,2 km/h (1 Bft) 95,65 %
17.04.2018 10:30 13,9 C 11,7 C 87 % 1024,1 hPa 0,0 l/m 2,0 km/h (1 Bft) N-NO 17 1 min 0,000 mm 1,7 UV-I 450 W/m 11,8 C 13,9 C 3,2 km/h (1 Bft) 91,67 %
17.04.2018 10:31 13,9 C 11,7 C 87 % 1024,1 hPa 0,0 l/m 3,8 km/h (1 Bft) NW 322 1 min 0,000 mm 1,9 UV-I 601 W/m 11,8 C 13,9 C 8,0 km/h (2 Bft) 100,00 %
17.04.2018 10:32 13,8 C 11,7 C 87 % 1024,1 hPa 0,0 l/m 4,2 km/h (1 Bft) N-NW 337 1 min 0,000 mm 1,9 UV-I 601 W/m 11,7 C 13,8 C 6,4 km/h (2 Bft) 95,83 %
17.04.2018 10:33 13,9 C 11,7 C 87 % 1024,1 hPa 0,0 l/m 3,0 km/h (1 Bft) N-NW 336 1 min 0,000 mm 1,9 UV-I 601 W/m 11,8 C 13,9 C 4,8 km/h (1 Bft) 100,00 %
17.04.2018 10:34 14,0 C 11,7 C 87 % 1024,1 hPa 0,0 l/m 4,8 km/h (1 Bft) N-NW 327 1 min 0,000 mm 1,9 UV-I 601 W/m 11,9 C 14,0 C 8,0 km/h (2 Bft) 95,83 %
17.04.2018 10:35 14,0 C 11,7 C 87 % 1024,1 hPa 0,0 l/m 6,9 km/h (2 Bft) NW 317 1 min 0,000 mm 1,9 UV-I 601 W/m 11,9 C 13,7 C 8,0 km/h (2 Bft) 100,00 %
17.04.2018 10:36 14,1 C 11,7 C 86 % 1024,2 hPa 0,0 l/m 5,8 km/h (2 Bft) N 5 1 min 0,000 mm 1,8 UV-I 383 W/m 11,8 C 14,1 C 8,0 km/h (2 Bft) 95,83 %
17.04.2018 10:37 14,0 C 11,7 C 86 % 1024,2 hPa 0,0 l/m 5,1 km/h (1 Bft) N-NW 327 1 min 0,000 mm 1,9 UV-I 383 W/m 11,7 C 14,0 C 8,0 km/h (2 Bft) 100,00 %
17.04.2018 10:38 14,1 C 11,7 C 86 % 1024,2 hPa 0,0 l/m 4,8 km/h (1 Bft) NW 311 1 min 0,000 mm 1,7 UV-I 415 W/m 11,8 C 14,1 C 8,0 km/h (2 Bft) 91,67 %
17.04.2018 10:39 14,1 C 11,7 C 86 % 1024,2 hPa 0,0 l/m 4,6 km/h (1 Bft) N-NW 336 1 min 0,000 mm 1,6 UV-I 452 W/m 11,8 C 14,1 C 6,4 km/h (2 Bft) 95,83 %
17.04.2018 10:40 14,0 C 11,7 C 85 % 1024,2 hPa 0,0 l/m 2,5 km/h (1 Bft) NW 323 0 min 0,000 mm 1,5 UV-I 301 W/m 11,5 C 14,0 C 4,8 km/h (1 Bft) 91,30 %
17.04.2018 10:41 13,9 C 11,7 C 85 % 1024,2 hPa 0,0 l/m 5,7 km/h (1 Bft) NW 325 0 min 0,000 mm 1,5 UV-I 256 W/m 11,4 C 13,9 C 8,0 km/h (2 Bft) 95,83 %
17.04.2018 10:42 13,9 C 11,7 C 85 % 1024,3 hPa 0,0 l/m 2,8 km/h (1 Bft) N 5 0 min 0,000 mm 1,6 UV-I 278 W/m 11,4 C 13,9 C 4,8 km/h (1 Bft) 100,00 %
17.04.2018 10:43 13,9 C 11,7 C 86 % 1024,2 hPa 0,0 l/m 2,2 km/h (1 Bft) N-NW 348 1 min 0,000 mm 2,0 UV-I 406 W/m 11,6 C 13,9 C 6,4 km/h (2 Bft) 95,83 %
17.04.2018 10:44 14,1 C 11,7 C 87 % 1024,3 hPa 0,0 l/m 5,8 km/h (2 Bft) N-NW 345 1 min 0,000 mm 2,1 UV-I 660 W/m 12,0 C 14,1 C 8,0 km/h (2 Bft) 100,00 %
17.04.2018 10:45 14,2 C 11,7 C 86 % 1024,3 hPa 0,0 l/m 5,8 km/h (2 Bft) N-NW 343 1 min 0,000 mm 2,1 UV-I 656 W/m 11,9 C 14,2 C 9,7 km/h (2 Bft) 95,83 %
17.04.2018 10:46 14,3 C 11,7 C 87 % 1024,3 hPa 0,0 l/m 6,5 km/h (2 Bft) N 5 1 min 0,000 mm 2,1 UV-I 660 W/m 12,2 C 14,3 C 8,0 km/h (2 Bft) 95,65 %
17.04.2018 10:47 14,4 C 11,7 C 86 % 1024,3 hPa 0,0 l/m 3,5 km/h (1 Bft) N 11 1 min 0,000 mm 2,1 UV-I 611 W/m 12,1 C 14,4 C 6,4 km/h (2 Bft) 95,83 %
17.04.2018 10:48 14,5 C 11,7 C 85 % 1024,3 hPa 0,0 l/m 6,7 km/h (2 Bft) N 355 1 min 0,000 mm 2,1 UV-I 623 W/m 12,0 C 14,3 C 9,7 km/h (2 Bft) 100,00 %
17.04.2018 10:49 14,6 C 11,7 C 85 % 1024,3 hPa 0,0 l/m 9,5 km/h (2 Bft) N 355 1 min 0,000 mm 2,1 UV-I 624 W/m 12,1 C 12,9 C 17,7 km/h (3 Bft) 95,83 %
17.04.2018 10:50 14,6 C 11,7 C 84 % 1024,3 hPa 0,0 l/m 6,6 km/h (2 Bft) N-NO 15 1 min 0,000 mm 2,2 UV-I 628 W/m 11,9 C 14,5 C 9,7 km/h (2 Bft) 95,83 %
17.04.2018 10:51 14,7 C 11,7 C 85 % 1024,3 hPa 0,0 l/m 5,7 km/h (1 Bft) N-NW 339 1 min 0,000 mm 2,2 UV-I 632 W/m 12,2 C 14,7 C 6,4 km/h (2 Bft) 100,00 %
17.04.2018 10:52 14,7 C 11,7 C 85 % 1024,3 hPa 0,0 l/m 6,3 km/h (2 Bft) N 355 1 min 0,000 mm 2,2 UV-I 638 W/m 12,2 C 14,7 C 8,0 km/h (2 Bft) 95,83 %
17.04.2018 10:53 14,7 C 11,7 C 83 % 1024,3 hPa 0,0 l/m 4,0 km/h (1 Bft) NW 309 1 min 0,000 mm 2,2 UV-I 639 W/m 11,8 C 14,7 C 6,4 km/h (2 Bft) 100,00 %
17.04.2018 10:54 14,7 C 11,7 C 84 % 1024,3 hPa 0,0 l/m 5,1 km/h (1 Bft) NW 326 1 min 0,000 mm 2,2 UV-I 650 W/m 12,0 C 14,7 C 6,4 km/h (2 Bft) 95,83 %
17.04.2018 10:55 14,7 C 11,7 C 83 % 1024,3 hPa 0,0 l/m 2,1 km/h (1 Bft) N-NW 329 1 min 0,000 mm 2,2 UV-I 649 W/m 11,8 C 14,7 C 6,4 km/h (2 Bft) 100,00 %
17.04.2018 10:56 14,7 C 11,7 C 83 % 1024,4 hPa 0,0 l/m 1,5 km/h (1 Bft) N-NO 18 1 min 0,000 mm 2,2 UV-I 653 W/m 11,8 C 14,7 C 4,8 km/h (1 Bft) 95,83 %
17.04.2018 10:57 14,7 C 11,7 C 84 % 1024,4 hPa 0,0 l/m 3,9 km/h (1 Bft) N-NO 18 1 min 0,000 mm 2,3 UV-I 658 W/m 12,0 C 14,7 C 6,4 km/h (2 Bft) 100,00 %
17.04.2018 10:58 14,8 C 11,7 C 84 % 1024,4 hPa 0,0 l/m 5,7 km/h (1 Bft) W-NW 285 1 min 0,000 mm 2,3 UV-I 659 W/m 12,1 C 14,8 C 8,0 km/h (2 Bft) 95,83 %
17.04.2018 10:59 14,8 C 11,7 C 83 % 1024,4 hPa 0,0 l/m 7,2 km/h (2 Bft) N-NO 16 1 min 0,000 mm 2,3 UV-I 676 W/m 11,9 C 14,3 C 9,7 km/h (2 Bft) 100,00 %
17.04.2018 11:00 14,8 C 11,7 C 84 % 1024,4 hPa 0,0 l/m 7,0 km/h (2 Bft) N-NW 331 1 min 0,279 mm 2,3 UV-I 654 W/m 12,1 C 14,5 C 12,9 km/h (3 Bft) 95,83 %
17.04.2018 11:01 14,8 C 11,7 C 83 % 1024,4 hPa 0,0 l/m 5,5 km/h (1 Bft) NW 321 1 min 0,000 mm 2,3 UV-I 639 W/m 11,9 C 14,8 C 9,7 km/h (2 Bft) 100,00 %
17.04.2018 11:02 14,9 C 11,7 C 83 % 1024,4 hPa 0,0 l/m 4,4 km/h (1 Bft) N 350 1 min 0,000 mm 2,2 UV-I 677 W/m 12,0 C 14,9 C 6,4 km/h (2 Bft) 95,83 %
17.04.2018 11:03 14,9 C 11,7 C 82 % 1024,4 hPa 0,0 l/m 3,5 km/h (1 Bft) NW 311 1 min 0,000 mm 2,1 UV-I 645 W/m 11,9 C 14,9 C 6,4 km/h (2 Bft) 95,83 %
17.04.2018 11:04 14,8 C 11,7 C 82 % 1024,4 hPa 0,0 l/m 5,9 km/h (2 Bft) N 355 1 min 0,000 mm 2,0 UV-I 633 W/m 11,8 C 14,8 C 8,0 km/h (2 Bft) 95,65 %
17.04.2018 11:05 14,8 C 11,7 C 82 % 1024,4 hPa 0,0 l/m 4,2 km/h (1 Bft) N-NW 336 0 min 0,000 mm 1,7 UV-I 276 W/m 11,8 C 14,8 C 6,4 km/h (2 Bft) 96,30 %
17.04.2018 11:06 14,6 C 11,7 C 81 % 1024,4 hPa 0,0 l/m 4,3 km/h (1 Bft) N-NW 338 0 min 0,000 mm 1,8 UV-I 257 W/m 11,4 C 14,6 C 6,4 km/h (2 Bft) 100,00 %
17.04.2018 11:07 14,6 C 11,7 C 82 % 1024,4 hPa 0,0 l/m 7,3 km/h (2 Bft) N-NW 339 0 min 0,000 mm 2,3 UV-I 257 W/m 11,6 C 14,1 C 12,9 km/h (3 Bft) 96,30 %
17.04.2018 11:08 14,6 C 11,7 C 83 % 1024,4 hPa 0,0 l/m 6,6 km/h (2 Bft) N-NW 327 0 min 0,000 mm 2,3 UV-I 257 W/m 11,7 C 14,5 C 8,0 km/h (2 Bft) 100,00 %
17.04.2018 11:09 14,7 C 11,7 C 82 % 1024,3 hPa 0,0 l/m 8,2 km/h (2 Bft) N-NW 336 0 min 0,000 mm 2,4 UV-I 257 W/m 11,7 C 13,7 C 12,9 km/h (3 Bft) 95,83 %
17.04.2018 11:10 14,7 C 11,7 C 82 % 1024,4 hPa 0,0 l/m 6,0 km/h (2 Bft) N 355 0 min 0,000 mm 2,0 UV-I 257 W/m 11,7 C 14,7 C 8,0 km/h (2 Bft) 100,00 %
17.04.2018 11:11 14,7 C 11,7 C 82 % 1024,4 hPa 0,0 l/m 5,8 km/h (2 Bft) W 270 0 min 0,000 mm 1,9 UV-I 327 W/m 11,7 C 14,7 C 8,0 km/h (2 Bft) 95,83 %
17.04.2018 11:12 14,7 C 11,7 C 82 % 1024,4 hPa 0,0 l/m 4,4 km/h (1 Bft) W 267 1 min 0,000 mm 2,4 UV-I 431 W/m 11,7 C 14,7 C 6,4 km/h (2 Bft) 100,00 %
17.04.2018 11:13 14,6 C 11,7 C 81 % 1024,4 hPa 0,0 l/m 3,3 km/h (1 Bft) NW 310 1 min 0,000 mm 2,4 UV-I 689 W/m 11,4 C 14,6 C 4,8 km/h (1 Bft) 95,83 %
17.04.2018 11:14 14,7 C 11,7 C 83 % 1024,4 hPa 0,0 l/m 5,8 km/h (2 Bft) N 350 1 min 0,000 mm 2,5 UV-I 708 W/m 11,8 C 14,7 C 9,7 km/h (2 Bft) 96,55 %
17.04.2018 11:15 14,8 C 11,7 C 82 % 1024,4 hPa 0,0 l/m 7,7 km/h (2 Bft) N 351 1 min 0,000 mm 2,5 UV-I 733 W/m 11,8 C 14,1 C 12,9 km/h (3 Bft) 95,83 %
17.04.2018 11:16 14,9 C 11,7 C 83 % 1024,4 hPa 0,0 l/m 6,5 km/h (2 Bft) N 9 1 min 0,000 mm 2,4 UV-I 705 W/m 12,0 C 14,9 C 9,7 km/h (2 Bft) 95,65 %
17.04.2018 11:17 15,1 C 11,7 C 82 % 1024,4 hPa 0,0 l/m 6,8 km/h (2 Bft) N-NO 25 1 min 0,000 mm 2,2 UV-I 700 W/m 12,0 C 14,9 C 9,7 km/h (2 Bft) 100,00 %
17.04.2018 11:18 15,2 C 11,7 C 81 % 1024,4 hPa 0,0 l/m 6,4 km/h (2 Bft) N 11 1 min 0,000 mm 2,4 UV-I 700 W/m 12,0 C 15,2 C 8,0 km/h (2 Bft) 95,65 %
17.04.2018 11:19 15,2 C 11,7 C 81 % 1024,4 hPa 0,0 l/m 5,6 km/h (1 Bft) N 360 1 min 0,000 mm 2,0 UV-I 558 W/m 12,0 C 15,2 C 9,7 km/h (2 Bft) 100,00 %
17.04.2018 11:20 15,3 C 11,7 C 83 % 1024,4 hPa 0,0 l/m 6,7 km/h (2 Bft) W-NW 284 0 min 0,000 mm 2,0 UV-I 294 W/m 12,4 C 15,1 C 9,7 km/h (2 Bft) 96,30 %
17.04.2018 11:21 15,3 C 11,7 C 81 % 1024,4 hPa 0,0 l/m 6,2 km/h (2 Bft) W 270 0 min 0,000 mm 2,3 UV-I 294 W/m 12,1 C 15,3 C 9,7 km/h (2 Bft) 95,65 %
17.04.2018 11:22 15,3 C 11,7 C 81 % 1024,5 hPa 0,0 l/m 4,0 km/h (1 Bft) W 270 0 min 0,000 mm 2,5 UV-I 311 W/m 12,1 C 15,3 C 6,4 km/h (2 Bft) 95,83 %
17.04.2018 11:23 15,4 C 11,7 C 80 % 1024,5 hPa 0,0 l/m 5,8 km/h (2 Bft) W-NW 284 1 min 0,000 mm 2,6 UV-I 714 W/m 12,0 C 15,4 C 9,7 km/h (2 Bft) 100,00 %
17.04.2018 11:24 15,3 C 11,7 C 79 % 1024,6 hPa 0,0 l/m 4,3 km/h (1 Bft) W-NW 296 1 min 0,000 mm 2,6 UV-I 721 W/m 11,7 C 15,3 C 6,4 km/h (2 Bft) 95,83 %
17.04.2018 11:25 15,3 C 11,7 C 80 % 1024,6 hPa 0,0 l/m 5,8 km/h (2 Bft) NW 321 1 min 0,000 mm 2,6 UV-I 723 W/m 11,9 C 15,3 C 8,0 km/h (2 Bft) 100,00 %
17.04.2018 11:26 15,4 C 11,7 C 81 % 1024,6 hPa 0,0 l/m 4,6 km/h (1 Bft) W-NW 290 1 min 0,000 mm 2,6 UV-I 730 W/m 12,2 C 15,4 C 8,0 km/h (2 Bft) 95,83 %
17.04.2018 11:27 15,4 C 11,7 C 81 % 1024,6 hPa 0,0 l/m 5,8 km/h (2 Bft) N-NW 337 1 min 0,000 mm 2,6 UV-I 738 W/m 12,2 C 15,4 C 9,7 km/h (2 Bft) 96,15 %
17.04.2018 11:28 15,5 C 11,7 C 80 % 1024,5 hPa 0,0 l/m 8,4 km/h (2 Bft) NW 305 1 min 0,000 mm 2,6 UV-I 740 W/m 12,1 C 14,4 C 11,3 km/h (2 Bft) 96,30 %
17.04.2018 11:29 15,5 C 11,7 C 80 % 1024,5 hPa 0,0 l/m 5,9 km/h (2 Bft) W 261 1 min 0,000 mm 2,7 UV-I 741 W/m 12,1 C 15,5 C 9,7 km/h (2 Bft) 95,65 %
17.04.2018 11:30 15,5 C 11,7 C 80 % 1024,5 hPa 0,0 l/m 8,5 km/h (2 Bft) NW 308 1 min 0,000 mm 2,6 UV-I 743 W/m 12,1 C 14,4 C 12,9 km/h (3 Bft) 100,00 %
17.04.2018 11:31 15,5 C 11,7 C 79 % 1024,5 hPa 0,0 l/m 6,4 km/h (2 Bft) NW 312 1 min 0,000 mm 2,5 UV-I 740 W/m 11,9 C 15,5 C 11,3 km/h (2 Bft) 91,67 %
17.04.2018 11:32 15,3 C 11,7 C 77 % 1024,5 hPa 0,0 l/m 0,9 km/h (0 Bft) NW 311 1 min 0,000 mm 2,1 UV-I 740 W/m 11,3 C 15,3 C 3,2 km/h (1 Bft) 100,00 %
17.04.2018 11:33 15,2 C 11,7 C 79 % 1024,6 hPa 0,0 l/m 6,0 km/h (2 Bft) NW 315 1 min 0,000 mm 2,2 UV-I 740 W/m 11,6 C 15,2 C 8,0 km/h (2 Bft) 96,30 %
17.04.2018 11:34 15,2 C 11,7 C 80 % 1024,5 hPa 0,0 l/m 2,9 km/h (1 Bft) NW 317 1 min 0,000 mm 2,2 UV-I 740 W/m 11,8 C 15,2 C 6,4 km/h (2 Bft) 100,00 %
17.04.2018 11:35 15,3 C 11,7 C 79 % 1024,5 hPa 0,0 l/m 5,2 km/h (1 Bft) NW 308 1 min 0,000 mm 2,6 UV-I 740 W/m 11,7 C 15,3 C 8,0 km/h (2 Bft) 91,67 %
17.04.2018 11:36 15,3 C 11,7 C 80 % 1024,5 hPa 0,0 l/m 5,2 km/h (1 Bft) NW 317 1 min 0,000 mm 2,6 UV-I 740 W/m 11,9 C 15,3 C 9,7 km/h (2 Bft) 100,00 %
17.04.2018 11:37 15,4 C 11,7 C 79 % 1024,5 hPa 0,0 l/m 4,5 km/h (1 Bft) N-NW 333 1 min 0,000 mm 2,7 UV-I 740 W/m 11,8 C 15,4 C 6,4 km/h (2 Bft) 95,83 %
17.04.2018 11:38 15,4 C 11,7 C 79 % 1024,5 hPa 0,0 l/m 4,8 km/h (1 Bft) N 355 1 min 0,000 mm 2,7 UV-I 740 W/m 11,8 C 15,4 C 6,4 km/h (2 Bft) 96,15 %
17.04.2018 11:39 15,6 C 11,7 C 79 % 1024,5 hPa 0,0 l/m 4,0 km/h (1 Bft) W-SW 244 1 min 0,000 mm 2,6 UV-I 671 W/m 12,0 C 15,6 C 6,4 km/h (2 Bft) 100,00 %
17.04.2018 11:40 15,7 C 11,7 C 78 % 1024,5 hPa 0,0 l/m 7,8 km/h (2 Bft) N-NW 344 1 min 0,000 mm 2,8 UV-I 704 W/m 11,9 C 14,9 C 11,3 km/h (2 Bft) 95,65 %
17.04.2018 11:41 15,8 C 11,7 C 79 % 1024,5 hPa 0,0 l/m 7,4 km/h (2 Bft) N 360 1 min 0,000 mm 2,7 UV-I 666 W/m 12,2 C 15,3 C 9,7 km/h (2 Bft) 100,00 %
17.04.2018 11:42 15,9 C 11,7 C 79 % 1024,5 hPa 0,0 l/m 7,4 km/h (2 Bft) N 355 1 min 0,000 mm 2,2 UV-I 666 W/m 12,3 C 15,4 C 9,7 km/h (2 Bft) 95,65 %
17.04.2018 11:43 15,9 C 11,7 C 77 % 1024,5 hPa 0,0 l/m 5,9 km/h (2 Bft) N 11 1 min 0,000 mm 2,8 UV-I 682 W/m 11,9 C 15,9 C 8,0 km/h (2 Bft) 100,00 %
17.04.2018 11:44 15,9 C 11,7 C 78 % 1024,5 hPa 0,0 l/m 4,4 km/h (1 Bft) N 355 1 min 0,000 mm 2,8 UV-I 700 W/m 12,1 C 15,9 C 6,4 km/h (2 Bft) 95,65 %
17.04.2018 11:45 15,9 C 11,7 C 77 % 1024,4 hPa 0,0 l/m 5,0 km/h (1 Bft) NW 315 1 min 0,000 mm 2,8 UV-I 700 W/m 11,9 C 15,9 C 6,4 km/h (2 Bft) 95,83 %
17.04.2018 11:46 15,9 C 11,7 C 77 % 1024,5 hPa 0,0 l/m 3,6 km/h (1 Bft) W 260 1 min 0,000 mm 2,8 UV-I 691 W/m 11,9 C 15,9 C 6,4 km/h (2 Bft) 95,83 %
17.04.2018 11:47 16,0 C 11,7 C 77 % 1024,5 hPa 0,0 l/m 5,6 km/h (1 Bft) N 355 1 min 0,000 mm 2,8 UV-I 697 W/m 12,0 C 16,0 C 9,7 km/h (2 Bft) 91,30 %
17.04.2018 11:48 16,1 C 11,7 C 77 % 1024,4 hPa 0,0 l/m 5,8 km/h (2 Bft) NW 323 1 min 0,000 mm 2,8 UV-I 709 W/m 12,1 C 16,1 C 9,7 km/h (2 Bft) 100,00 %
17.04.2018 11:49 16,1 C 11,7 C 76 % 1024,4 hPa 0,0 l/m 2,7 km/h (1 Bft) NW 326 1 min 0,000 mm 2,8 UV-I 734 W/m 11,9 C 16,1 C 6,4 km/h (2 Bft) 91,30 %
17.04.2018 11:50 16,1 C 11,7 C 76 % 1024,5 hPa 0,0 l/m 6,1 km/h (2 Bft) W 271 1 min 0,000 mm 2,8 UV-I 730 W/m 11,9 C 16,1 C 11,3 km/h (2 Bft) 95,83 %
17.04.2018 11:51 16,1 C 11,7 C 76 % 1024,4 hPa 0,0 l/m 4,0 km/h (1 Bft) W-NW 292 1 min 0,000 mm 2,9 UV-I 727 W/m 11,9 C 16,1 C 6,4 km/h (2 Bft) 95,65 %
17.04.2018 11:52 16,1 C 11,7 C 75 % 1024,5 hPa 0,0 l/m 4,4 km/h (1 Bft) N-NW 345 1 min 0,000 mm 2,9 UV-I 714 W/m 11,7 C 16,1 C 8,0 km/h (2 Bft) 95,83 %
17.04.2018 11:53 16,1 C 11,7 C 75 % 1024,4 hPa 0,0 l/m 2,9 km/h (1 Bft) NO 34 1 min 0,000 mm 2,9 UV-I 710 W/m 11,7 C 16,1 C 4,8 km/h (1 Bft) 91,30 %
17.04.2018 11:54 16,1 C 11,7 C 75 % 1024,5 hPa 0,0 l/m 5,7 km/h (1 Bft) SW 215 1 min 0,000 mm 2,9 UV-I 703 W/m 11,7 C 16,1 C 8,0 km/h (2 Bft) 95,83 %
17.04.2018 11:55 16,2 C 11,7 C 75 % 1024,5 hPa 0,0 l/m 5,6 km/h (1 Bft) SW 228 1 min 0,000 mm 2,9 UV-I 701 W/m 11,8 C 16,2 C 8,0 km/h (2 Bft) 95,65 %
17.04.2018 11:56 16,4 C 11,7 C 75 % 1024,5 hPa 0,0 l/m 8,2 km/h (2 Bft) W-SW 246 1 min 0,000 mm 2,9 UV-I 699 W/m 12,0 C 15,5 C 11,3 km/h (2 Bft) 91,67 %
17.04.2018 11:57 16,5 C 11,7 C 74 % 1024,5 hPa 0,0 l/m 7,6 km/h (2 Bft) W-SW 239 1 min 0,000 mm 2,9 UV-I 701 W/m 11,8 C 15,9 C 12,9 km/h (3 Bft) 95,65 %
17.04.2018 11:58 16,6 C 11,7 C 73 % 1024,5 hPa 0,0 l/m 7,0 km/h (2 Bft) W 280 1 min 0,000 mm 2,9 UV-I 701 W/m 11,7 C 16,3 C 11,3 km/h (2 Bft) 100,00 %
17.04.2018 11:59 16,7 C 11,7 C 74 % 1024,4 hPa 0,0 l/m 8,3 km/h (2 Bft) W 259 1 min 0,000 mm 2,9 UV-I 704 W/m 12,0 C 15,7 C 11,3 km/h (2 Bft) 96,30 %
17.04.2018 12:00 16,8 C 11,7 C 74 % 1024,5 hPa 0,0 l/m 10,4 km/h (2 Bft) SW 234 1 min 0,000 mm 3,0 UV-I 713 W/m 12,1 C 14,9 C 14,5 km/h (3 Bft) 92,31 %
17.04.2018 12:01 16,8 C 11,7 C 72 % 1024,5 hPa 0,0 l/m 8,2 km/h (2 Bft) S-SW 212 1 min 0,331 mm 3,0 UV-I 704 W/m 11,7 C 15,9 C 12,9 km/h (3 Bft) 96,30 %
17.04.2018 12:02 16,8 C 11,7 C 73 % 1024,4 hPa 0,0 l/m 5,0 km/h (1 Bft) S-SW 211 1 min 0,000 mm 3,0 UV-I 704 W/m 11,9 C 16,8 C 8,0 km/h (2 Bft) 95,65 %
17.04.2018 12:03 16,6 C 11,7 C 71 % 1024,5 hPa 0,0 l/m 1,3 km/h (1 Bft) S-SW 211 1 min 0,000 mm 3,0 UV-I 699 W/m 11,3 C 16,6 C 3,2 km/h (1 Bft) 95,83 %
17.04.2018 12:04 16,4 C 11,7 C 71 % 1024,4 hPa 0,0 l/m 2,8 km/h (1 Bft) NW 319 1 min 0,000 mm 3,0 UV-I 696 W/m 11,1 C 16,4 C 4,8 km/h (1 Bft) 95,65 %
17.04.2018 12:05 16,4 C 11,7 C 73 % 1024,4 hPa 0,0 l/m 2,0 km/h (1 Bft) W 273 1 min 0,000 mm 3,0 UV-I 703 W/m 11,5 C 16,4 C 4,8 km/h (1 Bft) 95,83 %
17.04.2018 12:06 16,3 C 11,7 C 73 % 1024,4 hPa 0,0 l/m 3,0 km/h (1 Bft) W 267 1 min 0,000 mm 3,0 UV-I 712 W/m 11,4 C 16,3 C 4,8 km/h (1 Bft) 100,00 %
17.04.2018 12:07 16,4 C 11,7 C 74 % 1024,4 hPa 0,0 l/m 3,7 km/h (1 Bft) W-NW 294 1 min 0,000 mm 3,0 UV-I 715 W/m 11,8 C 16,4 C 6,4 km/h (2 Bft) 95,83 %
17.04.2018 12:08 16,5 C 11,7 C 71 % 1024,5 hPa 0,0 l/m 5,6 km/h (1 Bft) NW 315 1 min 0,000 mm 3,1 UV-I 715 W/m 11,2 C 16,5 C 8,0 km/h (2 Bft) 100,00 %
17.04.2018 12:09 16,6 C 11,7 C 72 % 1024,4 hPa 0,0 l/m 4,9 km/h (1 Bft) NW 317 1 min 0,000 mm 3,1 UV-I 714 W/m 11,5 C 16,6 C 6,4 km/h (2 Bft) 92,31 %
17.04.2018 12:10 16,6 C 11,7 C 72 % 1024,5 hPa 0,0 l/m 5,4 km/h (1 Bft) W 267 1 min 0,000 mm 3,1 UV-I 715 W/m 11,5 C 16,6 C 9,7 km/h (2 Bft) 95,83 %
17.04.2018 12:11 16,6 C 11,7 C 70 % 1024,5 hPa 0,0 l/m 5,3 km/h (1 Bft) NW 315 1 min 0,000 mm 3,1 UV-I 718 W/m 11,1 C 16,6 C 6,4 km/h (2 Bft) 100,00 %
17.04.2018 12:12 16,6 C 11,7 C 69 % 1024,5 hPa 0,0 l/m 2,5 km/h (1 Bft) NW 304 1 min 0,000 mm 3,1 UV-I 718 W/m 10,9 C 16,6 C 6,4 km/h (2 Bft) 95,83 %
17.04.2018 12:13 16,6 C 11,7 C 72 % 1024,5 hPa 0,0 l/m 3,1 km/h (1 Bft) NW 306 1 min 0,000 mm 3,1 UV-I 715 W/m 11,5 C 16,6 C 4,8 km/h (1 Bft) 95,65 %
17.04.2018 12:14 16,7 C 11,7 C 71 % 1024,6 hPa 0,0 l/m 4,1 km/h (1 Bft) W-NW 282 1 min 0,000 mm 3,1 UV-I 716 W/m 11,4 C 16,7 C 9,7 km/h (2 Bft) 95,83 %
17.04.2018 12:15 16,7 C 11,7 C 69 % 1024,5 hPa 0,0 l/m 2,7 km/h (1 Bft) W-NW 290 1 min 0,000 mm 3,1 UV-I 717 W/m 11,0 C 16,7 C 4,8 km/h (1 Bft) 95,65 %
17.04.2018 12:16 16,8 C 11,7 C 69 % 1024,5 hPa 0,0 l/m 4,3 km/h (1 Bft) S-SW 198 1 min 0,000 mm 3,1 UV-I 718 W/m 11,1 C 16,8 C 8,0 km/h (2 Bft) 100,00 %
17.04.2018 12:17 16,8 C 11,7 C 71 % 1024,5 hPa 0,0 l/m 3,0 km/h (1 Bft) W-SW 255 1 min 0,000 mm 3,1 UV-I 718 W/m 11,5 C 16,8 C 6,4 km/h (2 Bft) 100,00 %
17.04.2018 12:18 16,8 C 11,7 C 66 % 1024,5 hPa 0,0 l/m 6,7 km/h (2 Bft) W 269 1 min 0,000 mm 3,1 UV-I 719 W/m 10,4 C 16,7 C 9,7 km/h (2 Bft) 100,00 %
17.04.2018 12:19 16,7 C 11,7 C 65 % 1024,5 hPa 0,0 l/m 6,8 km/h (2 Bft) W-NW 285 1 min 0,000 mm 3,1 UV-I 718 W/m 10,1 C 16,5 C 11,3 km/h (2 Bft) 100,00 %
17.04.2018 12:20 16,7 C 11,7 C 65 % 1024,5 hPa 0,0 l/m 6,2 km/h (2 Bft) NW 307 1 min 0,000 mm 3,1 UV-I 721 W/m 10,1 C 16,7 C 8,0 km/h (2 Bft) 100,00 %
17.04.2018 12:21 16,7 C 11,7 C 65 % 1024,6 hPa 0,0 l/m 5,3 km/h (1 Bft) W 265 1 min 0,000 mm 3,2 UV-I 722 W/m 10,1 C 16,7 C 8,0 km/h (2 Bft) 100,00 %
17.04.2018 12:22 16,7 C 11,7 C 65 % 1024,6 hPa 0,0 l/m 5,8 km/h (2 Bft) W 268 1 min 0,000 mm 3,2 UV-I 727 W/m 10,1 C 16,7 C 11,3 km/h (2 Bft) 100,00 %
17.04.2018 12:23 16,7 C 11,7 C 65 % 1024,6 hPa 0,0 l/m 4,8 km/h (1 Bft) W-NW 284 1 min 0,000 mm 3,2 UV-I 731 W/m 10,1 C 16,7 C 9,7 km/h (2 Bft) 100,00 %
17.04.2018 12:24 16,8 C 11,7 C 67 % 1024,6 hPa 0,0 l/m 5,6 km/h (1 Bft) W-NW 284 1 min 0,000 mm 3,2 UV-I 729 W/m 10,6 C 16,8 C 9,7 km/h (2 Bft) 100,00 %
17.04.2018 12:25 16,8 C 11,7 C 67 % 1024,6 hPa 0,0 l/m 6,1 km/h (2 Bft) W 271 1 min 0,000 mm 3,2 UV-I 725 W/m 10,6 C 16,8 C 9,7 km/h (2 Bft) 96,15 %
17.04.2018 12:26 16,9 C 11,7 C 68 % 1024,6 hPa 0,0 l/m 4,8 km/h (1 Bft) W-SW 240 1 min 0,000 mm 3,2 UV-I 722 W/m 11,0 C 16,9 C 9,7 km/h (2 Bft) 100,00 %
17.04.2018 12:27 16,9 C 11,7 C 66 % 1024,6 hPa 0,0 l/m 5,5 km/h (1 Bft) S-SW 207 1 min 0,000 mm 3,2 UV-I 720 W/m 10,5 C 16,9 C 6,4 km/h (2 Bft) 100,00 %
17.04.2018 12:28 16,8 C 11,7 C 66 % 1024,6 hPa 0,0 l/m 1,6 km/h (1 Bft) S-SW 207 1 min 0,000 mm 3,2 UV-I 723 W/m 10,4 C 16,8 C 3,2 km/h (1 Bft) 95,65 %
17.04.2018 12:29 16,9 C 11,7 C 67 % 1024,6 hPa 0,0 l/m 4,3 km/h (1 Bft) W-NW 290 1 min 0,000 mm 3,2 UV-I 721 W/m 10,7 C 16,9 C 11,3 km/h (2 Bft) 100,00 %
17.04.2018 12:30 16,9 C 11,7 C 67 % 1024,6 hPa 0,0 l/m 5,3 km/h (1 Bft) N 355 1 min 0,000 mm 3,2 UV-I 720 W/m 10,7 C 16,9 C 8,0 km/h (2 Bft) 100,00 %
17.04.2018 12:31 16,9 C 11,7 C 68 % 1024,5 hPa 0,0 l/m 4,4 km/h (1 Bft) N-NW 342 1 min 0,000 mm 3,1 UV-I 709 W/m 11,0 C 16,9 C 8,0 km/h (2 Bft) 100,00 %
17.04.2018 12:32 17,1 C 11,7 C 70 % 1024,5 hPa 0,0 l/m 6,8 km/h (2 Bft) NW 306 1 min 0,000 mm 3,1 UV-I 682 W/m 11,6 C 16,9 C 12,9 km/h (3 Bft) 100,00 %
17.04.2018 12:33 17,2 C 11,7 C 69 % 1024,6 hPa 0,0 l/m 8,7 km/h (2 Bft) NW 319 1 min 0,000 mm 3,1 UV-I 700 W/m 11,5 C 16,1 C 12,9 km/h (3 Bft) 100,00 %
17.04.2018 12:34 17,2 C 11,7 C 68 % 1024,5 hPa 0,0 l/m 6,2 km/h (2 Bft) W 277 1 min 0,000 mm 3,2 UV-I 727 W/m 11,2 C 17,2 C 8,0 km/h (2 Bft) 100,00 %
17.04.2018 12:35 17,3 C 11,7 C 68 % 1024,5 hPa 0,0 l/m 7,8 km/h (2 Bft) W-NW 298 1 min 0,000 mm 3,2 UV-I 715 W/m 11,3 C 16,6 C 12,9 km/h (3 Bft) 100,00 %
17.04.2018 12:36 17,2 C 11,7 C 67 % 1024,5 hPa 0,0 l/m 6,6 km/h (2 Bft) W 261 1 min 0,000 mm 3,1 UV-I 715 W/m 11,0 C 17,1 C 11,3 km/h (2 Bft) 100,00 %
17.04.2018 12:37 17,2 C 11,7 C 67 % 1024,5 hPa 0,0 l/m 3,9 km/h (1 Bft) W-SW 252 1 min 0,000 mm 3,2 UV-I 717 W/m 11,0 C 17,2 C 6,4 km/h (2 Bft) 100,00 %
17.04.2018 12:38 17,1 C 11,7 C 68 % 1024,5 hPa 0,0 l/m 5,4 km/h (1 Bft) W-SW 254 1 min 0,000 mm 3,2 UV-I 717 W/m 11,1 C 17,1 C 12,9 km/h (3 Bft) 100,00 %
17.04.2018 12:39 17,2 C 11,7 C 68 % 1024,6 hPa 0,0 l/m 7,8 km/h (2 Bft) SW 234 1 min 0,000 mm 3,2 UV-I 735 W/m 11,2 C 16,5 C 11,3 km/h (2 Bft) 100,00 %
17.04.2018 12:40 17,2 C 11,7 C 67 % 1024,5 hPa 0,0 l/m 8,0 km/h (2 Bft) SW 217 1 min 0,000 mm 3,3 UV-I 744 W/m 11,0 C 16,4 C 11,3 km/h (2 Bft) 100,00 %
17.04.2018 12:41 17,2 C 11,7 C 67 % 1024,6 hPa 0,0 l/m 6,1 km/h (2 Bft) S-SW 211 1 min 0,000 mm 3,3 UV-I 743 W/m 11,0 C 17,2 C 11,3 km/h (2 Bft) 100,00 %
17.04.2018 12:42 17,1 C 11,7 C 69 % 1024,5 hPa 0,0 l/m 2,8 km/h (1 Bft) SW 236 1 min 0,000 mm 3,2 UV-I 738 W/m 11,4 C 17,1 C 4,8 km/h (1 Bft) 95,83 %
17.04.2018 12:43 17,2 C 11,7 C 66 % 1024,6 hPa 0,0 l/m 7,0 km/h (2 Bft) N-NW 328 1 min 0,000 mm 3,2 UV-I 734 W/m 10,8 C 16,9 C 12,9 km/h (3 Bft) 100,00 %
17.04.2018 12:44 17,3 C 11,7 C 68 % 1024,6 hPa 0,0 l/m 7,2 km/h (2 Bft) W-NW 290 1 min 0,000 mm 3,1 UV-I 720 W/m 11,3 C 16,9 C 11,3 km/h (2 Bft) 100,00 %
17.04.2018 12:45 17,4 C 11,7 C 65 % 1024,6 hPa 0,0 l/m 9,9 km/h (2 Bft) W-NW 298 1 min 0,000 mm 2,8 UV-I 659 W/m 10,8 C 15,8 C 14,5 km/h (3 Bft) 100,00 %
17.04.2018 12:46 17,4 C 11,7 C 63 % 1024,6 hPa 0,0 l/m 8,4 km/h (2 Bft) W-NW 282 1 min 0,000 mm 2,4 UV-I 510 W/m 10,3 C 16,4 C 12,9 km/h (3 Bft) 100,00 %
17.04.2018 12:47 17,3 C 11,7 C 63 % 1024,6 hPa 0,0 l/m 4,8 km/h (1 Bft) W 269 0 min 0,000 mm 2,2 UV-I 196 W/m 10,2 C 17,3 C 12,9 km/h (3 Bft) 100,00 %
17.04.2018 12:48 17,2 C 11,7 C 64 % 1024,6 hPa 0,0 l/m 3,2 km/h (1 Bft) N-NO 28 0 min 0,000 mm 2,1 UV-I 176 W/m 10,3 C 17,2 C 4,8 km/h (1 Bft) 100,00 %
17.04.2018 12:49 17,1 C 11,7 C 65 % 1024,6 hPa 0,0 l/m 4,6 km/h (1 Bft) W 279 0 min 0,000 mm 2,1 UV-I 184 W/m 10,5 C 17,1 C 9,7 km/h (2 Bft) 100,00 %
17.04.2018 12:50 17,0 C 11,7 C 65 % 1024,6 hPa 0,0 l/m 4,6 km/h (1 Bft) W 279 0 min 0,000 mm 2,2 UV-I 219 W/m 10,4 C 17,0 C 9,7 km/h (2 Bft) 100,00 %
17.04.2018 12:51 16,9 C 11,7 C 64 % 1024,6 hPa 0,0 l/m 4,6 km/h (1 Bft) SW 215 0 min 0,000 mm 3,0 UV-I 223 W/m 10,0 C 16,9 C 6,4 km/h (2 Bft) 100,00 %
17.04.2018 12:52 16,9 C 11,7 C 65 % 1024,6 hPa 0,0 l/m 5,6 km/h (1 Bft) SW 214 0 min 0,000 mm 3,2 UV-I 223 W/m 10,3 C 16,9 C 8,0 km/h (2 Bft) 100,00 %
17.04.2018 12:53 17,1 C 11,7 C 64 % 1024,6 hPa 0,0 l/m 4,8 km/h (1 Bft) W-SW 257 1 min 0,000 mm 3,2 UV-I 496 W/m 10,2 C 17,1 C 6,4 km/h (2 Bft) 95,65 %
17.04.2018 12:54 17,2 C 11,7 C 67 % 1024,6 hPa 0,0 l/m 2,7 km/h (1 Bft) W-SW 255 1 min 0,000 mm 3,2 UV-I 754 W/m 11,0 C 17,2 C 3,2 km/h (1 Bft) 100,00 %
17.04.2018 12:55 17,3 C 11,7 C 65 % 1024,6 hPa 0,0 l/m 4,4 km/h (1 Bft) W-SW 238 1 min 0,000 mm 3,3 UV-I 756 W/m 10,7 C 17,3 C 6,4 km/h (2 Bft) 100,00 %
17.04.2018 12:56 17,3 C 11,7 C 64 % 1024,6 hPa 0,0 l/m 3,2 km/h (1 Bft) N-NW 345 1 min 0,000 mm 3,3 UV-I 749 W/m 10,4 C 17,3 C 4,8 km/h (1 Bft) 95,65 %
17.04.2018 12:57 17,4 C 11,7 C 66 % 1024,6 hPa 0,0 l/m 4,5 km/h (1 Bft) NW 304 1 min 0,000 mm 3,3 UV-I 740 W/m 11,0 C 17,4 C 12,9 km/h (3 Bft) 100,00 %
17.04.2018 12:58 17,7 C 11,7 C 66 % 1024,5 hPa 0,0 l/m 9,9 km/h (2 Bft) W 277 1 min 0,000 mm 3,3 UV-I 738 W/m 11,3 C 16,1 C 12,9 km/h (3 Bft) 100,00 %
17.04.2018 12:59 17,7 C 11,7 C 64 % 1024,6 hPa 0,0 l/m 6,4 km/h (2 Bft) W-NW 300 1 min 0,000 mm 3,3 UV-I 742 W/m 10,8 C 17,7 C 11,3 km/h (2 Bft) 100,00 %
17.04.2018 13:00 17,8 C 11,7 C 63 % 1024,5 hPa 0,0 l/m 2,3 km/h (1 Bft) W-NW 300 1 min 0,381 mm 3,3 UV-I 744 W/m 10,7 C 17,8 C 4,8 km/h (1 Bft) 100,00 %
17.04.2018 13:01 17,7 C 11,7 C 62 % 1024,6 hPa 0,0 l/m 1,6 km/h (1 Bft) S-SW 193 1 min 0,000 mm 3,2 UV-I 739 W/m 10,3 C 17,7 C 3,2 km/h (1 Bft) 100,00 %
17.04.2018 13:02 17,6 C 11,7 C 61 % 1024,5 hPa 0,0 l/m 4,2 km/h (1 Bft) S 171 1 min 0,000 mm 3,2 UV-I 735 W/m 10,0 C 17,6 C 8,0 km/h (2 Bft) 100,00 %
17.04.2018 13:03 17,4 C 11,7 C 61 % 1024,5 hPa 0,0 l/m 4,7 km/h (1 Bft) S 171 1 min 0,000 mm 3,3 UV-I 738 W/m 9,8 C 17,4 C 6,4 km/h (2 Bft) 100,00 %
17.04.2018 13:04 17,4 C 11,7 C 61 % 1024,5 hPa 0,0 l/m 1,5 km/h (1 Bft) S 171 1 min 0,000 mm 3,3 UV-I 743 W/m 9,8 C 17,4 C 3,2 km/h (1 Bft) 100,00 %
17.04.2018 13:05 17,4 C 11,7 C 64 % 1024,4 hPa 0,0 l/m 3,9 km/h (1 Bft) N-NW 348 1 min 0,000 mm 3,3 UV-I 744 W/m 10,5 C 17,4 C 8,0 km/h (2 Bft) 100,00 %
17.04.2018 13:06 17,6 C 11,7 C 65 % 1024,5 hPa 0,0 l/m 5,3 km/h (1 Bft) N-NW 342 1 min 0,000 mm 3,3 UV-I 745 W/m 10,9 C 17,6 C 6,4 km/h (2 Bft) 100,00 %
17.04.2018 13:07 17,8 C 11,7 C 63 % 1024,4 hPa 0,0 l/m 6,7 km/h (2 Bft) N 5 1 min 0,000 mm 3,3 UV-I 752 W/m 10,7 C 17,7 C 9,7 km/h (2 Bft) 100,00 %
17.04.2018 13:08 18,1 C 11,7 C 63 % 1024,4 hPa 0,0 l/m 3,7 km/h (1 Bft) O-SO 102 1 min 0,000 mm 3,3 UV-I 765 W/m 10,9 C 18,1 C 4,8 km/h (1 Bft) 95,65 %
17.04.2018 13:09 18,2 C 11,7 C 61 % 1024,5 hPa 0,0 l/m 6,8 km/h (2 Bft) S-SW 213 1 min 0,000 mm 3,3 UV-I 764 W/m 10,6 C 18,0 C 14,5 km/h (3 Bft) 95,83 %
17.04.2018 13:10 18,3 C 11,7 C 60 % 1024,5 hPa 0,0 l/m 10,9 km/h (2 Bft) W 259 1 min 0,000 mm 3,3 UV-I 767 W/m 10,4 C 16,4 C 12,9 km/h (3 Bft) 100,00 %
17.04.2018 13:11 18,2 C 11,7 C 59 % 1024,5 hPa 0,0 l/m 7,8 km/h (2 Bft) W 273 1 min 0,000 mm 3,3 UV-I 773 W/m 10,1 C 17,6 C 11,3 km/h (2 Bft) 96,30 %
17.04.2018 13:12 18,1 C 11,7 C 58 % 1024,5 hPa 0,0 l/m 5,4 km/h (1 Bft) W 279 1 min 0,000 mm 3,3 UV-I 781 W/m 9,7 C 18,1 C 11,3 km/h (2 Bft) 100,00 %
17.04.2018 13:13 18,0 C 11,7 C 60 % 1024,5 hPa 0,0 l/m 3,8 km/h (1 Bft) W 279 1 min 0,000 mm 3,3 UV-I 774 W/m 10,1 C 18,0 C 6,4 km/h (2 Bft) 95,83 %
17.04.2018 13:14 18,0 C 11,7 C 61 % 1024,5 hPa 0,0 l/m 3,8 km/h (1 Bft) W 278 1 min 0,000 mm 3,3 UV-I 763 W/m 10,4 C 18,0 C 6,4 km/h (2 Bft) 100,00 %
17.04.2018 13:15 18,0 C 11,7 C 59 % 1024,4 hPa 0,0 l/m 9,0 km/h (2 Bft) W-SW 258 1 min 0,000 mm 3,3 UV-I 766 W/m 9,9 C 16,8 C 12,9 km/h (3 Bft) 95,65 %
17.04.2018 13:16 18,1 C 11,7 C 60 % 1024,4 hPa 0,0 l/m 11,1 km/h (2 Bft) W-SW 256 1 min 0,000 mm 3,3 UV-I 770 W/m 10,2 C 16,1 C 14,5 km/h (3 Bft) 100,00 %
17.04.2018 13:17 18,1 C 11,7 C 58 % 1024,4 hPa 0,0 l/m 6,1 km/h (2 Bft) W 271 1 min 0,000 mm 3,3 UV-I 775 W/m 9,7 C 18,1 C 11,3 km/h (2 Bft) 100,00 %
17.04.2018 13:18 18,1 C 11,7 C 59 % 1024,4 hPa 0,0 l/m 7,5 km/h (2 Bft) SW 229 1 min 0,000 mm 3,3 UV-I 781 W/m 10,0 C 17,6 C 11,3 km/h (2 Bft) 100,00 %
17.04.2018 13:19 18,1 C 11,7 C 59 % 1024,4 hPa 0,0 l/m 7,4 km/h (2 Bft) S-SW 213 1 min 0,000 mm 3,3 UV-I 779 W/m 10,0 C 17,6 C 8,0 km/h (2 Bft) 100,00 %
17.04.2018 13:20 18,2 C 11,7 C 61 % 1024,4 hPa 0,0 l/m 7,1 km/h (2 Bft) S-SW 201 1 min 0,000 mm 3,3 UV-I 772 W/m 10,6 C 17,9 C 9,7 km/h (2 Bft) 100,00 %
17.04.2018 13:21 18,2 C 11,7 C 61 % 1024,4 hPa 0,0 l/m 2,3 km/h (1 Bft) S-SW 200 1 min 0,000 mm 3,3 UV-I 770 W/m 10,6 C 18,2 C 6,4 km/h (2 Bft) 100,00 %
17.04.2018 13:23 18,0 C 11,7 C 58 % 1024,4 hPa 0,0 l/m 6,4 km/h (2 Bft) SW 220 2 min 0,000 mm 3,3 UV-I 772 W/m 9,6 C 18,0 C 12,9 km/h (3 Bft) 100,00 %
17.04.2018 13:24 18,1 C 11,7 C 60 % 1024,4 hPa 0,0 l/m 8,2 km/h (2 Bft) W-SW 243 1 min 0,000 mm 3,3 UV-I 773 W/m 10,2 C 17,3 C 9,7 km/h (2 Bft) 100,00 %
17.04.2018 13:25 18,2 C 11,7 C 58 % 1024,4 hPa 0,0 l/m 6,2 km/h (2 Bft) W 281 1 min 0,000 mm 3,3 UV-I 772 W/m 9,8 C 18,2 C 8,0 km/h (2 Bft) 100,00 %
17.04.2018 13:26 18,2 C 11,7 C 57 % 1024,4 hPa 0,0 l/m 5,9 km/h (2 Bft) S-SW 202 1 min 0,000 mm 3,3 UV-I 759 W/m 9,5 C 18,2 C 9,7 km/h (2 Bft) 100,00 %
17.04.2018 13:27 18,2 C 11,7 C 58 % 1024,4 hPa 0,0 l/m 7,2 km/h (2 Bft) S 180 1 min 0,000 mm 3,2 UV-I 741 W/m 9,8 C 17,8 C 9,7 km/h (2 Bft) 92,86 %
17.04.2018 13:28 18,1 C 11,7 C 56 % 1024,3 hPa 0,0 l/m 3,2 km/h (1 Bft) S 180 1 min 0,000 mm 3,1 UV-I 726 W/m 9,2 C 18,1 C 4,8 km/h (1 Bft) 92,59 %
17.04.2018 13:29 17,9 C 11,7 C 59 % 1024,3 hPa 0,0 l/m 5,8 km/h (2 Bft) S-SW 193 1 min 0,000 mm 3,2 UV-I 740 W/m 9,8 C 17,9 C 9,7 km/h (2 Bft) 100,00 %
17.04.2018 13:30 18,1 C 11,7 C 58 % 1024,3 hPa 0,0 l/m 2,9 km/h (1 Bft) S-SW 196 1 min 0,000 mm 3,3 UV-I 752 W/m 9,7 C 18,1 C 6,4 km/h (2 Bft) 100,00 %
17.04.2018 13:31 18,2 C 11,7 C 60 % 1024,3 hPa 0,0 l/m 3,6 km/h (1 Bft) S-SW 196 1 min 0,000 mm 3,3 UV-I 761 W/m 10,3 C 18,2 C 8,0 km/h (2 Bft) 95,65 %
17.04.2018 13:32 18,3 C 11,7 C 58 % 1024,3 hPa 0,0 l/m 3,6 km/h (1 Bft) S-SW 202 1 min 0,000 mm 3,3 UV-I 764 W/m 9,9 C 18,3 C 6,4 km/h (2 Bft) 100,00 %
17.04.2018 13:33 18,4 C 11,7 C 59 % 1024,3 hPa 0,0 l/m 5,5 km/h (1 Bft) S 184 1 min 0,000 mm 3,3 UV-I 764 W/m 10,2 C 18,4 C 8,0 km/h (2 Bft) 100,00 %
17.04.2018 13:34 18,4 C 11,7 C 57 % 1024,3 hPa 0,0 l/m 6,3 km/h (2 Bft) S 182 1 min 0,000 mm 3,3 UV-I 764 W/m 9,7 C 18,4 C 11,3 km/h (2 Bft) 95,83 %
17.04.2018 13:35 18,3 C 11,7 C 56 % 1024,3 hPa 0,0 l/m 6,3 km/h (2 Bft) S 170 1 min 0,000 mm 3,2 UV-I 775 W/m 9,4 C 18,3 C 11,3 km/h (2 Bft) 100,00 %
17.04.2018 13:36 18,2 C 11,7 C 57 % 1024,3 hPa 0,0 l/m 6,0 km/h (2 Bft) S-SO 153 1 min 0,000 mm 3,2 UV-I 785 W/m 9,5 C 18,2 C 12,9 km/h (3 Bft) 95,83 %
17.04.2018 13:37 18,2 C 11,7 C 57 % 1024,3 hPa 0,0 l/m 4,8 km/h (1 Bft) SO 139 1 min 0,000 mm 3,2 UV-I 780 W/m 9,5 C 18,2 C 8,0 km/h (2 Bft) 100,00 %
17.04.2018 13:38 18,3 C 11,7 C 58 % 1024,3 hPa 0,0 l/m 1,4 km/h (1 Bft) SO 139 1 min 0,000 mm 3,2 UV-I 779 W/m 9,9 C 18,3 C 3,2 km/h (1 Bft) 91,67 %
17.04.2018 13:39 18,3 C 11,7 C 58 % 1024,3 hPa 0,0 l/m 3,1 km/h (1 Bft) SW 215 1 min 0,000 mm 3,2 UV-I 776 W/m 9,9 C 18,3 C 4,8 km/h (1 Bft) 100,00 %
17.04.2018 13:40 18,3 C 11,7 C 57 % 1024,3 hPa 0,0 l/m 2,5 km/h (1 Bft) S-SW 208 1 min 0,000 mm 3,2 UV-I 766 W/m 9,6 C 18,3 C 4,8 km/h (1 Bft) 86,67 %
17.04.2018 13:41 18,3 C 11,7 C 59 % 1024,3 hPa 0,0 l/m 2,2 km/h (1 Bft) W-SW 250 1 min 0,000 mm 3,2 UV-I 742 W/m 10,1 C 18,3 C 4,8 km/h (1 Bft) 100,00 %
17.04.2018 13:42 18,4 C 11,7 C 59 % 1024,3 hPa 0,0 l/m 3,8 km/h (1 Bft) W 265 1 min 0,000 mm 3,2 UV-I 729 W/m 10,2 C 18,4 C 6,4 km/h (2 Bft) 95,83 %
17.04.2018 13:43 18,6 C 11,7 C 59 % 1024,4 hPa 0,0 l/m 5,9 km/h (2 Bft) N-NW 335 1 min 0,000 mm 3,2 UV-I 743 W/m 10,4 C 18,6 C 8,0 km/h (2 Bft) 100,00 %
17.04.2018 13:44 18,6 C 11,7 C 59 % 1024,3 hPa 0,0 l/m 7,4 km/h (2 Bft) N-NW 346 1 min 0,000 mm 3,2 UV-I 731 W/m 10,4 C 18,1 C 12,9 km/h (3 Bft) 95,83 %
17.04.2018 13:45 18,7 C 11,7 C 59 % 1024,4 hPa 0,0 l/m 7,9 km/h (2 Bft) NO 46 1 min 0,000 mm 3,2 UV-I 739 W/m 10,5 C 18,0 C 11,3 km/h (2 Bft) 91,30 %
17.04.2018 13:46 18,8 C 11,7 C 58 % 1024,4 hPa 0,0 l/m 9,7 km/h (2 Bft) W-SW 258 1 min 0,000 mm 3,2 UV-I 750 W/m 10,4 C 17,4 C 12,9 km/h (3 Bft) 100,00 %
17.04.2018 13:47 18,9 C 11,7 C 56 % 1024,4 hPa 0,0 l/m 9,0 km/h (2 Bft) SW 221 1 min 0,000 mm 3,2 UV-I 749 W/m 9,9 C 17,8 C 16,1 km/h (3 Bft) 91,30 %
17.04.2018 13:48 18,8 C 11,7 C 59 % 1024,4 hPa 0,0 l/m 3,0 km/h (1 Bft) SW 219 1 min 0,000 mm 3,2 UV-I 747 W/m 10,6 C 18,8 C 4,8 km/h (1 Bft) 100,00 %
17.04.2018 13:49 18,7 C 11,7 C 56 % 1024,4 hPa 0,0 l/m 2,9 km/h (1 Bft) SW 219 1 min 0,000 mm 3,2 UV-I 743 W/m 9,7 C 18,7 C 4,8 km/h (1 Bft) 95,65 %
17.04.2018 13:50 18,6 C 11,7 C 56 % 1024,3 hPa 0,0 l/m 2,1 km/h (1 Bft) SW 219 1 min 0,000 mm 3,2 UV-I 740 W/m 9,6 C 18,6 C 4,8 km/h (1 Bft) 100,00 %
17.04.2018 13:51 18,6 C 11,7 C 58 % 1024,3 hPa 0,0 l/m 0,5 km/h (0 Bft) SW 219 1 min 0,000 mm 3,2 UV-I 745 W/m 10,2 C 18,6 C 3,2 km/h (1 Bft) 95,65 %
17.04.2018 13:52 18,7 C 11,7 C 59 % 1024,3 hPa 0,0 l/m 3,2 km/h (1 Bft) S 173 1 min 0,000 mm 3,2 UV-I 762 W/m 10,5 C 18,7 C 4,8 km/h (1 Bft) 100,00 %
17.04.2018 13:53 18,8 C 11,7 C 60 % 1024,3 hPa 0,0 l/m 2,7 km/h (1 Bft) S 173 1 min 0,000 mm 3,1 UV-I 775 W/m 10,9 C 18,8 C 3,2 km/h (1 Bft) 95,65 %
17.04.2018 13:54 18,8 C 11,7 C 56 % 1024,3 hPa 0,0 l/m 9,1 km/h (2 Bft) W 269 1 min 0,000 mm 2,7 UV-I 775 W/m 9,8 C 17,6 C 11,3 km/h (2 Bft) 96,30 %
17.04.2018 13:55 18,8 C 11,7 C 57 % 1024,4 hPa 0,0 l/m 8,0 km/h (2 Bft) W-SW 258 1 min 0,000 mm 2,8 UV-I 446 W/m 10,1 C 18,1 C 11,3 km/h (2 Bft) 95,83 %
17.04.2018 13:56 18,8 C 11,7 C 56 % 1024,4 hPa 0,0 l/m 4,8 km/h (1 Bft) W-SW 246 1 min 0,000 mm 3,1 UV-I 446 W/m 9,8 C 18,8 C 6,4 km/h (2 Bft) 95,65 %
17.04.2018 13:58 18,8 C 11,7 C 56 % 1024,3 hPa 0,0 l/m 6,0 km/h (2 Bft) S-SW 207 2 min 0,000 mm 3,2 UV-I 713 W/m 9,8 C 18,8 C 9,7 km/h (2 Bft) 98,00 %
17.04.2018 13:59 18,8 C 11,7 C 55 % 1024,3 hPa 0,0 l/m 5,2 km/h (1 Bft) SW 226 1 min 0,000 mm 3,3 UV-I 782 W/m 9,6 C 18,8 C 6,4 km/h (2 Bft) 95,83 %
17.04.2018 14:00 18,7 C 11,7 C 57 % 1024,3 hPa 0,0 l/m 4,2 km/h (1 Bft) S-SW 212 1 min 0,000 mm 3,3 UV-I 788 W/m 10,0 C 18,7 C 4,8 km/h (1 Bft) 100,00 %
17.04.2018 14:01 18,7 C 11,7 C 55 % 1024,3 hPa 0,0 l/m 4,4 km/h (1 Bft) S-SW 211 1 min 0,431 mm 3,3 UV-I 792 W/m 9,5 C 18,7 C 6,4 km/h (2 Bft) 95,83 %
17.04.2018 14:02 18,8 C 11,7 C 57 % 1024,3 hPa 0,0 l/m 6,9 km/h (2 Bft) W 263 1 min 0,000 mm 3,2 UV-I 789 W/m 10,1 C 18,6 C 9,7 km/h (2 Bft) 95,65 %
17.04.2018 14:03 18,9 C 11,7 C 57 % 1024,3 hPa 0,0 l/m 5,2 km/h (1 Bft) W-SW 247 1 min 0,000 mm 3,3 UV-I 795 W/m 10,2 C 18,9 C 11,3 km/h (2 Bft) 95,83 %
17.04.2018 14:04 19,0 C 11,7 C 56 % 1024,3 hPa 0,0 l/m 6,0 km/h (2 Bft) W-SW 242 1 min 0,000 mm 3,3 UV-I 797 W/m 10,0 C 19,0 C 8,0 km/h (2 Bft) 100,00 %
17.04.2018 14:05 19,0 C 11,7 C 58 % 1024,3 hPa 0,0 l/m 5,0 km/h (1 Bft) W 269 1 min 0,000 mm 3,2 UV-I 796 W/m 10,5 C 19,0 C 6,4 km/h (2 Bft) 95,83 %
17.04.2018 14:06 19,1 C 11,7 C 59 % 1024,3 hPa 0,0 l/m 5,2 km/h (1 Bft) W 273 1 min 0,000 mm 3,2 UV-I 793 W/m 10,9 C 19,1 C 6,4 km/h (2 Bft) 100,00 %
17.04.2018 14:07 19,2 C 11,7 C 57 % 1024,2 hPa 0,0 l/m 3,6 km/h (1 Bft) W 277 1 min 0,000 mm 3,2 UV-I 780 W/m 10,5 C 19,2 C 4,8 km/h (1 Bft) 100,00 %
17.04.2018 14:08 19,3 C 11,7 C 58 % 1024,2 hPa 0,0 l/m 4,2 km/h (1 Bft) W-NW 298 1 min 0,000 mm 3,2 UV-I 801 W/m 10,8 C 19,3 C 6,4 km/h (2 Bft) 100,00 %
17.04.2018 14:09 19,4 C 11,7 C 57 % 1024,2 hPa 0,0 l/m 4,7 km/h (1 Bft) W 266 1 min 0,000 mm 3,2 UV-I 810 W/m 10,7 C 19,4 C 9,7 km/h (2 Bft) 95,65 %
17.04.2018 14:10 19,3 C 11,7 C 52 % 1024,2 hPa 0,0 l/m 3,1 km/h (1 Bft) W 265 1 min 0,000 mm 3,2 UV-I 808 W/m 9,2 C 19,3 C 4,8 km/h (1 Bft) 100,00 %
17.04.2018 14:11 19,2 C 11,7 C 55 % 1024,2 hPa 0,0 l/m 6,1 km/h (2 Bft) W-SW 251 1 min 0,000 mm 3,2 UV-I 742 W/m 9,9 C 19,2 C 12,9 km/h (3 Bft) 100,00 %
17.04.2018 14:12 19,2 C 11,7 C 55 % 1024,2 hPa 0,0 l/m 9,3 km/h (2 Bft) W-SW 242 1 min 0,000 mm 3,2 UV-I 794 W/m 9,9 C 18,0 C 12,9 km/h (3 Bft) 100,00 %
17.04.2018 14:13 19,2 C 11,7 C 56 % 1024,1 hPa 0,0 l/m 9,7 km/h (2 Bft) S 178 1 min 0,000 mm 3,2 UV-I 794 W/m 10,2 C 17,9 C 12,9 km/h (3 Bft) 96,15 %
17.04.2018 14:14 19,2 C 11,7 C 56 % 1024,1 hPa 0,0 l/m 6,6 km/h (2 Bft) S-SW 209 1 min 0,000 mm 3,1 UV-I 791 W/m 10,2 C 19,1 C 11,3 km/h (2 Bft) 100,00 %
17.04.2018 14:15 19,3 C 11,7 C 59 % 1024,1 hPa 0,0 l/m 7,3 km/h (2 Bft) W 274 1 min 0,000 mm 3,1 UV-I 794 W/m 11,1 C 18,9 C 14,5 km/h (3 Bft) 100,00 %
17.04.2018 14:16 19,4 C 11,7 C 56 % 1024,2 hPa 0,0 l/m 9,5 km/h (2 Bft) SW 219 1 min 0,000 mm 3,1 UV-I 792 W/m 10,4 C 18,2 C 14,5 km/h (3 Bft) 100,00 %
17.04.2018 14:17 19,4 C 11,7 C 55 % 1024,2 hPa 0,0 l/m 14,1 km/h (3 Bft) W-SW 244 1 min 0,000 mm 3,2 UV-I 803 W/m 10,1 C 16,8 C 17,7 km/h (3 Bft) 100,00 %
17.04.2018 14:18 19,5 C 11,7 C 54 % 1024,2 hPa 0,0 l/m 11,4 km/h (2 Bft) W 259 1 min 0,000 mm 3,2 UV-I 846 W/m 9,9 C 17,6 C 16,1 km/h (3 Bft) 100,00 %
17.04.2018 14:19 19,4 C 11,7 C 54 % 1024,1 hPa 0,0 l/m 6,4 km/h (2 Bft) W 271 1 min 0,000 mm 3,2 UV-I 876 W/m 9,8 C 19,4 C 12,9 km/h (3 Bft) 100,00 %
17.04.2018 14:20 19,5 C 11,7 C 54 % 1024,2 hPa 0,0 l/m 12,7 km/h (3 Bft) W-SW 242 1 min 0,000 mm 3,1 UV-I 886 W/m 9,9 C 17,3 C 17,7 km/h (3 Bft) 100,00 %
17.04.2018 14:21 19,6 C 11,7 C 54 % 1024,2 hPa 0,0 l/m 11,6 km/h (2 Bft) S-SW 201 1 min 0,000 mm 2,9 UV-I 790 W/m 10,0 C 17,7 C 16,1 km/h (3 Bft) 100,00 %
17.04.2018 14:22 19,4 C 11,7 C 53 % 1024,2 hPa 0,0 l/m 4,7 km/h (1 Bft) SW 232 1 min 0,000 mm 3,1 UV-I 659 W/m 9,6 C 19,4 C 6,4 km/h (2 Bft) 100,00 %
17.04.2018 14:23 19,4 C 11,7 C 53 % 1024,2 hPa 0,0 l/m 5,7 km/h (1 Bft) SW 234 1 min 0,000 mm 3,0 UV-I 770 W/m 9,6 C 19,4 C 8,0 km/h (2 Bft) 100,00 %
17.04.2018 14:24 19,3 C 11,7 C 53 % 1024,2 hPa 0,0 l/m 5,8 km/h (2 Bft) W-SW 237 1 min 0,000 mm 2,9 UV-I 753 W/m 9,5 C 19,3 C 8,0 km/h (2 Bft) 100,00 %
17.04.2018 14:25 19,3 C 11,7 C 55 % 1024,2 hPa 0,0 l/m 3,8 km/h (1 Bft) W 259 1 min 0,000 mm 2,8 UV-I 836 W/m 10,0 C 19,3 C 9,7 km/h (2 Bft) 100,00 %
17.04.2018 14:26 19,4 C 11,7 C 54 % 1024,2 hPa 0,0 l/m 3,6 km/h (1 Bft) W 259 1 min 0,000 mm 3,0 UV-I 819 W/m 9,8 C 19,4 C 9,7 km/h (2 Bft) 100,00 %
17.04.2018 14:27 19,3 C 11,7 C 53 % 1024,2 hPa 0,0 l/m 1,5 km/h (1 Bft) W 259 1 min 0,000 mm 2,7 UV-I 678 W/m 9,5 C 19,3 C 3,2 km/h (1 Bft) 100,00 %
17.04.2018 14:28 19,2 C 11,7 C 53 % 1024,2 hPa 0,0 l/m 3,2 km/h (1 Bft) NW 315 1 min 0,000 mm 2,7 UV-I 590 W/m 9,4 C 19,2 C 6,4 km/h (2 Bft) 100,00 %
17.04.2018 14:29 19,3 C 11,7 C 58 % 1024,1 hPa 0,0 l/m 4,0 km/h (1 Bft) NW 310 1 min 0,000 mm 2,7 UV-I 589 W/m 10,8 C 19,3 C 6,4 km/h (2 Bft) 100,00 %
17.04.2018 14:30 19,4 C 11,7 C 57 % 1024,1 hPa 0,0 l/m 1,6 km/h (1 Bft) NW 309 1 min 0,000 mm 3,1 UV-I 589 W/m 10,7 C 19,4 C 4,8 km/h (1 Bft) 100,00 %
17.04.2018 14:31 19,6 C 11,7 C 56 % 1024,1 hPa 0,0 l/m 9,7 km/h (2 Bft) W-SW 246 1 min 0,000 mm 2,6 UV-I 589 W/m 10,6 C 18,3 C 12,9 km/h (3 Bft) 100,00 %
17.04.2018 14:32 19,6 C 11,7 C 54 % 1024,1 hPa 0,0 l/m 11,9 km/h (2 Bft) W 281 1 min 0,000 mm 2,7 UV-I 589 W/m 10,0 C 17,6 C 14,5 km/h (3 Bft) 100,00 %
17.04.2018 14:33 19,6 C 11,7 C 51 % 1024,1 hPa 0,0 l/m 6,4 km/h (2 Bft) W-NW 288 1 min 0,000 mm 2,9 UV-I 720 W/m 9,2 C 19,6 C 11,3 km/h (2 Bft) 100,00 %
17.04.2018 14:34 19,4 C 11,7 C 53 % 1024,1 hPa 0,0 l/m 8,0 km/h (2 Bft) W-SW 242 1 min 0,000 mm 2,8 UV-I 776 W/m 9,6 C 18,7 C 11,3 km/h (2 Bft) 100,00 %
17.04.2018 14:35 19,3 C 11,7 C 52 % 1024,1 hPa 0,0 l/m 1,9 km/h (1 Bft) W-NW 293 1 min 0,000 mm 2,5 UV-I 754 W/m 9,2 C 19,3 C 4,8 km/h (1 Bft) 100,00 %
17.04.2018 14:36 19,2 C 11,7 C 54 % 1024,1 hPa 0,0 l/m 6,8 km/h (2 Bft) W-SW 244 1 min 0,000 mm 2,4 UV-I 488 W/m 9,7 C 19,0 C 11,3 km/h (2 Bft) 100,00 %
17.04.2018 14:37 19,2 C 11,7 C 54 % 1024,1 hPa 0,0 l/m 7,1 km/h (2 Bft) W-SW 240 1 min 0,000 mm 2,2 UV-I 455 W/m 9,7 C 18,9 C 11,3 km/h (2 Bft) 95,65 %
17.04.2018 14:38 19,2 C 11,7 C 54 % 1024,1 hPa 0,0 l/m 2,1 km/h (1 Bft) SO 125 1 min 0,000 mm 2,3 UV-I 455 W/m 9,7 C 19,2 C 4,8 km/h (1 Bft) 100,00 %
17.04.2018 14:39 19,1 C 11,7 C 53 % 1024,1 hPa 0,0 l/m 6,6 km/h (2 Bft) S-SO 167 1 min 0,000 mm 2,1 UV-I 408 W/m 9,3 C 19,0 C 8,0 km/h (2 Bft) 100,00 %
17.04.2018 14:40 19,1 C 11,7 C 53 % 1024,1 hPa 0,0 l/m 4,5 km/h (1 Bft) S 175 0 min 0,000 mm 2,1 UV-I 381 W/m 9,3 C 19,1 C 6,4 km/h (2 Bft) 100,00 %
17.04.2018 14:41 18,9 C 11,7 C 53 % 1024,1 hPa 0,0 l/m 2,7 km/h (1 Bft) S 176 1 min 0,000 mm 2,2 UV-I 420 W/m 9,1 C 18,9 C 4,8 km/h (1 Bft) 95,83 %
17.04.2018 14:42 18,9 C 11,7 C 55 % 1024,0 hPa 0,0 l/m 6,2 km/h (2 Bft) SO 132 0 min 0,000 mm 2,1 UV-I 378 W/m 9,7 C 18,9 C 11,3 km/h (2 Bft) 100,00 %
17.04.2018 14:43 19,1 C 11,7 C 55 % 1024,0 hPa 0,0 l/m 6,8 km/h (2 Bft) N 5 0 min 0,000 mm 2,0 UV-I 353 W/m 9,8 C 18,9 C 9,7 km/h (2 Bft) 100,00 %
17.04.2018 14:44 19,1 C 11,7 C 56 % 1024,0 hPa 0,0 l/m 7,2 km/h (2 Bft) O-NO 63 0 min 0,000 mm 2,0 UV-I 340 W/m 10,1 C 18,7 C 12,9 km/h (3 Bft) 95,65 %
17.04.2018 14:45 19,1 C 11,7 C 56 % 1024,0 hPa 0,0 l/m 5,6 km/h (1 Bft) NW 309 0 min 0,000 mm 2,0 UV-I 358 W/m 10,1 C 19,1 C 12,9 km/h (3 Bft) 100,00 %
17.04.2018 14:46 19,1 C 11,7 C 54 % 1024,1 hPa 0,0 l/m 7,6 km/h (2 Bft) N-NW 337 0 min 0,000 mm 2,0 UV-I 384 W/m 9,6 C 18,6 C 11,3 km/h (2 Bft) 100,00 %
17.04.2018 14:47 19,1 C 11,7 C 55 % 1024,1 hPa 0,0 l/m 9,2 km/h (2 Bft) NW 306 0 min 0,000 mm 2,0 UV-I 323 W/m 9,8 C 17,9 C 12,9 km/h (3 Bft) 93,33 %
17.04.2018 14:48 18,9 C 11,7 C 53 % 1024,1 hPa 0,0 l/m 6,1 km/h (2 Bft) NW 323 0 min 0,000 mm 2,1 UV-I 356 W/m 9,1 C 18,9 C 8,0 km/h (2 Bft) 100,00 %
17.04.2018 14:49 18,9 C 11,7 C 55 % 1024,1 hPa 0,0 l/m 5,9 km/h (2 Bft) N-NW 338 1 min 0,000 mm 2,2 UV-I 414 W/m 9,7 C 18,9 C 6,4 km/h (2 Bft) 100,00 %
17.04.2018 14:50 19,1 C 11,7 C 56 % 1024,1 hPa 0,0 l/m 3,9 km/h (1 Bft) NW 325 1 min 0,000 mm 2,5 UV-I 476 W/m 10,1 C 19,1 C 6,4 km/h (2 Bft) 100,00 %
17.04.2018 14:51 19,1 C 11,7 C 55 % 1024,1 hPa 0,0 l/m 3,4 km/h (1 Bft) W-NW 283 1 min 0,000 mm 2,8 UV-I 726 W/m 9,8 C 19,1 C 4,8 km/h (1 Bft) 96,55 %
17.04.2018 14:52 19,2 C 11,7 C 54 % 1024,1 hPa 0,0 l/m 1,2 km/h (1 Bft) N 10 1 min 0,000 mm 2,8 UV-I 780 W/m 9,7 C 19,2 C 3,2 km/h (1 Bft) 100,00 %
17.04.2018 14:53 19,2 C 11,7 C 53 % 1024,1 hPa 0,0 l/m 3,0 km/h (1 Bft) O-NO 57 1 min 0,000 mm 2,8 UV-I 779 W/m 9,4 C 19,2 C 4,8 km/h (1 Bft) 95,83 %
17.04.2018 14:54 19,2 C 11,7 C 52 % 1024,1 hPa 0,0 l/m 3,4 km/h (1 Bft) NW 318 1 min 0,000 mm 2,8 UV-I 769 W/m 9,1 C 19,2 C 4,8 km/h (1 Bft) 100,00 %
17.04.2018 14:55 19,2 C 11,7 C 53 % 1024,1 hPa 0,0 l/m 0,8 km/h (0 Bft) NW 318 1 min 0,000 mm 2,8 UV-I 772 W/m 9,4 C 19,2 C 3,2 km/h (1 Bft) 100,00 %
17.04.2018 14:56 19,2 C 11,7 C 53 % 1024,0 hPa 0,0 l/m 2,4 km/h (1 Bft) NW 317 1 min 0,000 mm 2,8 UV-I 771 W/m 9,4 C 19,2 C 3,2 km/h (1 Bft) 96,30 %
17.04.2018 14:57 19,3 C 11,7 C 55 % 1024,1 hPa 0,0 l/m 3,6 km/h (1 Bft) N-NW 331 1 min 0,000 mm 2,8 UV-I 775 W/m 10,0 C 19,3 C 4,8 km/h (1 Bft) 100,00 %
17.04.2018 14:58 19,5 C 11,7 C 54 % 1024,0 hPa 0,0 l/m 1,7 km/h (1 Bft) N-NW 331 1 min 0,000 mm 2,8 UV-I 784 W/m 9,9 C 19,5 C 4,8 km/h (1 Bft) 100,00 %
17.04.2018 14:59 19,6 C 11,7 C 57 % 1024,0 hPa 0,0 l/m 4,3 km/h (1 Bft) N-NW 331 1 min 0,000 mm 2,7 UV-I 783 W/m 10,8 C 19,6 C 6,4 km/h (2 Bft) 100,00 %
17.04.2018 15:00 19,8 C 11,7 C 53 % 1024,0 hPa 0,0 l/m 2,0 km/h (1 Bft) N-NW 331 1 min 0,432 mm 2,7 UV-I 771 W/m 9,9 C 19,8 C 3,2 km/h (1 Bft) 100,00 %
17.04.2018 15:01 19,9 C 11,7 C 53 % 1024,0 hPa 0,0 l/m 1,9 km/h (1 Bft) NW 325 1 min 0,000 mm 2,6 UV-I 767 W/m 10,0 C 19,9 C 4,8 km/h (1 Bft) 100,00 %
17.04.2018 15:02 20,0 C 11,7 C 54 % 1024,0 hPa 0,0 l/m 3,3 km/h (1 Bft) N-NW 345 1 min 0,000 mm 2,6 UV-I 748 W/m 10,4 C 20,0 C 6,4 km/h (2 Bft) 100,00 %
17.04.2018 15:03 20,1 C 11,7 C 51 % 1024,1 hPa 0,0 l/m 3,8 km/h (1 Bft) N 355 1 min 0,000 mm 2,5 UV-I 720 W/m 9,6 C 20,1 C 6,4 km/h (2 Bft) 100,00 %
17.04.2018 15:04 20,0 C 11,7 C 53 % 1024,0 hPa 0,0 l/m 2,5 km/h (1 Bft) NW 312 1 min 0,000 mm 2,2 UV-I 717 W/m 10,1 C 20,0 C 4,8 km/h (1 Bft) 100,00 %
17.04.2018 15:05 20,1 C 11,7 C 52 % 1024,0 hPa 0,0 l/m 4,0 km/h (1 Bft) SW 223 1 min 0,000 mm 2,1 UV-I 476 W/m 9,9 C 20,1 C 8,0 km/h (2 Bft) 100,00 %
17.04.2018 15:06 20,1 C 11,7 C 52 % 1024,0 hPa 0,0 l/m 6,2 km/h (2 Bft) W-NW 293 1 min 0,000 mm 2,2 UV-I 476 W/m 9,9 C 20,1 C 9,7 km/h (2 Bft) 100,00 %
17.04.2018 15:07 20,1 C 11,7 C 54 % 1024,0 hPa 0,0 l/m 5,2 km/h (1 Bft) W-NW 298 1 min 0,000 mm 1,7 UV-I 410 W/m 10,5 C 20,1 C 6,4 km/h (2 Bft) 100,00 %
17.04.2018 15:08 20,0 C 11,7 C 53 % 1024,0 hPa 0,0 l/m 6,4 km/h (2 Bft) N 5 0 min 0,000 mm 1,8 UV-I 253 W/m 10,1 C 20,0 C 8,0 km/h (2 Bft) 100,00 %
17.04.2018 15:09 19,9 C 11,7 C 52 % 1024,0 hPa 0,0 l/m 6,2 km/h (2 Bft) N-NW 337 0 min 0,000 mm 1,7 UV-I 240 W/m 9,7 C 19,9 C 8,0 km/h (2 Bft) 100,00 %
17.04.2018 15:10 19,9 C 11,7 C 52 % 1024,0 hPa 0,0 l/m 7,0 km/h (2 Bft) W 281 0 min 0,000 mm 1,8 UV-I 243 W/m 9,7 C 19,7 C 12,9 km/h (3 Bft) 100,00 %
17.04.2018 15:11 19,8 C 11,7 C 51 % 1024,1 hPa 0,0 l/m 10,2 km/h (2 Bft) N-NW 327 0 min 0,000 mm 2,0 UV-I 244 W/m 9,4 C 18,4 C 14,5 km/h (3 Bft) 100,00 %
17.04.2018 15:12 19,6 C 11,7 C 51 % 1024,1 hPa 0,0 l/m 6,4 km/h (2 Bft) W-NW 292 0 min 0,000 mm 2,0 UV-I 244 W/m 9,2 C 19,6 C 8,0 km/h (2 Bft) 100,00 %
17.04.2018 15:13 19,4 C 11,7 C 53 % 1024,1 hPa 0,0 l/m 6,7 km/h (2 Bft) N-NW 340 0 min 0,000 mm 1,9 UV-I 244 W/m 9,6 C 19,3 C 8,0 km/h (2 Bft) 100,00 %
17.04.2018 15:14 19,4 C 11,7 C 55 % 1024,0 hPa 0,0 l/m 4,8 km/h (1 Bft) N-NW 342 0 min 0,000 mm 2,1 UV-I 244 W/m 10,1 C 19,4 C 6,4 km/h (2 Bft) 100,00 %
17.04.2018 15:15 19,5 C 11,7 C 53 % 1024,1 hPa 0,0 l/m 4,4 km/h (1 Bft) N-NW 340 1 min 0,000 mm 2,2 UV-I 532 W/m 9,7 C 19,5 C 6,4 km/h (2 Bft) 100,00 %
17.04.2018 15:16 19,6 C 11,7 C 51 % 1024,1 hPa 0,0 l/m 2,2 km/h (1 Bft) N-NW 340 1 min 0,000 mm 2,1 UV-I 649 W/m 9,2 C 19,6 C 4,8 km/h (1 Bft) 100,00 %
17.04.2018 15:17 19,5 C 11,7 C 51 % 1024,0 hPa 0,0 l/m 2,9 km/h (1 Bft) W-NW 297 1 min 0,000 mm 1,8 UV-I 649 W/m 9,1 C 19,5 C 4,8 km/h (1 Bft) 100,00 %
17.04.2018 15:18 19,5 C 11,7 C 52 % 1024,0 hPa 0,0 l/m 4,2 km/h (1 Bft) W 276 1 min 0,000 mm 2,2 UV-I 649 W/m 9,4 C 19,5 C 6,4 km/h (2 Bft) 100,00 %
17.04.2018 15:19 19,4 C 11,7 C 51 % 1024,1 hPa 0,0 l/m 4,4 km/h (1 Bft) W-SW 247 1 min 0,000 mm 1,9 UV-I 649 W/m 9,0 C 19,4 C 8,0 km/h (2 Bft) 100,00 %
17.04.2018 15:20 19,3 C 11,7 C 50 % 1024,0 hPa 0,0 l/m 5,1 km/h (1 Bft) SW 214 1 min 0,000 mm 2,2 UV-I 640 W/m 8,6 C 19,3 C 6,4 km/h (2 Bft) 100,00 %
17.04.2018 15:21 19,2 C 11,7 C 53 % 1024,0 hPa 0,0 l/m 3,3 km/h (1 Bft) W-SW 257 1 min 0,000 mm 2,2 UV-I 629 W/m 9,4 C 19,2 C 4,8 km/h (1 Bft) 100,00 %
17.04.2018 15:22 19,2 C 11,7 C 51 % 1024,0 hPa 0,0 l/m 2,5 km/h (1 Bft) W-SW 257 1 min 0,000 mm 2,2 UV-I 628 W/m 8,8 C 19,2 C 3,2 km/h (1 Bft) 100,00 %
17.04.2018 15:23 19,3 C 11,7 C 52 % 1024,0 hPa 0,0 l/m 3,4 km/h (1 Bft) W-SW 257 1 min 0,000 mm 2,0 UV-I 541 W/m 9,2 C 19,3 C 4,8 km/h (1 Bft) 100,00 %
17.04.2018 15:24 19,3 C 11,7 C 50 % 1024,0 hPa 0,0 l/m 3,1 km/h (1 Bft) W-SW 257 1 min 0,000 mm 2,1 UV-I 541 W/m 8,6 C 19,3 C 4,8 km/h (1 Bft) 100,00 %
17.04.2018 15:25 19,3 C 11,7 C 52 % 1024,0 hPa 0,0 l/m 2,4 km/h (1 Bft) W-SW 257 1 min 0,000 mm 2,1 UV-I 541 W/m 9,2 C 19,3 C 4,8 km/h (1 Bft) 95,65 %
17.04.2018 15:26 19,3 C 11,7 C 50 % 1024,0 hPa 0,0 l/m 1,3 km/h (1 Bft) W-SW 257 1 min 0,000 mm 2,0 UV-I 541 W/m 8,6 C 19,3 C 1,6 km/h (1 Bft) 100,00 %
17.04.2018 15:27 19,4 C 11,7 C 52 % 1024,0 hPa 0,0 l/m 1,8 km/h (1 Bft) SW 218 1 min 0,000 mm 2,2 UV-I 600 W/m 9,3 C 19,4 C 3,2 km/h (1 Bft) 100,00 %
17.04.2018 15:28 19,6 C 11,7 C 53 % 1023,9 hPa 0,0 l/m 4,2 km/h (1 Bft) O-NO 66 1 min 0,000 mm 2,2 UV-I 622 W/m 9,8 C 19,6 C 4,8 km/h (1 Bft) 100,00 %
17.04.2018 15:29 19,7 C 11,7 C 53 % 1023,9 hPa 0,0 l/m 5,0 km/h (1 Bft) N-NO 31 1 min 0,000 mm 2,2 UV-I 623 W/m 9,8 C 19,7 C 6,4 km/h (2 Bft) 95,65 %
17.04.2018 15:30 19,9 C 11,7 C 53 % 1023,9 hPa 0,0 l/m 5,0 km/h (1 Bft) N-NO 15 1 min 0,000 mm 2,2 UV-I 620 W/m 10,0 C 19,9 C 6,4 km/h (2 Bft) 100,00 %
17.04.2018 15:31 20,0 C 11,7 C 51 % 1024,0 hPa 0,0 l/m 3,8 km/h (1 Bft) W-NW 282 1 min 0,000 mm 2,1 UV-I 617 W/m 9,6 C 20,0 C 4,8 km/h (1 Bft) 91,30 %
17.04.2018 15:32 19,9 C 11,7 C 49 % 1023,9 hPa 0,0 l/m 2,8 km/h (1 Bft) W-NW 282 1 min 0,000 mm 2,1 UV-I 616 W/m 8,9 C 19,9 C 4,8 km/h (1 Bft) 100,00 %
17.04.2018 15:33 19,9 C 11,7 C 51 % 1023,9 hPa 0,0 l/m 1,7 km/h (1 Bft) W-NW 282 1 min 0,000 mm 2,1 UV-I 615 W/m 9,5 C 19,9 C 3,2 km/h (1 Bft) 96,15 %
17.04.2018 15:34 19,8 C 11,7 C 49 % 1023,9 hPa 0,0 l/m 3,7 km/h (1 Bft) NW 314 1 min 0,000 mm 2,1 UV-I 613 W/m 8,8 C 19,8 C 9,7 km/h (2 Bft) 100,00 %
17.04.2018 15:35 19,7 C 11,7 C 49 % 1023,9 hPa 0,0 l/m 6,5 km/h (2 Bft) NW 305 1 min 0,000 mm 2,1 UV-I 613 W/m 8,7 C 19,7 C 9,7 km/h (2 Bft) 91,30 %
17.04.2018 15:36 19,7 C 11,7 C 50 % 1023,9 hPa 0,0 l/m 3,9 km/h (1 Bft) NW 307 1 min 0,000 mm 2,1 UV-I 610 W/m 9,0 C 19,7 C 4,8 km/h (1 Bft) 96,30 %
17.04.2018 15:37 19,7 C 11,7 C 51 % 1023,9 hPa 0,0 l/m 4,3 km/h (1 Bft) SW 221 1 min 0,000 mm 2,1 UV-I 610 W/m 9,3 C 19,7 C 6,4 km/h (2 Bft) 100,00 %
17.04.2018 15:38 19,7 C 11,7 C 51 % 1023,9 hPa 0,0 l/m 2,4 km/h (1 Bft) SW 234 1 min 0,000 mm 2,1 UV-I 617 W/m 9,3 C 19,7 C 3,2 km/h (1 Bft) 92,59 %
17.04.2018 15:39 19,8 C 11,7 C 51 % 1023,8 hPa 0,0 l/m 4,6 km/h (1 Bft) W 259 1 min 0,000 mm 2,1 UV-I 626 W/m 9,4 C 19,8 C 6,4 km/h (2 Bft) 100,00 %
17.04.2018 15:40 19,9 C 11,7 C 51 % 1023,8 hPa 0,0 l/m 9,3 km/h (2 Bft) W-NW 294 1 min 0,000 mm 2,1 UV-I 640 W/m 9,5 C 18,8 C 11,3 km/h (2 Bft) 92,31 %
17.04.2018 15:41 20,0 C 11,7 C 50 % 1023,8 hPa 0,0 l/m 7,4 km/h (2 Bft) W-NW 296 1 min 0,000 mm 2,1 UV-I 649 W/m 9,3 C 19,6 C 11,3 km/h (2 Bft) 100,00 %
17.04.2018 15:42 20,0 C 11,7 C 48 % 1023,9 hPa 0,0 l/m 4,7 km/h (1 Bft) W 264 1 min 0,000 mm 2,1 UV-I 657 W/m 8,7 C 20,0 C 9,7 km/h (2 Bft) 96,15 %
17.04.2018 15:43 20,0 C 11,7 C 48 % 1023,9 hPa 0,0 l/m 10,1 km/h (2 Bft) W-SW 250 1 min 0,000 mm 2,1 UV-I 654 W/m 8,7 C 18,6 C 14,5 km/h (3 Bft) 95,83 %
17.04.2018 15:44 20,1 C 11,7 C 48 % 1023,8 hPa 0,0 l/m 8,6 km/h (2 Bft) W-NW 300 1 min 0,000 mm 2,1 UV-I 648 W/m 8,7 C 19,2 C 11,3 km/h (2 Bft) 95,65 %
17.04.2018 15:45 20,2 C 11,7 C 50 % 1023,8 hPa 0,0 l/m 8,0 km/h (2 Bft) W 264 1 min 0,000 mm 2,0 UV-I 638 W/m 9,4 C 19,6 C 11,3 km/h (2 Bft) 100,00 %
17.04.2018 15:46 20,2 C 11,7 C 47 % 1023,8 hPa 0,0 l/m 6,7 km/h (2 Bft) W-SW 255 1 min 0,000 mm 2,1 UV-I 648 W/m 8,5 C 20,1 C 9,7 km/h (2 Bft) 96,15 %
17.04.2018 15:47 20,2 C 11,7 C 47 % 1023,9 hPa 0,0 l/m 5,8 km/h (2 Bft) W 273 1 min 0,000 mm 2,0 UV-I 634 W/m 8,5 C 20,2 C 9,7 km/h (2 Bft) 95,83 %
17.04.2018 15:48 20,1 C 11,7 C 48 % 1023,8 hPa 0,0 l/m 4,4 km/h (1 Bft) W-NW 288 1 min 0,000 mm 2,0 UV-I 631 W/m 8,7 C 20,1 C 4,8 km/h (1 Bft) 100,00 %
17.04.2018 15:49 20,1 C 11,7 C 46 % 1023,8 hPa 0,0 l/m 3,8 km/h (1 Bft) W-NW 287 1 min 0,000 mm 2,0 UV-I 628 W/m 8,1 C 20,1 C 4,8 km/h (1 Bft) 91,30 %
17.04.2018 15:50 20,0 C 11,7 C 47 % 1023,8 hPa 0,0 l/m 2,5 km/h (1 Bft) NW 306 1 min 0,000 mm 1,8 UV-I 628 W/m 8,3 C 20,0 C 4,8 km/h (1 Bft) 100,00 %
17.04.2018 15:51 20,0 C 11,7 C 49 % 1023,8 hPa 0,0 l/m 7,1 km/h (2 Bft) W-NW 299 1 min 0,000 mm 1,6 UV-I 628 W/m 9,0 C 19,7 C 11,3 km/h (2 Bft) 95,65 %
17.04.2018 15:52 19,9 C 11,7 C 47 % 1023,8 hPa 0,0 l/m 5,1 km/h (1 Bft) NW 317 0 min 0,000 mm 1,5 UV-I 265 W/m 8,3 C 19,9 C 11,3 km/h (2 Bft) 100,00 %
17.04.2018 15:53 19,9 C 11,7 C 48 % 1023,8 hPa 0,0 l/m 4,8 km/h (1 Bft) W 264 0 min 0,000 mm 1,6 UV-I 281 W/m 8,6 C 19,9 C 6,4 km/h (2 Bft) 95,65 %
17.04.2018 15:54 19,8 C 11,7 C 50 % 1023,8 hPa 0,0 l/m 9,4 km/h (2 Bft) W 271 0 min 0,000 mm 1,6 UV-I 232 W/m 9,1 C 18,6 C 12,9 km/h (3 Bft) 95,83 %
17.04.2018 15:55 19,7 C 11,7 C 51 % 1023,9 hPa 0,0 l/m 5,8 km/h (2 Bft) W-SW 242 0 min 0,000 mm 1,8 UV-I 232 W/m 9,3 C 19,7 C 9,7 km/h (2 Bft) 95,65 %
17.04.2018 15:56 19,7 C 11,7 C 50 % 1023,8 hPa 0,0 l/m 4,6 km/h (1 Bft) W-SW 244 1 min 0,000 mm 1,8 UV-I 480 W/m 9,0 C 19,7 C 8,0 km/h (2 Bft) 95,83 %
17.04.2018 15:57 19,7 C 11,7 C 50 % 1023,9 hPa 0,0 l/m 4,8 km/h (1 Bft) N-NW 338 1 min 0,000 mm 1,8 UV-I 585 W/m 9,0 C 19,7 C 8,0 km/h (2 Bft) 100,00 %
17.04.2018 15:58 19,8 C 11,7 C 53 % 1023,9 hPa 0,0 l/m 4,5 km/h (1 Bft) W 269 1 min 0,000 mm 1,8 UV-I 592 W/m 9,9 C 19,8 C 11,3 km/h (2 Bft) 95,83 %
17.04.2018 15:59 19,8 C 11,7 C 50 % 1023,9 hPa 0,0 l/m 5,8 km/h (2 Bft) W 261 1 min 0,000 mm 1,8 UV-I 586 W/m 9,1 C 19,8 C 9,7 km/h (2 Bft) 100,00 %
17.04.2018 16:00 19,9 C 11,7 C 51 % 1023,8 hPa 0,0 l/m 4,6 km/h (1 Bft) N 360 1 min 0,000 mm 1,7 UV-I 526 W/m 9,5 C 19,9 C 6,4 km/h (2 Bft) 96,15 %
17.04.2018 16:01 19,9 C 11,7 C 52 % 1023,8 hPa 0,0 l/m 5,1 km/h (1 Bft) W 269 1 min 0,356 mm 1,6 UV-I 492 W/m 9,7 C 19,9 C 6,4 km/h (2 Bft) 100,00 %
17.04.2018 16:02 19,9 C 11,7 C 50 % 1023,8 hPa 0,0 l/m 3,6 km/h (1 Bft) W 267 1 min 0,000 mm 1,6 UV-I 492 W/m 9,2 C 19,9 C 6,4 km/h (2 Bft) 100,00 %
17.04.2018 16:03 19,8 C 11,7 C 51 % 1023,9 hPa 0,0 l/m 3,4 km/h (1 Bft) W 263 1 min 0,000 mm 1,7 UV-I 573 W/m 9,4 C 19,8 C 4,8 km/h (1 Bft) 100,00 %
17.04.2018 16:04 19,8 C 11,7 C 52 % 1023,8 hPa 0,0 l/m 6,2 km/h (2 Bft) S-SW 211 1 min 0,000 mm 1,7 UV-I 586 W/m 9,7 C 19,8 C 9,7 km/h (2 Bft) 95,65 %
17.04.2018 16:05 19,9 C 11,7 C 51 % 1023,8 hPa 0,0 l/m 8,4 km/h (2 Bft) W-SW 244 1 min 0,000 mm 1,7 UV-I 592 W/m 9,5 C 19,1 C 12,9 km/h (3 Bft) 100,00 %
17.04.2018 16:06 20,2 C 11,7 C 51 % 1023,8 hPa 0,0 l/m 6,7 km/h (2 Bft) S-SW 200 1 min 0,000 mm 1,7 UV-I 594 W/m 9,7 C 20,1 C 11,3 km/h (2 Bft) 95,65 %
17.04.2018 16:07 20,3 C 11,7 C 51 % 1023,8 hPa 0,0 l/m 5,5 km/h (1 Bft) S-SW 209 1 min 0,000 mm 1,7 UV-I 592 W/m 9,8 C 20,3 C 9,7 km/h (2 Bft) 95,83 %
17.04.2018 16:08 20,3 C 11,7 C 50 % 1023,8 hPa 0,0 l/m 5,0 km/h (1 Bft) SW 232 1 min 0,000 mm 1,5 UV-I 591 W/m 9,5 C 20,3 C 6,4 km/h (2 Bft) 100,00 %
17.04.2018 16:09 20,3 C 11,7 C 50 % 1023,8 hPa 0,0 l/m 11,3 km/h (2 Bft) W-SW 238 1 min 0,000 mm 1,6 UV-I 590 W/m 9,5 C 18,6 C 17,7 km/h (3 Bft) 95,83 %
17.04.2018 16:10 20,2 C 11,7 C 49 % 1023,8 hPa 0,0 l/m 5,4 km/h (1 Bft) W-SW 251 1 min 0,000 mm 1,6 UV-I 574 W/m 9,1 C 20,2 C 11,3 km/h (2 Bft) 95,65 %
17.04.2018 16:11 20,1 C 11,7 C 49 % 1023,8 hPa 0,0 l/m 7,1 km/h (2 Bft) W 277 1 min 0,000 mm 1,6 UV-I 582 W/m 9,0 C 19,8 C 11,3 km/h (2 Bft) 96,30 %
17.04.2018 16:12 20,0 C 11,7 C 49 % 1023,8 hPa 0,0 l/m 2,5 km/h (1 Bft) W 261 1 min 0,000 mm 1,6 UV-I 588 W/m 9,0 C 20,0 C 4,8 km/h (1 Bft) 100,00 %
17.04.2018 16:13 20,0 C 11,7 C 53 % 1023,8 hPa 0,0 l/m 4,3 km/h (1 Bft) W-SW 241 1 min 0,000 mm 1,7 UV-I 596 W/m 10,1 C 20,0 C 6,4 km/h (2 Bft) 100,00 %
17.04.2018 16:14 20,2 C 11,7 C 52 % 1023,8 hPa 0,0 l/m 3,4 km/h (1 Bft) NW 311 1 min 0,000 mm 1,6 UV-I 595 W/m 10,0 C 20,2 C 4,8 km/h (1 Bft) 100,00 %
17.04.2018 16:15 20,3 C 11,7 C 50 % 1023,8 hPa 0,0 l/m 3,0 km/h (1 Bft) N-NW 340 1 min 0,000 mm 1,5 UV-I 571 W/m 9,5 C 20,3 C 4,8 km/h (1 Bft) 100,00 %
17.04.2018 16:16 20,4 C 11,7 C 52 % 1023,7 hPa 0,0 l/m 3,1 km/h (1 Bft) N-NW 335 1 min 0,000 mm 1,5 UV-I 554 W/m 10,2 C 20,4 C 4,8 km/h (1 Bft) 100,00 %
17.04.2018 16:17 20,4 C 11,7 C 51 % 1023,8 hPa 0,0 l/m 4,1 km/h (1 Bft) W 271 1 min 0,000 mm 1,2 UV-I 428 W/m 9,9 C 20,4 C 9,7 km/h (2 Bft) 100,00 %
17.04.2018 16:18 20,3 C 11,7 C 50 % 1023,8 hPa 0,0 l/m 4,8 km/h (1 Bft) NW 319 0 min 0,000 mm 1,2 UV-I 175 W/m 9,5 C 20,3 C 6,4 km/h (2 Bft) 100,00 %
17.04.2018 16:19 20,1 C 11,7 C 47 % 1023,8 hPa 0,0 l/m 6,4 km/h (2 Bft) NW 308 0 min 0,000 mm 1,2 UV-I 178 W/m 8,4 C 20,1 C 9,7 km/h (2 Bft) 100,00 %
17.04.2018 16:20 19,9 C 11,7 C 48 % 1023,8 hPa 0,0 l/m 3,8 km/h (1 Bft) W-NW 298 0 min 0,000 mm 1,2 UV-I 181 W/m 8,6 C 19,9 C 4,8 km/h (1 Bft) 95,83 %
17.04.2018 16:21 19,9 C 11,7 C 49 % 1023,9 hPa 0,0 l/m 2,7 km/h (1 Bft) W-NW 297 0 min 0,000 mm 1,2 UV-I 193 W/m 8,9 C 19,9 C 4,8 km/h (1 Bft) 100,00 %
17.04.2018 16:22 19,8 C 11,7 C 50 % 1023,8 hPa 0,0 l/m 2,4 km/h (1 Bft) W-NW 298 0 min 0,000 mm 1,2 UV-I 201 W/m 9,1 C 19,8 C 3,2 km/h (1 Bft) 100,00 %
17.04.2018 16:23 19,7 C 11,7 C 51 % 1023,9 hPa 0,0 l/m 4,4 km/h (1 Bft) W-NW 298 0 min 0,000 mm 1,2 UV-I 186 W/m 9,3 C 19,7 C 6,4 km/h (2 Bft) 100,00 %
17.04.2018 16:24 19,6 C 11,7 C 50 % 1023,8 hPa 0,0 l/m 3,5 km/h (1 Bft) W-NW 299 0 min 0,000 mm 1,1 UV-I 173 W/m 8,9 C 19,6 C 4,8 km/h (1 Bft) 100,00 %
17.04.2018 16:25 19,5 C 11,7 C 49 % 1023,8 hPa 0,0 l/m 4,7 km/h (1 Bft) W 279 0 min 0,000 mm 1,1 UV-I 165 W/m 8,5 C 19,5 C 6,4 km/h (2 Bft) 94,87 %
17.04.2018 16:26 19,4 C 11,7 C 52 % 1023,8 hPa 0,0 l/m 5,4 km/h (1 Bft) W 281 0 min 0,000 mm 1,1 UV-I 158 W/m 9,3 C 19,4 C 9,7 km/h (2 Bft) 96,15 %
17.04.2018 16:27 19,4 C 11,7 C 51 % 1023,8 hPa 0,0 l/m 4,1 km/h (1 Bft) NW 306 0 min 0,000 mm 1,2 UV-I 180 W/m 9,0 C 19,4 C 6,4 km/h (2 Bft) 100,00 %
17.04.2018 16:28 19,4 C 11,7 C 51 % 1023,8 hPa 0,0 l/m 2,5 km/h (1 Bft) NW 320 0 min 0,000 mm 1,3 UV-I 258 W/m 9,0 C 19,4 C 4,8 km/h (1 Bft) 96,15 %
17.04.2018 16:29 19,6 C 11,7 C 55 % 1023,7 hPa 0,0 l/m 5,9 km/h (2 Bft) N-NW 330 1 min 0,000 mm 1,3 UV-I 436 W/m 10,3 C 19,6 C 14,5 km/h (3 Bft) 100,00 %
17.04.2018 16:30 19,6 C 11,7 C 54 % 1023,8 hPa 0,0 l/m 8,6 km/h (2 Bft) N 355 1 min 0,000 mm 1,2 UV-I 436 W/m 10,0 C 18,7 C 11,3 km/h (2 Bft) 92,31 %
17.04.2018 16:31 19,7 C 11,7 C 55 % 1023,8 hPa 0,0 l/m 6,9 km/h (2 Bft) N-NW 343 1 min 0,000 mm 1,3 UV-I 467 W/m 10,4 C 19,5 C 12,9 km/h (3 Bft) 95,83 %
17.04.2018 16:32 19,7 C 11,7 C 52 % 1023,8 hPa 0,0 l/m 6,4 km/h (2 Bft) N 355 1 min 0,000 mm 1,3 UV-I 459 W/m 9,6 C 19,7 C 9,7 km/h (2 Bft) 100,00 %
17.04.2018 16:33 19,8 C 11,7 C 53 % 1023,8 hPa 0,0 l/m 8,2 km/h (2 Bft) NW 305 1 min 0,000 mm 1,3 UV-I 455 W/m 9,9 C 19,1 C 12,9 km/h (3 Bft) 91,30 %
17.04.2018 16:34 19,8 C 11,7 C 54 % 1023,8 hPa 0,0 l/m 5,0 km/h (1 Bft) NW 319 1 min 0,000 mm 1,3 UV-I 458 W/m 10,2 C 19,8 C 11,3 km/h (2 Bft) 95,83 %
17.04.2018 16:35 19,8 C 11,7 C 54 % 1023,8 hPa 0,0 l/m 6,8 km/h (2 Bft) NW 319 1 min 0,000 mm 1,3 UV-I 450 W/m 10,2 C 19,6 C 11,3 km/h (2 Bft) 95,65 %
17.04.2018 16:36 19,8 C 11,7 C 52 % 1023,8 hPa 0,0 l/m 7,4 km/h (2 Bft) W-SW 255 1 min 0,000 mm 1,3 UV-I 455 W/m 9,7 C 19,4 C 11,3 km/h (2 Bft) 100,00 %
17.04.2018 16:37 19,8 C 11,7 C 51 % 1023,8 hPa 0,0 l/m 5,6 km/h (1 Bft) NW 319 1 min 0,000 mm 1,3 UV-I 460 W/m 9,4 C 19,8 C 8,0 km/h (2 Bft) 91,30 %
17.04.2018 16:38 19,9 C 11,7 C 52 % 1023,8 hPa 0,0 l/m 7,0 km/h (2 Bft) W 276 1 min 0,000 mm 1,3 UV-I 458 W/m 9,7 C 19,7 C 11,3 km/h (2 Bft) 95,83 %
17.04.2018 16:39 19,9 C 11,7 C 51 % 1023,7 hPa 0,0 l/m 5,6 km/h (1 Bft) W-NW 296 1 min 0,000 mm 1,3 UV-I 454 W/m 9,5 C 19,9 C 9,7 km/h (2 Bft) 96,15 %
17.04.2018 16:40 19,9 C 11,7 C 52 % 1023,8 hPa 0,0 l/m 5,5 km/h (1 Bft) N 5 1 min 0,000 mm 1,3 UV-I 452 W/m 9,7 C 19,9 C 9,7 km/h (2 Bft) 95,83 %
17.04.2018 16:41 19,9 C 11,7 C 51 % 1023,8 hPa 0,0 l/m 6,8 km/h (2 Bft) N-NW 334 1 min 0,000 mm 1,3 UV-I 449 W/m 9,5 C 19,7 C 11,3 km/h (2 Bft) 92,31 %
17.04.2018 16:42 20,1 C 11,7 C 52 % 1023,8 hPa 0,0 l/m 7,8 km/h (2 Bft) NW 314 1 min 0,000 mm 1,2 UV-I 444 W/m 9,9 C 19,5 C 9,7 km/h (2 Bft) 95,83 %
17.04.2018 16:43 20,2 C 11,7 C 51 % 1023,8 hPa 0,0 l/m 7,5 km/h (2 Bft) O-NO 60 1 min 0,000 mm 1,2 UV-I 439 W/m 9,7 C 19,8 C 9,7 km/h (2 Bft) 95,65 %
17.04.2018 16:44 20,3 C 11,7 C 51 % 1023,7 hPa 0,0 l/m 8,0 km/h (2 Bft) N 5 1 min 0,000 mm 1,2 UV-I 433 W/m 9,8 C 19,7 C 12,9 km/h (3 Bft) 95,83 %
17.04.2018 16:45 20,4 C 11,7 C 52 % 1023,8 hPa 0,0 l/m 5,2 km/h (1 Bft) N-NW 339 1 min 0,000 mm 1,2 UV-I 431 W/m 10,2 C 20,4 C 8,0 km/h (2 Bft) 100,00 %
17.04.2018 16:46 20,4 C 11,7 C 49 % 1023,7 hPa 0,0 l/m 6,8 km/h (2 Bft) N 10 1 min 0,000 mm 1,2 UV-I 430 W/m 9,3 C 20,2 C 8,0 km/h (2 Bft) 95,83 %
17.04.2018 16:47 20,4 C 11,7 C 50 % 1023,7 hPa 0,0 l/m 2,8 km/h (1 Bft) N 10 1 min 0,000 mm 1,2 UV-I 425 W/m 9,6 C 20,4 C 6,4 km/h (2 Bft) 100,00 %
17.04.2018 16:48 20,4 C 11,7 C 50 % 1023,8 hPa 0,0 l/m 2,1 km/h (1 Bft) N-NO 13 1 min 0,000 mm 1,2 UV-I 420 W/m 9,6 C 20,4 C 4,8 km/h (1 Bft) 95,83 %
17.04.2018 16:49 20,4 C 11,7 C 51 % 1023,8 hPa 0,0 l/m 6,5 km/h (2 Bft) N-NW 330 1 min 0,000 mm 1,1 UV-I 416 W/m 9,9 C 20,4 C 9,7 km/h (2 Bft) 95,65 %
17.04.2018 16:50 20,4 C 11,7 C 51 % 1023,8 hPa 0,0 l/m 9,3 km/h (2 Bft) N-NW 345 1 min 0,000 mm 1,1 UV-I 415 W/m 9,9 C 19,3 C 12,9 km/h (3 Bft) 100,00 %
17.04.2018 16:51 20,4 C 11,7 C 51 % 1023,8 hPa 0,0 l/m 7,9 km/h (2 Bft) N-NW 341 1 min 0,000 mm 1,1 UV-I 412 W/m 9,9 C 19,8 C 12,9 km/h (3 Bft) 91,67 %
17.04.2018 16:52 20,4 C 11,7 C 50 % 1023,8 hPa 0,0 l/m 14,6 km/h (3 Bft) N-NW 342 1 min 0,000 mm 1,1 UV-I 407 W/m 9,6 C 17,8 C 20,9 km/h (4 Bft) 100,00 %
17.04.2018 16:53 20,3 C 11,7 C 48 % 1023,9 hPa 0,0 l/m 12,2 km/h (2 Bft) N-NW 336 1 min 0,000 mm 1,1 UV-I 407 W/m 8,9 C 18,3 C 16,1 km/h (3 Bft) 91,67 %
17.04.2018 16:54 20,2 C 11,7 C 49 % 1023,8 hPa 0,0 l/m 8,9 km/h (2 Bft) N-NO 22 1 min 0,000 mm 1,1 UV-I 406 W/m 9,1 C 19,2 C 12,9 km/h (3 Bft) 95,65 %
17.04.2018 16:55 20,1 C 11,7 C 49 % 1023,9 hPa 0,0 l/m 7,4 km/h (2 Bft) NW 326 1 min 0,000 mm 1,1 UV-I 403 W/m 9,0 C 19,7 C 11,3 km/h (2 Bft) 95,83 %
17.04.2018 16:56 20,1 C 11,7 C 51 % 1023,9 hPa 0,0 l/m 7,3 km/h (2 Bft) NW 321 1 min 0,000 mm 1,1 UV-I 401 W/m 9,6 C 19,7 C 9,7 km/h (2 Bft) 100,00 %
17.04.2018 16:57 20,1 C 11,7 C 50 % 1023,9 hPa 0,0 l/m 4,8 km/h (1 Bft) NW 313 1 min 0,000 mm 1,0 UV-I 401 W/m 9,3 C 20,1 C 8,0 km/h (2 Bft) 95,83 %
17.04.2018 16:58 20,0 C 11,7 C 49 % 1023,9 hPa 0,0 l/m 7,4 km/h (2 Bft) NW 323 1 min 0,000 mm 1,0 UV-I 398 W/m 9,0 C 19,6 C 9,7 km/h (2 Bft) 100,00 %
17.04.2018 16:59 20,0 C 11,7 C 50 % 1023,9 hPa 0,0 l/m 5,4 km/h (1 Bft) NW 305 1 min 0,000 mm 1,0 UV-I 399 W/m 9,3 C 20,0 C 8,0 km/h (2 Bft) 95,83 %
17.04.2018 17:00 19,9 C 11,7 C 50 % 1023,9 hPa 0,0 l/m 4,7 km/h (1 Bft) NW 317 1 min 0,000 mm 1,0 UV-I 401 W/m 9,2 C 19,9 C 8,0 km/h (2 Bft) 95,65 %
17.04.2018 17:01 19,9 C 11,7 C 50 % 1023,9 hPa 0,0 l/m 6,2 km/h (2 Bft) N 355 1 min 0,279 mm 1,0 UV-I 403 W/m 9,2 C 19,9 C 8,0 km/h (2 Bft) 100,00 %
17.04.2018 17:02 20,0 C 11,7 C 50 % 1023,9 hPa 0,0 l/m 5,4 km/h (1 Bft) N-NW 344 1 min 0,000 mm 1,0 UV-I 399 W/m 9,3 C 20,0 C 8,0 km/h (2 Bft) 100,00 %
17.04.2018 17:03 20,1 C 11,7 C 52 % 1024,0 hPa 0,0 l/m 4,0 km/h (1 Bft) NW 316 1 min 0,000 mm 1,0 UV-I 397 W/m 9,9 C 20,1 C 8,0 km/h (2 Bft) 92,59 %
17.04.2018 17:04 20,2 C 11,7 C 52 % 1023,9 hPa 0,0 l/m 14,6 km/h (3 Bft) N-NO 13 1 min 0,000 mm 1,0 UV-I 400 W/m 10,0 C 17,6 C 17,7 km/h (3 Bft) 95,83 %
17.04.2018 17:05 20,2 C 11,7 C 50 % 1024,0 hPa 0,0 l/m 11,6 km/h (2 Bft) N-NW 338 1 min 0,000 mm 1,0 UV-I 401 W/m 9,4 C 18,4 C 16,1 km/h (3 Bft) 100,00 %
17.04.2018 17:06 20,2 C 11,7 C 50 % 1023,9 hPa 0,0 l/m 11,4 km/h (2 Bft) N-NW 348 1 min 0,000 mm 1,0 UV-I 400 W/m 9,4 C 18,4 C 17,7 km/h (3 Bft) 95,83 %
17.04.2018 17:07 20,2 C 11,7 C 50 % 1024,0 hPa 0,0 l/m 14,3 km/h (3 Bft) NW 321 1 min 0,000 mm 1,0 UV-I 402 W/m 9,4 C 17,7 C 17,7 km/h (3 Bft) 100,00 %
17.04.2018 17:08 20,2 C 11,7 C 50 % 1024,0 hPa 0,0 l/m 9,1 km/h (2 Bft) N 9 1 min 0,000 mm 1,0 UV-I 408 W/m 9,4 C 19,2 C 14,5 km/h (3 Bft) 95,83 %
17.04.2018 17:09 20,2 C 11,7 C 49 % 1024,0 hPa 0,0 l/m 9,1 km/h (2 Bft) N 355 1 min 0,000 mm 1,0 UV-I 413 W/m 9,1 C 19,2 C 12,9 km/h (3 Bft) 100,00 %
17.04.2018 17:10 20,3 C 11,7 C 50 % 1024,0 hPa 0,0 l/m 6,4 km/h (2 Bft) N 5 1 min 0,000 mm 0,9 UV-I 411 W/m 9,5 C 20,3 C 11,3 km/h (2 Bft) 95,83 %
17.04.2018 17:11 20,3 C 11,7 C 51 % 1024,0 hPa 0,0 l/m 8,0 km/h (2 Bft) N-NW 344 1 min 0,000 mm 0,9 UV-I 402 W/m 9,8 C 19,7 C 11,3 km/h (2 Bft) 95,65 %
17.04.2018 17:12 20,4 C 11,7 C 50 % 1024,0 hPa 0,0 l/m 8,0 km/h (2 Bft) N-NO 29 1 min 0,000 mm 0,9 UV-I 390 W/m 9,6 C 19,8 C 11,3 km/h (2 Bft) 96,30 %
17.04.2018 17:13 20,3 C 11,7 C 49 % 1024,0 hPa 0,0 l/m 7,1 km/h (2 Bft) N-NO 19 1 min 0,000 mm 0,9 UV-I 378 W/m 9,2 C 20,0 C 12,9 km/h (3 Bft) 96,15 %
17.04.2018 17:14 20,2 C 11,7 C 49 % 1024,0 hPa 0,0 l/m 8,4 km/h (2 Bft) NW 321 1 min 0,000 mm 0,9 UV-I 373 W/m 9,1 C 19,4 C 12,9 km/h (3 Bft) 100,00 %
17.04.2018 17:15 20,2 C 11,7 C 50 % 1024,0 hPa 0,0 l/m 6,8 km/h (2 Bft) N-NO 15 1 min 0,000 mm 0,9 UV-I 370 W/m 9,4 C 20,0 C 9,7 km/h (2 Bft) 95,65 %
17.04.2018 17:16 20,2 C 11,7 C 49 % 1024,0 hPa 0,0 l/m 5,6 km/h (1 Bft) N-NW 331 1 min 0,000 mm 0,9 UV-I 374 W/m 9,1 C 20,2 C 8,0 km/h (2 Bft) 100,00 %
17.04.2018 17:17 20,3 C 11,7 C 50 % 1024,0 hPa 0,0 l/m 5,5 km/h (1 Bft) N-NO 16 1 min 0,000 mm 0,8 UV-I 374 W/m 9,5 C 20,3 C 6,4 km/h (2 Bft) 96,30 %
17.04.2018 17:18 20,3 C 11,7 C 49 % 1024,0 hPa 0,0 l/m 8,1 km/h (2 Bft) W-NW 300 1 min 0,000 mm 0,8 UV-I 373 W/m 9,2 C 19,6 C 14,5 km/h (3 Bft) 100,00 %
17.04.2018 17:19 20,2 C 11,7 C 49 % 1024,0 hPa 0,0 l/m 8,1 km/h (2 Bft) N-NW 333 1 min 0,000 mm 0,8 UV-I 370 W/m 9,1 C 19,5 C 14,5 km/h (3 Bft) 95,83 %
17.04.2018 17:20 20,2 C 11,7 C 50 % 1024,0 hPa 0,0 l/m 9,4 km/h (2 Bft) NW 315 1 min 0,000 mm 0,8 UV-I 366 W/m 9,4 C 19,1 C 14,5 km/h (3 Bft) 100,00 %
17.04.2018 17:21 20,1 C 11,7 C 50 % 1024,0 hPa 0,0 l/m 7,6 km/h (2 Bft) NW 324 1 min 0,000 mm 0,8 UV-I 361 W/m 9,3 C 19,6 C 12,9 km/h (3 Bft) 91,67 %
17.04.2018 17:22 20,1 C 11,7 C 50 % 1024,0 hPa 0,0 l/m 7,4 km/h (2 Bft) NW 317 1 min 0,000 mm 0,8 UV-I 359 W/m 9,3 C 19,7 C 9,7 km/h (2 Bft) 95,65 %
17.04.2018 17:23 20,0 C 11,7 C 51 % 1024,0 hPa 0,0 l/m 4,9 km/h (1 Bft) N-NW 335 1 min 0,000 mm 0,8 UV-I 358 W/m 9,6 C 20,0 C 8,0 km/h (2 Bft) 95,83 %
17.04.2018 17:24 19,9 C 11,7 C 52 % 1024,0 hPa 0,0 l/m 5,6 km/h (1 Bft) NW 322 1 min 0,000 mm 0,8 UV-I 357 W/m 9,7 C 19,9 C 9,7 km/h (2 Bft) 91,30 %
17.04.2018 17:25 19,9 C 11,7 C 53 % 1024,1 hPa 0,0 l/m 6,0 km/h (2 Bft) N-NW 333 1 min 0,000 mm 0,7 UV-I 358 W/m 10,0 C 19,9 C 9,7 km/h (2 Bft) 91,67 %
17.04.2018 17:26 20,0 C 11,7 C 54 % 1024,0 hPa 0,0 l/m 5,6 km/h (1 Bft) NW 307 1 min 0,000 mm 0,7 UV-I 320 W/m 10,4 C 20,0 C 9,7 km/h (2 Bft) 91,67 %
17.04.2018 17:27 20,0 C 11,7 C 52 % 1024,1 hPa 0,0 l/m 6,0 km/h (2 Bft) NW 320 1 min 0,000 mm 0,7 UV-I 294 W/m 9,8 C 20,0 C 11,3 km/h (2 Bft) 100,00 %
17.04.2018 17:28 19,9 C 11,7 C 53 % 1024,0 hPa 0,0 l/m 5,8 km/h (2 Bft) NW 308 1 min 0,000 mm 0,7 UV-I 355 W/m 10,0 C 19,9 C 8,0 km/h (2 Bft) 88,46 %
17.04.2018 17:29 19,9 C 11,7 C 54 % 1024,1 hPa 0,0 l/m 7,8 km/h (2 Bft) N-NW 327 1 min 0,000 mm 0,7 UV-I 356 W/m 10,3 C 19,3 C 14,5 km/h (3 Bft) 95,83 %
17.04.2018 17:30 19,8 C 11,7 C 53 % 1024,0 hPa 0,0 l/m 8,0 km/h (2 Bft) N-NW 342 1 min 0,000 mm 0,7 UV-I 357 W/m 9,9 C 19,1 C 9,7 km/h (2 Bft) 95,83 %
17.04.2018 17:31 19,8 C 11,7 C 53 % 1024,0 hPa 0,0 l/m 5,5 km/h (1 Bft) NW 317 1 min 0,000 mm 0,7 UV-I 357 W/m 9,9 C 19,8 C 6,4 km/h (2 Bft) 94,12 %
17.04.2018 17:32 19,8 C 11,7 C 51 % 1024,1 hPa 0,0 l/m 7,2 km/h (2 Bft) N 10 1 min 0,000 mm 0,7 UV-I 357 W/m 9,4 C 19,5 C 11,3 km/h (2 Bft) 95,83 %
17.04.2018 17:33 19,8 C 11,7 C 52 % 1024,1 hPa 0,0 l/m 7,6 km/h (2 Bft) N-NW 346 1 min 0,000 mm 0,7 UV-I 359 W/m 9,7 C 19,3 C 9,7 km/h (2 Bft) 95,65 %
17.04.2018 17:34 19,9 C 11,7 C 48 % 1024,1 hPa 0,0 l/m 6,4 km/h (2 Bft) N 11 1 min 0,000 mm 0,7 UV-I 361 W/m 8,6 C 19,9 C 8,0 km/h (2 Bft) 95,83 %
17.04.2018 17:35 19,9 C 11,7 C 51 % 1024,1 hPa 0,0 l/m 7,9 km/h (2 Bft) N-NW 348 1 min 0,000 mm 0,7 UV-I 362 W/m 9,5 C 19,3 C 12,9 km/h (3 Bft) 96,15 %
17.04.2018 17:36 19,9 C 11,7 C 51 % 1024,1 hPa 0,0 l/m 7,0 km/h (2 Bft) NW 313 1 min 0,000 mm 0,7 UV-I 362 W/m 9,5 C 19,7 C 9,7 km/h (2 Bft) 96,30 %
17.04.2018 17:37 20,0 C 11,7 C 52 % 1024,1 hPa 0,0 l/m 4,6 km/h (1 Bft) NW 319 1 min 0,000 mm 0,6 UV-I 364 W/m 9,8 C 20,0 C 6,4 km/h (2 Bft) 91,30 %
17.04.2018 17:38 20,0 C 11,7 C 52 % 1024,0 hPa 0,0 l/m 3,4 km/h (1 Bft) W-NW 302 1 min 0,000 mm 0,6 UV-I 360 W/m 9,8 C 20,0 C 6,4 km/h (2 Bft) 95,83 %
17.04.2018 17:39 19,9 C 11,7 C 52 % 1024,1 hPa 0,0 l/m 2,3 km/h (1 Bft) W-NW 303 1 min 0,000 mm 0,6 UV-I 360 W/m 9,7 C 19,9 C 3,2 km/h (1 Bft) 95,65 %
17.04.2018 17:40 19,9 C 11,7 C 53 % 1024,1 hPa 0,0 l/m 3,9 km/h (1 Bft) N-NW 336 1 min 0,000 mm 0,6 UV-I 360 W/m 10,0 C 19,9 C 6,4 km/h (2 Bft) 95,83 %
17.04.2018 17:41 19,9 C 11,7 C 53 % 1024,1 hPa 0,0 l/m 3,8 km/h (1 Bft) N-NW 341 1 min 0,000 mm 0,6 UV-I 359 W/m 10,0 C 19,9 C 4,8 km/h (1 Bft) 96,15 %
17.04.2018 17:42 19,9 C 11,7 C 52 % 1024,1 hPa 0,0 l/m 4,7 km/h (1 Bft) W 281 1 min 0,000 mm 0,6 UV-I 359 W/m 9,7 C 19,9 C 6,4 km/h (2 Bft) 95,83 %
17.04.2018 17:43 19,9 C 11,7 C 53 % 1024,1 hPa 0,0 l/m 4,0 km/h (1 Bft) N-NW 333 1 min 0,000 mm 0,6 UV-I 350 W/m 10,0 C 19,9 C 4,8 km/h (1 Bft) 95,83 %
17.04.2018 17:44 19,9 C 11,7 C 54 % 1024,1 hPa 0,0 l/m 5,0 km/h (1 Bft) NW 313 1 min 0,000 mm 0,6 UV-I 345 W/m 10,3 C 19,9 C 6,4 km/h (2 Bft) 95,65 %
17.04.2018 17:45 19,9 C 11,7 C 53 % 1024,0 hPa 0,0 l/m 5,7 km/h (1 Bft) NW 321 1 min 0,000 mm 0,6 UV-I 342 W/m 10,0 C 19,9 C 8,0 km/h (2 Bft) 91,67 %
17.04.2018 17:46 19,9 C 11,7 C 51 % 1024,1 hPa 0,0 l/m 4,2 km/h (1 Bft) W-NW 302 1 min 0,000 mm 0,6 UV-I 337 W/m 9,5 C 19,9 C 4,8 km/h (1 Bft) 96,55 %
17.04.2018 17:47 19,9 C 11,7 C 54 % 1024,1 hPa 0,0 l/m 3,7 km/h (1 Bft) NW 305 1 min 0,000 mm 0,5 UV-I 333 W/m 10,3 C 19,9 C 6,4 km/h (2 Bft) 91,67 %
17.04.2018 17:48 19,9 C 11,7 C 53 % 1024,1 hPa 0,0 l/m 4,9 km/h (1 Bft) N-NW 342 1 min 0,000 mm 0,5 UV-I 330 W/m 10,0 C 19,9 C 8,0 km/h (2 Bft) 91,30 %
17.04.2018 17:49 19,9 C 11,7 C 51 % 1024,0 hPa 0,0 l/m 4,4 km/h (1 Bft) W-NW 282 1 min 0,000 mm 0,5 UV-I 316 W/m 9,5 C 19,9 C 6,4 km/h (2 Bft) 95,83 %
17.04.2018 17:50 19,9 C 11,7 C 51 % 1024,0 hPa 0,0 l/m 4,9 km/h (1 Bft) N-NW 346 1 min 0,000 mm 0,5 UV-I 314 W/m 9,5 C 19,9 C 8,0 km/h (2 Bft) 100,00 %
17.04.2018 17:51 19,9 C 11,7 C 52 % 1024,0 hPa 0,0 l/m 5,8 km/h (2 Bft) NW 326 1 min 0,000 mm 0,5 UV-I 308 W/m 9,7 C 19,9 C 9,7 km/h (2 Bft) 95,65 %
17.04.2018 17:52 19,9 C 11,7 C 53 % 1024,0 hPa 0,0 l/m 3,6 km/h (1 Bft) W 274 1 min 0,000 mm 0,5 UV-I 302 W/m 10,0 C 19,9 C 4,8 km/h (1 Bft) 100,00 %
17.04.2018 17:53 19,8 C 11,7 C 53 % 1024,1 hPa 0,0 l/m 2,5 km/h (1 Bft) N 360 1 min 0,000 mm 0,5 UV-I 296 W/m 9,9 C 19,8 C 4,8 km/h (1 Bft) 95,65 %
17.04.2018 17:54 19,8 C 11,7 C 54 % 1024,0 hPa 0,0 l/m 2,5 km/h (1 Bft) NW 323 1 min 0,000 mm 0,5 UV-I 294 W/m 10,2 C 19,8 C 4,8 km/h (1 Bft) 100,00 %
17.04.2018 17:55 19,9 C 11,7 C 54 % 1024,1 hPa 0,0 l/m 3,3 km/h (1 Bft) N-NW 333 1 min 0,000 mm 0,5 UV-I 290 W/m 10,3 C 19,9 C 4,8 km/h (1 Bft) 100,00 %
17.04.2018 17:56 19,9 C 11,7 C 54 % 1024,1 hPa 0,0 l/m 2,4 km/h (1 Bft) N-NW 336 1 min 0,000 mm 0,5 UV-I 293 W/m 10,3 C 19,9 C 4,8 km/h (1 Bft) 100,00 %
17.04.2018 17:57 19,9 C 11,7 C 53 % 1024,0 hPa 0,0 l/m 4,0 km/h (1 Bft) W-NW 301 1 min 0,000 mm 0,5 UV-I 287 W/m 10,0 C 19,9 C 6,4 km/h (2 Bft) 100,00 %
17.04.2018 17:58 19,9 C 11,7 C 52 % 1024,0 hPa 0,0 l/m 4,3 km/h (1 Bft) NW 315 1 min 0,000 mm 0,5 UV-I 281 W/m 9,7 C 19,9 C 6,4 km/h (2 Bft) 100,00 %
17.04.2018 17:59 19,9 C 11,7 C 52 % 1024,0 hPa 0,0 l/m 5,3 km/h (1 Bft) W-NW 293 1 min 0,000 mm 0,5 UV-I 277 W/m 9,7 C 19,9 C 8,0 km/h (2 Bft) 96,15 %
17.04.2018 18:00 19,8 C 11,7 C 51 % 1024,0 hPa 0,0 l/m 3,1 km/h (1 Bft) N 355 1 min 0,000 mm 0,2 UV-I 273 W/m 9,4 C 19,8 C 4,8 km/h (1 Bft) 100,00 %
17.04.2018 18:01 19,8 C 11,7 C 52 % 1024,0 hPa 0,0 l/m 3,8 km/h (1 Bft) N-NW 340 1 min 0,254 mm 0,0 UV-I 268 W/m 9,7 C 19,8 C 6,4 km/h (2 Bft) 95,65 %
17.04.2018 18:02 19,8 C 11,7 C 52 % 1024,0 hPa 0,0 l/m 6,4 km/h (2 Bft) N 11 1 min 0,000 mm 0,0 UV-I 262 W/m 9,7 C 19,8 C 8,0 km/h (2 Bft) 100,00 %
17.04.2018 18:03 19,7 C 11,7 C 50 % 1024,0 hPa 0,0 l/m 4,3 km/h (1 Bft) N 355 1 min 0,000 mm 0,0 UV-I 257 W/m 9,0 C 19,7 C 6,4 km/h (2 Bft) 100,00 %
17.04.2018 18:04 19,7 C 11,7 C 52 % 1024,1 hPa 0,0 l/m 2,9 km/h (1 Bft) N 355 1 min 0,000 mm 0,0 UV-I 252 W/m 9,6 C 19,7 C 4,8 km/h (1 Bft) 100,00 %
17.04.2018 18:05 19,7 C 11,7 C 53 % 1024,1 hPa 0,0 l/m 3,2 km/h (1 Bft) N-NW 338 1 min 0,000 mm 0,0 UV-I 249 W/m 9,8 C 19,7 C 4,8 km/h (1 Bft) 100,00 %
17.04.2018 18:06 19,8 C 11,7 C 54 % 1024,1 hPa 0,0 l/m 3,4 km/h (1 Bft) N-NW 329 1 min 0,000 mm 0,0 UV-I 246 W/m 10,2 C 19,8 C 4,8 km/h (1 Bft) 100,00 %
17.04.2018 18:07 19,8 C 11,7 C 52 % 1024,1 hPa 0,0 l/m 3,4 km/h (1 Bft) N-NW 331 1 min 0,000 mm 0,0 UV-I 242 W/m 9,7 C 19,8 C 4,8 km/h (1 Bft) 95,83 %
17.04.2018 18:08 19,7 C 11,7 C 53 % 1024,1 hPa 0,0 l/m 2,7 km/h (1 Bft) N-NW 335 1 min 0,000 mm 0,0 UV-I 235 W/m 9,8 C 19,7 C 6,4 km/h (2 Bft) 100,00 %
17.04.2018 18:09 19,7 C 11,7 C 52 % 1024,1 hPa 0,0 l/m 2,7 km/h (1 Bft) NW 323 1 min 0,000 mm 0,0 UV-I 228 W/m 9,6 C 19,7 C 4,8 km/h (1 Bft) 100,00 %
17.04.2018 18:10 19,6 C 11,7 C 52 % 1024,1 hPa 0,0 l/m 3,8 km/h (1 Bft) NW 325 1 min 0,000 mm 0,0 UV-I 226 W/m 9,5 C 19,6 C 4,8 km/h (1 Bft) 100,00 %
17.04.2018 18:11 19,6 C 11,7 C 53 % 1024,1 hPa 0,0 l/m 1,9 km/h (1 Bft) NW 325 1 min 0,000 mm 0,0 UV-I 225 W/m 9,8 C 19,6 C 3,2 km/h (1 Bft) 100,00 %
17.04.2018 18:12 19,6 C 11,7 C 53 % 1024,1 hPa 0,0 l/m 2,8 km/h (1 Bft) W-NW 302 1 min 0,000 mm 0,0 UV-I 223 W/m 9,8 C 19,6 C 4,8 km/h (1 Bft) 100,00 %
17.04.2018 18:13 19,6 C 11,7 C 53 % 1024,1 hPa 0,0 l/m 3,6 km/h (1 Bft) N 355 1 min 0,000 mm 0,0 UV-I 224 W/m 9,8 C 19,6 C 4,8 km/h (1 Bft) 95,65 %
17.04.2018 18:14 19,7 C 11,7 C 53 % 1024,1 hPa 0,0 l/m 4,0 km/h (1 Bft) N 351 1 min 0,000 mm 0,0 UV-I 220 W/m 9,8 C 19,7 C 4,8 km/h (1 Bft) 100,00 %
17.04.2018 18:15 19,7 C 11,7 C 50 % 1024,1 hPa 0,0 l/m 4,4 km/h (1 Bft) W-NW 284 1 min 0,000 mm 0,0 UV-I 217 W/m 9,0 C 19,7 C 6,4 km/h (2 Bft) 95,65 %
17.04.2018 18:16 19,7 C 11,7 C 52 % 1024,1 hPa 0,0 l/m 2,2 km/h (1 Bft) W-NW 297 1 min 0,000 mm 0,0 UV-I 216 W/m 9,6 C 19,7 C 4,8 km/h (1 Bft) 100,00 %
17.04.2018 18:17 19,7 C 11,7 C 52 % 1024,1 hPa 0,0 l/m 2,2 km/h (1 Bft) W-NW 289 1 min 0,000 mm 0,0 UV-I 218 W/m 9,6 C 19,7 C 3,2 km/h (1 Bft) 100,00 %
17.04.2018 18:18 19,6 C 11,7 C 50 % 1024,1 hPa 0,0 l/m 2,8 km/h (1 Bft) NW 315 1 min 0,000 mm 0,0 UV-I 220 W/m 8,9 C 19,6 C 4,8 km/h (1 Bft) 100,00 %
17.04.2018 18:19 19,6 C 11,7 C 51 % 1024,1 hPa 0,0 l/m 2,7 km/h (1 Bft) NW 313 1 min 0,000 mm 0,0 UV-I 221 W/m 9,2 C 19,6 C 3,2 km/h (1 Bft) 95,65 %
17.04.2018 18:20 19,6 C 11,7 C 49 % 1024,1 hPa 0,0 l/m 2,5 km/h (1 Bft) NW 309 1 min 0,000 mm 0,0 UV-I 224 W/m 8,6 C 19,6 C 3,2 km/h (1 Bft) 100,00 %
17.04.2018 18:21 19,6 C 11,7 C 50 % 1024,0 hPa 0,0 l/m 4,7 km/h (1 Bft) W-SW 254 1 min 0,000 mm 0,0 UV-I 226 W/m 8,9 C 19,6 C 6,4 km/h (2 Bft) 100,00 %
17.04.2018 18:22 19,5 C 11,7 C 50 % 1024,0 hPa 0,0 l/m 4,8 km/h (1 Bft) W-SW 254 1 min 0,000 mm 0,0 UV-I 225 W/m 8,8 C 19,5 C 6,4 km/h (2 Bft) 100,00 %
17.04.2018 18:23 19,5 C 11,7 C 49 % 1024,1 hPa 0,0 l/m 3,4 km/h (1 Bft) W-SW 257 1 min 0,000 mm 0,0 UV-I 223 W/m 8,5 C 19,5 C 4,8 km/h (1 Bft) 100,00 %
17.04.2018 18:24 19,4 C 11,7 C 50 % 1024,1 hPa 0,0 l/m 3,0 km/h (1 Bft) W-SW 257 1 min 0,000 mm 0,0 UV-I 220 W/m 8,7 C 19,4 C 4,8 km/h (1 Bft) 100,00 %
17.04.2018 18:25 19,4 C 11,7 C 49 % 1024,0 hPa 0,0 l/m 4,2 km/h (1 Bft) W-NW 285 1 min 0,000 mm 0,0 UV-I 213 W/m 8,4 C 19,4 C 6,4 km/h (2 Bft) 95,65 %
17.04.2018 18:26 19,4 C 11,7 C 49 % 1024,0 hPa 0,0 l/m 2,9 km/h (1 Bft) W-NW 288 1 min 0,000 mm 0,0 UV-I 208 W/m 8,4 C 19,4 C 3,2 km/h (1 Bft) 100,00 %
17.04.2018 18:27 19,5 C 11,7 C 51 % 1024,0 hPa 0,0 l/m 3,0 km/h (1 Bft) N-NW 333 1 min 0,000 mm 0,0 UV-I 201 W/m 9,1 C 19,5 C 4,8 km/h (1 Bft) 95,65 %
17.04.2018 18:28 19,5 C 11,7 C 52 % 1024,1 hPa 0,0 l/m 1,9 km/h (1 Bft) N-NW 333 1 min 0,000 mm 0,0 UV-I 195 W/m 9,4 C 19,5 C 3,2 km/h (1 Bft) 100,00 %
17.04.2018 18:29 19,5 C 11,7 C 51 % 1024,1 hPa 0,0 l/m 2,3 km/h (1 Bft) N-NW 333 1 min 0,000 mm 0,0 UV-I 187 W/m 9,1 C 19,5 C 4,8 km/h (1 Bft) 100,00 %
17.04.2018 18:30 19,5 C 11,7 C 51 % 1024,2 hPa 0,0 l/m 4,0 km/h (1 Bft) W-NW 300 1 min 0,000 mm 0,0 UV-I 185 W/m 9,1 C 19,5 C 6,4 km/h (2 Bft) 91,30 %
17.04.2018 18:31 19,6 C 11,7 C 52 % 1024,2 hPa 0,0 l/m 2,5 km/h (1 Bft) W-NW 300 1 min 0,000 mm 0,0 UV-I 177 W/m 9,5 C 19,6 C 4,8 km/h (1 Bft) 100,00 %
17.04.2018 18:32 19,6 C 11,7 C 50 % 1024,1 hPa 0,0 l/m 2,4 km/h (1 Bft) W-NW 300 1 min 0,000 mm 0,0 UV-I 174 W/m 8,9 C 19,6 C 4,8 km/h (1 Bft) 95,65 %
17.04.2018 18:33 19,5 C 11,7 C 51 % 1024,2 hPa 0,0 l/m 2,6 km/h (1 Bft) W-NW 301 1 min 0,000 mm 0,0 UV-I 170 W/m 9,1 C 19,5 C 4,8 km/h (1 Bft) 100,00 %
17.04.2018 18:34 19,5 C 11,7 C 51 % 1024,2 hPa 0,0 l/m 1,6 km/h (1 Bft) W-NW 301 1 min 0,000 mm 0,0 UV-I 165 W/m 9,1 C 19,5 C 3,2 km/h (1 Bft) 100,00 %
17.04.2018 18:35 19,5 C 11,7 C 52 % 1024,1 hPa 0,0 l/m 1,6 km/h (1 Bft) W-NW 301 1 min 0,000 mm 0,0 UV-I 159 W/m 9,4 C 19,5 C 3,2 km/h (1 Bft) 100,00 %
17.04.2018 18:36 19,4 C 11,7 C 51 % 1024,2 hPa 0,0 l/m 1,0 km/h (0 Bft) W-NW 301 1 min 0,000 mm 0,0 UV-I 152 W/m 9,0 C 19,4 C 3,2 km/h (1 Bft) 100,00 %
17.04.2018 18:38 19,4 C 11,7 C 50 % 1024,2 hPa 0,0 l/m 2,4 km/h (1 Bft) W-NW 300 2 min 0,000 mm 0,0 UV-I 147 W/m 8,7 C 19,4 C 4,8 km/h (1 Bft) 97,37 %
17.04.2018 18:39 19,4 C 11,7 C 50 % 1024,2 hPa 0,0 l/m 1,7 km/h (1 Bft) W-NW 300 1 min 0,000 mm 0,0 UV-I 144 W/m 8,7 C 19,4 C 3,2 km/h (1 Bft) 100,00 %
17.04.2018 18:40 19,4 C 11,7 C 50 % 1024,2 hPa 0,0 l/m 2,0 km/h (1 Bft) W-NW 300 1 min 0,000 mm 0,0 UV-I 144 W/m 8,7 C 19,4 C 3,2 km/h (1 Bft) 100,00 %
17.04.2018 18:41 19,3 C 11,7 C 50 % 1024,2 hPa 0,0 l/m 1,4 km/h (1 Bft) W-NW 300 1 min 0,000 mm 0,0 UV-I 144 W/m 8,6 C 19,3 C 3,2 km/h (1 Bft) 100,00 %
17.04.2018 18:42 19,3 C 11,7 C 52 % 1024,2 hPa 0,0 l/m 0,5 km/h (0 Bft) W-NW 300 1 min 0,000 mm 0,0 UV-I 146 W/m 9,2 C 19,3 C 1,6 km/h (1 Bft) 100,00 %
17.04.2018 18:43 19,3 C 11,7 C 53 % 1024,2 hPa 0,0 l/m 0,9 km/h (0 Bft) W-NW 300 1 min 0,000 mm 0,0 UV-I 148 W/m 9,5 C 19,3 C 1,6 km/h (1 Bft) 100,00 %
17.04.2018 18:44 19,3 C 11,7 C 53 % 1024,2 hPa 0,0 l/m 0,3 km/h (0 Bft) W-NW 300 1 min 0,000 mm 0,0 UV-I 147 W/m 9,5 C 19,3 C 1,6 km/h (1 Bft) 100,00 %
17.04.2018 18:45 19,3 C 11,7 C 50 % 1024,2 hPa 0,0 l/m 1,4 km/h (1 Bft) W-NW 300 1 min 0,000 mm 0,0 UV-I 146 W/m 8,6 C 19,3 C 3,2 km/h (1 Bft) 100,00 %
17.04.2018 18:46 19,4 C 11,7 C 50 % 1024,2 hPa 0,0 l/m 1,0 km/h (0 Bft) W-NW 300 1 min 0,000 mm 0,0 UV-I 146 W/m 8,7 C 19,4 C 3,2 km/h (1 Bft) 100,00 %
17.04.2018 18:47 19,4 C 11,7 C 50 % 1024,3 hPa 0,0 l/m 1,9 km/h (1 Bft) W-NW 300 1 min 0,000 mm 0,0 UV-I 146 W/m 8,7 C 19,4 C 3,2 km/h (1 Bft) 100,00 %
17.04.2018 18:48 19,6 C 11,7 C 50 % 1024,3 hPa 0,0 l/m 2,4 km/h (1 Bft) W-NW 300 1 min 0,000 mm 0,0 UV-I 146 W/m 8,9 C 19,6 C 4,8 km/h (1 Bft) 100,00 %
17.04.2018 18:49 19,6 C 11,7 C 49 % 1024,3 hPa 0,0 l/m 3,6 km/h (1 Bft) NW 309 1 min 0,000 mm 0,0 UV-I 144 W/m 8,6 C 19,6 C 6,4 km/h (2 Bft) 100,00 %
17.04.2018 18:50 19,5 C 11,7 C 50 % 1024,3 hPa 0,0 l/m 3,6 km/h (1 Bft) NW 308 1 min 0,000 mm 0,0 UV-I 144 W/m 8,8 C 19,5 C 4,8 km/h (1 Bft) 100,00 %
17.04.2018 18:51 19,4 C 11,7 C 50 % 1024,3 hPa 0,0 l/m 3,1 km/h (1 Bft) NW 308 1 min 0,000 mm 0,0 UV-I 144 W/m 8,7 C 19,4 C 4,8 km/h (1 Bft) 91,30 %
17.04.2018 18:52 19,4 C 11,7 C 51 % 1024,3 hPa 0,0 l/m 2,3 km/h (1 Bft) NW 309 1 min 0,000 mm 0,0 UV-I 142 W/m 9,0 C 19,4 C 3,2 km/h (1 Bft) 100,00 %
17.04.2018 18:53 19,4 C 11,7 C 51 % 1024,3 hPa 0,0 l/m 3,7 km/h (1 Bft) N-NW 346 1 min 0,000 mm 0,0 UV-I 137 W/m 9,0 C 19,4 C 4,8 km/h (1 Bft) 100,00 %
17.04.2018 18:54 19,4 C 11,7 C 50 % 1024,3 hPa 0,0 l/m 2,0 km/h (1 Bft) N-NW 346 1 min 0,000 mm 0,0 UV-I 134 W/m 8,7 C 19,4 C 3,2 km/h (1 Bft) 100,00 %
17.04.2018 18:55 19,4 C 11,7 C 50 % 1024,3 hPa 0,0 l/m 1,4 km/h (1 Bft) N-NW 346 1 min 0,000 mm 0,0 UV-I 132 W/m 8,7 C 19,4 C 3,2 km/h (1 Bft) 100,00 %
17.04.2018 18:56 19,4 C 11,7 C 50 % 1024,3 hPa 0,0 l/m 1,5 km/h (1 Bft) N-NW 346 1 min 0,000 mm 0,0 UV-I 131 W/m 8,7 C 19,4 C 3,2 km/h (1 Bft) 100,00 %
17.04.2018 18:57 19,5 C 11,7 C 51 % 1024,3 hPa 0,0 l/m 3,0 km/h (1 Bft) NW 324 1 min 0,000 mm 0,0 UV-I 129 W/m 9,1 C 19,5 C 6,4 km/h (2 Bft) 95,83 %
17.04.2018 18:58 19,4 C 11,7 C 52 % 1024,3 hPa 0,0 l/m 3,1 km/h (1 Bft) NW 321 1 min 0,000 mm 0,0 UV-I 127 W/m 9,3 C 19,4 C 4,8 km/h (1 Bft) 95,65 %
17.04.2018 18:59 19,3 C 11,7 C 52 % 1024,3 hPa 0,0 l/m 3,1 km/h (1 Bft) NW 322 1 min 0,000 mm 0,0 UV-I 123 W/m 9,2 C 19,3 C 4,8 km/h (1 Bft) 100,00 %
17.04.2018 19:00 19,3 C 11,7 C 53 % 1024,3 hPa 0,0 l/m 2,2 km/h (1 Bft) N-NW 336 1 min 0,000 mm 0,0 UV-I 123 W/m 9,5 C 19,3 C 4,8 km/h (1 Bft) 100,00 %
17.04.2018 19:01 19,2 C 11,7 C 54 % 1024,3 hPa 0,0 l/m 3,8 km/h (1 Bft) NW 317 1 min 0,127 mm 0,0 UV-I 121 W/m 9,7 C 19,2 C 6,4 km/h (2 Bft) 100,00 %
17.04.2018 19:02 19,3 C 11,7 C 54 % 1024,3 hPa 0,0 l/m 3,0 km/h (1 Bft) NW 319 1 min 0,000 mm 0,0 UV-I 119 W/m 9,8 C 19,3 C 4,8 km/h (1 Bft) 95,65 %
17.04.2018 19:03 19,2 C 11,7 C 53 % 1024,3 hPa 0,0 l/m 3,1 km/h (1 Bft) NW 319 1 min 0,000 mm 0,0 UV-I 115 W/m 9,4 C 19,2 C 4,8 km/h (1 Bft) 100,00 %
17.04.2018 19:04 19,3 C 11,7 C 52 % 1024,3 hPa 0,0 l/m 4,0 km/h (1 Bft) N 9 1 min 0,000 mm 0,0 UV-I 113 W/m 9,2 C 19,3 C 6,4 km/h (2 Bft) 100,00 %
17.04.2018 19:05 19,2 C 11,7 C 52 % 1024,3 hPa 0,0 l/m 5,2 km/h (1 Bft) N 355 1 min 0,000 mm 0,0 UV-I 111 W/m 9,1 C 19,2 C 6,4 km/h (2 Bft) 100,00 %
17.04.2018 19:06 19,2 C 11,7 C 53 % 1024,3 hPa 0,0 l/m 4,0 km/h (1 Bft) N 5 1 min 0,000 mm 0,0 UV-I 106 W/m 9,4 C 19,2 C 6,4 km/h (2 Bft) 100,00 %
17.04.2018 19:07 19,2 C 11,7 C 52 % 1024,3 hPa 0,0 l/m 3,9 km/h (1 Bft) N 5 1 min 0,000 mm 0,0 UV-I 102 W/m 9,1 C 19,2 C 6,4 km/h (2 Bft) 100,00 %
17.04.2018 19:08 19,2 C 11,7 C 52 % 1024,3 hPa 0,0 l/m 4,7 km/h (1 Bft) N-NW 340 1 min 0,000 mm 0,0 UV-I 94 W/m 9,1 C 19,2 C 4,8 km/h (1 Bft) 100,00 %
17.04.2018 19:09 19,2 C 11,7 C 52 % 1024,3 hPa 0,0 l/m 4,3 km/h (1 Bft) N-NW 341 1 min 0,000 mm 0,0 UV-I 86 W/m 9,1 C 19,2 C 6,4 km/h (2 Bft) 100,00 %
17.04.2018 19:10 19,2 C 11,7 C 52 % 1024,3 hPa 0,0 l/m 3,2 km/h (1 Bft) N-NW 342 1 min 0,000 mm 0,0 UV-I 81 W/m 9,1 C 19,2 C 4,8 km/h (1 Bft) 100,00 %
17.04.2018 19:11 19,2 C 11,7 C 52 % 1024,3 hPa 0,0 l/m 3,0 km/h (1 Bft) N-NW 341 1 min 0,000 mm 0,0 UV-I 81 W/m 9,1 C 19,2 C 4,8 km/h (1 Bft) 95,65 %
17.04.2018 19:12 19,1 C 11,7 C 52 % 1024,4 hPa 0,0 l/m 2,6 km/h (1 Bft) N-NW 341 1 min 0,000 mm 0,0 UV-I 81 W/m 9,0 C 19,1 C 3,2 km/h (1 Bft) 100,00 %
17.04.2018 19:13 19,2 C 11,7 C 52 % 1024,3 hPa 0,0 l/m 3,6 km/h (1 Bft) N-NW 346 1 min 0,000 mm 0,0 UV-I 77 W/m 9,1 C 19,2 C 6,4 km/h (2 Bft) 100,00 %
17.04.2018 19:14 19,2 C 11,7 C 52 % 1024,3 hPa 0,0 l/m 2,3 km/h (1 Bft) N-NW 346 1 min 0,000 mm 0,0 UV-I 73 W/m 9,1 C 19,2 C 3,2 km/h (1 Bft) 100,00 %
17.04.2018 19:15 19,1 C 11,7 C 53 % 1024,3 hPa 0,0 l/m 0,3 km/h (0 Bft) N-NW 346 1 min 0,000 mm 0,0 UV-I 65 W/m 9,3 C 19,1 C 1,6 km/h (1 Bft) 100,00 %
17.04.2018 19:16 19,1 C 11,7 C 54 % 1024,4 hPa 0,0 l/m 0,9 km/h (0 Bft) N-NW 346 1 min 0,000 mm 0,0 UV-I 65 W/m 9,6 C 19,1 C 1,6 km/h (1 Bft) 100,00 %
17.04.2018 19:17 19,1 C 11,7 C 54 % 1024,4 hPa 0,0 l/m 2,5 km/h (1 Bft) N 349 1 min 0,000 mm 0,0 UV-I 67 W/m 9,6 C 19,1 C 4,8 km/h (1 Bft) 91,30 %
17.04.2018 19:18 19,1 C 11,7 C 54 % 1024,4 hPa 0,0 l/m 2,6 km/h (1 Bft) N 350 1 min 0,000 mm 0,0 UV-I 64 W/m 9,6 C 19,1 C 3,2 km/h (1 Bft) 100,00 %
17.04.2018 19:19 19,0 C 11,7 C 55 % 1024,4 hPa 0,0 l/m 1,6 km/h (1 Bft) N 350 1 min 0,000 mm 0,0 UV-I 61 W/m 9,8 C 19,0 C 3,2 km/h (1 Bft) 86,96 %
17.04.2018 19:20 18,9 C 11,7 C 56 % 1024,4 hPa 0,0 l/m 3,0 km/h (1 Bft) N 355 1 min 0,000 mm 0,0 UV-I 53 W/m 9,9 C 18,9 C 4,8 km/h (1 Bft) 100,00 %
17.04.2018 19:21 18,8 C 11,7 C 55 % 1024,5 hPa 0,0 l/m 0,8 km/h (0 Bft) N 355 1 min 0,000 mm 0,0 UV-I 48 W/m 9,6 C 18,8 C 1,6 km/h (1 Bft) 95,83 %
17.04.2018 19:22 18,8 C 11,7 C 56 % 1024,4 hPa 0,0 l/m 2,5 km/h (1 Bft) NW 317 0 min 0,000 mm 0,0 UV-I 44 W/m 9,8 C 18,8 C 3,2 km/h (1 Bft) 100,00 %
17.04.2018 19:23 18,7 C 11,7 C 55 % 1024,5 hPa 0,0 l/m 1,4 km/h (1 Bft) NW 317 0 min 0,000 mm 0,0 UV-I 40 W/m 9,5 C 18,7 C 4,8 km/h (1 Bft) 95,83 %
17.04.2018 19:24 18,7 C 11,7 C 55 % 1024,5 hPa 0,0 l/m 0,3 km/h (0 Bft) NW 317 0 min 0,000 mm 0,0 UV-I 40 W/m 9,5 C 18,7 C 1,6 km/h (1 Bft) 95,65 %
17.04.2018 19:25 18,6 C 11,7 C 55 % 1024,5 hPa 0,0 l/m 1,1 km/h (1 Bft) NW 317 0 min 0,000 mm 0,0 UV-I 40 W/m 9,4 C 18,6 C 3,2 km/h (1 Bft) 100,00 %
17.04.2018 19:26 18,6 C 11,7 C 57 % 1024,5 hPa 0,0 l/m 0,0 km/h (0 Bft) NW 317 1 min 0,000 mm 0,0 UV-I 40 W/m 9,9 C 18,6 C 0,0 km/h (0 Bft) 91,30 %
17.04.2018 19:27 18,6 C 11,7 C 56 % 1024,5 hPa 0,0 l/m 1,3 km/h (1 Bft) NW 317 1 min 0,000 mm 0,0 UV-I 39 W/m 9,6 C 18,6 C 3,2 km/h (1 Bft) 100,00 %
17.04.2018 19:28 18,6 C 11,7 C 56 % 1024,6 hPa 0,0 l/m 0,3 km/h (0 Bft) NW 317 1 min 0,000 mm 0,0 UV-I 39 W/m 9,6 C 18,6 C 1,6 km/h (1 Bft) 91,30 %
17.04.2018 19:29 18,5 C 11,7 C 56 % 1024,6 hPa 0,0 l/m 0,9 km/h (0 Bft) NW 317 0 min 0,000 mm 0,0 UV-I 33 W/m 9,6 C 18,5 C 3,2 km/h (1 Bft) 100,00 %
17.04.2018 19:30 18,5 C 11,7 C 57 % 1024,5 hPa 0,0 l/m 3,0 km/h (1 Bft) NW 317 0 min 0,000 mm 0,0 UV-I 33 W/m 9,8 C 18,5 C 3,2 km/h (1 Bft) 95,65 %
17.04.2018 19:31 18,4 C 11,7 C 57 % 1024,6 hPa 0,0 l/m 1,8 km/h (1 Bft) NW 317 0 min 0,000 mm 0,0 UV-I 31 W/m 9,7 C 18,4 C 3,2 km/h (1 Bft) 95,83 %
17.04.2018 19:32 18,4 C 11,7 C 56 % 1024,6 hPa 0,0 l/m 0,0 km/h (0 Bft) NW 317 0 min 0,000 mm 0,0 UV-I 27 W/m 9,5 C 18,4 C 0,0 km/h (0 Bft) 100,00 %
17.04.2018 19:33 18,4 C 11,7 C 57 % 1024,6 hPa 0,0 l/m 0,7 km/h (0 Bft) NW 317 0 min 0,000 mm 0,0 UV-I 26 W/m 9,7 C 18,4 C 1,6 km/h (1 Bft) 95,83 %
17.04.2018 19:34 18,3 C 11,7 C 57 % 1024,7 hPa 0,0 l/m 0,4 km/h (0 Bft) NW 317 1 min 0,000 mm 0,0 UV-I 28 W/m 9,6 C 18,3 C 1,6 km/h (1 Bft) 100,00 %
17.04.2018 19:35 18,3 C 11,7 C 56 % 1024,6 hPa 0,0 l/m 0,1 km/h (0 Bft) NW 317 1 min 0,000 mm 0,0 UV-I 28 W/m 9,4 C 18,3 C 1,6 km/h (1 Bft) 91,67 %
17.04.2018 19:36 18,3 C 11,7 C 56 % 1024,7 hPa 0,0 l/m 0,8 km/h (0 Bft) NW 317 1 min 0,000 mm 0,0 UV-I 27 W/m 9,4 C 18,3 C 1,6 km/h (1 Bft) 96,30 %
17.04.2018 19:37 18,3 C 11,7 C 57 % 1024,7 hPa 0,0 l/m 0,1 km/h (0 Bft) NW 317 1 min 0,000 mm 0,0 UV-I 25 W/m 9,6 C 18,3 C 1,6 km/h (1 Bft) 96,15 %
17.04.2018 19:38 18,3 C 11,7 C 57 % 1024,7 hPa 0,0 l/m 0,1 km/h (0 Bft) NW 317 1 min 0,000 mm 0,0 UV-I 24 W/m 9,6 C 18,3 C 1,6 km/h (1 Bft) 95,83 %
17.04.2018 19:39 18,2 C 11,7 C 58 % 1024,7 hPa 0,0 l/m 0,7 km/h (0 Bft) NW 317 1 min 0,000 mm 0,0 UV-I 22 W/m 9,8 C 18,2 C 3,2 km/h (1 Bft) 95,65 %
17.04.2018 19:40 18,1 C 11,7 C 58 % 1024,8 hPa 0,0 l/m 0,8 km/h (0 Bft) NW 317 1 min 0,000 mm 0,0 UV-I 19 W/m 9,7 C 18,1 C 1,6 km/h (1 Bft) 95,83 %
17.04.2018 19:41 18,1 C 11,7 C 59 % 1024,8 hPa 0,0 l/m 0,2 km/h (0 Bft) NW 317 1 min 0,000 mm 0,0 UV-I 18 W/m 10,0 C 18,1 C 1,6 km/h (1 Bft) 100,00 %
17.04.2018 19:42 18,1 C 11,7 C 58 % 1024,8 hPa 0,0 l/m 0,0 km/h (0 Bft) NW 317 1 min 0,000 mm 0,0 UV-I 15 W/m 9,7 C 18,1 C 0,0 km/h (0 Bft) 91,67 %
17.04.2018 19:43 18,1 C 11,7 C 58 % 1024,8 hPa 0,0 l/m 0,0 km/h (0 Bft) NW 317 0 min 0,000 mm 0,0 UV-I 13 W/m 9,7 C 18,1 C 0,0 km/h (0 Bft) 100,00 %
17.04.2018 19:44 18,1 C 11,7 C 58 % 1024,8 hPa 0,0 l/m 0,0 km/h (0 Bft) NW 317 1 min 0,000 mm 0,0 UV-I 12 W/m 9,7 C 18,1 C 0,0 km/h (0 Bft) 95,83 %
17.04.2018 19:45 18,1 C 11,7 C 58 % 1024,8 hPa 0,0 l/m 0,9 km/h (0 Bft) NW 317 1 min 0,000 mm 0,0 UV-I 11 W/m 9,7 C 18,1 C 3,2 km/h (1 Bft) 100,00 %
17.04.2018 19:46 18,0 C 11,7 C 58 % 1024,8 hPa 0,0 l/m 0,3 km/h (0 Bft) NW 317 1 min 0,000 mm 0,0 UV-I 11 W/m 9,6 C 18,0 C 1,6 km/h (1 Bft) 95,83 %
17.04.2018 19:47 18,0 C 11,7 C 59 % 1024,9 hPa 0,0 l/m 0,0 km/h (0 Bft) NW 317 0 min 0,000 mm 0,0 UV-I 11 W/m 9,9 C 18,0 C 0,0 km/h (0 Bft) 95,65 %
17.04.2018 19:48 17,9 C 11,7 C 59 % 1024,9 hPa 0,0 l/m 0,0 km/h (0 Bft) NW 317 0 min 0,000 mm 0,0 UV-I 9 W/m 9,8 C 17,9 C 0,0 km/h (0 Bft) 100,00 %
17.04.2018 19:49 17,9 C 11,7 C 59 % 1024,9 hPa 0,0 l/m 0,0 km/h (0 Bft) NW 317 0 min 0,000 mm 0,0 UV-I 9 W/m 9,8 C 17,9 C 0,0 km/h (0 Bft) 100,00 %
17.04.2018 19:50 17,9 C 11,7 C 59 % 1024,9 hPa 0,0 l/m 0,0 km/h (0 Bft) NW 317 0 min 0,000 mm 0,0 UV-I 9 W/m 9,8 C 17,9 C 0,0 km/h (0 Bft) 100,00 %
17.04.2018 19:51 17,9 C 11,7 C 60 % 1024,9 hPa 0,0 l/m 0,0 km/h (0 Bft) NW 317 0 min 0,000 mm 0,0 UV-I 7 W/m 10,0 C 17,9 C 0,0 km/h (0 Bft) 100,00 %
17.04.2018 19:52 17,8 C 11,7 C 59 % 1024,9 hPa 0,0 l/m 0,0 km/h (0 Bft) NW 317 0 min 0,000 mm 0,0 UV-I 7 W/m 9,7 C 17,8 C 0,0 km/h (0 Bft) 95,65 %
17.04.2018 19:53 17,9 C 11,7 C 59 % 1025,0 hPa 0,0 l/m 0,0 km/h (0 Bft) NW 317 0 min 0,000 mm 0,0 UV-I 6 W/m 9,8 C 17,9 C 0,0 km/h (0 Bft) 100,00 %
17.04.2018 19:54 17,9 C 11,7 C 59 % 1025,0 hPa 0,0 l/m 0,0 km/h (0 Bft) NW 317 0 min 0,000 mm 0,0 UV-I 5 W/m 9,8 C 17,9 C 0,0 km/h (0 Bft) 100,00 %
17.04.2018 19:55 17,9 C 11,7 C 59 % 1025,0 hPa 0,0 l/m 0,0 km/h (0 Bft) NW 317 0 min 0,000 mm 0,0 UV-I 5 W/m 9,8 C 17,9 C 0,0 km/h (0 Bft) 100,00 %
17.04.2018 19:56 17,8 C 11,7 C 59 % 1025,0 hPa 0,0 l/m 0,0 km/h (0 Bft) NW 317 0 min 0,000 mm 0,0 UV-I 5 W/m 9,7 C 17,8 C 0,0 km/h (0 Bft) 100,00 %
17.04.2018 19:57 17,8 C 11,7 C 59 % 1025,0 hPa 0,0 l/m 0,4 km/h (0 Bft) NW 317 0 min 0,000 mm 0,0 UV-I 5 W/m 9,7 C 17,8 C 1,6 km/h (1 Bft) 95,83 %
17.04.2018 19:58 17,8 C 11,7 C 59 % 1025,1 hPa 0,0 l/m 0,0 km/h (0 Bft) NW 317 0 min 0,000 mm 0,0 UV-I 5 W/m 9,7 C 17,8 C 0,0 km/h (0 Bft) 100,00 %
17.04.2018 19:59 17,8 C 11,7 C 59 % 1025,1 hPa 0,0 l/m 1,3 km/h (1 Bft) NW 317 0 min 0,000 mm 0,0 UV-I 4 W/m 9,7 C 17,8 C 3,2 km/h (1 Bft) 100,00 %
17.04.2018 20:00 17,8 C 11,7 C 59 % 1025,1 hPa 0,0 l/m 4,4 km/h (1 Bft) N 355 0 min 0,000 mm 0,0 UV-I 0 W/m 9,7 C 17,8 C 6,4 km/h (2 Bft) 95,65 %
17.04.2018 20:02 17,6 C 11,7 C 61 % 1025,2 hPa 0,0 l/m 10,3 km/h (2 Bft) N-NW 345 0 min 0,051 mm 0,0 UV-I 0 W/m 10,0 C 15,9 C 16,1 km/h (3 Bft) 100,00 %
17.04.2018 20:03 17,5 C 11,7 C 61 % 1025,2 hPa 0,0 l/m 9,3 km/h (2 Bft) N 351 0 min 0,000 mm 0,0 UV-I 0 W/m 9,9 C 16,2 C 16,1 km/h (3 Bft) 100,00 %
17.04.2018 20:04 17,4 C 11,7 C 61 % 1025,2 hPa 0,0 l/m 9,3 km/h (2 Bft) N-NO 22 0 min 0,000 mm 0,0 UV-I 0 W/m 9,8 C 16,1 C 16,1 km/h (3 Bft) 100,00 %
17.04.2018 20:05 17,4 C 11,7 C 61 % 1025,3 hPa 0,0 l/m 9,8 km/h (2 Bft) NW 315 0 min 0,000 mm 0,0 UV-I 0 W/m 9,8 C 15,8 C 14,5 km/h (3 Bft) 96,15 %
17.04.2018 20:06 17,4 C 11,7 C 62 % 1025,3 hPa 0,0 l/m 6,2 km/h (2 Bft) N-NO 22 0 min 0,000 mm 0,0 UV-I 0 W/m 10,0 C 17,4 C 12,9 km/h (3 Bft) 100,00 %
17.04.2018 20:07 17,4 C 11,7 C 62 % 1025,3 hPa 0,0 l/m 7,8 km/h (2 Bft) N-NW 333 0 min 0,000 mm 0,0 UV-I 0 W/m 10,0 C 16,7 C 12,9 km/h (3 Bft) 100,00 %
17.04.2018 20:08 17,3 C 11,7 C 62 % 1025,3 hPa 0,0 l/m 8,6 km/h (2 Bft) N-NW 327 0 min 0,000 mm 0,0 UV-I 0 W/m 9,9 C 16,2 C 14,5 km/h (3 Bft) 95,83 %
17.04.2018 20:09 17,2 C 11,7 C 61 % 1025,3 hPa 0,0 l/m 6,1 km/h (2 Bft) NW 313 0 min 0,000 mm 0,0 UV-I 0 W/m 9,6 C 17,2 C 9,7 km/h (2 Bft) 100,00 %
17.04.2018 20:10 17,2 C 11,7 C 62 % 1025,3 hPa 0,0 l/m 3,8 km/h (1 Bft) SW 220 0 min 0,000 mm 0,0 UV-I 0 W/m 9,9 C 17,2 C 6,4 km/h (2 Bft) 100,00 %
17.04.2018 20:11 17,1 C 11,7 C 63 % 1025,3 hPa 0,0 l/m 2,5 km/h (1 Bft) SW 228 0 min 0,000 mm 0,0 UV-I 0 W/m 10,0 C 17,1 C 3,2 km/h (1 Bft) 100,00 %
17.04.2018 20:12 17,1 C 11,7 C 64 % 1025,4 hPa 0,0 l/m 2,9 km/h (1 Bft) SW 229 0 min 0,000 mm 0,0 UV-I 0 W/m 10,2 C 17,1 C 3,2 km/h (1 Bft) 100,00 %
17.04.2018 20:13 17,0 C 11,7 C 64 % 1025,4 hPa 0,0 l/m 2,2 km/h (1 Bft) SW 229 0 min 0,000 mm 0,0 UV-I 0 W/m 10,1 C 17,0 C 3,2 km/h (1 Bft) 91,30 %
17.04.2018 20:14 16,9 C 11,7 C 64 % 1025,4 hPa 0,0 l/m 2,4 km/h (1 Bft) SW 229 0 min 0,000 mm 0,0 UV-I 0 W/m 10,0 C 16,9 C 3,2 km/h (1 Bft) 100,00 %
17.04.2018 20:15 16,8 C 11,7 C 65 % 1025,4 hPa 0,0 l/m 0,8 km/h (0 Bft) SW 229 0 min 0,000 mm 0,0 UV-I 0 W/m 10,2 C 16,8 C 3,2 km/h (1 Bft) 100,00 %
17.04.2018 20:16 16,7 C 11,7 C 65 % 1025,4 hPa 0,0 l/m 0,4 km/h (0 Bft) SW 229 0 min 0,000 mm 0,0 UV-I 0 W/m 10,1 C 16,7 C 1,6 km/h (1 Bft) 100,00 %
17.04.2018 20:17 16,7 C 11,7 C 65 % 1025,4 hPa 0,0 l/m 0,0 km/h (0 Bft) SW 229 0 min 0,000 mm 0,0 UV-I 0 W/m 10,1 C 16,7 C 0,0 km/h (0 Bft) 100,00 %
17.04.2018 20:18 16,7 C 11,7 C 65 % 1025,5 hPa 0,0 l/m 0,3 km/h (0 Bft) SW 229 0 min 0,000 mm 0,0 UV-I 0 W/m 10,1 C 16,7 C 3,2 km/h (1 Bft) 100,00 %
17.04.2018 20:19 16,6 C 11,7 C 66 % 1025,4 hPa 0,0 l/m 1,2 km/h (1 Bft) SW 229 0 min 0,000 mm 0,0 UV-I 0 W/m 10,2 C 16,6 C 3,2 km/h (1 Bft) 100,00 %
17.04.2018 20:20 16,6 C 11,7 C 66 % 1025,5 hPa 0,0 l/m 0,2 km/h (0 Bft) SW 229 0 min 0,000 mm 0,0 UV-I 0 W/m 10,2 C 16,6 C 1,6 km/h (1 Bft) 96,15 %
17.04.2018 20:21 16,6 C 11,7 C 66 % 1025,5 hPa 0,0 l/m 0,0 km/h (0 Bft) SW 229 0 min 0,000 mm 0,0 UV-I 0 W/m 10,2 C 16,6 C 0,0 km/h (0 Bft) 100,00 %
17.04.2018 20:22 16,7 C 11,7 C 65 % 1025,4 hPa 0,0 l/m 0,9 km/h (0 Bft) SW 229 0 min 0,000 mm 0,0 UV-I 0 W/m 10,1 C 16,7 C 3,2 km/h (1 Bft) 100,00 %
17.04.2018 20:23 16,7 C 11,7 C 65 % 1025,5 hPa 0,0 l/m 1,7 km/h (1 Bft) SW 229 0 min 0,000 mm 0,0 UV-I 0 W/m 10,1 C 16,7 C 3,2 km/h (1 Bft) 100,00 %
17.04.2018 20:24 16,7 C 11,7 C 65 % 1025,5 hPa 0,0 l/m 1,9 km/h (1 Bft) SW 229 0 min 0,000 mm 0,0 UV-I 0 W/m 10,1 C 16,7 C 3,2 km/h (1 Bft) 100,00 %
17.04.2018 20:25 16,8 C 11,7 C 64 % 1025,5 hPa 0,0 l/m 1,2 km/h (1 Bft) SW 229 0 min 0,000 mm 0,0 UV-I 0 W/m 10,0 C 16,8 C 3,2 km/h (1 Bft) 95,65 %
17.04.2018 20:26 16,8 C 11,7 C 64 % 1025,5 hPa 0,0 l/m 0,4 km/h (0 Bft) SW 229 0 min 0,000 mm 0,0 UV-I 0 W/m 10,0 C 16,8 C 1,6 km/h (1 Bft) 91,67 %
17.04.2018 20:27 16,8 C 11,7 C 64 % 1025,6 hPa 0,0 l/m 0,9 km/h (0 Bft) SW 229 0 min 0,000 mm 0,0 UV-I 0 W/m 10,0 C 16,8 C 1,6 km/h (1 Bft) 100,00 %
17.04.2018 20:28 16,8 C 11,7 C 64 % 1025,6 hPa 0,0 l/m 0,5 km/h (0 Bft) SW 229 0 min 0,000 mm 0,0 UV-I 0 W/m 10,0 C 16,8 C 1,6 km/h (1 Bft) 100,00 %
17.04.2018 20:29 16,8 C 11,7 C 64 % 1025,6 hPa 0,0 l/m 0,0 km/h (0 Bft) SW 229 0 min 0,000 mm 0,0 UV-I 0 W/m 10,0 C 16,8 C 0,0 km/h (0 Bft) 95,65 %
17.04.2018 20:30 16,8 C 11,7 C 64 % 1025,6 hPa 0,0 l/m 0,0 km/h (0 Bft) SW 229 0 min 0,000 mm 0,0 UV-I 0 W/m 10,0 C 16,8 C 0,0 km/h (0 Bft) 100,00 %
17.04.2018 20:31 16,8 C 11,7 C 65 % 1025,6 hPa 0,0 l/m 0,0 km/h (0 Bft) SW 229 0 min 0,000 mm 0,0 UV-I 0 W/m 10,2 C 16,8 C 0,0 km/h (0 Bft) 100,00 %
17.04.2018 20:32 16,8 C 11,7 C 65 % 1025,6 hPa 0,0 l/m 0,3 km/h (0 Bft) SW 229 0 min 0,000 mm 0,0 UV-I 0 W/m 10,2 C 16,8 C 1,6 km/h (1 Bft) 100,00 %
17.04.2018 20:33 16,8 C 11,7 C 64 % 1025,6 hPa 0,0 l/m 1,0 km/h (0 Bft) SW 229 0 min 0,000 mm 0,0 UV-I 0 W/m 10,0 C 16,8 C 1,6 km/h (1 Bft) 100,00 %
17.04.2018 20:34 16,7 C 11,7 C 65 % 1025,7 hPa 0,0 l/m 1,3 km/h (1 Bft) SW 229 0 min 0,000 mm 0,0 UV-I 0 W/m 10,1 C 16,7 C 3,2 km/h (1 Bft) 100,00 %
17.04.2018 20:35 16,6 C 11,7 C 66 % 1025,7 hPa 0,0 l/m 2,1 km/h (1 Bft) SW 229 0 min 0,000 mm 0,0 UV-I 0 W/m 10,2 C 16,6 C 3,2 km/h (1 Bft) 100,00 %
17.04.2018 20:36 16,4 C 11,7 C 68 % 1025,7 hPa 0,0 l/m 2,4 km/h (1 Bft) SW 229 0 min 0,000 mm 0,0 UV-I 0 W/m 10,5 C 16,4 C 3,2 km/h (1 Bft) 100,00 %
17.04.2018 20:37 16,3 C 11,7 C 69 % 1025,7 hPa 0,0 l/m 2,1 km/h (1 Bft) SW 229 0 min 0,000 mm 0,0 UV-I 0 W/m 10,6 C 16,3 C 3,2 km/h (1 Bft) 100,00 %
17.04.2018 20:38 16,2 C 11,7 C 69 % 1025,7 hPa 0,0 l/m 2,0 km/h (1 Bft) SW 229 0 min 0,000 mm 0,0 UV-I 0 W/m 10,5 C 16,2 C 3,2 km/h (1 Bft) 100,00 %
17.04.2018 20:39 16,1 C 11,7 C 69 % 1025,7 hPa 0,0 l/m 3,3 km/h (1 Bft) SW 229 0 min 0,000 mm 0,0 UV-I 0 W/m 10,4 C 16,1 C 4,8 km/h (1 Bft) 100,00 %
17.04.2018 20:40 16,1 C 11,7 C 69 % 1025,7 hPa 0,0 l/m 3,6 km/h (1 Bft) SW 229 0 min 0,000 mm 0,0 UV-I 0 W/m 10,4 C 16,1 C 4,8 km/h (1 Bft) 95,65 %
17.04.2018 20:41 16,1 C 11,7 C 69 % 1025,8 hPa 0,0 l/m 3,5 km/h (1 Bft) SW 229 0 min 0,000 mm 0,0 UV-I 0 W/m 10,4 C 16,1 C 4,8 km/h (1 Bft) 100,00 %
17.04.2018 20:42 16,1 C 11,7 C 70 % 1025,8 hPa 0,0 l/m 3,3 km/h (1 Bft) SW 229 0 min 0,000 mm 0,0 UV-I 0 W/m 10,6 C 16,1 C 4,8 km/h (1 Bft) 100,00 %
17.04.2018 20:43 16,1 C 11,7 C 70 % 1025,8 hPa 0,0 l/m 3,4 km/h (1 Bft) SW 229 0 min 0,000 mm 0,0 UV-I 0 W/m 10,6 C 16,1 C 4,8 km/h (1 Bft) 100,00 %
17.04.2018 20:44 16,1 C 11,7 C 70 % 1025,8 hPa 0,0 l/m 3,5 km/h (1 Bft) SW 229 0 min 0,000 mm 0,0 UV-I 0 W/m 10,6 C 16,1 C 4,8 km/h (1 Bft) 100,00 %
17.04.2018 20:45 16,1 C 11,7 C 70 % 1025,8 hPa 0,0 l/m 3,3 km/h (1 Bft) SW 229 0 min 0,000 mm 0,0 UV-I 0 W/m 10,6 C 16,1 C 4,8 km/h (1 Bft) 95,83 %
17.04.2018 20:46 16,0 C 11,7 C 71 % 1025,8 hPa 0,0 l/m 3,4 km/h (1 Bft) SW 229 0 min 0,000 mm 0,0 UV-I 0 W/m 10,7 C 16,0 C 4,8 km/h (1 Bft) 100,00 %
17.04.2018 20:47 16,0 C 11,7 C 70 % 1025,8 hPa 0,0 l/m 3,2 km/h (1 Bft) SW 229 0 min 0,000 mm 0,0 UV-I 0 W/m 10,5 C 16,0 C 4,8 km/h (1 Bft) 100,00 %
17.04.2018 20:48 15,9 C 11,7 C 72 % 1025,9 hPa 0,0 l/m 2,4 km/h (1 Bft) SW 229 0 min 0,000 mm 0,0 UV-I 0 W/m 10,9 C 15,9 C 3,2 km/h (1 Bft) 100,00 %
17.04.2018 20:49 15,8 C 11,7 C 72 % 1025,9 hPa 0,0 l/m 2,8 km/h (1 Bft) SW 229 0 min 0,000 mm 0,0 UV-I 0 W/m 10,8 C 15,8 C 3,2 km/h (1 Bft) 100,00 %
17.04.2018 20:50 15,7 C 11,7 C 73 % 1025,9 hPa 0,0 l/m 3,2 km/h (1 Bft) SW 229 0 min 0,000 mm 0,0 UV-I 0 W/m 10,9 C 15,7 C 4,8 km/h (1 Bft) 100,00 %
17.04.2018 20:51 15,4 C 11,7 C 74 % 1025,9 hPa 0,0 l/m 1,9 km/h (1 Bft) SW 229 0 min 0,000 mm 0,0 UV-I 0 W/m 10,8 C 15,4 C 3,2 km/h (1 Bft) 95,83 %
17.04.2018 20:52 15,2 C 11,7 C 75 % 1026,0 hPa 0,0 l/m 0,7 km/h (0 Bft) SW 229 0 min 0,000 mm 0,0 UV-I 0 W/m 10,8 C 15,2 C 1,6 km/h (1 Bft) 100,00 %
17.04.2018 20:53 15,1 C 11,7 C 75 % 1026,0 hPa 0,0 l/m 0,9 km/h (0 Bft) SW 229 0 min 0,000 mm 0,0 UV-I 0 W/m 10,7 C 15,1 C 1,6 km/h (1 Bft) 100,00 %
17.04.2018 20:54 14,9 C 11,7 C 76 % 1026,0 hPa 0,0 l/m 1,4 km/h (1 Bft) SW 229 0 min 0,000 mm 0,0 UV-I 0 W/m 10,7 C 14,9 C 3,2 km/h (1 Bft) 100,00 %
17.04.2018 20:55 14,8 C 11,7 C 77 % 1026,0 hPa 0,0 l/m 2,5 km/h (1 Bft) SW 229 0 min 0,000 mm 0,0 UV-I 0 W/m 10,8 C 14,8 C 4,8 km/h (1 Bft) 100,00 %
17.04.2018 20:56 14,8 C 11,7 C 77 % 1026,1 hPa 0,0 l/m 2,1 km/h (1 Bft) SW 229 0 min 0,000 mm 0,0 UV-I 0 W/m 10,8 C 14,8 C 3,2 km/h (1 Bft) 100,00 %
17.04.2018 20:57 14,8 C 11,7 C 76 % 1026,1 hPa 0,0 l/m 2,2 km/h (1 Bft) SW 229 0 min 0,000 mm 0,0 UV-I 0 W/m 10,6 C 14,8 C 3,2 km/h (1 Bft) 100,00 %
17.04.2018 20:58 14,9 C 11,7 C 75 % 1026,1 hPa 0,0 l/m 3,0 km/h (1 Bft) SW 229 0 min 0,000 mm 0,0 UV-I 0 W/m 10,5 C 14,9 C 3,2 km/h (1 Bft) 100,00 %
17.04.2018 20:59 15,0 C 11,7 C 76 % 1026,1 hPa 0,0 l/m 1,9 km/h (1 Bft) SW 229 0 min 0,000 mm 0,0 UV-I 0 W/m 10,8 C 15,0 C 3,2 km/h (1 Bft) 100,00 %
17.04.2018 21:00 15,1 C 11,7 C 74 % 1026,1 hPa 0,0 l/m 2,1 km/h (1 Bft) SW 229 0 min 0,000 mm 0,0 UV-I 0 W/m 10,5 C 15,1 C 3,2 km/h (1 Bft) 100,00 %
17.04.2018 21:01 15,2 C 11,7 C 73 % 1026,1 hPa 0,0 l/m 1,7 km/h (1 Bft) SW 229 0 min 0,025 mm 0,0 UV-I 0 W/m 10,4 C 15,2 C 3,2 km/h (1 Bft) 100,00 %
17.04.2018 21:02 15,3 C 11,7 C 73 % 1026,2 hPa 0,0 l/m 1,3 km/h (1 Bft) SW 229 0 min 0,000 mm 0,0 UV-I 0 W/m 10,5 C 15,3 C 1,6 km/h (1 Bft) 100,00 %
17.04.2018 21:03 15,4 C 11,7 C 74 % 1026,1 hPa 0,0 l/m 1,9 km/h (1 Bft) SW 229 0 min 0,000 mm 0,0 UV-I 0 W/m 10,8 C 15,4 C 3,2 km/h (1 Bft) 100,00 %
17.04.2018 21:04 15,4 C 11,7 C 73 % 1026,2 hPa 0,0 l/m 2,4 km/h (1 Bft) SW 229 0 min 0,000 mm 0,0 UV-I 0 W/m 10,6 C 15,4 C 3,2 km/h (1 Bft) 95,83 %
17.04.2018 21:05 15,5 C 11,7 C 73 % 1026,2 hPa 0,0 l/m 3,2 km/h (1 Bft) SW 229 0 min 0,000 mm 0,0 UV-I 0 W/m 10,7 C 15,5 C 4,8 km/h (1 Bft) 100,00 %
17.04.2018 21:06 15,5 C 11,7 C 72 % 1026,2 hPa 0,0 l/m 3,4 km/h (1 Bft) SW 229 0 min 0,000 mm 0,0 UV-I 0 W/m 10,5 C 15,5 C 4,8 km/h (1 Bft) 95,83 %
17.04.2018 21:07 15,5 C 11,7 C 72 % 1026,2 hPa 0,0 l/m 3,3 km/h (1 Bft) SW 229 0 min 0,000 mm 0,0 UV-I 0 W/m 10,5 C 15,5 C 4,8 km/h (1 Bft) 100,00 %
17.04.2018 21:08 15,5 C 11,7 C 72 % 1026,3 hPa 0,0 l/m 3,0 km/h (1 Bft) SW 229 0 min 0,000 mm 0,0 UV-I 0 W/m 10,5 C 15,5 C 3,2 km/h (1 Bft) 95,83 %
17.04.2018 21:09 15,6 C 11,7 C 72 % 1026,3 hPa 0,0 l/m 2,8 km/h (1 Bft) SW 229 0 min 0,000 mm 0,0 UV-I 0 W/m 10,6 C 15,6 C 3,2 km/h (1 Bft) 91,67 %
17.04.2018 21:10 15,6 C 11,7 C 72 % 1026,3 hPa 0,0 l/m 3,2 km/h (1 Bft) SW 229 0 min 0,000 mm 0,0 UV-I 0 W/m 10,6 C 15,6 C 4,8 km/h (1 Bft) 100,00 %
17.04.2018 21:11 15,5 C 11,7 C 72 % 1026,3 hPa 0,0 l/m 2,1 km/h (1 Bft) SW 229 0 min 0,000 mm 0,0 UV-I 0 W/m 10,5 C 15,5 C 3,2 km/h (1 Bft) 95,83 %
17.04.2018 21:12 15,5 C 11,7 C 72 % 1026,3 hPa 0,0 l/m 2,0 km/h (1 Bft) SW 229 0 min 0,000 mm 0,0 UV-I 0 W/m 10,5 C 15,5 C 3,2 km/h (1 Bft) 91,30 %
17.04.2018 21:13 15,5 C 11,7 C 73 % 1026,3 hPa 0,0 l/m 3,0 km/h (1 Bft) SW 229 0 min 0,000 mm 0,0 UV-I 0 W/m 10,7 C 15,5 C 3,2 km/h (1 Bft) 95,83 %
17.04.2018 21:14 15,4 C 11,7 C 73 % 1026,3 hPa 0,0 l/m 3,0 km/h (1 Bft) SW 229 0 min 0,000 mm 0,0 UV-I 0 W/m 10,6 C 15,4 C 3,2 km/h (1 Bft) 92,86 %
17.04.2018 21:15 15,4 C 11,7 C 74 % 1026,4 hPa 0,0 l/m 2,9 km/h (1 Bft) SW 229 0 min 0,000 mm 0,0 UV-I 0 W/m 10,8 C 15,4 C 3,2 km/h (1 Bft) 91,67 %
17.04.2018 21:16 15,3 C 11,7 C 74 % 1026,4 hPa 0,0 l/m 3,0 km/h (1 Bft) SW 229 0 min 0,000 mm 0,0 UV-I 0 W/m 10,7 C 15,3 C 3,2 km/h (1 Bft) 100,00 %
17.04.2018 21:17 15,3 C 11,7 C 74 % 1026,4 hPa 0,0 l/m 3,2 km/h (1 Bft) SW 229 0 min 0,000 mm 0,0 UV-I 0 W/m 10,7 C 15,3 C 3,2 km/h (1 Bft) 91,30 %
17.04.2018 21:18 15,3 C 11,7 C 75 % 1026,4 hPa 0,0 l/m 3,2 km/h (1 Bft) SW 229 0 min 0,000 mm 0,0 UV-I 0 W/m 10,9 C 15,3 C 4,8 km/h (1 Bft) 100,00 %
17.04.2018 21:19 15,2 C 11,7 C 76 % 1026,4 hPa 0,0 l/m 2,5 km/h (1 Bft) SW 229 0 min 0,000 mm 0,0 UV-I 0 W/m 11,0 C 15,2 C 3,2 km/h (1 Bft) 95,65 %
17.04.2018 21:20 15,2 C 11,7 C 76 % 1026,4 hPa 0,0 l/m 2,8 km/h (1 Bft) SW 229 0 min 0,000 mm 0,0 UV-I 0 W/m 11,0 C 15,2 C 3,2 km/h (1 Bft) 100,00 %
17.04.2018 21:21 15,1 C 11,7 C 76 % 1026,4 hPa 0,0 l/m 3,1 km/h (1 Bft) SW 229 0 min 0,000 mm 0,0 UV-I 0 W/m 10,9 C 15,1 C 3,2 km/h (1 Bft) 91,30 %
17.04.2018 21:22 15,0 C 11,7 C 76 % 1026,4 hPa 0,0 l/m 3,4 km/h (1 Bft) SW 229 0 min 0,000 mm 0,0 UV-I 0 W/m 10,8 C 15,0 C 4,8 km/h (1 Bft) 91,67 %
17.04.2018 21:23 14,9 C 11,7 C 76 % 1026,4 hPa 0,0 l/m 3,2 km/h (1 Bft) SW 229 0 min 0,000 mm 0,0 UV-I 0 W/m 10,7 C 14,9 C 3,2 km/h (1 Bft) 95,65 %
17.04.2018 21:24 14,9 C 11,7 C 76 % 1026,5 hPa 0,0 l/m 3,2 km/h (1 Bft) SW 229 0 min 0,000 mm 0,0 UV-I 0 W/m 10,7 C 14,9 C 3,2 km/h (1 Bft) 91,67 %
17.04.2018 21:25 15,0 C 11,7 C 76 % 1026,4 hPa 0,0 l/m 2,9 km/h (1 Bft) SW 229 0 min 0,000 mm 0,0 UV-I 0 W/m 10,8 C 15,0 C 3,2 km/h (1 Bft) 95,65 %
17.04.2018 21:26 15,0 C 11,7 C 76 % 1026,4 hPa 0,0 l/m 3,4 km/h (1 Bft) SW 229 0 min 0,000 mm 0,0 UV-I 0 W/m 10,8 C 15,0 C 4,8 km/h (1 Bft) 92,59 %
17.04.2018 21:27 15,0 C 11,7 C 75 % 1026,5 hPa 0,0 l/m 3,4 km/h (1 Bft) SW 229 0 min 0,000 mm 0,0 UV-I 0 W/m 10,6 C 15,0 C 4,8 km/h (1 Bft) 100,00 %
17.04.2018 21:28 14,9 C 11,7 C 75 % 1026,5 hPa 0,0 l/m 3,3 km/h (1 Bft) SW 229 0 min 0,000 mm 0,0 UV-I 0 W/m 10,5 C 14,9 C 4,8 km/h (1 Bft) 95,83 %
17.04.2018 21:29 14,8 C 11,7 C 75 % 1026,5 hPa 0,0 l/m 3,0 km/h (1 Bft) SW 229 0 min 0,000 mm 0,0 UV-I 0 W/m 10,4 C 14,8 C 3,2 km/h (1 Bft) 95,83 %
17.04.2018 21:30 14,7 C 11,7 C 76 % 1026,5 hPa 0,0 l/m 3,2 km/h (1 Bft) SW 229 0 min 0,000 mm 0,0 UV-I 0 W/m 10,5 C 14,7 C 3,2 km/h (1 Bft) 95,65 %
17.04.2018 21:31 14,6 C 11,7 C 76 % 1026,5 hPa 0,0 l/m 2,8 km/h (1 Bft) SW 229 0 min 0,000 mm 0,0 UV-I 0 W/m 10,4 C 14,6 C 3,2 km/h (1 Bft) 91,67 %
17.04.2018 21:32 14,4 C 11,7 C 77 % 1026,5 hPa 0,0 l/m 2,4 km/h (1 Bft) SW 229 0 min 0,000 mm 0,0 UV-I 0 W/m 10,4 C 14,4 C 3,2 km/h (1 Bft) 100,00 %
17.04.2018 21:33 14,3 C 11,7 C 78 % 1026,5 hPa 0,0 l/m 2,3 km/h (1 Bft) SW 229 0 min 0,000 mm 0,0 UV-I 0 W/m 10,5 C 14,3 C 3,2 km/h (1 Bft) 91,67 %
17.04.2018 21:34 14,2 C 11,7 C 79 % 1026,5 hPa 0,0 l/m 1,9 km/h (1 Bft) SW 229 0 min 0,000 mm 0,0 UV-I 0 W/m 10,6 C 14,2 C 3,2 km/h (1 Bft) 100,00 %
17.04.2018 21:35 14,1 C 11,7 C 80 % 1026,5 hPa 0,0 l/m 1,7 km/h (1 Bft) SW 229 0 min 0,000 mm 0,0 UV-I 0 W/m 10,7 C 14,1 C 3,2 km/h (1 Bft) 91,67 %
17.04.2018 21:36 14,1 C 11,7 C 80 % 1026,5 hPa 0,0 l/m 1,8 km/h (1 Bft) SW 229 0 min 0,000 mm 0,0 UV-I 0 W/m 10,7 C 14,1 C 3,2 km/h (1 Bft) 100,00 %
17.04.2018 21:37 14,1 C 11,7 C 80 % 1026,5 hPa 0,0 l/m 2,1 km/h (1 Bft) SW 229 0 min 0,000 mm 0,0 UV-I 0 W/m 10,7 C 14,1 C 3,2 km/h (1 Bft) 91,67 %
17.04.2018 21:38 14,1 C 11,7 C 79 % 1026,5 hPa 0,0 l/m 2,2 km/h (1 Bft) SW 229 0 min 0,000 mm 0,0 UV-I 0 W/m 10,5 C 14,1 C 3,2 km/h (1 Bft) 95,65 %
17.04.2018 21:39 14,1 C 11,7 C 79 % 1026,5 hPa 0,0 l/m 2,1 km/h (1 Bft) SW 229 0 min 0,000 mm 0,0 UV-I 0 W/m 10,5 C 14,1 C 3,2 km/h (1 Bft) 95,83 %
17.04.2018 21:40 14,1 C 11,7 C 78 % 1026,5 hPa 0,0 l/m 2,2 km/h (1 Bft) SW 229 0 min 0,000 mm 0,0 UV-I 0 W/m 10,3 C 14,1 C 3,2 km/h (1 Bft) 95,65 %
17.04.2018 21:41 14,1 C 11,7 C 78 % 1026,5 hPa 0,0 l/m 2,3 km/h (1 Bft) SW 229 0 min 0,000 mm 0,0 UV-I 0 W/m 10,3 C 14,1 C 3,2 km/h (1 Bft) 95,83 %
17.04.2018 21:42 14,0 C 11,7 C 79 % 1026,6 hPa 0,0 l/m 1,7 km/h (1 Bft) SW 229 0 min 0,000 mm 0,0 UV-I 0 W/m 10,4 C 14,0 C 3,2 km/h (1 Bft) 91,67 %
17.04.2018 21:43 14,0 C 11,7 C 78 % 1026,6 hPa 0,0 l/m 1,5 km/h (1 Bft) SW 229 0 min 0,000 mm 0,0 UV-I 0 W/m 10,2 C 14,0 C 3,2 km/h (1 Bft) 100,00 %
17.04.2018 21:44 14,1 C 11,7 C 78 % 1026,5 hPa 0,0 l/m 0,9 km/h (0 Bft) SW 229 0 min 0,000 mm 0,0 UV-I 0 W/m 10,3 C 14,1 C 3,2 km/h (1 Bft) 95,83 %
17.04.2018 21:45 14,0 C 11,7 C 78 % 1026,6 hPa 0,0 l/m 0,0 km/h (0 Bft) SW 229 0 min 0,000 mm 0,0 UV-I 0 W/m 10,2 C 14,0 C 0,0 km/h (0 Bft) 96,15 %
17.04.2018 21:46 13,9 C 11,7 C 79 % 1026,6 hPa 0,0 l/m 0,0 km/h (0 Bft) SW 229 0 min 0,000 mm 0,0 UV-I 0 W/m 10,3 C 13,9 C 0,0 km/h (0 Bft) 91,67 %
17.04.2018 21:47 13,8 C 11,7 C 80 % 1026,6 hPa 0,0 l/m 0,0 km/h (0 Bft) SW 229 0 min 0,000 mm 0,0 UV-I 0 W/m 10,4 C 13,8 C 0,0 km/h (0 Bft) 100,00 %
17.04.2018 21:48 13,7 C 11,7 C 80 % 1026,6 hPa 0,0 l/m 0,9 km/h (0 Bft) SW 229 0 min 0,000 mm 0,0 UV-I 0 W/m 10,3 C 13,7 C 1,6 km/h (1 Bft) 95,83 %
17.04.2018 21:49 13,5 C 11,7 C 80 % 1026,6 hPa 0,0 l/m 2,1 km/h (1 Bft) SW 229 0 min 0,000 mm 0,0 UV-I 0 W/m 10,1 C 13,5 C 3,2 km/h (1 Bft) 95,65 %
17.04.2018 21:50 13,4 C 11,7 C 80 % 1026,7 hPa 0,0 l/m 1,3 km/h (1 Bft) SW 229 0 min 0,000 mm 0,0 UV-I 0 W/m 10,0 C 13,4 C 1,6 km/h (1 Bft) 95,83 %
17.04.2018 21:51 13,4 C 11,7 C 80 % 1026,7 hPa 0,0 l/m 0,9 km/h (0 Bft) SW 229 0 min 0,000 mm 0,0 UV-I 0 W/m 10,0 C 13,4 C 1,6 km/h (1 Bft) 95,65 %
17.04.2018 21:52 13,4 C 11,7 C 79 % 1026,7 hPa 0,0 l/m 1,1 km/h (1 Bft) SW 229 0 min 0,000 mm 0,0 UV-I 0 W/m 9,8 C 13,4 C 1,6 km/h (1 Bft) 95,83 %
17.04.2018 21:53 13,4 C 11,7 C 79 % 1026,7 hPa 0,0 l/m 0,4 km/h (0 Bft) SW 229 0 min 0,000 mm 0,0 UV-I 0 W/m 9,8 C 13,4 C 1,6 km/h (1 Bft) 95,65 %
17.04.2018 21:54 13,4 C 11,7 C 79 % 1026,7 hPa 0,0 l/m 1,1 km/h (1 Bft) SW 229 0 min 0,000 mm 0,0 UV-I 0 W/m 9,8 C 13,4 C 3,2 km/h (1 Bft) 95,83 %
17.04.2018 21:55 13,4 C 11,7 C 79 % 1026,7 hPa 0,0 l/m 2,1 km/h (1 Bft) SW 229 0 min 0,000 mm 0,0 UV-I 0 W/m 9,8 C 13,4 C 3,2 km/h (1 Bft) 92,31 %
17.04.2018 21:56 13,4 C 11,7 C 79 % 1026,7 hPa 0,0 l/m 2,3 km/h (1 Bft) SW 229 0 min 0,000 mm 0,0 UV-I 0 W/m 9,8 C 13,4 C 3,2 km/h (1 Bft) 100,00 %
17.04.2018 21:57 13,3 C 11,7 C 79 % 1026,7 hPa 0,0 l/m 2,6 km/h (1 Bft) SW 229 0 min 0,000 mm 0,0 UV-I 0 W/m 9,7 C 13,3 C 3,2 km/h (1 Bft) 93,33 %
17.04.2018 21:58 13,3 C 11,7 C 79 % 1026,7 hPa 0,0 l/m 3,2 km/h (1 Bft) SW 228 0 min 0,000 mm 0,0 UV-I 0 W/m 9,7 C 13,3 C 4,8 km/h (1 Bft) 100,00 %
17.04.2018 21:59 13,2 C 11,7 C 79 % 1026,8 hPa 0,0 l/m 3,3 km/h (1 Bft) SW 228 0 min 0,000 mm 0,0 UV-I 0 W/m 9,6 C 13,2 C 4,8 km/h (1 Bft) 95,83 %
17.04.2018 22:00 13,1 C 11,7 C 80 % 1026,7 hPa 0,0 l/m 2,8 km/h (1 Bft) SW 228 0 min 0,026 mm 0,0 UV-I 0 W/m 9,7 C 13,1 C 3,2 km/h (1 Bft) 100,00 %
17.04.2018 22:01 12,9 C 11,7 C 81 % 1026,8 hPa 0,0 l/m 2,3 km/h (1 Bft) SW 228 0 min 0,000 mm 0,0 UV-I 0 W/m 9,7 C 12,9 C 3,2 km/h (1 Bft) 95,83 %
17.04.2018 22:02 12,8 C 11,7 C 82 % 1026,8 hPa 0,0 l/m 1,9 km/h (1 Bft) SW 228 0 min 0,000 mm 0,0 UV-I 0 W/m 9,8 C 12,8 C 3,2 km/h (1 Bft) 100,00 %
17.04.2018 22:03 12,8 C 11,7 C 82 % 1026,8 hPa 0,0 l/m 2,0 km/h (1 Bft) SW 228 0 min 0,000 mm 0,0 UV-I 0 W/m 9,8 C 12,8 C 3,2 km/h (1 Bft) 96,30 %
17.04.2018 22:04 12,8 C 11,7 C 82 % 1026,8 hPa 0,0 l/m 1,8 km/h (1 Bft) SW 228 0 min 0,000 mm 0,0 UV-I 0 W/m 9,8 C 12,8 C 3,2 km/h (1 Bft) 92,31 %
17.04.2018 22:05 12,9 C 11,7 C 82 % 1026,8 hPa 0,0 l/m 1,8 km/h (1 Bft) SW 228 0 min 0,000 mm 0,0 UV-I 0 W/m 9,9 C 12,9 C 3,2 km/h (1 Bft) 95,83 %
17.04.2018 22:06 13,1 C 11,7 C 82 % 1026,8 hPa 0,0 l/m 2,1 km/h (1 Bft) SW 229 0 min 0,000 mm 0,0 UV-I 0 W/m 10,1 C 13,1 C 3,2 km/h (1 Bft) 100,00 %
17.04.2018 22:07 13,3 C 11,7 C 81 % 1026,8 hPa 0,0 l/m 1,9 km/h (1 Bft) SW 228 0 min 0,000 mm 0,0 UV-I 0 W/m 10,1 C 13,3 C 3,2 km/h (1 Bft) 95,83 %
17.04.2018 22:08 13,5 C 11,7 C 80 % 1026,8 hPa 0,0 l/m 2,3 km/h (1 Bft) SW 229 0 min 0,000 mm 0,0 UV-I 0 W/m 10,1 C 13,5 C 3,2 km/h (1 Bft) 95,65 %
17.04.2018 22:09 13,7 C 11,7 C 79 % 1026,8 hPa 0,0 l/m 2,3 km/h (1 Bft) SW 229 0 min 0,000 mm 0,0 UV-I 0 W/m 10,1 C 13,7 C 3,2 km/h (1 Bft) 95,83 %
17.04.2018 22:10 13,7 C 11,7 C 78 % 1026,8 hPa 0,0 l/m 2,3 km/h (1 Bft) SW 228 0 min 0,000 mm 0,0 UV-I 0 W/m 9,9 C 13,7 C 3,2 km/h (1 Bft) 100,00 %
17.04.2018 22:11 13,7 C 11,7 C 78 % 1026,9 hPa 0,0 l/m 3,0 km/h (1 Bft) SW 229 0 min 0,000 mm 0,0 UV-I 0 W/m 9,9 C 13,7 C 3,2 km/h (1 Bft) 100,00 %
17.04.2018 22:12 13,7 C 11,7 C 79 % 1026,9 hPa 0,0 l/m 2,5 km/h (1 Bft) SW 228 0 min 0,000 mm 0,0 UV-I 0 W/m 10,1 C 13,7 C 3,2 km/h (1 Bft) 100,00 %
17.04.2018 22:13 13,5 C 11,7 C 79 % 1026,8 hPa 0,0 l/m 2,5 km/h (1 Bft) SW 229 0 min 0,000 mm 0,0 UV-I 0 W/m 9,9 C 13,5 C 3,2 km/h (1 Bft) 95,65 %
17.04.2018 22:14 13,3 C 11,7 C 79 % 1026,9 hPa 0,0 l/m 2,1 km/h (1 Bft) SW 228 0 min 0,000 mm 0,0 UV-I 0 W/m 9,7 C 13,3 C 3,2 km/h (1 Bft) 100,00 %
17.04.2018 22:15 13,3 C 11,7 C 80 % 1026,8 hPa 0,0 l/m 2,8 km/h (1 Bft) SW 229 0 min 0,000 mm 0,0 UV-I 0 W/m 9,9 C 13,3 C 3,2 km/h (1 Bft) 100,00 %
17.04.2018 22:16 13,4 C 11,7 C 80 % 1026,9 hPa 0,0 l/m 3,2 km/h (1 Bft) SW 229 0 min 0,000 mm 0,0 UV-I 0 W/m 10,0 C 13,4 C 4,8 km/h (1 Bft) 100,00 %
17.04.2018 22:17 13,4 C 11,7 C 80 % 1026,9 hPa 0,0 l/m 3,3 km/h (1 Bft) SW 229 0 min 0,000 mm 0,0 UV-I 0 W/m 10,0 C 13,4 C 4,8 km/h (1 Bft) 100,00 %
17.04.2018 22:18 13,4 C 11,7 C 80 % 1026,8 hPa 0,0 l/m 3,9 km/h (1 Bft) SW 229 0 min 0,000 mm 0,0 UV-I 0 W/m 10,0 C 13,4 C 4,8 km/h (1 Bft) 100,00 %
17.04.2018 22:19 13,5 C 11,7 C 79 % 1026,9 hPa 0,0 l/m 3,6 km/h (1 Bft) SW 229 0 min 0,000 mm 0,0 UV-I 0 W/m 9,9 C 13,5 C 4,8 km/h (1 Bft) 100,00 %
17.04.2018 22:20 13,5 C 11,7 C 80 % 1026,9 hPa 0,0 l/m 2,6 km/h (1 Bft) SW 229 0 min 0,000 mm 0,0 UV-I 0 W/m 10,1 C 13,5 C 4,8 km/h (1 Bft) 100,00 %
17.04.2018 22:21 13,5 C 11,7 C 79 % 1027,0 hPa 0,0 l/m 3,4 km/h (1 Bft) SW 229 0 min 0,000 mm 0,0 UV-I 0 W/m 9,9 C 13,5 C 4,8 km/h (1 Bft) 95,65 %
17.04.2018 22:26 12,8 C 11,7 C 80 % 1027,0 hPa 0,0 l/m 3,9 km/h (1 Bft) SW 229 0 min 0,000 mm 0,0 UV-I 0 W/m 9,4 C 12,8 C 4,8 km/h (1 Bft) 100,00 %
17.04.2018 22:27 12,8 C 11,7 C 81 % 1027,0 hPa 0,0 l/m 3,9 km/h (1 Bft) SW 228 0 min 0,000 mm 0,0 UV-I 0 W/m 9,6 C 12,8 C 4,8 km/h (1 Bft) 100,00 %
17.04.2018 22:28 12,7 C 11,7 C 82 % 1027,0 hPa 0,0 l/m 4,2 km/h (1 Bft) SW 229 0 min 0,000 mm 0,0 UV-I 0 W/m 9,7 C 12,7 C 4,8 km/h (1 Bft) 100,00 %
17.04.2018 22:29 12,7 C 11,7 C 82 % 1026,9 hPa 0,0 l/m 3,8 km/h (1 Bft) SW 228 0 min 0,000 mm 0,0 UV-I 0 W/m 9,7 C 12,7 C 4,8 km/h (1 Bft) 95,65 %
17.04.2018 22:30 12,7 C 11,7 C 82 % 1027,0 hPa 0,0 l/m 3,8 km/h (1 Bft) SW 228 0 min 0,000 mm 0,0 UV-I 0 W/m 9,7 C 12,7 C 4,8 km/h (1 Bft) 100,00 %
17.04.2018 22:31 12,7 C 11,7 C 82 % 1027,0 hPa 0,0 l/m 3,4 km/h (1 Bft) SW 228 0 min 0,000 mm 0,0 UV-I 0 W/m 9,7 C 12,7 C 4,8 km/h (1 Bft) 100,00 %
17.04.2018 22:33 12,7 C 11,7 C 82 % 1027,0 hPa 0,0 l/m 4,3 km/h (1 Bft) SW 228 0 min 0,000 mm 0,0 UV-I 0 W/m 9,7 C 12,7 C 4,8 km/h (1 Bft) 97,87 %
17.04.2018 22:34 12,8 C 11,7 C 82 % 1027,0 hPa 0,0 l/m 3,4 km/h (1 Bft) SW 228 0 min 0,000 mm 0,0 UV-I 0 W/m 9,8 C 12,8 C 4,8 km/h (1 Bft) 100,00 %
17.04.2018 22:35 12,8 C 11,7 C 82 % 1027,0 hPa 0,0 l/m 3,4 km/h (1 Bft) SW 228 0 min 0,000 mm 0,0 UV-I 0 W/m 9,8 C 12,8 C 4,8 km/h (1 Bft) 100,00 %
17.04.2018 22:36 12,9 C 11,7 C 81 % 1027,0 hPa 0,0 l/m 2,1 km/h (1 Bft) SW 228 0 min 0,000 mm 0,0 UV-I 0 W/m 9,7 C 12,9 C 3,2 km/h (1 Bft) 95,83 %
17.04.2018 22:38 12,9 C 11,7 C 82 % 1027,1 hPa 0,0 l/m 3,1 km/h (1 Bft) SW 228 0 min 0,000 mm 0,0 UV-I 0 W/m 9,9 C 12,9 C 4,8 km/h (1 Bft) 100,00 %
17.04.2018 22:39 12,9 C 11,7 C 82 % 1027,1 hPa 0,0 l/m 3,8 km/h (1 Bft) SW 228 0 min 0,000 mm 0,0 UV-I 0 W/m 9,9 C 12,9 C 4,8 km/h (1 Bft) 100,00 %
17.04.2018 22:40 12,9 C 11,7 C 82 % 1027,1 hPa 0,0 l/m 3,4 km/h (1 Bft) SW 228 0 min 0,000 mm 0,0 UV-I 0 W/m 9,9 C 12,9 C 4,8 km/h (1 Bft) 100,00 %
17.04.2018 22:41 12,9 C 11,7 C 82 % 1027,1 hPa 0,0 l/m 3,2 km/h (1 Bft) SW 228 0 min 0,000 mm 0,0 UV-I 0 W/m 9,9 C 12,9 C 4,8 km/h (1 Bft) 100,00 %
17.04.2018 22:42 12,9 C 11,7 C 82 % 1027,1 hPa 0,0 l/m 3,2 km/h (1 Bft) SW 228 0 min 0,000 mm 0,0 UV-I 0 W/m 9,9 C 12,9 C 3,2 km/h (1 Bft) 100,00 %
17.04.2018 22:43 13,0 C 11,7 C 82 % 1027,1 hPa 0,0 l/m 3,2 km/h (1 Bft) SW 228 0 min 0,000 mm 0,0 UV-I 0 W/m 10,0 C 13,0 C 3,2 km/h (1 Bft) 100,00 %
17.04.2018 22:44 13,0 C 11,7 C 82 % 1027,1 hPa 0,0 l/m 3,1 km/h (1 Bft) SW 228 0 min 0,000 mm 0,0 UV-I 0 W/m 10,0 C 13,0 C 3,2 km/h (1 Bft) 100,00 %
17.04.2018 22:45 13,1 C 11,7 C 81 % 1027,1 hPa 0,0 l/m 2,3 km/h (1 Bft) SW 228 0 min 0,000 mm 0,0 UV-I 0 W/m 9,9 C 13,1 C 3,2 km/h (1 Bft) 95,83 %
17.04.2018 22:46 13,1 C 11,7 C 81 % 1027,2 hPa 0,0 l/m 2,5 km/h (1 Bft) SW 228 0 min 0,000 mm 0,0 UV-I 0 W/m 9,9 C 13,1 C 3,2 km/h (1 Bft) 100,00 %
17.04.2018 22:48 13,2 C 11,7 C 82 % 1027,2 hPa 0,0 l/m 1,9 km/h (1 Bft) SW 228 0 min 0,000 mm 0,0 UV-I 0 W/m 10,2 C 13,2 C 3,2 km/h (1 Bft) 95,74 %
17.04.2018 22:49 13,2 C 11,7 C 81 % 1027,2 hPa 0,0 l/m 1,6 km/h (1 Bft) SW 228 0 min 0,000 mm 0,0 UV-I 0 W/m 10,0 C 13,2 C 1,6 km/h (1 Bft) 100,00 %
17.04.2018 22:50 13,3 C 11,7 C 81 % 1027,2 hPa 0,0 l/m 1,7 km/h (1 Bft) SW 228 0 min 0,000 mm 0,0 UV-I 0 W/m 10,1 C 13,3 C 3,2 km/h (1 Bft) 100,00 %
17.04.2018 22:51 13,3 C 11,7 C 81 % 1027,1 hPa 0,0 l/m 1,7 km/h (1 Bft) SW 228 0 min 0,000 mm 0,0 UV-I 0 W/m 10,1 C 13,3 C 3,2 km/h (1 Bft) 100,00 %
17.04.2018 22:52 13,3 C 11,7 C 81 % 1027,1 hPa 0,0 l/m 2,3 km/h (1 Bft) SW 228 0 min 0,000 mm 0,0 UV-I 0 W/m 10,1 C 13,3 C 3,2 km/h (1 Bft) 100,00 %
17.04.2018 22:53 13,3 C 11,7 C 81 % 1027,1 hPa 0,0 l/m 2,1 km/h (1 Bft) SW 228 0 min 0,000 mm 0,0 UV-I 0 W/m 10,1 C 13,3 C 3,2 km/h (1 Bft) 100,00 %
17.04.2018 22:54 13,2 C 11,7 C 82 % 1027,1 hPa 0,0 l/m 2,1 km/h (1 Bft) SW 229 0 min 0,000 mm 0,0 UV-I 0 W/m 10,2 C 13,2 C 3,2 km/h (1 Bft) 95,83 %
17.04.2018 22:55 13,2 C 11,7 C 82 % 1027,1 hPa 0,0 l/m 1,7 km/h (1 Bft) SW 229 0 min 0,000 mm 0,0 UV-I 0 W/m 10,2 C 13,2 C 3,2 km/h (1 Bft) 100,00 %
17.04.2018 22:56 13,2 C 11,7 C 82 % 1027,1 hPa 0,0 l/m 1,5 km/h (1 Bft) SW 229 0 min 0,000 mm 0,0 UV-I 0 W/m 10,2 C 13,2 C 3,2 km/h (1 Bft) 100,00 %
17.04.2018 22:58 13,1 C 11,7 C 83 % 1027,1 hPa 0,0 l/m 1,7 km/h (1 Bft) SW 229 0 min 0,000 mm 0,0 UV-I 0 W/m 10,3 C 13,1 C 3,2 km/h (1 Bft) 100,00 %
17.04.2018 22:59 13,0 C 11,7 C 83 % 1027,1 hPa 0,0 l/m 1,5 km/h (1 Bft) SW 229 0 min 0,000 mm 0,0 UV-I 0 W/m 10,2 C 13,0 C 3,2 km/h (1 Bft) 100,00 %
17.04.2018 23:00 12,9 C 11,7 C 83 % 1027,2 hPa 0,0 l/m 0,0 km/h (0 Bft) SW 229 0 min 0,000 mm 0,0 UV-I 0 W/m 10,1 C 12,9 C 0,0 km/h (0 Bft) 100,00 %
17.04.2018 23:02 12,9 C 11,7 C 83 % 1027,2 hPa 0,0 l/m 0,3 km/h (0 Bft) SW 229 0 min 0,000 mm 0,0 UV-I 0 W/m 10,1 C 12,9 C 1,6 km/h (1 Bft) 97,87 %
17.04.2018 23:03 12,8 C 11,7 C 83 % 1027,2 hPa 0,0 l/m 1,9 km/h (1 Bft) SW 229 0 min 0,000 mm 0,0 UV-I 0 W/m 10,0 C 12,8 C 3,2 km/h (1 Bft) 100,00 %
17.04.2018 23:04 12,8 C 11,7 C 83 % 1027,2 hPa 0,0 l/m 1,9 km/h (1 Bft) SW 229 0 min 0,000 mm 0,0 UV-I 0 W/m 10,0 C 12,8 C 3,2 km/h (1 Bft) 100,00 %
17.04.2018 23:05 12,7 C 11,7 C 84 % 1027,2 hPa 0,0 l/m 2,2 km/h (1 Bft) SW 229 0 min 0,000 mm 0,0 UV-I 0 W/m 10,1 C 12,7 C 3,2 km/h (1 Bft) 95,65 %
17.04.2018 23:06 12,6 C 11,7 C 84 % 1027,3 hPa 0,0 l/m 2,0 km/h (1 Bft) SW 229 0 min 0,000 mm 0,0 UV-I 0 W/m 10,0 C 12,6 C 3,2 km/h (1 Bft) 100,00 %
17.04.2018 23:08 12,6 C 11,7 C 84 % 1027,3 hPa 0,0 l/m 3,3 km/h (1 Bft) SW 229 0 min 0,000 mm 0,0 UV-I 0 W/m 10,0 C 12,6 C 4,8 km/h (1 Bft) 100,00 %
17.04.2018 23:09 12,7 C 11,7 C 84 % 1027,3 hPa 0,0 l/m 2,7 km/h (1 Bft) SW 229 0 min 0,000 mm 0,0 UV-I 0 W/m 10,1 C 12,7 C 3,2 km/h (1 Bft) 100,00 %
17.04.2018 23:10 12,7 C 11,7 C 84 % 1027,3 hPa 0,0 l/m 2,2 km/h (1 Bft) SW 228 0 min 0,000 mm 0,0 UV-I 0 W/m 10,1 C 12,7 C 3,2 km/h (1 Bft) 100,00 %
17.04.2018 23:11 12,7 C 11,7 C 84 % 1027,3 hPa 0,0 l/m 3,2 km/h (1 Bft) SW 228 0 min 0,000 mm 0,0 UV-I 0 W/m 10,1 C 12,7 C 3,2 km/h (1 Bft) 95,65 %
17.04.2018 23:13 12,7 C 11,7 C 83 % 1027,4 hPa 0,0 l/m 2,6 km/h (1 Bft) SW 229 0 min 0,000 mm 0,0 UV-I 0 W/m 9,9 C 12,7 C 3,2 km/h (1 Bft) 95,74 %
17.04.2018 23:14 12,7 C 11,7 C 84 % 1027,4 hPa 0,0 l/m 2,3 km/h (1 Bft) SW 228 0 min 0,000 mm 0,0 UV-I 0 W/m 10,1 C 12,7 C 3,2 km/h (1 Bft) 100,00 %
17.04.2018 23:15 12,7 C 11,7 C 84 % 1027,3 hPa 0,0 l/m 2,3 km/h (1 Bft) SW 228 0 min 0,000 mm 0,0 UV-I 0 W/m 10,1 C 12,7 C 3,2 km/h (1 Bft) 100,00 %
17.04.2018 23:16 12,6 C 11,7 C 84 % 1027,3 hPa 0,0 l/m 2,3 km/h (1 Bft) SW 228 0 min 0,000 mm 0,0 UV-I 0 W/m 10,0 C 12,6 C 3,2 km/h (1 Bft) 100,00 %
17.04.2018 23:17 12,4 C 11,7 C 84 % 1027,3 hPa 0,0 l/m 1,7 km/h (1 Bft) SW 229 0 min 0,000 mm 0,0 UV-I 0 W/m 9,8 C 12,4 C 3,2 km/h (1 Bft) 100,00 %
17.04.2018 23:18 12,3 C 11,7 C 85 % 1027,4 hPa 0,0 l/m 1,1 km/h (1 Bft) SW 228 0 min 0,000 mm 0,0 UV-I 0 W/m 9,9 C 12,3 C 1,6 km/h (1 Bft) 100,00 %
17.04.2018 23:19 12,3 C 11,7 C 85 % 1027,4 hPa 0,0 l/m 0,2 km/h (0 Bft) SW 229 0 min 0,000 mm 0,0 UV-I 0 W/m 9,9 C 12,3 C 1,6 km/h (1 Bft) 100,00 %
17.04.2018 23:20 12,3 C 11,7 C 86 % 1027,4 hPa 0,0 l/m 0,0 km/h (0 Bft) SW 228 0 min 0,000 mm 0,0 UV-I 0 W/m 10,0 C 12,3 C 0,0 km/h (0 Bft) 100,00 %
17.04.2018 23:21 12,3 C 11,7 C 85 % 1027,4 hPa 0,0 l/m 0,0 km/h (0 Bft) SW 228 0 min 0,000 mm 0,0 UV-I 0 W/m 9,9 C 12,3 C 0,0 km/h (0 Bft) 100,00 %
17.04.2018 23:22 12,3 C 11,7 C 85 % 1027,4 hPa 0,0 l/m 0,1 km/h (0 Bft) SW 228 0 min 0,000 mm 0,0 UV-I 0 W/m 9,9 C 12,3 C 1,6 km/h (1 Bft) 100,00 %
17.04.2018 23:23 12,3 C 11,7 C 85 % 1027,4 hPa 0,0 l/m 0,0 km/h (0 Bft) SW 228 0 min 0,000 mm 0,0 UV-I 0 W/m 9,9 C 12,3 C 0,0 km/h (0 Bft) 100,00 %
17.04.2018 23:24 12,4 C 11,7 C 85 % 1027,5 hPa 0,0 l/m 0,9 km/h (0 Bft) SW 228 0 min 0,000 mm 0,0 UV-I 0 W/m 9,9 C 12,4 C 3,2 km/h (1 Bft) 95,65 %
17.04.2018 23:25 12,6 C 11,7 C 85 % 1027,5 hPa 0,0 l/m 2,6 km/h (1 Bft) SW 228 0 min 0,000 mm 0,0 UV-I 0 W/m 10,1 C 12,6 C 3,2 km/h (1 Bft) 100,00 %
17.04.2018 23:26 12,6 C 11,7 C 84 % 1027,5 hPa 0,0 l/m 1,9 km/h (1 Bft) SW 228 0 min 0,000 mm 0,0 UV-I 0 W/m 10,0 C 12,6 C 3,2 km/h (1 Bft) 95,65 %
17.04.2018 23:28 12,8 C 11,7 C 83 % 1027,5 hPa 0,0 l/m 3,4 km/h (1 Bft) SW 229 0 min 0,000 mm 0,0 UV-I 0 W/m 10,0 C 12,8 C 4,8 km/h (1 Bft) 97,87 %
17.04.2018 23:29 12,9 C 11,7 C 82 % 1027,5 hPa 0,0 l/m 2,8 km/h (1 Bft) SW 229 0 min 0,000 mm 0,0 UV-I 0 W/m 9,9 C 12,9 C 3,2 km/h (1 Bft) 100,00 %
17.04.2018 23:30 12,9 C 11,7 C 82 % 1027,5 hPa 0,0 l/m 2,8 km/h (1 Bft) SW 229 0 min 0,000 mm 0,0 UV-I 0 W/m 9,9 C 12,9 C 3,2 km/h (1 Bft) 100,00 %
17.04.2018 23:31 12,9 C 11,7 C 82 % 1027,5 hPa 0,0 l/m 3,2 km/h (1 Bft) SW 229 0 min 0,000 mm 0,0 UV-I 0 W/m 9,9 C 12,9 C 4,8 km/h (1 Bft) 100,00 %
17.04.2018 23:33 12,7 C 11,7 C 83 % 1027,6 hPa 0,0 l/m 4,1 km/h (1 Bft) SW 229 0 min 0,000 mm 0,0 UV-I 0 W/m 9,9 C 12,7 C 4,8 km/h (1 Bft) 91,49 %
17.04.2018 23:34 12,7 C 11,7 C 83 % 1027,6 hPa 0,0 l/m 4,1 km/h (1 Bft) SW 229 0 min 0,000 mm 0,0 UV-I 0 W/m 9,9 C 12,7 C 4,8 km/h (1 Bft) 91,30 %
17.04.2018 23:35 12,6 C 11,7 C 83 % 1027,5 hPa 0,0 l/m 4,4 km/h (1 Bft) SW 229 0 min 0,000 mm 0,0 UV-I 0 W/m 9,8 C 12,6 C 4,8 km/h (1 Bft) 95,83 %
17.04.2018 23:36 12,6 C 11,7 C 83 % 1027,6 hPa 0,0 l/m 4,4 km/h (1 Bft) SW 229 0 min 0,000 mm 0,0 UV-I 0 W/m 9,8 C 12,6 C 6,4 km/h (2 Bft) 100,00 %
17.04.2018 23:38 12,6 C 11,7 C 83 % 1027,6 hPa 0,0 l/m 5,2 km/h (1 Bft) SW 229 0 min 0,000 mm 0,0 UV-I 0 W/m 9,8 C 12,6 C 6,4 km/h (2 Bft) 96,00 %
17.04.2018 23:39 12,6 C 11,7 C 83 % 1027,6 hPa 0,0 l/m 5,2 km/h (1 Bft) SW 229 0 min 0,000 mm 0,0 UV-I 0 W/m 9,8 C 12,6 C 6,4 km/h (2 Bft) 95,83 %
17.04.2018 23:40 12,5 C 11,7 C 83 % 1027,6 hPa 0,0 l/m 5,0 km/h (1 Bft) SW 229 0 min 0,000 mm 0,0 UV-I 0 W/m 9,7 C 12,5 C 6,4 km/h (2 Bft) 95,83 %
17.04.2018 23:41 12,4 C 11,7 C 83 % 1027,6 hPa 0,0 l/m 4,1 km/h (1 Bft) SW 229 0 min 0,000 mm 0,0 UV-I 0 W/m 9,6 C 12,4 C 4,8 km/h (1 Bft) 95,65 %
17.04.2018 23:42 12,3 C 11,7 C 83 % 1027,6 hPa 0,0 l/m 3,8 km/h (1 Bft) SW 229 0 min 0,000 mm 0,0 UV-I 0 W/m 9,5 C 12,3 C 4,8 km/h (1 Bft) 95,83 %
17.04.2018 23:43 12,3 C 11,7 C 83 % 1027,6 hPa 0,0 l/m 4,2 km/h (1 Bft) SW 229 0 min 0,000 mm 0,0 UV-I 0 W/m 9,5 C 12,3 C 4,8 km/h (1 Bft) 92,86 %
17.04.2018 23:44 12,2 C 11,7 C 84 % 1027,6 hPa 0,0 l/m 4,0 km/h (1 Bft) SW 229 0 min 0,000 mm 0,0 UV-I 0 W/m 9,6 C 12,2 C 4,8 km/h (1 Bft) 95,83 %
17.04.2018 23:45 12,0 C 11,7 C 84 % 1027,7 hPa 0,0 l/m 3,7 km/h (1 Bft) SW 229 0 min 0,000 mm 0,0 UV-I 0 W/m 9,4 C 12,0 C 4,8 km/h (1 Bft) 100,00 %
17.04.2018 23:46 11,8 C 11,7 C 84 % 1027,7 hPa 0,0 l/m 4,0 km/h (1 Bft) SW 228 0 min 0,000 mm 0,0 UV-I 0 W/m 9,2 C 11,8 C 4,8 km/h (1 Bft) 95,83 %
17.04.2018 23:47 11,7 C 11,7 C 85 % 1027,7 hPa 0,0 l/m 3,4 km/h (1 Bft) SW 229 0 min 0,000 mm 0,0 UV-I 0 W/m 9,3 C 11,7 C 4,8 km/h (1 Bft) 95,65 %
17.04.2018 23:48 11,7 C 11,7 C 86 % 1027,7 hPa 0,0 l/m 3,4 km/h (1 Bft) SW 229 0 min 0,000 mm 0,0 UV-I 0 W/m 9,4 C 11,7 C 4,8 km/h (1 Bft) 95,83 %
17.04.2018 23:49 11,7 C 11,7 C 86 % 1027,7 hPa 0,0 l/m 4,0 km/h (1 Bft) SW 229 0 min 0,000 mm 0,0 UV-I 0 W/m 9,4 C 11,7 C 4,8 km/h (1 Bft) 100,00 %
17.04.2018 23:50 11,7 C 11,7 C 86 % 1027,7 hPa 0,0 l/m 4,4 km/h (1 Bft) SW 229 0 min 0,000 mm 0,0 UV-I 0 W/m 9,4 C 11,7 C 4,8 km/h (1 Bft) 95,83 %
17.04.2018 23:51 11,7 C 11,7 C 86 % 1027,7 hPa 0,0 l/m 3,0 km/h (1 Bft) SW 228 0 min 0,000 mm 0,0 UV-I 0 W/m 9,4 C 11,7 C 3,2 km/h (1 Bft) 95,65 %
17.04.2018 23:53 11,7 C 11,7 C 86 % 1027,7 hPa 0,0 l/m 4,3 km/h (1 Bft) SW 228 0 min 0,000 mm 0,0 UV-I 0 W/m 9,4 C 11,7 C 4,8 km/h (1 Bft) 94,92 %
17.04.2018 23:54 11,8 C 11,7 C 86 % 1027,7 hPa 0,0 l/m 4,4 km/h (1 Bft) SW 228 0 min 0,000 mm 0,0 UV-I 0 W/m 9,5 C 11,8 C 4,8 km/h (1 Bft) 100,00 %
17.04.2018 23:55 11,8 C 11,7 C 86 % 1027,7 hPa 0,0 l/m 4,8 km/h (1 Bft) SW 228 0 min 0,000 mm 0,0 UV-I 0 W/m 9,5 C 11,8 C 4,8 km/h (1 Bft) 95,83 %
17.04.2018 23:56 11,8 C 11,7 C 85 % 1027,8 hPa 0,0 l/m 4,0 km/h (1 Bft) SW 227 0 min 0,000 mm 0,0 UV-I 0 W/m 9,4 C 11,8 C 4,8 km/h (1 Bft) 95,65 %
17.04.2018 23:58 11,8 C 11,7 C 86 % 1027,9 hPa 0,0 l/m 5,0 km/h (1 Bft) SW 227 0 min 0,000 mm 0,0 UV-I 0 W/m 9,5 C 11,8 C 6,4 km/h (2 Bft) 94,92 %
17.04.2018 23:59 11,9 C 11,7 C 86 % 1027,9 hPa 0,0 l/m 4,7 km/h (1 Bft) SW 227 0 min 0,000 mm 0,0 UV-I 0 W/m 9,6 C 11,9 C 4,8 km/h (1 Bft) 100,00 %
_ Min-Zeit 06:49 00:00 15:49 00:00 - 02:40 - - - - - - 06:49 05:55 02:40 06:06
Minimum _ 8,7 C 11,7 C 46 % 1018,0 hPa - 0,0 km/h (0 Bft) - - - - - - 8,1 C 8,7 C 0,0 km/h (0 Bft) 86,67 %
_ Max-Zeit 16:17 00:00 08:43 23:58 10:03 16:52 - - 13:23 15:00 12:40 14:20 11:20 16:16 16:52 00:05
Maximum _ 20,5 C 11,7 C 98 % 1027,9 hPa 0,2 l/m 14,6 km/h
N-NW (3 Bft)
- - 2 min 0,432 mm 3,3 UV-I 886 W/m 12,4 C 20,4 C 20,9 km/h
N (4 Bft)
100,00 %
Durchschnitt _ 14,4 C 11,7 C 78 % 1023,2 hPa #0,2 l/m 4,0 km/h (1 Bft) SW - #9:27 h #3,226 mm 2,0 UV-I 383 W/m 10,0 C 14,2 C 6,1 km/h (2 Bft) 97,88 %